<?xml version="1.0" encoding="UTF-8" standalone="no" ?>
<gpx xmlns="http://www.topografix.com/GPX/1/1" xmlns:xsi="http://www.w3.org/2001/XMLSchema-instance" xsi:schemaLocation="http://www.topografix.com/GPX/1/1 http://www.topografix.com/GPX/1/1/gpx.xsd" version="1.1" creator="VisuGPX - https://www.visugpx.com">
  <metadata>
    <name>Hauteurs du Vexin </name>
  </metadata>
  <trk>
    <name><![CDATA[Hauteurs du Vexin _1]]></name>
    <trkseg>
      <trkpt lat="49.14268" lon="2.02201">
        <ele>201.4</ele>
        <time>2022-04-10T07:47:02Z</time>
      </trkpt>
      <trkpt lat="49.14268" lon="2.02212">
        <ele>201.4</ele>
        <time>2022-04-10T07:47:07Z</time>
      </trkpt>
      <trkpt lat="49.14268" lon="2.02224">
        <ele>201.6</ele>
        <time>2022-04-10T07:47:13Z</time>
      </trkpt>
      <trkpt lat="49.14268" lon="2.02233">
        <ele>201.6</ele>
        <time>2022-04-10T07:47:19Z</time>
      </trkpt>
      <trkpt lat="49.14269" lon="2.02238">
        <ele>201.6</ele>
        <time>2022-04-10T07:47:25Z</time>
      </trkpt>
      <trkpt lat="49.14265" lon="2.02249">
        <ele>201.6</ele>
        <time>2022-04-10T07:47:31Z</time>
      </trkpt>
      <trkpt lat="49.14261" lon="2.0226">
        <ele>201.6</ele>
        <time>2022-04-10T07:47:37Z</time>
      </trkpt>
      <trkpt lat="49.14258" lon="2.02269">
        <ele>201.6</ele>
        <time>2022-04-10T07:47:42Z</time>
      </trkpt>
      <trkpt lat="49.14255" lon="2.02278">
        <ele>201.6</ele>
        <time>2022-04-10T07:47:47Z</time>
      </trkpt>
      <trkpt lat="49.14253" lon="2.02289">
        <ele>201.6</ele>
        <time>2022-04-10T07:47:53Z</time>
      </trkpt>
      <trkpt lat="49.14249" lon="2.023">
        <ele>201.6</ele>
        <time>2022-04-10T07:47:59Z</time>
      </trkpt>
      <trkpt lat="49.14246" lon="2.02313">
        <ele>201.6</ele>
        <time>2022-04-10T07:48:05Z</time>
      </trkpt>
      <trkpt lat="49.14242" lon="2.02323">
        <ele>201.6</ele>
        <time>2022-04-10T07:48:11Z</time>
      </trkpt>
      <trkpt lat="49.14237" lon="2.02328">
        <ele>201.6</ele>
        <time>2022-04-10T07:48:16Z</time>
      </trkpt>
      <trkpt lat="49.14234" lon="2.02336">
        <ele>201.6</ele>
        <time>2022-04-10T07:48:21Z</time>
      </trkpt>
      <trkpt lat="49.14231" lon="2.02344">
        <ele>201.6</ele>
        <time>2022-04-10T07:48:27Z</time>
      </trkpt>
      <trkpt lat="49.14223" lon="2.02352">
        <ele>201.6</ele>
        <time>2022-04-10T07:48:33Z</time>
      </trkpt>
      <trkpt lat="49.14218" lon="2.0236">
        <ele>201.6</ele>
        <time>2022-04-10T07:48:38Z</time>
      </trkpt>
      <trkpt lat="49.14214" lon="2.02369">
        <ele>199.4</ele>
        <time>2022-04-10T07:48:44Z</time>
      </trkpt>
      <trkpt lat="49.14214" lon="2.0238">
        <ele>198.9</ele>
        <time>2022-04-10T07:48:50Z</time>
      </trkpt>
      <trkpt lat="49.14215" lon="2.02394">
        <ele>198.6</ele>
        <time>2022-04-10T07:48:55Z</time>
      </trkpt>
      <trkpt lat="49.14216" lon="2.02406">
        <ele>198.1</ele>
        <time>2022-04-10T07:49:01Z</time>
      </trkpt>
      <trkpt lat="49.14215" lon="2.02418">
        <ele>197.8</ele>
        <time>2022-04-10T07:49:07Z</time>
      </trkpt>
      <trkpt lat="49.14213" lon="2.02431">
        <ele>197.1</ele>
        <time>2022-04-10T07:49:13Z</time>
      </trkpt>
      <trkpt lat="49.14211" lon="2.02443">
        <ele>196.5</ele>
        <time>2022-04-10T07:49:18Z</time>
      </trkpt>
      <trkpt lat="49.1421" lon="2.02452">
        <ele>195.9</ele>
        <time>2022-04-10T07:49:23Z</time>
      </trkpt>
      <trkpt lat="49.14208" lon="2.02464">
        <ele>195.1</ele>
        <time>2022-04-10T07:49:29Z</time>
      </trkpt>
      <trkpt lat="49.14205" lon="2.02475">
        <ele>194.1</ele>
        <time>2022-04-10T07:49:35Z</time>
      </trkpt>
      <trkpt lat="49.14202" lon="2.02487">
        <ele>193.3</ele>
        <time>2022-04-10T07:49:41Z</time>
      </trkpt>
      <trkpt lat="49.142" lon="2.02495">
        <ele>193</ele>
        <time>2022-04-10T07:49:46Z</time>
      </trkpt>
      <trkpt lat="49.14199" lon="2.02504">
        <ele>192.8</ele>
        <time>2022-04-10T07:49:51Z</time>
      </trkpt>
      <trkpt lat="49.14194" lon="2.02516">
        <ele>192.7</ele>
        <time>2022-04-10T07:49:57Z</time>
      </trkpt>
      <trkpt lat="49.14192" lon="2.02525">
        <ele>192.4</ele>
        <time>2022-04-10T07:50:02Z</time>
      </trkpt>
      <trkpt lat="49.14189" lon="2.02536">
        <ele>192.2</ele>
        <time>2022-04-10T07:50:07Z</time>
      </trkpt>
      <trkpt lat="49.14186" lon="2.02547">
        <ele>191.8</ele>
        <time>2022-04-10T07:50:13Z</time>
      </trkpt>
      <trkpt lat="49.14183" lon="2.02557">
        <ele>191.4</ele>
        <time>2022-04-10T07:50:18Z</time>
      </trkpt>
      <trkpt lat="49.14179" lon="2.02571">
        <ele>190.9</ele>
        <time>2022-04-10T07:50:24Z</time>
      </trkpt>
      <trkpt lat="49.14175" lon="2.02583">
        <ele>190.7</ele>
        <time>2022-04-10T07:50:29Z</time>
      </trkpt>
      <trkpt lat="49.14172" lon="2.02596">
        <ele>190.6</ele>
        <time>2022-04-10T07:50:35Z</time>
      </trkpt>
      <trkpt lat="49.1417" lon="2.02605">
        <ele>190.4</ele>
        <time>2022-04-10T07:50:40Z</time>
      </trkpt>
      <trkpt lat="49.14168" lon="2.02616">
        <ele>190.1</ele>
        <time>2022-04-10T07:50:46Z</time>
      </trkpt>
      <trkpt lat="49.14166" lon="2.02624">
        <ele>189.7</ele>
        <time>2022-04-10T07:50:51Z</time>
      </trkpt>
      <trkpt lat="49.14164" lon="2.02635">
        <ele>189</ele>
        <time>2022-04-10T07:50:57Z</time>
      </trkpt>
      <trkpt lat="49.1416" lon="2.02647">
        <ele>188.4</ele>
        <time>2022-04-10T07:51:02Z</time>
      </trkpt>
      <trkpt lat="49.14158" lon="2.02658">
        <ele>187.8</ele>
        <time>2022-04-10T07:51:07Z</time>
      </trkpt>
      <trkpt lat="49.14155" lon="2.02667">
        <ele>187.3</ele>
        <time>2022-04-10T07:51:12Z</time>
      </trkpt>
      <trkpt lat="49.14152" lon="2.02679">
        <ele>186.7</ele>
        <time>2022-04-10T07:51:18Z</time>
      </trkpt>
      <trkpt lat="49.1415" lon="2.02688">
        <ele>186.1</ele>
        <time>2022-04-10T07:51:23Z</time>
      </trkpt>
      <trkpt lat="49.14148" lon="2.02698">
        <ele>185.4</ele>
        <time>2022-04-10T07:51:29Z</time>
      </trkpt>
      <trkpt lat="49.14145" lon="2.02709">
        <ele>184.9</ele>
        <time>2022-04-10T07:51:34Z</time>
      </trkpt>
      <trkpt lat="49.14141" lon="2.02723">
        <ele>184.4</ele>
        <time>2022-04-10T07:51:40Z</time>
      </trkpt>
      <trkpt lat="49.14139" lon="2.02732">
        <ele>184</ele>
        <time>2022-04-10T07:51:46Z</time>
      </trkpt>
      <trkpt lat="49.14135" lon="2.02745">
        <ele>183.5</ele>
        <time>2022-04-10T07:51:52Z</time>
      </trkpt>
      <trkpt lat="49.14131" lon="2.02756">
        <ele>183.2</ele>
        <time>2022-04-10T07:51:57Z</time>
      </trkpt>
      <trkpt lat="49.14128" lon="2.02766">
        <ele>182.9</ele>
        <time>2022-04-10T07:52:03Z</time>
      </trkpt>
      <trkpt lat="49.14125" lon="2.02777">
        <ele>182.7</ele>
        <time>2022-04-10T07:52:09Z</time>
      </trkpt>
      <trkpt lat="49.14122" lon="2.02787">
        <ele>182.5</ele>
        <time>2022-04-10T07:52:14Z</time>
      </trkpt>
      <trkpt lat="49.14119" lon="2.02799">
        <ele>182.2</ele>
        <time>2022-04-10T07:52:20Z</time>
      </trkpt>
      <trkpt lat="49.14116" lon="2.0281">
        <ele>181.9</ele>
        <time>2022-04-10T07:52:25Z</time>
      </trkpt>
      <trkpt lat="49.14113" lon="2.0282">
        <ele>181.6</ele>
        <time>2022-04-10T07:52:30Z</time>
      </trkpt>
      <trkpt lat="49.1411" lon="2.02832">
        <ele>181.1</ele>
        <time>2022-04-10T07:52:36Z</time>
      </trkpt>
      <trkpt lat="49.14106" lon="2.02844">
        <ele>180.7</ele>
        <time>2022-04-10T07:52:42Z</time>
      </trkpt>
      <trkpt lat="49.14103" lon="2.02854">
        <ele>180.3</ele>
        <time>2022-04-10T07:52:47Z</time>
      </trkpt>
      <trkpt lat="49.14099" lon="2.02867">
        <ele>180.1</ele>
        <time>2022-04-10T07:52:53Z</time>
      </trkpt>
      <trkpt lat="49.14096" lon="2.02877">
        <ele>180</ele>
        <time>2022-04-10T07:52:58Z</time>
      </trkpt>
      <trkpt lat="49.14093" lon="2.02889">
        <ele>179.7</ele>
        <time>2022-04-10T07:53:04Z</time>
      </trkpt>
      <trkpt lat="49.14091" lon="2.029">
        <ele>179.5</ele>
        <time>2022-04-10T07:53:09Z</time>
      </trkpt>
      <trkpt lat="49.14089" lon="2.02909">
        <ele>179.3</ele>
        <time>2022-04-10T07:53:14Z</time>
      </trkpt>
      <trkpt lat="49.14086" lon="2.0292">
        <ele>179</ele>
        <time>2022-04-10T07:53:20Z</time>
      </trkpt>
      <trkpt lat="49.14083" lon="2.02929">
        <ele>178.6</ele>
        <time>2022-04-10T07:53:25Z</time>
      </trkpt>
      <trkpt lat="49.1408" lon="2.02941">
        <ele>178.1</ele>
        <time>2022-04-10T07:53:31Z</time>
      </trkpt>
      <trkpt lat="49.14078" lon="2.02952">
        <ele>177.9</ele>
        <time>2022-04-10T07:53:36Z</time>
      </trkpt>
      <trkpt lat="49.14074" lon="2.02963">
        <ele>177.8</ele>
        <time>2022-04-10T07:53:42Z</time>
      </trkpt>
      <trkpt lat="49.14073" lon="2.02972">
        <ele>177.5</ele>
        <time>2022-04-10T07:53:47Z</time>
      </trkpt>
      <trkpt lat="49.14069" lon="2.02984">
        <ele>177</ele>
        <time>2022-04-10T07:53:53Z</time>
      </trkpt>
      <trkpt lat="49.14064" lon="2.0299">
        <ele>176.6</ele>
        <time>2022-04-10T07:53:58Z</time>
      </trkpt>
      <trkpt lat="49.1406" lon="2.03">
        <ele>176</ele>
        <time>2022-04-10T07:54:04Z</time>
      </trkpt>
      <trkpt lat="49.14057" lon="2.03009">
        <ele>175.7</ele>
        <time>2022-04-10T07:54:09Z</time>
      </trkpt>
      <trkpt lat="49.14051" lon="2.03006">
        <ele>175.5</ele>
        <time>2022-04-10T07:54:14Z</time>
      </trkpt>
      <trkpt lat="49.14047" lon="2.02999">
        <ele>175.5</ele>
        <time>2022-04-10T07:54:21Z</time>
      </trkpt>
      <trkpt lat="49.14042" lon="2.0299">
        <ele>175.7</ele>
        <time>2022-04-10T07:54:26Z</time>
      </trkpt>
      <trkpt lat="49.14037" lon="2.02979">
        <ele>176</ele>
        <time>2022-04-10T07:54:32Z</time>
      </trkpt>
      <trkpt lat="49.14033" lon="2.02969">
        <ele>176.3</ele>
        <time>2022-04-10T07:54:37Z</time>
      </trkpt>
      <trkpt lat="49.14027" lon="2.02958">
        <ele>176.8</ele>
        <time>2022-04-10T07:54:43Z</time>
      </trkpt>
      <trkpt lat="49.14022" lon="2.02947">
        <ele>177.2</ele>
        <time>2022-04-10T07:54:49Z</time>
      </trkpt>
      <trkpt lat="49.14017" lon="2.02937">
        <ele>177.5</ele>
        <time>2022-04-10T07:54:55Z</time>
      </trkpt>
      <trkpt lat="49.14013" lon="2.02929">
        <ele>177.9</ele>
        <time>2022-04-10T07:55:01Z</time>
      </trkpt>
      <trkpt lat="49.14008" lon="2.02918">
        <ele>178.2</ele>
        <time>2022-04-10T07:55:07Z</time>
      </trkpt>
      <trkpt lat="49.14004" lon="2.0291">
        <ele>178.4</ele>
        <time>2022-04-10T07:55:12Z</time>
      </trkpt>
      <trkpt lat="49.14001" lon="2.029">
        <ele>178.6</ele>
        <time>2022-04-10T07:55:18Z</time>
      </trkpt>
      <trkpt lat="49.13998" lon="2.02894">
        <ele>178.7</ele>
        <time>2022-04-10T07:55:24Z</time>
      </trkpt>
      <trkpt lat="49.13993" lon="2.02887">
        <ele>178.6</ele>
        <time>2022-04-10T07:55:29Z</time>
      </trkpt>
      <trkpt lat="49.13988" lon="2.02879">
        <ele>178.6</ele>
        <time>2022-04-10T07:55:34Z</time>
      </trkpt>
      <trkpt lat="49.13983" lon="2.02872">
        <ele>178.5</ele>
        <time>2022-04-10T07:55:39Z</time>
      </trkpt>
      <trkpt lat="49.13978" lon="2.02862">
        <ele>178.4</ele>
        <time>2022-04-10T07:55:45Z</time>
      </trkpt>
      <trkpt lat="49.13973" lon="2.02854">
        <ele>178.1</ele>
        <time>2022-04-10T07:55:51Z</time>
      </trkpt>
      <trkpt lat="49.1397" lon="2.02847">
        <ele>178.1</ele>
        <time>2022-04-10T07:55:56Z</time>
      </trkpt>
      <trkpt lat="49.13965" lon="2.02838">
        <ele>178.1</ele>
        <time>2022-04-10T07:56:02Z</time>
      </trkpt>
      <trkpt lat="49.1396" lon="2.0283">
        <ele>178.1</ele>
        <time>2022-04-10T07:56:07Z</time>
      </trkpt>
      <trkpt lat="49.13961" lon="2.0282">
        <ele>178.1</ele>
        <time>2022-04-10T07:56:13Z</time>
      </trkpt>
      <trkpt lat="49.13959" lon="2.02813">
        <ele>177.9</ele>
        <time>2022-04-10T07:56:18Z</time>
      </trkpt>
      <trkpt lat="49.13955" lon="2.02805">
        <ele>177.7</ele>
        <time>2022-04-10T07:56:24Z</time>
      </trkpt>
      <trkpt lat="49.1395" lon="2.02798">
        <ele>177.5</ele>
        <time>2022-04-10T07:56:29Z</time>
      </trkpt>
      <trkpt lat="49.13942" lon="2.02789">
        <ele>177.3</ele>
        <time>2022-04-10T07:56:35Z</time>
      </trkpt>
      <trkpt lat="49.13936" lon="2.02782">
        <ele>177.2</ele>
        <time>2022-04-10T07:56:40Z</time>
      </trkpt>
      <trkpt lat="49.13932" lon="2.02773">
        <ele>177.2</ele>
        <time>2022-04-10T07:56:46Z</time>
      </trkpt>
      <trkpt lat="49.1393" lon="2.02766">
        <ele>177.2</ele>
        <time>2022-04-10T07:56:51Z</time>
      </trkpt>
      <trkpt lat="49.13925" lon="2.02756">
        <ele>177</ele>
        <time>2022-04-10T07:56:57Z</time>
      </trkpt>
      <trkpt lat="49.13919" lon="2.02751">
        <ele>176.8</ele>
        <time>2022-04-10T07:57:02Z</time>
      </trkpt>
      <trkpt lat="49.13914" lon="2.02743">
        <ele>176.6</ele>
        <time>2022-04-10T07:57:08Z</time>
      </trkpt>
      <trkpt lat="49.13909" lon="2.0273">
        <ele>176.3</ele>
        <time>2022-04-10T07:57:14Z</time>
      </trkpt>
      <trkpt lat="49.13905" lon="2.02719">
        <ele>176.2</ele>
        <time>2022-04-10T07:57:19Z</time>
      </trkpt>
      <trkpt lat="49.13902" lon="2.0271">
        <ele>176.3</ele>
        <time>2022-04-10T07:57:24Z</time>
      </trkpt>
      <trkpt lat="49.13899" lon="2.02702">
        <ele>176.4</ele>
        <time>2022-04-10T07:57:30Z</time>
      </trkpt>
      <trkpt lat="49.13896" lon="2.02695">
        <ele>176.5</ele>
        <time>2022-04-10T07:57:35Z</time>
      </trkpt>
      <trkpt lat="49.1389" lon="2.02686">
        <ele>176.7</ele>
        <time>2022-04-10T07:57:41Z</time>
      </trkpt>
      <trkpt lat="49.13885" lon="2.02677">
        <ele>177.1</ele>
        <time>2022-04-10T07:57:46Z</time>
      </trkpt>
      <trkpt lat="49.1388" lon="2.02668">
        <ele>177.1</ele>
        <time>2022-04-10T07:57:51Z</time>
      </trkpt>
      <trkpt lat="49.13876" lon="2.0266">
        <ele>176.9</ele>
        <time>2022-04-10T07:57:57Z</time>
      </trkpt>
      <trkpt lat="49.13874" lon="2.02653">
        <ele>176.5</ele>
        <time>2022-04-10T07:58:03Z</time>
      </trkpt>
      <trkpt lat="49.13871" lon="2.02644">
        <ele>176.2</ele>
        <time>2022-04-10T07:58:08Z</time>
      </trkpt>
      <trkpt lat="49.13868" lon="2.02632">
        <ele>176</ele>
        <time>2022-04-10T07:58:14Z</time>
      </trkpt>
      <trkpt lat="49.13864" lon="2.02623">
        <ele>176</ele>
        <time>2022-04-10T07:58:19Z</time>
      </trkpt>
      <trkpt lat="49.1386" lon="2.02611">
        <ele>176.1</ele>
        <time>2022-04-10T07:58:25Z</time>
      </trkpt>
      <trkpt lat="49.13855" lon="2.02602">
        <ele>176.2</ele>
        <time>2022-04-10T07:58:30Z</time>
      </trkpt>
      <trkpt lat="49.1385" lon="2.02594">
        <ele>176.3</ele>
        <time>2022-04-10T07:58:35Z</time>
      </trkpt>
      <trkpt lat="49.13846" lon="2.02582">
        <ele>176.6</ele>
        <time>2022-04-10T07:58:41Z</time>
      </trkpt>
      <trkpt lat="49.13845" lon="2.02576">
        <ele>177</ele>
        <time>2022-04-10T07:58:47Z</time>
      </trkpt>
      <trkpt lat="49.13843" lon="2.02567">
        <ele>177.1</ele>
        <time>2022-04-10T07:58:53Z</time>
      </trkpt>
      <trkpt lat="49.1384" lon="2.02556">
        <ele>177</ele>
        <time>2022-04-10T07:58:59Z</time>
      </trkpt>
      <trkpt lat="49.13836" lon="2.02544">
        <ele>177</ele>
        <time>2022-04-10T07:59:05Z</time>
      </trkpt>
      <trkpt lat="49.13832" lon="2.02532">
        <ele>177.2</ele>
        <time>2022-04-10T07:59:11Z</time>
      </trkpt>
      <trkpt lat="49.13829" lon="2.02524">
        <ele>177.3</ele>
        <time>2022-04-10T07:59:16Z</time>
      </trkpt>
      <trkpt lat="49.13826" lon="2.02511">
        <ele>177.2</ele>
        <time>2022-04-10T07:59:22Z</time>
      </trkpt>
      <trkpt lat="49.13822" lon="2.02498">
        <ele>177.2</ele>
        <time>2022-04-10T07:59:28Z</time>
      </trkpt>
      <trkpt lat="49.13819" lon="2.02485">
        <ele>177.3</ele>
        <time>2022-04-10T07:59:34Z</time>
      </trkpt>
      <trkpt lat="49.13816" lon="2.02472">
        <ele>177.4</ele>
        <time>2022-04-10T07:59:40Z</time>
      </trkpt>
      <trkpt lat="49.13815" lon="2.02461">
        <ele>177.7</ele>
        <time>2022-04-10T07:59:46Z</time>
      </trkpt>
      <trkpt lat="49.13813" lon="2.02452">
        <ele>178</ele>
        <time>2022-04-10T07:59:51Z</time>
      </trkpt>
      <trkpt lat="49.13811" lon="2.02442">
        <ele>178.1</ele>
        <time>2022-04-10T07:59:56Z</time>
      </trkpt>
      <trkpt lat="49.13809" lon="2.02431">
        <ele>178.1</ele>
        <time>2022-04-10T08:00:02Z</time>
      </trkpt>
      <trkpt lat="49.13807" lon="2.02421">
        <ele>177.8</ele>
        <time>2022-04-10T08:00:08Z</time>
      </trkpt>
      <trkpt lat="49.13805" lon="2.02409">
        <ele>177.4</ele>
        <time>2022-04-10T08:00:14Z</time>
      </trkpt>
      <trkpt lat="49.13804" lon="2.02397">
        <ele>177</ele>
        <time>2022-04-10T08:00:20Z</time>
      </trkpt>
      <trkpt lat="49.13803" lon="2.02386">
        <ele>177</ele>
        <time>2022-04-10T08:00:25Z</time>
      </trkpt>
      <trkpt lat="49.13802" lon="2.02374">
        <ele>177.1</ele>
        <time>2022-04-10T08:00:30Z</time>
      </trkpt>
      <trkpt lat="49.138" lon="2.02362">
        <ele>177.3</ele>
        <time>2022-04-10T08:00:36Z</time>
      </trkpt>
      <trkpt lat="49.13799" lon="2.02352">
        <ele>177.3</ele>
        <time>2022-04-10T08:00:41Z</time>
      </trkpt>
      <trkpt lat="49.13799" lon="2.02342">
        <ele>177.3</ele>
        <time>2022-04-10T08:00:47Z</time>
      </trkpt>
      <trkpt lat="49.13798" lon="2.02332">
        <ele>177.2</ele>
        <time>2022-04-10T08:00:52Z</time>
      </trkpt>
      <trkpt lat="49.13798" lon="2.0232">
        <ele>177.2</ele>
        <time>2022-04-10T08:00:57Z</time>
      </trkpt>
      <trkpt lat="49.13797" lon="2.02308">
        <ele>177.3</ele>
        <time>2022-04-10T08:01:03Z</time>
      </trkpt>
      <trkpt lat="49.13794" lon="2.02295">
        <ele>177.4</ele>
        <time>2022-04-10T08:01:09Z</time>
      </trkpt>
      <trkpt lat="49.13794" lon="2.02282">
        <ele>177.3</ele>
        <time>2022-04-10T08:01:15Z</time>
      </trkpt>
      <trkpt lat="49.13794" lon="2.02271">
        <ele>177.1</ele>
        <time>2022-04-10T08:01:21Z</time>
      </trkpt>
      <trkpt lat="49.13795" lon="2.02259">
        <ele>177</ele>
        <time>2022-04-10T08:01:27Z</time>
      </trkpt>
      <trkpt lat="49.13796" lon="2.02248">
        <ele>176.9</ele>
        <time>2022-04-10T08:01:33Z</time>
      </trkpt>
      <trkpt lat="49.13795" lon="2.02235">
        <ele>176.7</ele>
        <time>2022-04-10T08:01:39Z</time>
      </trkpt>
      <trkpt lat="49.13795" lon="2.02221">
        <ele>176.5</ele>
        <time>2022-04-10T08:01:45Z</time>
      </trkpt>
      <trkpt lat="49.13796" lon="2.02209">
        <ele>176.4</ele>
        <time>2022-04-10T08:01:51Z</time>
      </trkpt>
      <trkpt lat="49.13797" lon="2.02197">
        <ele>176.2</ele>
        <time>2022-04-10T08:01:57Z</time>
      </trkpt>
      <trkpt lat="49.13797" lon="2.0219">
        <ele>176.1</ele>
        <time>2022-04-10T08:02:02Z</time>
      </trkpt>
      <trkpt lat="49.13799" lon="2.02178">
        <ele>175.9</ele>
        <time>2022-04-10T08:02:08Z</time>
      </trkpt>
      <trkpt lat="49.138" lon="2.02167">
        <ele>175.8</ele>
        <time>2022-04-10T08:02:13Z</time>
      </trkpt>
      <trkpt lat="49.138" lon="2.02155">
        <ele>175.7</ele>
        <time>2022-04-10T08:02:18Z</time>
      </trkpt>
      <trkpt lat="49.13802" lon="2.02142">
        <ele>175.6</ele>
        <time>2022-04-10T08:02:24Z</time>
      </trkpt>
      <trkpt lat="49.13803" lon="2.02131">
        <ele>175.4</ele>
        <time>2022-04-10T08:02:30Z</time>
      </trkpt>
      <trkpt lat="49.13806" lon="2.02121">
        <ele>175.1</ele>
        <time>2022-04-10T08:02:35Z</time>
      </trkpt>
      <trkpt lat="49.13807" lon="2.02111">
        <ele>174.8</ele>
        <time>2022-04-10T08:02:40Z</time>
      </trkpt>
      <trkpt lat="49.13809" lon="2.02098">
        <ele>174.6</ele>
        <time>2022-04-10T08:02:46Z</time>
      </trkpt>
      <trkpt lat="49.13811" lon="2.02086">
        <ele>174.5</ele>
        <time>2022-04-10T08:02:52Z</time>
      </trkpt>
      <trkpt lat="49.13813" lon="2.02077">
        <ele>174.4</ele>
        <time>2022-04-10T08:02:57Z</time>
      </trkpt>
      <trkpt lat="49.13815" lon="2.02064">
        <ele>174.4</ele>
        <time>2022-04-10T08:03:03Z</time>
      </trkpt>
      <trkpt lat="49.13817" lon="2.02052">
        <ele>174.6</ele>
        <time>2022-04-10T08:03:09Z</time>
      </trkpt>
      <trkpt lat="49.13819" lon="2.02043">
        <ele>174.8</ele>
        <time>2022-04-10T08:03:14Z</time>
      </trkpt>
      <trkpt lat="49.13819" lon="2.02033">
        <ele>175.1</ele>
        <time>2022-04-10T08:03:19Z</time>
      </trkpt>
      <trkpt lat="49.13819" lon="2.02031">
        <ele>175.2</ele>
        <time>2022-04-10T08:03:25Z</time>
      </trkpt>
      <trkpt lat="49.13819" lon="2.0203">
        <ele>175.3</ele>
        <time>2022-04-10T08:03:30Z</time>
      </trkpt>
      <trkpt lat="49.13822" lon="2.0202">
        <ele>175.4</ele>
        <time>2022-04-10T08:03:35Z</time>
      </trkpt>
      <trkpt lat="49.13824" lon="2.0201">
        <ele>175.5</ele>
        <time>2022-04-10T08:03:41Z</time>
      </trkpt>
      <trkpt lat="49.13826" lon="2.02001">
        <ele>175.5</ele>
        <time>2022-04-10T08:03:46Z</time>
      </trkpt>
      <trkpt lat="49.13828" lon="2.01988">
        <ele>175.5</ele>
        <time>2022-04-10T08:03:52Z</time>
      </trkpt>
      <trkpt lat="49.1383" lon="2.01976">
        <ele>175.6</ele>
        <time>2022-04-10T08:03:58Z</time>
      </trkpt>
      <trkpt lat="49.13833" lon="2.01966">
        <ele>175.5</ele>
        <time>2022-04-10T08:04:04Z</time>
      </trkpt>
      <trkpt lat="49.13835" lon="2.01956">
        <ele>175.4</ele>
        <time>2022-04-10T08:04:09Z</time>
      </trkpt>
      <trkpt lat="49.13837" lon="2.01943">
        <ele>175.4</ele>
        <time>2022-04-10T08:04:15Z</time>
      </trkpt>
      <trkpt lat="49.13838" lon="2.0193">
        <ele>175.4</ele>
        <time>2022-04-10T08:04:21Z</time>
      </trkpt>
      <trkpt lat="49.13839" lon="2.01917">
        <ele>175.3</ele>
        <time>2022-04-10T08:04:27Z</time>
      </trkpt>
      <trkpt lat="49.13841" lon="2.01909">
        <ele>175.2</ele>
        <time>2022-04-10T08:04:32Z</time>
      </trkpt>
      <trkpt lat="49.13842" lon="2.01901">
        <ele>175.1</ele>
        <time>2022-04-10T08:04:38Z</time>
      </trkpt>
      <trkpt lat="49.13843" lon="2.01889">
        <ele>174.8</ele>
        <time>2022-04-10T08:04:44Z</time>
      </trkpt>
      <trkpt lat="49.13845" lon="2.01879">
        <ele>174.6</ele>
        <time>2022-04-10T08:04:50Z</time>
      </trkpt>
      <trkpt lat="49.13847" lon="2.01872">
        <ele>174.3</ele>
        <time>2022-04-10T08:04:55Z</time>
      </trkpt>
      <trkpt lat="49.13847" lon="2.01858">
        <ele>173.9</ele>
        <time>2022-04-10T08:05:01Z</time>
      </trkpt>
      <trkpt lat="49.13849" lon="2.01846">
        <ele>173.5</ele>
        <time>2022-04-10T08:05:07Z</time>
      </trkpt>
      <trkpt lat="49.1385" lon="2.01837">
        <ele>173.5</ele>
        <time>2022-04-10T08:05:12Z</time>
      </trkpt>
      <trkpt lat="49.13851" lon="2.01827">
        <ele>173.4</ele>
        <time>2022-04-10T08:05:18Z</time>
      </trkpt>
      <trkpt lat="49.13853" lon="2.01819">
        <ele>173.3</ele>
        <time>2022-04-10T08:05:23Z</time>
      </trkpt>
      <trkpt lat="49.13857" lon="2.01802">
        <ele>173.5</ele>
        <time>2022-04-10T08:05:29Z</time>
      </trkpt>
      <trkpt lat="49.1386" lon="2.01791">
        <ele>173.8</ele>
        <time>2022-04-10T08:05:35Z</time>
      </trkpt>
      <trkpt lat="49.1386" lon="2.01779">
        <ele>173.8</ele>
        <time>2022-04-10T08:05:40Z</time>
      </trkpt>
      <trkpt lat="49.1386" lon="2.01769">
        <ele>173.9</ele>
        <time>2022-04-10T08:05:45Z</time>
      </trkpt>
      <trkpt lat="49.13862" lon="2.01759">
        <ele>174</ele>
        <time>2022-04-10T08:05:51Z</time>
      </trkpt>
      <trkpt lat="49.13862" lon="2.01748">
        <ele>174.1</ele>
        <time>2022-04-10T08:05:57Z</time>
      </trkpt>
      <trkpt lat="49.13862" lon="2.01734">
        <ele>174.2</ele>
        <time>2022-04-10T08:06:03Z</time>
      </trkpt>
      <trkpt lat="49.13863" lon="2.01723">
        <ele>174.2</ele>
        <time>2022-04-10T08:06:08Z</time>
      </trkpt>
      <trkpt lat="49.13866" lon="2.01714">
        <ele>174.5</ele>
        <time>2022-04-10T08:06:14Z</time>
      </trkpt>
      <trkpt lat="49.13869" lon="2.01706">
        <ele>174.8</ele>
        <time>2022-04-10T08:06:19Z</time>
      </trkpt>
      <trkpt lat="49.13873" lon="2.01692">
        <ele>175.3</ele>
        <time>2022-04-10T08:06:24Z</time>
      </trkpt>
      <trkpt lat="49.13876" lon="2.01685">
        <ele>175.5</ele>
        <time>2022-04-10T08:06:29Z</time>
      </trkpt>
      <trkpt lat="49.13876" lon="2.01676">
        <ele>175.5</ele>
        <time>2022-04-10T08:06:35Z</time>
      </trkpt>
      <trkpt lat="49.13876" lon="2.01662">
        <ele>175.4</ele>
        <time>2022-04-10T08:06:41Z</time>
      </trkpt>
      <trkpt lat="49.13878" lon="2.01651">
        <ele>175.1</ele>
        <time>2022-04-10T08:06:47Z</time>
      </trkpt>
      <trkpt lat="49.1388" lon="2.01641">
        <ele>175</ele>
        <time>2022-04-10T08:06:53Z</time>
      </trkpt>
      <trkpt lat="49.13883" lon="2.01629">
        <ele>175.1</ele>
        <time>2022-04-10T08:06:59Z</time>
      </trkpt>
      <trkpt lat="49.13884" lon="2.01618">
        <ele>175.3</ele>
        <time>2022-04-10T08:07:04Z</time>
      </trkpt>
      <trkpt lat="49.13887" lon="2.01608">
        <ele>175.7</ele>
        <time>2022-04-10T08:07:09Z</time>
      </trkpt>
      <trkpt lat="49.1389" lon="2.01597">
        <ele>176.2</ele>
        <time>2022-04-10T08:07:15Z</time>
      </trkpt>
      <trkpt lat="49.13892" lon="2.01588">
        <ele>176.6</ele>
        <time>2022-04-10T08:07:21Z</time>
      </trkpt>
      <trkpt lat="49.13895" lon="2.01579">
        <ele>176.8</ele>
        <time>2022-04-10T08:07:27Z</time>
      </trkpt>
      <trkpt lat="49.13895" lon="2.0157">
        <ele>176.7</ele>
        <time>2022-04-10T08:07:32Z</time>
      </trkpt>
      <trkpt lat="49.13897" lon="2.01558">
        <ele>176.7</ele>
        <time>2022-04-10T08:07:38Z</time>
      </trkpt>
      <trkpt lat="49.13897" lon="2.01549">
        <ele>176.7</ele>
        <time>2022-04-10T08:07:44Z</time>
      </trkpt>
      <trkpt lat="49.13898" lon="2.01543">
        <ele>176.7</ele>
        <time>2022-04-10T08:07:49Z</time>
      </trkpt>
      <trkpt lat="49.13899" lon="2.01533">
        <ele>176.5</ele>
        <time>2022-04-10T08:07:55Z</time>
      </trkpt>
      <trkpt lat="49.13901" lon="2.01525">
        <ele>176.2</ele>
        <time>2022-04-10T08:08:00Z</time>
      </trkpt>
      <trkpt lat="49.13903" lon="2.01519">
        <ele>175.9</ele>
        <time>2022-04-10T08:08:05Z</time>
      </trkpt>
      <trkpt lat="49.13904" lon="2.01507">
        <ele>175.4</ele>
        <time>2022-04-10T08:08:11Z</time>
      </trkpt>
      <trkpt lat="49.13907" lon="2.01499">
        <ele>175.1</ele>
        <time>2022-04-10T08:08:16Z</time>
      </trkpt>
      <trkpt lat="49.13909" lon="2.0149">
        <ele>174.9</ele>
        <time>2022-04-10T08:08:22Z</time>
      </trkpt>
      <trkpt lat="49.13911" lon="2.01476">
        <ele>174.9</ele>
        <time>2022-04-10T08:08:28Z</time>
      </trkpt>
      <trkpt lat="49.13914" lon="2.01462">
        <ele>174.9</ele>
        <time>2022-04-10T08:08:34Z</time>
      </trkpt>
      <trkpt lat="49.13915" lon="2.0145">
        <ele>174.9</ele>
        <time>2022-04-10T08:08:40Z</time>
      </trkpt>
      <trkpt lat="49.13917" lon="2.01438">
        <ele>175</ele>
        <time>2022-04-10T08:08:46Z</time>
      </trkpt>
      <trkpt lat="49.13917" lon="2.01427">
        <ele>174.8</ele>
        <time>2022-04-10T08:08:52Z</time>
      </trkpt>
      <trkpt lat="49.13919" lon="2.01417">
        <ele>174.6</ele>
        <time>2022-04-10T08:08:58Z</time>
      </trkpt>
      <trkpt lat="49.1392" lon="2.01406">
        <ele>174.1</ele>
        <time>2022-04-10T08:09:04Z</time>
      </trkpt>
      <trkpt lat="49.13921" lon="2.01392">
        <ele>173.9</ele>
        <time>2022-04-10T08:09:10Z</time>
      </trkpt>
      <trkpt lat="49.13923" lon="2.01382">
        <ele>173.5</ele>
        <time>2022-04-10T08:09:16Z</time>
      </trkpt>
      <trkpt lat="49.13925" lon="2.01369">
        <ele>172.9</ele>
        <time>2022-04-10T08:09:21Z</time>
      </trkpt>
      <trkpt lat="49.13926" lon="2.01358">
        <ele>172.8</ele>
        <time>2022-04-10T08:09:27Z</time>
      </trkpt>
      <trkpt lat="49.13927" lon="2.0135">
        <ele>172.4</ele>
        <time>2022-04-10T08:09:32Z</time>
      </trkpt>
      <trkpt lat="49.13927" lon="2.0134">
        <ele>172.2</ele>
        <time>2022-04-10T08:09:37Z</time>
      </trkpt>
      <trkpt lat="49.13929" lon="2.01329">
        <ele>171.5</ele>
        <time>2022-04-10T08:09:43Z</time>
      </trkpt>
      <trkpt lat="49.13933" lon="2.01316">
        <ele>171.2</ele>
        <time>2022-04-10T08:09:49Z</time>
      </trkpt>
      <trkpt lat="49.13935" lon="2.01304">
        <ele>171.3</ele>
        <time>2022-04-10T08:09:55Z</time>
      </trkpt>
      <trkpt lat="49.13936" lon="2.01294">
        <ele>171.6</ele>
        <time>2022-04-10T08:10:00Z</time>
      </trkpt>
      <trkpt lat="49.13938" lon="2.01288">
        <ele>171.6</ele>
        <time>2022-04-10T08:10:06Z</time>
      </trkpt>
      <trkpt lat="49.13941" lon="2.01276">
        <ele>171.7</ele>
        <time>2022-04-10T08:10:12Z</time>
      </trkpt>
      <trkpt lat="49.13943" lon="2.01263">
        <ele>171.5</ele>
        <time>2022-04-10T08:10:18Z</time>
      </trkpt>
      <trkpt lat="49.13944" lon="2.01255">
        <ele>171.1</ele>
        <time>2022-04-10T08:10:23Z</time>
      </trkpt>
      <trkpt lat="49.13946" lon="2.0125">
        <ele>171</ele>
        <time>2022-04-10T08:10:28Z</time>
      </trkpt>
      <trkpt lat="49.13948" lon="2.0124">
        <ele>171.1</ele>
        <time>2022-04-10T08:10:33Z</time>
      </trkpt>
      <trkpt lat="49.13949" lon="2.01228">
        <ele>171.4</ele>
        <time>2022-04-10T08:10:39Z</time>
      </trkpt>
      <trkpt lat="49.1395" lon="2.01218">
        <ele>171.6</ele>
        <time>2022-04-10T08:10:44Z</time>
      </trkpt>
      <trkpt lat="49.13952" lon="2.01208">
        <ele>171.6</ele>
        <time>2022-04-10T08:10:50Z</time>
      </trkpt>
      <trkpt lat="49.13953" lon="2.01197">
        <ele>171.3</ele>
        <time>2022-04-10T08:10:56Z</time>
      </trkpt>
      <trkpt lat="49.13954" lon="2.01189">
        <ele>171.1</ele>
        <time>2022-04-10T08:11:01Z</time>
      </trkpt>
      <trkpt lat="49.13955" lon="2.01184">
        <ele>170.9</ele>
        <time>2022-04-10T08:11:06Z</time>
      </trkpt>
      <trkpt lat="49.13955" lon="2.01173">
        <ele>170.5</ele>
        <time>2022-04-10T08:11:12Z</time>
      </trkpt>
      <trkpt lat="49.13956" lon="2.01165">
        <ele>170.2</ele>
        <time>2022-04-10T08:11:18Z</time>
      </trkpt>
      <trkpt lat="49.13957" lon="2.01156">
        <ele>169.8</ele>
        <time>2022-04-10T08:11:23Z</time>
      </trkpt>
      <trkpt lat="49.13959" lon="2.01145">
        <ele>169.3</ele>
        <time>2022-04-10T08:11:29Z</time>
      </trkpt>
      <trkpt lat="49.13962" lon="2.01132">
        <ele>168.9</ele>
        <time>2022-04-10T08:11:35Z</time>
      </trkpt>
      <trkpt lat="49.13966" lon="2.01123">
        <ele>169</ele>
        <time>2022-04-10T08:11:40Z</time>
      </trkpt>
      <trkpt lat="49.13965" lon="2.0111">
        <ele>169.1</ele>
        <time>2022-04-10T08:11:46Z</time>
      </trkpt>
      <trkpt lat="49.13966" lon="2.01099">
        <ele>169.2</ele>
        <time>2022-04-10T08:11:52Z</time>
      </trkpt>
      <trkpt lat="49.13966" lon="2.01092">
        <ele>169.1</ele>
        <time>2022-04-10T08:11:57Z</time>
      </trkpt>
      <trkpt lat="49.13967" lon="2.01079">
        <ele>168.9</ele>
        <time>2022-04-10T08:12:03Z</time>
      </trkpt>
      <trkpt lat="49.13968" lon="2.01066">
        <ele>168.4</ele>
        <time>2022-04-10T08:12:09Z</time>
      </trkpt>
      <trkpt lat="49.13972" lon="2.01056">
        <ele>167.9</ele>
        <time>2022-04-10T08:12:14Z</time>
      </trkpt>
      <trkpt lat="49.13974" lon="2.01045">
        <ele>167.4</ele>
        <time>2022-04-10T08:12:20Z</time>
      </trkpt>
      <trkpt lat="49.13975" lon="2.01036">
        <ele>166.9</ele>
        <time>2022-04-10T08:12:25Z</time>
      </trkpt>
      <trkpt lat="49.13976" lon="2.01025">
        <ele>166.6</ele>
        <time>2022-04-10T08:12:31Z</time>
      </trkpt>
      <trkpt lat="49.1398" lon="2.01019">
        <ele>166.3</ele>
        <time>2022-04-10T08:12:36Z</time>
      </trkpt>
      <trkpt lat="49.13986" lon="2.0101">
        <ele>165.7</ele>
        <time>2022-04-10T08:12:42Z</time>
      </trkpt>
      <trkpt lat="49.13994" lon="2.00994">
        <ele>165.9</ele>
        <time>2022-04-10T08:12:47Z</time>
      </trkpt>
      <trkpt lat="49.14003" lon="2.01002">
        <ele>166.3</ele>
        <time>2022-04-10T08:12:52Z</time>
      </trkpt>
      <trkpt lat="49.14008" lon="2.01015">
        <ele>166.8</ele>
        <time>2022-04-10T08:12:58Z</time>
      </trkpt>
      <trkpt lat="49.14012" lon="2.01025">
        <ele>167.3</ele>
        <time>2022-04-10T08:13:03Z</time>
      </trkpt>
      <trkpt lat="49.14015" lon="2.01033">
        <ele>167.9</ele>
        <time>2022-04-10T08:13:09Z</time>
      </trkpt>
      <trkpt lat="49.14016" lon="2.01044">
        <ele>168.3</ele>
        <time>2022-04-10T08:13:14Z</time>
      </trkpt>
      <trkpt lat="49.14018" lon="2.01054">
        <ele>168.6</ele>
        <time>2022-04-10T08:13:20Z</time>
      </trkpt>
      <trkpt lat="49.14021" lon="2.0106">
        <ele>168.6</ele>
        <time>2022-04-10T08:13:25Z</time>
      </trkpt>
      <trkpt lat="49.14021" lon="2.01068">
        <ele>168.1</ele>
        <time>2022-04-10T08:13:30Z</time>
      </trkpt>
      <trkpt lat="49.14025" lon="2.01079">
        <ele>167.5</ele>
        <time>2022-04-10T08:13:36Z</time>
      </trkpt>
      <trkpt lat="49.14031" lon="2.01089">
        <ele>166.7</ele>
        <time>2022-04-10T08:13:42Z</time>
      </trkpt>
      <trkpt lat="49.14037" lon="2.01106">
        <ele>166.6</ele>
        <time>2022-04-10T08:13:48Z</time>
      </trkpt>
      <trkpt lat="49.14043" lon="2.01119">
        <ele>166.7</ele>
        <time>2022-04-10T08:13:54Z</time>
      </trkpt>
      <trkpt lat="49.14048" lon="2.01127">
        <ele>167</ele>
        <time>2022-04-10T08:14:00Z</time>
      </trkpt>
      <trkpt lat="49.14052" lon="2.01141">
        <ele>167.3</ele>
        <time>2022-04-10T08:14:06Z</time>
      </trkpt>
      <trkpt lat="49.14055" lon="2.01149">
        <ele>167.6</ele>
        <time>2022-04-10T08:14:11Z</time>
      </trkpt>
      <trkpt lat="49.14061" lon="2.01158">
        <ele>168</ele>
        <time>2022-04-10T08:14:17Z</time>
      </trkpt>
      <trkpt lat="49.14066" lon="2.0117">
        <ele>168.5</ele>
        <time>2022-04-10T08:14:23Z</time>
      </trkpt>
      <trkpt lat="49.14068" lon="2.01176">
        <ele>168.7</ele>
        <time>2022-04-10T08:14:28Z</time>
      </trkpt>
      <trkpt lat="49.14074" lon="2.01184">
        <ele>168.5</ele>
        <time>2022-04-10T08:14:34Z</time>
      </trkpt>
      <trkpt lat="49.1408" lon="2.01192">
        <ele>168.3</ele>
        <time>2022-04-10T08:14:40Z</time>
      </trkpt>
      <trkpt lat="49.14086" lon="2.01202">
        <ele>168.3</ele>
        <time>2022-04-10T08:14:45Z</time>
      </trkpt>
      <trkpt lat="49.14092" lon="2.01212">
        <ele>168.7</ele>
        <time>2022-04-10T08:14:51Z</time>
      </trkpt>
      <trkpt lat="49.14095" lon="2.0122">
        <ele>168.6</ele>
        <time>2022-04-10T08:14:56Z</time>
      </trkpt>
      <trkpt lat="49.141" lon="2.01225">
        <ele>168.4</ele>
        <time>2022-04-10T08:15:01Z</time>
      </trkpt>
      <trkpt lat="49.14106" lon="2.01233">
        <ele>168.2</ele>
        <time>2022-04-10T08:15:07Z</time>
      </trkpt>
      <trkpt lat="49.14114" lon="2.01243">
        <ele>168.5</ele>
        <time>2022-04-10T08:15:13Z</time>
      </trkpt>
      <trkpt lat="49.14119" lon="2.01251">
        <ele>168.9</ele>
        <time>2022-04-10T08:15:19Z</time>
      </trkpt>
      <trkpt lat="49.14123" lon="2.01257">
        <ele>169.1</ele>
        <time>2022-04-10T08:15:25Z</time>
      </trkpt>
      <trkpt lat="49.1413" lon="2.01262">
        <ele>169.3</ele>
        <time>2022-04-10T08:15:30Z</time>
      </trkpt>
      <trkpt lat="49.14136" lon="2.01268">
        <ele>169.6</ele>
        <time>2022-04-10T08:15:35Z</time>
      </trkpt>
      <trkpt lat="49.14141" lon="2.01273">
        <ele>169.9</ele>
        <time>2022-04-10T08:15:40Z</time>
      </trkpt>
      <trkpt lat="49.14151" lon="2.01284">
        <ele>170.4</ele>
        <time>2022-04-10T08:15:46Z</time>
      </trkpt>
      <trkpt lat="49.14158" lon="2.01291">
        <ele>170.8</ele>
        <time>2022-04-10T08:15:52Z</time>
      </trkpt>
      <trkpt lat="49.14163" lon="2.01298">
        <ele>170.7</ele>
        <time>2022-04-10T08:15:58Z</time>
      </trkpt>
      <trkpt lat="49.14169" lon="2.01305">
        <ele>170.7</ele>
        <time>2022-04-10T08:16:04Z</time>
      </trkpt>
      <trkpt lat="49.14174" lon="2.01312">
        <ele>171</ele>
        <time>2022-04-10T08:16:09Z</time>
      </trkpt>
      <trkpt lat="49.14178" lon="2.01319">
        <ele>171.4</ele>
        <time>2022-04-10T08:16:14Z</time>
      </trkpt>
      <trkpt lat="49.14184" lon="2.01323">
        <ele>171.4</ele>
        <time>2022-04-10T08:16:20Z</time>
      </trkpt>
      <trkpt lat="49.1419" lon="2.01331">
        <ele>171.4</ele>
        <time>2022-04-10T08:16:26Z</time>
      </trkpt>
      <trkpt lat="49.14197" lon="2.01339">
        <ele>171.3</ele>
        <time>2022-04-10T08:16:32Z</time>
      </trkpt>
      <trkpt lat="49.14202" lon="2.01345">
        <ele>171.4</ele>
        <time>2022-04-10T08:16:37Z</time>
      </trkpt>
      <trkpt lat="49.14209" lon="2.01351">
        <ele>171.8</ele>
        <time>2022-04-10T08:16:42Z</time>
      </trkpt>
      <trkpt lat="49.14213" lon="2.01358">
        <ele>172</ele>
        <time>2022-04-10T08:16:49Z</time>
      </trkpt>
      <trkpt lat="49.14219" lon="2.01364">
        <ele>172.3</ele>
        <time>2022-04-10T08:16:54Z</time>
      </trkpt>
      <trkpt lat="49.14223" lon="2.01371">
        <ele>172.5</ele>
        <time>2022-04-10T08:16:59Z</time>
      </trkpt>
      <trkpt lat="49.1423" lon="2.01379">
        <ele>172.4</ele>
        <time>2022-04-10T08:17:05Z</time>
      </trkpt>
      <trkpt lat="49.14235" lon="2.01385">
        <ele>172.3</ele>
        <time>2022-04-10T08:17:10Z</time>
      </trkpt>
      <trkpt lat="49.14241" lon="2.01392">
        <ele>172.5</ele>
        <time>2022-04-10T08:17:16Z</time>
      </trkpt>
      <trkpt lat="49.14246" lon="2.01398">
        <ele>172.7</ele>
        <time>2022-04-10T08:17:21Z</time>
      </trkpt>
      <trkpt lat="49.14253" lon="2.01404">
        <ele>173.1</ele>
        <time>2022-04-10T08:17:27Z</time>
      </trkpt>
      <trkpt lat="49.1426" lon="2.01412">
        <ele>173.5</ele>
        <time>2022-04-10T08:17:33Z</time>
      </trkpt>
      <trkpt lat="49.14265" lon="2.0142">
        <ele>174</ele>
        <time>2022-04-10T08:17:39Z</time>
      </trkpt>
      <trkpt lat="49.14272" lon="2.01427">
        <ele>174.6</ele>
        <time>2022-04-10T08:17:45Z</time>
      </trkpt>
      <trkpt lat="49.1428" lon="2.01434">
        <ele>175.3</ele>
        <time>2022-04-10T08:17:51Z</time>
      </trkpt>
      <trkpt lat="49.14286" lon="2.0144">
        <ele>175.6</ele>
        <time>2022-04-10T08:17:57Z</time>
      </trkpt>
      <trkpt lat="49.14291" lon="2.01447">
        <ele>175.7</ele>
        <time>2022-04-10T08:18:02Z</time>
      </trkpt>
      <trkpt lat="49.14297" lon="2.01455">
        <ele>175.7</ele>
        <time>2022-04-10T08:18:08Z</time>
      </trkpt>
      <trkpt lat="49.14303" lon="2.01463">
        <ele>175.9</ele>
        <time>2022-04-10T08:18:14Z</time>
      </trkpt>
      <trkpt lat="49.14309" lon="2.01469">
        <ele>176.1</ele>
        <time>2022-04-10T08:18:19Z</time>
      </trkpt>
      <trkpt lat="49.14315" lon="2.01477">
        <ele>176.3</ele>
        <time>2022-04-10T08:18:25Z</time>
      </trkpt>
      <trkpt lat="49.14324" lon="2.01483">
        <ele>176.6</ele>
        <time>2022-04-10T08:18:31Z</time>
      </trkpt>
      <trkpt lat="49.14332" lon="2.01491">
        <ele>176.9</ele>
        <time>2022-04-10T08:18:37Z</time>
      </trkpt>
      <trkpt lat="49.14339" lon="2.01498">
        <ele>177.3</ele>
        <time>2022-04-10T08:18:43Z</time>
      </trkpt>
      <trkpt lat="49.14342" lon="2.01507">
        <ele>177.8</ele>
        <time>2022-04-10T08:18:49Z</time>
      </trkpt>
      <trkpt lat="49.14348" lon="2.01516">
        <ele>177.8</ele>
        <time>2022-04-10T08:18:54Z</time>
      </trkpt>
      <trkpt lat="49.14352" lon="2.01533">
        <ele>178.1</ele>
        <time>2022-04-10T08:19:00Z</time>
      </trkpt>
      <trkpt lat="49.14354" lon="2.01545">
        <ele>178.8</ele>
        <time>2022-04-10T08:19:05Z</time>
      </trkpt>
      <trkpt lat="49.14353" lon="2.01555">
        <ele>179.4</ele>
        <time>2022-04-10T08:19:10Z</time>
      </trkpt>
      <trkpt lat="49.14353" lon="2.01568">
        <ele>179.8</ele>
        <time>2022-04-10T08:19:16Z</time>
      </trkpt>
      <trkpt lat="49.14353" lon="2.01581">
        <ele>179.9</ele>
        <time>2022-04-10T08:19:22Z</time>
      </trkpt>
      <trkpt lat="49.14352" lon="2.01592">
        <ele>180</ele>
        <time>2022-04-10T08:19:28Z</time>
      </trkpt>
      <trkpt lat="49.14352" lon="2.01605">
        <ele>180.3</ele>
        <time>2022-04-10T08:19:34Z</time>
      </trkpt>
      <trkpt lat="49.14352" lon="2.01617">
        <ele>180.2</ele>
        <time>2022-04-10T08:19:40Z</time>
      </trkpt>
      <trkpt lat="49.14351" lon="2.01628">
        <ele>180.2</ele>
        <time>2022-04-10T08:19:46Z</time>
      </trkpt>
      <trkpt lat="49.1435" lon="2.01639">
        <ele>180.3</ele>
        <time>2022-04-10T08:19:52Z</time>
      </trkpt>
      <trkpt lat="49.14349" lon="2.01652">
        <ele>180.8</ele>
        <time>2022-04-10T08:19:58Z</time>
      </trkpt>
      <trkpt lat="49.14347" lon="2.01664">
        <ele>181.4</ele>
        <time>2022-04-10T08:20:04Z</time>
      </trkpt>
      <trkpt lat="49.14346" lon="2.01674">
        <ele>182</ele>
        <time>2022-04-10T08:20:09Z</time>
      </trkpt>
      <trkpt lat="49.14352" lon="2.01674">
        <ele>183.1</ele>
        <time>2022-04-10T08:20:15Z</time>
      </trkpt>
      <trkpt lat="49.14358" lon="2.01665">
        <ele>184.1</ele>
        <time>2022-04-10T08:20:20Z</time>
      </trkpt>
      <trkpt lat="49.14362" lon="2.01657">
        <ele>184.9</ele>
        <time>2022-04-10T08:20:25Z</time>
      </trkpt>
      <trkpt lat="49.14367" lon="2.0165">
        <ele>185.8</ele>
        <time>2022-04-10T08:20:31Z</time>
      </trkpt>
      <trkpt lat="49.14371" lon="2.01643">
        <ele>186.5</ele>
        <time>2022-04-10T08:20:36Z</time>
      </trkpt>
      <trkpt lat="49.14375" lon="2.01637">
        <ele>187.1</ele>
        <time>2022-04-10T08:20:41Z</time>
      </trkpt>
      <trkpt lat="49.14377" lon="2.0163">
        <ele>187.6</ele>
        <time>2022-04-10T08:20:47Z</time>
      </trkpt>
      <trkpt lat="49.14381" lon="2.01622">
        <ele>187.7</ele>
        <time>2022-04-10T08:20:52Z</time>
      </trkpt>
      <trkpt lat="49.14385" lon="2.01613">
        <ele>187.6</ele>
        <time>2022-04-10T08:20:58Z</time>
      </trkpt>
      <trkpt lat="49.14388" lon="2.01605">
        <ele>187.2</ele>
        <time>2022-04-10T08:21:03Z</time>
      </trkpt>
      <trkpt lat="49.14392" lon="2.01597">
        <ele>186.9</ele>
        <time>2022-04-10T08:21:09Z</time>
      </trkpt>
      <trkpt lat="49.14398" lon="2.01589">
        <ele>186.4</ele>
        <time>2022-04-10T08:21:15Z</time>
      </trkpt>
      <trkpt lat="49.14404" lon="2.0158">
        <ele>185.7</ele>
        <time>2022-04-10T08:21:21Z</time>
      </trkpt>
      <trkpt lat="49.14409" lon="2.01571">
        <ele>185.4</ele>
        <time>2022-04-10T08:21:27Z</time>
      </trkpt>
      <trkpt lat="49.14413" lon="2.01561">
        <ele>185.1</ele>
        <time>2022-04-10T08:21:33Z</time>
      </trkpt>
      <trkpt lat="49.14419" lon="2.01554">
        <ele>184.8</ele>
        <time>2022-04-10T08:21:38Z</time>
      </trkpt>
      <trkpt lat="49.14426" lon="2.01546">
        <ele>184.5</ele>
        <time>2022-04-10T08:21:44Z</time>
      </trkpt>
      <trkpt lat="49.1443" lon="2.0154">
        <ele>184.3</ele>
        <time>2022-04-10T08:21:50Z</time>
      </trkpt>
      <trkpt lat="49.14435" lon="2.01533">
        <ele>184</ele>
        <time>2022-04-10T08:21:55Z</time>
      </trkpt>
      <trkpt lat="49.14441" lon="2.01525">
        <ele>183.8</ele>
        <time>2022-04-10T08:22:01Z</time>
      </trkpt>
      <trkpt lat="49.14449" lon="2.01517">
        <ele>183.8</ele>
        <time>2022-04-10T08:22:07Z</time>
      </trkpt>
      <trkpt lat="49.14458" lon="2.01507">
        <ele>184.1</ele>
        <time>2022-04-10T08:22:13Z</time>
      </trkpt>
      <trkpt lat="49.14465" lon="2.01497">
        <ele>184.5</ele>
        <time>2022-04-10T08:22:18Z</time>
      </trkpt>
      <trkpt lat="49.14474" lon="2.01486">
        <ele>185.1</ele>
        <time>2022-04-10T08:22:24Z</time>
      </trkpt>
      <trkpt lat="49.14482" lon="2.01474">
        <ele>185.9</ele>
        <time>2022-04-10T08:22:30Z</time>
      </trkpt>
      <trkpt lat="49.14488" lon="2.01464">
        <ele>186.7</ele>
        <time>2022-04-10T08:22:36Z</time>
      </trkpt>
      <trkpt lat="49.14494" lon="2.01456">
        <ele>187.5</ele>
        <time>2022-04-10T08:22:41Z</time>
      </trkpt>
      <trkpt lat="49.145" lon="2.01447">
        <ele>188.5</ele>
        <time>2022-04-10T08:22:47Z</time>
      </trkpt>
      <trkpt lat="49.14506" lon="2.01438">
        <ele>189.3</ele>
        <time>2022-04-10T08:22:53Z</time>
      </trkpt>
      <trkpt lat="49.1451" lon="2.01431">
        <ele>189.9</ele>
        <time>2022-04-10T08:22:58Z</time>
      </trkpt>
      <trkpt lat="49.14515" lon="2.01423">
        <ele>190.6</ele>
        <time>2022-04-10T08:23:03Z</time>
      </trkpt>
      <trkpt lat="49.1452" lon="2.01411">
        <ele>191.3</ele>
        <time>2022-04-10T08:23:09Z</time>
      </trkpt>
      <trkpt lat="49.14526" lon="2.014">
        <ele>192</ele>
        <time>2022-04-10T08:23:15Z</time>
      </trkpt>
      <trkpt lat="49.14532" lon="2.01388">
        <ele>192.8</ele>
        <time>2022-04-10T08:23:20Z</time>
      </trkpt>
      <trkpt lat="49.14536" lon="2.01377">
        <ele>193.5</ele>
        <time>2022-04-10T08:23:26Z</time>
      </trkpt>
      <trkpt lat="49.14539" lon="2.01368">
        <ele>194.2</ele>
        <time>2022-04-10T08:23:32Z</time>
      </trkpt>
      <trkpt lat="49.14542" lon="2.0136">
        <ele>194.7</ele>
        <time>2022-04-10T08:23:37Z</time>
      </trkpt>
      <trkpt lat="49.14546" lon="2.01351">
        <ele>195.3</ele>
        <time>2022-04-10T08:23:42Z</time>
      </trkpt>
      <trkpt lat="49.1455" lon="2.0134">
        <ele>196</ele>
        <time>2022-04-10T08:23:48Z</time>
      </trkpt>
      <trkpt lat="49.14553" lon="2.0133">
        <ele>196.7</ele>
        <time>2022-04-10T08:23:54Z</time>
      </trkpt>
      <trkpt lat="49.14557" lon="2.0132">
        <ele>197.2</ele>
        <time>2022-04-10T08:24:00Z</time>
      </trkpt>
      <trkpt lat="49.14561" lon="2.0131">
        <ele>197.8</ele>
        <time>2022-04-10T08:24:06Z</time>
      </trkpt>
      <trkpt lat="49.14565" lon="2.013">
        <ele>198.2</ele>
        <time>2022-04-10T08:24:11Z</time>
      </trkpt>
      <trkpt lat="49.14568" lon="2.01288">
        <ele>198.6</ele>
        <time>2022-04-10T08:24:17Z</time>
      </trkpt>
      <trkpt lat="49.14571" lon="2.01278">
        <ele>199</ele>
        <time>2022-04-10T08:24:22Z</time>
      </trkpt>
      <trkpt lat="49.14574" lon="2.01268">
        <ele>199.4</ele>
        <time>2022-04-10T08:24:27Z</time>
      </trkpt>
      <trkpt lat="49.14578" lon="2.01256">
        <ele>199.8</ele>
        <time>2022-04-10T08:24:33Z</time>
      </trkpt>
      <trkpt lat="49.14582" lon="2.01246">
        <ele>200.4</ele>
        <time>2022-04-10T08:24:38Z</time>
      </trkpt>
      <trkpt lat="49.14586" lon="2.01239">
        <ele>201</ele>
        <time>2022-04-10T08:24:44Z</time>
      </trkpt>
      <trkpt lat="49.1459" lon="2.01232">
        <ele>201.6</ele>
        <time>2022-04-10T08:24:49Z</time>
      </trkpt>
      <trkpt lat="49.14594" lon="2.01224">
        <ele>202.2</ele>
        <time>2022-04-10T08:24:55Z</time>
      </trkpt>
      <trkpt lat="49.14594" lon="2.01222">
        <ele>202.3</ele>
        <time>2022-04-10T08:25:00Z</time>
      </trkpt>
      <trkpt lat="49.14594" lon="2.01222">
        <ele>202.6</ele>
        <time>2022-04-10T08:25:06Z</time>
      </trkpt>
      <trkpt lat="49.14594" lon="2.01222">
        <ele>202.8</ele>
        <time>2022-04-10T08:25:11Z</time>
      </trkpt>
      <trkpt lat="49.14593" lon="2.01223">
        <ele>202.9</ele>
        <time>2022-04-10T08:25:17Z</time>
      </trkpt>
      <trkpt lat="49.14593" lon="2.01219">
        <ele>203.2</ele>
        <time>2022-04-10T08:25:22Z</time>
      </trkpt>
      <trkpt lat="49.14595" lon="2.01208">
        <ele>203.6</ele>
        <time>2022-04-10T08:25:28Z</time>
      </trkpt>
      <trkpt lat="49.14599" lon="2.01194">
        <ele>204</ele>
        <time>2022-04-10T08:25:33Z</time>
      </trkpt>
      <trkpt lat="49.14602" lon="2.01182">
        <ele>204.6</ele>
        <time>2022-04-10T08:25:38Z</time>
      </trkpt>
      <trkpt lat="49.14606" lon="2.01173">
        <ele>205.8</ele>
        <time>2022-04-10T08:25:44Z</time>
      </trkpt>
      <trkpt lat="49.14612" lon="2.01169">
        <ele>206.9</ele>
        <time>2022-04-10T08:25:50Z</time>
      </trkpt>
      <trkpt lat="49.1462" lon="2.0117">
        <ele>207</ele>
        <time>2022-04-10T08:25:56Z</time>
      </trkpt>
      <trkpt lat="49.14622" lon="2.01164">
        <ele>207.1</ele>
        <time>2022-04-10T08:26:01Z</time>
      </trkpt>
      <trkpt lat="49.14622" lon="2.01161">
        <ele>207.4</ele>
        <time>2022-04-10T08:26:07Z</time>
      </trkpt>
      <trkpt lat="49.14622" lon="2.01151">
        <ele>207.9</ele>
        <time>2022-04-10T08:26:13Z</time>
      </trkpt>
      <trkpt lat="49.14625" lon="2.01141">
        <ele>208.6</ele>
        <time>2022-04-10T08:26:19Z</time>
      </trkpt>
      <trkpt lat="49.14628" lon="2.01132">
        <ele>209</ele>
        <time>2022-04-10T08:26:24Z</time>
      </trkpt>
      <trkpt lat="49.1463" lon="2.01121">
        <ele>209.6</ele>
        <time>2022-04-10T08:26:30Z</time>
      </trkpt>
      <trkpt lat="49.14633" lon="2.01111">
        <ele>210.5</ele>
        <time>2022-04-10T08:26:36Z</time>
      </trkpt>
      <trkpt lat="49.14634" lon="2.01095">
        <ele>211.9</ele>
        <time>2022-04-10T08:26:42Z</time>
      </trkpt>
      <trkpt lat="49.14633" lon="2.0109">
        <ele>212.9</ele>
        <time>2022-04-10T08:26:47Z</time>
      </trkpt>
      <trkpt lat="49.14636" lon="2.01085">
        <ele>213.5</ele>
        <time>2022-04-10T08:26:52Z</time>
      </trkpt>
      <trkpt lat="49.14637" lon="2.01084">
        <ele>213.8</ele>
        <time>2022-04-10T08:26:57Z</time>
      </trkpt>
      <trkpt lat="49.14639" lon="2.01093">
        <ele>214</ele>
        <time>2022-04-10T08:27:03Z</time>
      </trkpt>
      <trkpt lat="49.14644" lon="2.01099">
        <ele>213.7</ele>
        <time>2022-04-10T08:27:09Z</time>
      </trkpt>
      <trkpt lat="49.1465" lon="2.01105">
        <ele>213.5</ele>
        <time>2022-04-10T08:27:14Z</time>
      </trkpt>
      <trkpt lat="49.14658" lon="2.01113">
        <ele>213.5</ele>
        <time>2022-04-10T08:27:20Z</time>
      </trkpt>
      <trkpt lat="49.14664" lon="2.01118">
        <ele>213.6</ele>
        <time>2022-04-10T08:27:25Z</time>
      </trkpt>
      <trkpt lat="49.1467" lon="2.01118">
        <ele>214.2</ele>
        <time>2022-04-10T08:27:31Z</time>
      </trkpt>
      <trkpt lat="49.14678" lon="2.01105">
        <ele>214.6</ele>
        <time>2022-04-10T08:27:36Z</time>
      </trkpt>
      <trkpt lat="49.1468" lon="2.01096">
        <ele>215.5</ele>
        <time>2022-04-10T08:27:41Z</time>
      </trkpt>
      <trkpt lat="49.14679" lon="2.01087">
        <ele>216.6</ele>
        <time>2022-04-10T08:27:47Z</time>
      </trkpt>
      <trkpt lat="49.14678" lon="2.01076">
        <ele>217.4</ele>
        <time>2022-04-10T08:27:52Z</time>
      </trkpt>
      <trkpt lat="49.14677" lon="2.01074">
        <ele>218</ele>
        <time>2022-04-10T08:27:58Z</time>
      </trkpt>
      <trkpt lat="49.14677" lon="2.0108">
        <ele>218.3</ele>
        <time>2022-04-10T08:28:03Z</time>
      </trkpt>
      <trkpt lat="49.14675" lon="2.01092">
        <ele>217.9</ele>
        <time>2022-04-10T08:28:09Z</time>
      </trkpt>
      <trkpt lat="49.14674" lon="2.01105">
        <ele>217.4</ele>
        <time>2022-04-10T08:28:15Z</time>
      </trkpt>
      <trkpt lat="49.14674" lon="2.01118">
        <ele>216.9</ele>
        <time>2022-04-10T08:28:20Z</time>
      </trkpt>
      <trkpt lat="49.14681" lon="2.0113">
        <ele>216.1</ele>
        <time>2022-04-10T08:28:26Z</time>
      </trkpt>
      <trkpt lat="49.14688" lon="2.01134">
        <ele>215.3</ele>
        <time>2022-04-10T08:28:31Z</time>
      </trkpt>
      <trkpt lat="49.14694" lon="2.01134">
        <ele>215</ele>
        <time>2022-04-10T08:28:37Z</time>
      </trkpt>
      <trkpt lat="49.14697" lon="2.01124">
        <ele>215</ele>
        <time>2022-04-10T08:28:43Z</time>
      </trkpt>
      <trkpt lat="49.14699" lon="2.01118">
        <ele>215.2</ele>
        <time>2022-04-10T08:28:49Z</time>
      </trkpt>
      <trkpt lat="49.14702" lon="2.01115">
        <ele>215.4</ele>
        <time>2022-04-10T08:28:54Z</time>
      </trkpt>
      <trkpt lat="49.14706" lon="2.0111">
        <ele>215.6</ele>
        <time>2022-04-10T08:29:00Z</time>
      </trkpt>
      <trkpt lat="49.14711" lon="2.01103">
        <ele>215.5</ele>
        <time>2022-04-10T08:29:05Z</time>
      </trkpt>
      <trkpt lat="49.14716" lon="2.01096">
        <ele>215.5</ele>
        <time>2022-04-10T08:29:10Z</time>
      </trkpt>
      <trkpt lat="49.14724" lon="2.01086">
        <ele>215.6</ele>
        <time>2022-04-10T08:29:16Z</time>
      </trkpt>
      <trkpt lat="49.14731" lon="2.01077">
        <ele>215.9</ele>
        <time>2022-04-10T08:29:21Z</time>
      </trkpt>
      <trkpt lat="49.14737" lon="2.01069">
        <ele>216.3</ele>
        <time>2022-04-10T08:29:27Z</time>
      </trkpt>
      <trkpt lat="49.14742" lon="2.01064">
        <ele>216.8</ele>
        <time>2022-04-10T08:29:32Z</time>
      </trkpt>
      <trkpt lat="49.14747" lon="2.01059">
        <ele>217.3</ele>
        <time>2022-04-10T08:29:37Z</time>
      </trkpt>
      <trkpt lat="49.14752" lon="2.01055">
        <ele>217.7</ele>
        <time>2022-04-10T08:29:43Z</time>
      </trkpt>
      <trkpt lat="49.14755" lon="2.01052">
        <ele>218</ele>
        <time>2022-04-10T08:29:48Z</time>
      </trkpt>
      <trkpt lat="49.1476" lon="2.01048">
        <ele>218.4</ele>
        <time>2022-04-10T08:29:54Z</time>
      </trkpt>
      <trkpt lat="49.14766" lon="2.01045">
        <ele>218.9</ele>
        <time>2022-04-10T08:30:00Z</time>
      </trkpt>
      <trkpt lat="49.14773" lon="2.0104">
        <ele>219.5</ele>
        <time>2022-04-10T08:30:06Z</time>
      </trkpt>
      <trkpt lat="49.14777" lon="2.01034">
        <ele>220.6</ele>
        <time>2022-04-10T08:30:12Z</time>
      </trkpt>
      <trkpt lat="49.14781" lon="2.01026">
        <ele>221.5</ele>
        <time>2022-04-10T08:30:17Z</time>
      </trkpt>
      <trkpt lat="49.14786" lon="2.01016">
        <ele>222.4</ele>
        <time>2022-04-10T08:30:23Z</time>
      </trkpt>
      <trkpt lat="49.14791" lon="2.01007">
        <ele>223.2</ele>
        <time>2022-04-10T08:30:28Z</time>
      </trkpt>
      <trkpt lat="49.14796" lon="2.00997">
        <ele>224.1</ele>
        <time>2022-04-10T08:30:34Z</time>
      </trkpt>
      <trkpt lat="49.14801" lon="2.0099">
        <ele>224.7</ele>
        <time>2022-04-10T08:30:39Z</time>
      </trkpt>
      <trkpt lat="49.14807" lon="2.00982">
        <ele>225.3</ele>
        <time>2022-04-10T08:30:45Z</time>
      </trkpt>
      <trkpt lat="49.14812" lon="2.00975">
        <ele>226.1</ele>
        <time>2022-04-10T08:30:51Z</time>
      </trkpt>
      <trkpt lat="49.14816" lon="2.00969">
        <ele>226.7</ele>
        <time>2022-04-10T08:30:56Z</time>
      </trkpt>
      <trkpt lat="49.1482" lon="2.00962">
        <ele>227.5</ele>
        <time>2022-04-10T08:31:02Z</time>
      </trkpt>
      <trkpt lat="49.14825" lon="2.00954">
        <ele>228.5</ele>
        <time>2022-04-10T08:31:08Z</time>
      </trkpt>
      <trkpt lat="49.14831" lon="2.00947">
        <ele>229.3</ele>
        <time>2022-04-10T08:31:13Z</time>
      </trkpt>
      <trkpt lat="49.14837" lon="2.00939">
        <ele>230.1</ele>
        <time>2022-04-10T08:31:19Z</time>
      </trkpt>
      <trkpt lat="49.14841" lon="2.00932">
        <ele>230.6</ele>
        <time>2022-04-10T08:31:24Z</time>
      </trkpt>
      <trkpt lat="49.14847" lon="2.00924">
        <ele>231.1</ele>
        <time>2022-04-10T08:31:30Z</time>
      </trkpt>
      <trkpt lat="49.14852" lon="2.00917">
        <ele>231.5</ele>
        <time>2022-04-10T08:31:35Z</time>
      </trkpt>
      <trkpt lat="49.14858" lon="2.00908">
        <ele>231.9</ele>
        <time>2022-04-10T08:31:41Z</time>
      </trkpt>
      <trkpt lat="49.14864" lon="2.00897">
        <ele>232.4</ele>
        <time>2022-04-10T08:31:47Z</time>
      </trkpt>
      <trkpt lat="49.14868" lon="2.00888">
        <ele>232.8</ele>
        <time>2022-04-10T08:31:52Z</time>
      </trkpt>
      <trkpt lat="49.14872" lon="2.00879">
        <ele>233.3</ele>
        <time>2022-04-10T08:31:58Z</time>
      </trkpt>
      <trkpt lat="49.14875" lon="2.00872">
        <ele>233.5</ele>
        <time>2022-04-10T08:32:03Z</time>
      </trkpt>
      <trkpt lat="49.14878" lon="2.00865">
        <ele>233.8</ele>
        <time>2022-04-10T08:32:09Z</time>
      </trkpt>
      <trkpt lat="49.14882" lon="2.0086">
        <ele>234.2</ele>
        <time>2022-04-10T08:32:15Z</time>
      </trkpt>
      <trkpt lat="49.14884" lon="2.00856">
        <ele>235.1</ele>
        <time>2022-04-10T08:32:21Z</time>
      </trkpt>
      <trkpt lat="49.14887" lon="2.00852">
        <ele>235.8</ele>
        <time>2022-04-10T08:32:26Z</time>
      </trkpt>
      <trkpt lat="49.14892" lon="2.00845">
        <ele>236.5</ele>
        <time>2022-04-10T08:32:32Z</time>
      </trkpt>
      <trkpt lat="49.14899" lon="2.00837">
        <ele>237.1</ele>
        <time>2022-04-10T08:32:38Z</time>
      </trkpt>
      <trkpt lat="49.14905" lon="2.0083">
        <ele>237.5</ele>
        <time>2022-04-10T08:32:43Z</time>
      </trkpt>
      <trkpt lat="49.1491" lon="2.00822">
        <ele>237.8</ele>
        <time>2022-04-10T08:32:49Z</time>
      </trkpt>
      <trkpt lat="49.14915" lon="2.00813">
        <ele>238.1</ele>
        <time>2022-04-10T08:32:55Z</time>
      </trkpt>
      <trkpt lat="49.14918" lon="2.00808">
        <ele>238.3</ele>
        <time>2022-04-10T08:33:00Z</time>
      </trkpt>
      <trkpt lat="49.14924" lon="2.00801">
        <ele>238.3</ele>
        <time>2022-04-10T08:33:06Z</time>
      </trkpt>
      <trkpt lat="49.14933" lon="2.00794">
        <ele>238.3</ele>
        <time>2022-04-10T08:33:12Z</time>
      </trkpt>
      <trkpt lat="49.14941" lon="2.00788">
        <ele>238.5</ele>
        <time>2022-04-10T08:33:18Z</time>
      </trkpt>
      <trkpt lat="49.14947" lon="2.00784">
        <ele>238.7</ele>
        <time>2022-04-10T08:33:23Z</time>
      </trkpt>
      <trkpt lat="49.14954" lon="2.0078">
        <ele>238.8</ele>
        <time>2022-04-10T08:33:29Z</time>
      </trkpt>
      <trkpt lat="49.14961" lon="2.00775">
        <ele>238.9</ele>
        <time>2022-04-10T08:33:35Z</time>
      </trkpt>
      <trkpt lat="49.14968" lon="2.0077">
        <ele>239</ele>
        <time>2022-04-10T08:33:41Z</time>
      </trkpt>
      <trkpt lat="49.14974" lon="2.00766">
        <ele>239.1</ele>
        <time>2022-04-10T08:33:46Z</time>
      </trkpt>
      <trkpt lat="49.1498" lon="2.00762">
        <ele>239.3</ele>
        <time>2022-04-10T08:33:51Z</time>
      </trkpt>
      <trkpt lat="49.14988" lon="2.00758">
        <ele>239.5</ele>
        <time>2022-04-10T08:33:57Z</time>
      </trkpt>
      <trkpt lat="49.14997" lon="2.00753">
        <ele>240</ele>
        <time>2022-04-10T08:34:03Z</time>
      </trkpt>
      <trkpt lat="49.15004" lon="2.00749">
        <ele>240.5</ele>
        <time>2022-04-10T08:34:08Z</time>
      </trkpt>
      <trkpt lat="49.15012" lon="2.00743">
        <ele>241.2</ele>
        <time>2022-04-10T08:34:14Z</time>
      </trkpt>
      <trkpt lat="49.15019" lon="2.00735">
        <ele>241.7</ele>
        <time>2022-04-10T08:34:20Z</time>
      </trkpt>
      <trkpt lat="49.15024" lon="2.00729">
        <ele>242.3</ele>
        <time>2022-04-10T08:34:25Z</time>
      </trkpt>
      <trkpt lat="49.15029" lon="2.00721">
        <ele>242.8</ele>
        <time>2022-04-10T08:34:31Z</time>
      </trkpt>
      <trkpt lat="49.15034" lon="2.00715">
        <ele>242.9</ele>
        <time>2022-04-10T08:34:36Z</time>
      </trkpt>
      <trkpt lat="49.15038" lon="2.00708">
        <ele>242.9</ele>
        <time>2022-04-10T08:34:42Z</time>
      </trkpt>
      <trkpt lat="49.15042" lon="2.00702">
        <ele>242.9</ele>
        <time>2022-04-10T08:34:47Z</time>
      </trkpt>
      <trkpt lat="49.15048" lon="2.00693">
        <ele>242.7</ele>
        <time>2022-04-10T08:34:53Z</time>
      </trkpt>
      <trkpt lat="49.15053" lon="2.00686">
        <ele>242.5</ele>
        <time>2022-04-10T08:34:59Z</time>
      </trkpt>
      <trkpt lat="49.15058" lon="2.00679">
        <ele>242.5</ele>
        <time>2022-04-10T08:35:05Z</time>
      </trkpt>
      <trkpt lat="49.15065" lon="2.00672">
        <ele>242.8</ele>
        <time>2022-04-10T08:35:11Z</time>
      </trkpt>
      <trkpt lat="49.15072" lon="2.00666">
        <ele>243.1</ele>
        <time>2022-04-10T08:35:17Z</time>
      </trkpt>
      <trkpt lat="49.15078" lon="2.0066">
        <ele>243.2</ele>
        <time>2022-04-10T08:35:23Z</time>
      </trkpt>
      <trkpt lat="49.15083" lon="2.00653">
        <ele>243.3</ele>
        <time>2022-04-10T08:35:29Z</time>
      </trkpt>
      <trkpt lat="49.15087" lon="2.00646">
        <ele>243.4</ele>
        <time>2022-04-10T08:35:34Z</time>
      </trkpt>
      <trkpt lat="49.15092" lon="2.0064">
        <ele>243.4</ele>
        <time>2022-04-10T08:35:39Z</time>
      </trkpt>
      <trkpt lat="49.15098" lon="2.00632">
        <ele>243.2</ele>
        <time>2022-04-10T08:35:45Z</time>
      </trkpt>
      <trkpt lat="49.15105" lon="2.00624">
        <ele>243.1</ele>
        <time>2022-04-10T08:35:50Z</time>
      </trkpt>
      <trkpt lat="49.15114" lon="2.00615">
        <ele>243.3</ele>
        <time>2022-04-10T08:35:56Z</time>
      </trkpt>
      <trkpt lat="49.1512" lon="2.00608">
        <ele>243.5</ele>
        <time>2022-04-10T08:36:01Z</time>
      </trkpt>
      <trkpt lat="49.15127" lon="2.006">
        <ele>244</ele>
        <time>2022-04-10T08:36:07Z</time>
      </trkpt>
      <trkpt lat="49.15133" lon="2.00593">
        <ele>244.4</ele>
        <time>2022-04-10T08:36:13Z</time>
      </trkpt>
      <trkpt lat="49.15139" lon="2.00585">
        <ele>244.9</ele>
        <time>2022-04-10T08:36:18Z</time>
      </trkpt>
      <trkpt lat="49.15143" lon="2.00579">
        <ele>245.3</ele>
        <time>2022-04-10T08:36:23Z</time>
      </trkpt>
      <trkpt lat="49.15149" lon="2.00569">
        <ele>245.8</ele>
        <time>2022-04-10T08:36:29Z</time>
      </trkpt>
      <trkpt lat="49.15154" lon="2.00561">
        <ele>246</ele>
        <time>2022-04-10T08:36:35Z</time>
      </trkpt>
      <trkpt lat="49.1516" lon="2.00552">
        <ele>246</ele>
        <time>2022-04-10T08:36:41Z</time>
      </trkpt>
      <trkpt lat="49.15165" lon="2.00543">
        <ele>246</ele>
        <time>2022-04-10T08:36:46Z</time>
      </trkpt>
      <trkpt lat="49.15171" lon="2.00533">
        <ele>246.2</ele>
        <time>2022-04-10T08:36:52Z</time>
      </trkpt>
      <trkpt lat="49.15177" lon="2.00523">
        <ele>246.3</ele>
        <time>2022-04-10T08:36:58Z</time>
      </trkpt>
      <trkpt lat="49.15183" lon="2.00514">
        <ele>246.3</ele>
        <time>2022-04-10T08:37:03Z</time>
      </trkpt>
      <trkpt lat="49.15189" lon="2.00505">
        <ele>246.3</ele>
        <time>2022-04-10T08:37:09Z</time>
      </trkpt>
      <trkpt lat="49.15196" lon="2.00495">
        <ele>246.3</ele>
        <time>2022-04-10T08:37:15Z</time>
      </trkpt>
      <trkpt lat="49.15201" lon="2.00486">
        <ele>246.1</ele>
        <time>2022-04-10T08:37:20Z</time>
      </trkpt>
      <trkpt lat="49.15206" lon="2.00478">
        <ele>245.8</ele>
        <time>2022-04-10T08:37:26Z</time>
      </trkpt>
      <trkpt lat="49.15211" lon="2.00471">
        <ele>245.6</ele>
        <time>2022-04-10T08:37:31Z</time>
      </trkpt>
      <trkpt lat="49.15215" lon="2.00463">
        <ele>245.4</ele>
        <time>2022-04-10T08:37:36Z</time>
      </trkpt>
      <trkpt lat="49.15221" lon="2.00452">
        <ele>245.3</ele>
        <time>2022-04-10T08:37:42Z</time>
      </trkpt>
      <trkpt lat="49.15225" lon="2.00443">
        <ele>245.2</ele>
        <time>2022-04-10T08:37:47Z</time>
      </trkpt>
      <trkpt lat="49.15232" lon="2.00431">
        <ele>245.2</ele>
        <time>2022-04-10T08:37:53Z</time>
      </trkpt>
      <trkpt lat="49.15236" lon="2.00423">
        <ele>245.1</ele>
        <time>2022-04-10T08:37:58Z</time>
      </trkpt>
      <trkpt lat="49.15241" lon="2.00414">
        <ele>244.9</ele>
        <time>2022-04-10T08:38:04Z</time>
      </trkpt>
      <trkpt lat="49.15246" lon="2.00405">
        <ele>244.7</ele>
        <time>2022-04-10T08:38:10Z</time>
      </trkpt>
      <trkpt lat="49.1525" lon="2.00398">
        <ele>244.7</ele>
        <time>2022-04-10T08:38:16Z</time>
      </trkpt>
      <trkpt lat="49.15252" lon="2.00395">
        <ele>244.8</ele>
        <time>2022-04-10T08:38:22Z</time>
      </trkpt>
      <trkpt lat="49.15253" lon="2.00393">
        <ele>244.9</ele>
        <time>2022-04-10T08:38:27Z</time>
      </trkpt>
      <trkpt lat="49.15253" lon="2.00392">
        <ele>245.2</ele>
        <time>2022-04-10T08:38:33Z</time>
      </trkpt>
      <trkpt lat="49.15252" lon="2.00392">
        <ele>245.3</ele>
        <time>2022-04-10T08:38:38Z</time>
      </trkpt>
      <trkpt lat="49.15252" lon="2.00392">
        <ele>245.3</ele>
        <time>2022-04-10T08:38:44Z</time>
      </trkpt>
      <trkpt lat="49.15252" lon="2.00392">
        <ele>245.6</ele>
        <time>2022-04-10T08:38:49Z</time>
      </trkpt>
      <trkpt lat="49.15251" lon="2.00392">
        <ele>245.7</ele>
        <time>2022-04-10T08:38:55Z</time>
      </trkpt>
      <trkpt lat="49.15251" lon="2.00392">
        <ele>245.8</ele>
        <time>2022-04-10T08:39:00Z</time>
      </trkpt>
      <trkpt lat="49.1525" lon="2.00392">
        <ele>246</ele>
        <time>2022-04-10T08:39:05Z</time>
      </trkpt>
      <trkpt lat="49.15251" lon="2.0039">
        <ele>246.9</ele>
        <time>2022-04-10T08:39:10Z</time>
      </trkpt>
      <trkpt lat="49.15258" lon="2.00385">
        <ele>247.7</ele>
        <time>2022-04-10T08:39:16Z</time>
      </trkpt>
      <trkpt lat="49.15264" lon="2.00381">
        <ele>248</ele>
        <time>2022-04-10T08:39:21Z</time>
      </trkpt>
      <trkpt lat="49.1527" lon="2.00376">
        <ele>247.8</ele>
        <time>2022-04-10T08:39:27Z</time>
      </trkpt>
      <trkpt lat="49.15276" lon="2.00371">
        <ele>247</ele>
        <time>2022-04-10T08:39:33Z</time>
      </trkpt>
      <trkpt lat="49.15281" lon="2.00366">
        <ele>246.1</ele>
        <time>2022-04-10T08:39:38Z</time>
      </trkpt>
      <trkpt lat="49.15286" lon="2.00359">
        <ele>245</ele>
        <time>2022-04-10T08:39:44Z</time>
      </trkpt>
      <trkpt lat="49.1529" lon="2.00354">
        <ele>244</ele>
        <time>2022-04-10T08:39:49Z</time>
      </trkpt>
      <trkpt lat="49.15295" lon="2.00346">
        <ele>242.6</ele>
        <time>2022-04-10T08:39:55Z</time>
      </trkpt>
      <trkpt lat="49.15299" lon="2.00341">
        <ele>241.2</ele>
        <time>2022-04-10T08:40:00Z</time>
      </trkpt>
      <trkpt lat="49.15303" lon="2.00335">
        <ele>239.5</ele>
        <time>2022-04-10T08:40:05Z</time>
      </trkpt>
      <trkpt lat="49.15306" lon="2.00328">
        <ele>237.4</ele>
        <time>2022-04-10T08:40:11Z</time>
      </trkpt>
      <trkpt lat="49.1531" lon="2.00321">
        <ele>235.6</ele>
        <time>2022-04-10T08:40:16Z</time>
      </trkpt>
      <trkpt lat="49.15313" lon="2.00312">
        <ele>233</ele>
        <time>2022-04-10T08:40:22Z</time>
      </trkpt>
      <trkpt lat="49.15317" lon="2.00304">
        <ele>230.3</ele>
        <time>2022-04-10T08:40:28Z</time>
      </trkpt>
      <trkpt lat="49.15321" lon="2.00296">
        <ele>228.5</ele>
        <time>2022-04-10T08:40:33Z</time>
      </trkpt>
      <trkpt lat="49.15325" lon="2.00287">
        <ele>225.7</ele>
        <time>2022-04-10T08:40:39Z</time>
      </trkpt>
      <trkpt lat="49.15328" lon="2.0028">
        <ele>223.2</ele>
        <time>2022-04-10T08:40:45Z</time>
      </trkpt>
      <trkpt lat="49.1533" lon="2.00274">
        <ele>220.6</ele>
        <time>2022-04-10T08:40:50Z</time>
      </trkpt>
      <trkpt lat="49.15331" lon="2.00268">
        <ele>218.3</ele>
        <time>2022-04-10T08:40:55Z</time>
      </trkpt>
      <trkpt lat="49.15334" lon="2.00262">
        <ele>215.4</ele>
        <time>2022-04-10T08:41:01Z</time>
      </trkpt>
      <trkpt lat="49.15338" lon="2.00255">
        <ele>213.1</ele>
        <time>2022-04-10T08:41:06Z</time>
      </trkpt>
      <trkpt lat="49.15344" lon="2.00245">
        <ele>210.9</ele>
        <time>2022-04-10T08:41:12Z</time>
      </trkpt>
      <trkpt lat="49.15349" lon="2.00235">
        <ele>209.8</ele>
        <time>2022-04-10T08:41:17Z</time>
      </trkpt>
      <trkpt lat="49.15356" lon="2.00225">
        <ele>208.4</ele>
        <time>2022-04-10T08:41:23Z</time>
      </trkpt>
      <trkpt lat="49.15361" lon="2.00216">
        <ele>207.6</ele>
        <time>2022-04-10T08:41:28Z</time>
      </trkpt>
      <trkpt lat="49.15368" lon="2.00206">
        <ele>207</ele>
        <time>2022-04-10T08:41:34Z</time>
      </trkpt>
      <trkpt lat="49.15373" lon="2.00197">
        <ele>206.4</ele>
        <time>2022-04-10T08:41:39Z</time>
      </trkpt>
      <trkpt lat="49.1538" lon="2.00186">
        <ele>205.9</ele>
        <time>2022-04-10T08:41:45Z</time>
      </trkpt>
      <trkpt lat="49.15386" lon="2.00176">
        <ele>206</ele>
        <time>2022-04-10T08:41:50Z</time>
      </trkpt>
      <trkpt lat="49.15394" lon="2.00162">
        <ele>206.9</ele>
        <time>2022-04-10T08:41:56Z</time>
      </trkpt>
      <trkpt lat="49.15401" lon="2.00149">
        <ele>207.9</ele>
        <time>2022-04-10T08:42:02Z</time>
      </trkpt>
      <trkpt lat="49.15406" lon="2.00142">
        <ele>208.9</ele>
        <time>2022-04-10T08:42:07Z</time>
      </trkpt>
      <trkpt lat="49.1541" lon="2.00134">
        <ele>210.3</ele>
        <time>2022-04-10T08:42:12Z</time>
      </trkpt>
      <trkpt lat="49.15416" lon="2.00125">
        <ele>211.8</ele>
        <time>2022-04-10T08:42:17Z</time>
      </trkpt>
      <trkpt lat="49.15422" lon="2.00117">
        <ele>213.1</ele>
        <time>2022-04-10T08:42:23Z</time>
      </trkpt>
      <trkpt lat="49.15427" lon="2.00111">
        <ele>213.8</ele>
        <time>2022-04-10T08:42:28Z</time>
      </trkpt>
      <trkpt lat="49.15431" lon="2.00106">
        <ele>214.3</ele>
        <time>2022-04-10T08:42:33Z</time>
      </trkpt>
      <trkpt lat="49.15436" lon="2.001">
        <ele>214.8</ele>
        <time>2022-04-10T08:42:39Z</time>
      </trkpt>
      <trkpt lat="49.1544" lon="2.00094">
        <ele>215</ele>
        <time>2022-04-10T08:42:45Z</time>
      </trkpt>
      <trkpt lat="49.15446" lon="2.00089">
        <ele>214.8</ele>
        <time>2022-04-10T08:42:51Z</time>
      </trkpt>
      <trkpt lat="49.15451" lon="2.00081">
        <ele>214.3</ele>
        <time>2022-04-10T08:42:57Z</time>
      </trkpt>
      <trkpt lat="49.15455" lon="2.00076">
        <ele>213.4</ele>
        <time>2022-04-10T08:43:02Z</time>
      </trkpt>
      <trkpt lat="49.1546" lon="2.0007">
        <ele>212.1</ele>
        <time>2022-04-10T08:43:07Z</time>
      </trkpt>
      <trkpt lat="49.15464" lon="2.00066">
        <ele>211.3</ele>
        <time>2022-04-10T08:43:12Z</time>
      </trkpt>
      <trkpt lat="49.15471" lon="2.00059">
        <ele>209.9</ele>
        <time>2022-04-10T08:43:18Z</time>
      </trkpt>
      <trkpt lat="49.15477" lon="2.00052">
        <ele>208.7</ele>
        <time>2022-04-10T08:43:23Z</time>
      </trkpt>
      <trkpt lat="49.15484" lon="2.00044">
        <ele>207.2</ele>
        <time>2022-04-10T08:43:29Z</time>
      </trkpt>
      <trkpt lat="49.1549" lon="2.00035">
        <ele>205.3</ele>
        <time>2022-04-10T08:43:35Z</time>
      </trkpt>
      <trkpt lat="49.15496" lon="2.00025">
        <ele>204</ele>
        <time>2022-04-10T08:43:41Z</time>
      </trkpt>
      <trkpt lat="49.15502" lon="2.00013">
        <ele>203</ele>
        <time>2022-04-10T08:43:47Z</time>
      </trkpt>
      <trkpt lat="49.15506" lon="2.00002">
        <ele>202.5</ele>
        <time>2022-04-10T08:43:52Z</time>
      </trkpt>
      <trkpt lat="49.1551" lon="1.99992">
        <ele>202.1</ele>
        <time>2022-04-10T08:43:57Z</time>
      </trkpt>
      <trkpt lat="49.15514" lon="1.99983">
        <ele>201.4</ele>
        <time>2022-04-10T08:44:03Z</time>
      </trkpt>
      <trkpt lat="49.15518" lon="1.99976">
        <ele>200.4</ele>
        <time>2022-04-10T08:44:08Z</time>
      </trkpt>
      <trkpt lat="49.15525" lon="1.99964">
        <ele>199.4</ele>
        <time>2022-04-10T08:44:14Z</time>
      </trkpt>
      <trkpt lat="49.15529" lon="1.99955">
        <ele>198.8</ele>
        <time>2022-04-10T08:44:19Z</time>
      </trkpt>
      <trkpt lat="49.15534" lon="1.99945">
        <ele>197.7</ele>
        <time>2022-04-10T08:44:25Z</time>
      </trkpt>
      <trkpt lat="49.15539" lon="1.99936">
        <ele>196.8</ele>
        <time>2022-04-10T08:44:30Z</time>
      </trkpt>
      <trkpt lat="49.15543" lon="1.9993">
        <ele>195.6</ele>
        <time>2022-04-10T08:44:36Z</time>
      </trkpt>
      <trkpt lat="49.15547" lon="1.99922">
        <ele>194.7</ele>
        <time>2022-04-10T08:44:41Z</time>
      </trkpt>
      <trkpt lat="49.15551" lon="1.99914">
        <ele>193.7</ele>
        <time>2022-04-10T08:44:47Z</time>
      </trkpt>
      <trkpt lat="49.15557" lon="1.99902">
        <ele>192.5</ele>
        <time>2022-04-10T08:44:53Z</time>
      </trkpt>
      <trkpt lat="49.15562" lon="1.99892">
        <ele>191.4</ele>
        <time>2022-04-10T08:44:58Z</time>
      </trkpt>
      <trkpt lat="49.15566" lon="1.99882">
        <ele>190.1</ele>
        <time>2022-04-10T08:45:04Z</time>
      </trkpt>
      <trkpt lat="49.15571" lon="1.99873">
        <ele>189.3</ele>
        <time>2022-04-10T08:45:09Z</time>
      </trkpt>
      <trkpt lat="49.15576" lon="1.99865">
        <ele>188.4</ele>
        <time>2022-04-10T08:45:15Z</time>
      </trkpt>
      <trkpt lat="49.1558" lon="1.99854">
        <ele>187.6</ele>
        <time>2022-04-10T08:45:21Z</time>
      </trkpt>
      <trkpt lat="49.15586" lon="1.99841">
        <ele>187</ele>
        <time>2022-04-10T08:45:27Z</time>
      </trkpt>
      <trkpt lat="49.1559" lon="1.99829">
        <ele>186.9</ele>
        <time>2022-04-10T08:45:32Z</time>
      </trkpt>
      <trkpt lat="49.15596" lon="1.99816">
        <ele>186.7</ele>
        <time>2022-04-10T08:45:38Z</time>
      </trkpt>
      <trkpt lat="49.15599" lon="1.99809">
        <ele>186.7</ele>
        <time>2022-04-10T08:45:43Z</time>
      </trkpt>
      <trkpt lat="49.15604" lon="1.998">
        <ele>186.6</ele>
        <time>2022-04-10T08:45:49Z</time>
      </trkpt>
      <trkpt lat="49.15609" lon="1.99791">
        <ele>186.4</ele>
        <time>2022-04-10T08:45:54Z</time>
      </trkpt>
      <trkpt lat="49.15616" lon="1.99782">
        <ele>186.2</ele>
        <time>2022-04-10T08:45:59Z</time>
      </trkpt>
      <trkpt lat="49.15623" lon="1.99773">
        <ele>186.5</ele>
        <time>2022-04-10T08:46:04Z</time>
      </trkpt>
      <trkpt lat="49.1563" lon="1.99762">
        <ele>187.1</ele>
        <time>2022-04-10T08:46:10Z</time>
      </trkpt>
      <trkpt lat="49.15635" lon="1.99752">
        <ele>187.7</ele>
        <time>2022-04-10T08:46:16Z</time>
      </trkpt>
      <trkpt lat="49.15639" lon="1.99742">
        <ele>187.9</ele>
        <time>2022-04-10T08:46:22Z</time>
      </trkpt>
      <trkpt lat="49.15643" lon="1.99733">
        <ele>188</ele>
        <time>2022-04-10T08:46:28Z</time>
      </trkpt>
      <trkpt lat="49.15646" lon="1.99724">
        <ele>187.8</ele>
        <time>2022-04-10T08:46:33Z</time>
      </trkpt>
      <trkpt lat="49.1565" lon="1.99714">
        <ele>187.3</ele>
        <time>2022-04-10T08:46:39Z</time>
      </trkpt>
      <trkpt lat="49.15653" lon="1.99705">
        <ele>186.8</ele>
        <time>2022-04-10T08:46:44Z</time>
      </trkpt>
      <trkpt lat="49.15657" lon="1.99696">
        <ele>186</ele>
        <time>2022-04-10T08:46:50Z</time>
      </trkpt>
      <trkpt lat="49.15661" lon="1.9969">
        <ele>185.1</ele>
        <time>2022-04-10T08:46:55Z</time>
      </trkpt>
      <trkpt lat="49.15667" lon="1.99678">
        <ele>184.4</ele>
        <time>2022-04-10T08:47:01Z</time>
      </trkpt>
      <trkpt lat="49.15672" lon="1.99668">
        <ele>183.9</ele>
        <time>2022-04-10T08:47:06Z</time>
      </trkpt>
      <trkpt lat="49.15678" lon="1.99656">
        <ele>183.6</ele>
        <time>2022-04-10T08:47:12Z</time>
      </trkpt>
      <trkpt lat="49.15683" lon="1.99644">
        <ele>183.4</ele>
        <time>2022-04-10T08:47:17Z</time>
      </trkpt>
      <trkpt lat="49.1569" lon="1.99632">
        <ele>183.3</ele>
        <time>2022-04-10T08:47:23Z</time>
      </trkpt>
      <trkpt lat="49.15695" lon="1.99622">
        <ele>183.3</ele>
        <time>2022-04-10T08:47:28Z</time>
      </trkpt>
      <trkpt lat="49.157" lon="1.99611">
        <ele>183.5</ele>
        <time>2022-04-10T08:47:34Z</time>
      </trkpt>
      <trkpt lat="49.15705" lon="1.99601">
        <ele>183.8</ele>
        <time>2022-04-10T08:47:39Z</time>
      </trkpt>
      <trkpt lat="49.15708" lon="1.99591">
        <ele>184</ele>
        <time>2022-04-10T08:47:44Z</time>
      </trkpt>
      <trkpt lat="49.1571" lon="1.99582">
        <ele>184.1</ele>
        <time>2022-04-10T08:47:49Z</time>
      </trkpt>
      <trkpt lat="49.15712" lon="1.99572">
        <ele>183.8</ele>
        <time>2022-04-10T08:47:55Z</time>
      </trkpt>
      <trkpt lat="49.15715" lon="1.9956">
        <ele>183.8</ele>
        <time>2022-04-10T08:48:01Z</time>
      </trkpt>
      <trkpt lat="49.15719" lon="1.9955">
        <ele>183.8</ele>
        <time>2022-04-10T08:48:07Z</time>
      </trkpt>
      <trkpt lat="49.15722" lon="1.99541">
        <ele>183.9</ele>
        <time>2022-04-10T08:48:12Z</time>
      </trkpt>
      <trkpt lat="49.15724" lon="1.99533">
        <ele>184</ele>
        <time>2022-04-10T08:48:17Z</time>
      </trkpt>
      <trkpt lat="49.15727" lon="1.99522">
        <ele>184</ele>
        <time>2022-04-10T08:48:23Z</time>
      </trkpt>
      <trkpt lat="49.1573" lon="1.99514">
        <ele>183.7</ele>
        <time>2022-04-10T08:48:28Z</time>
      </trkpt>
      <trkpt lat="49.15733" lon="1.99502">
        <ele>183</ele>
        <time>2022-04-10T08:48:34Z</time>
      </trkpt>
      <trkpt lat="49.15736" lon="1.99491">
        <ele>182.9</ele>
        <time>2022-04-10T08:48:39Z</time>
      </trkpt>
      <trkpt lat="49.1574" lon="1.99478">
        <ele>182.9</ele>
        <time>2022-04-10T08:48:45Z</time>
      </trkpt>
      <trkpt lat="49.15744" lon="1.99465">
        <ele>182.8</ele>
        <time>2022-04-10T08:48:51Z</time>
      </trkpt>
      <trkpt lat="49.15747" lon="1.99455">
        <ele>182.9</ele>
        <time>2022-04-10T08:48:56Z</time>
      </trkpt>
      <trkpt lat="49.15751" lon="1.99445">
        <ele>183</ele>
        <time>2022-04-10T08:49:02Z</time>
      </trkpt>
      <trkpt lat="49.15754" lon="1.99439">
        <ele>183</ele>
        <time>2022-04-10T08:49:07Z</time>
      </trkpt>
      <trkpt lat="49.15758" lon="1.99432">
        <ele>182.9</ele>
        <time>2022-04-10T08:49:12Z</time>
      </trkpt>
      <trkpt lat="49.15761" lon="1.99421">
        <ele>182.5</ele>
        <time>2022-04-10T08:49:18Z</time>
      </trkpt>
      <trkpt lat="49.15766" lon="1.99408">
        <ele>181.9</ele>
        <time>2022-04-10T08:49:24Z</time>
      </trkpt>
      <trkpt lat="49.15769" lon="1.99395">
        <ele>181.6</ele>
        <time>2022-04-10T08:49:30Z</time>
      </trkpt>
      <trkpt lat="49.15774" lon="1.9938">
        <ele>182.2</ele>
        <time>2022-04-10T08:49:36Z</time>
      </trkpt>
      <trkpt lat="49.15777" lon="1.99369">
        <ele>182.9</ele>
        <time>2022-04-10T08:49:41Z</time>
      </trkpt>
      <trkpt lat="49.15781" lon="1.99357">
        <ele>183.3</ele>
        <time>2022-04-10T08:49:47Z</time>
      </trkpt>
      <trkpt lat="49.15785" lon="1.99348">
        <ele>183.5</ele>
        <time>2022-04-10T08:49:52Z</time>
      </trkpt>
      <trkpt lat="49.1579" lon="1.99337">
        <ele>183.9</ele>
        <time>2022-04-10T08:49:58Z</time>
      </trkpt>
      <trkpt lat="49.15794" lon="1.99325">
        <ele>184.1</ele>
        <time>2022-04-10T08:50:04Z</time>
      </trkpt>
      <trkpt lat="49.15797" lon="1.99314">
        <ele>184.3</ele>
        <time>2022-04-10T08:50:09Z</time>
      </trkpt>
      <trkpt lat="49.15802" lon="1.99301">
        <ele>184.4</ele>
        <time>2022-04-10T08:50:15Z</time>
      </trkpt>
      <trkpt lat="49.15806" lon="1.99291">
        <ele>184.7</ele>
        <time>2022-04-10T08:50:20Z</time>
      </trkpt>
      <trkpt lat="49.1581" lon="1.99278">
        <ele>185</ele>
        <time>2022-04-10T08:50:26Z</time>
      </trkpt>
      <trkpt lat="49.15813" lon="1.99265">
        <ele>185.1</ele>
        <time>2022-04-10T08:50:32Z</time>
      </trkpt>
      <trkpt lat="49.15816" lon="1.99253">
        <ele>185</ele>
        <time>2022-04-10T08:50:38Z</time>
      </trkpt>
      <trkpt lat="49.1582" lon="1.99244">
        <ele>184.7</ele>
        <time>2022-04-10T08:50:43Z</time>
      </trkpt>
      <trkpt lat="49.15824" lon="1.99236">
        <ele>184.9</ele>
        <time>2022-04-10T08:50:48Z</time>
      </trkpt>
      <trkpt lat="49.15829" lon="1.99225">
        <ele>185.3</ele>
        <time>2022-04-10T08:50:53Z</time>
      </trkpt>
      <trkpt lat="49.15835" lon="1.99211">
        <ele>186.2</ele>
        <time>2022-04-10T08:50:59Z</time>
      </trkpt>
      <trkpt lat="49.15839" lon="1.992">
        <ele>187</ele>
        <time>2022-04-10T08:51:04Z</time>
      </trkpt>
      <trkpt lat="49.15843" lon="1.99191">
        <ele>187.6</ele>
        <time>2022-04-10T08:51:09Z</time>
      </trkpt>
      <trkpt lat="49.1585" lon="1.99179">
        <ele>188.2</ele>
        <time>2022-04-10T08:51:15Z</time>
      </trkpt>
      <trkpt lat="49.15856" lon="1.99167">
        <ele>189</ele>
        <time>2022-04-10T08:51:21Z</time>
      </trkpt>
      <trkpt lat="49.15862" lon="1.99158">
        <ele>189.7</ele>
        <time>2022-04-10T08:51:26Z</time>
      </trkpt>
      <trkpt lat="49.15868" lon="1.99148">
        <ele>190.6</ele>
        <time>2022-04-10T08:51:32Z</time>
      </trkpt>
      <trkpt lat="49.15873" lon="1.9914">
        <ele>191.3</ele>
        <time>2022-04-10T08:51:37Z</time>
      </trkpt>
      <trkpt lat="49.15878" lon="1.99128">
        <ele>192.1</ele>
        <time>2022-04-10T08:51:43Z</time>
      </trkpt>
      <trkpt lat="49.15883" lon="1.99118">
        <ele>192.5</ele>
        <time>2022-04-10T08:51:48Z</time>
      </trkpt>
      <trkpt lat="49.15886" lon="1.99108">
        <ele>192.7</ele>
        <time>2022-04-10T08:51:54Z</time>
      </trkpt>
      <trkpt lat="49.15888" lon="1.99104">
        <ele>192.8</ele>
        <time>2022-04-10T08:52:00Z</time>
      </trkpt>
      <trkpt lat="49.15891" lon="1.99102">
        <ele>193.1</ele>
        <time>2022-04-10T08:52:06Z</time>
      </trkpt>
      <trkpt lat="49.15895" lon="1.991">
        <ele>193.5</ele>
        <time>2022-04-10T08:52:11Z</time>
      </trkpt>
      <trkpt lat="49.159" lon="1.99096">
        <ele>194.1</ele>
        <time>2022-04-10T08:52:17Z</time>
      </trkpt>
      <trkpt lat="49.15904" lon="1.99089">
        <ele>195.2</ele>
        <time>2022-04-10T08:52:23Z</time>
      </trkpt>
      <trkpt lat="49.15907" lon="1.99083">
        <ele>196.1</ele>
        <time>2022-04-10T08:52:29Z</time>
      </trkpt>
      <trkpt lat="49.15908" lon="1.99077">
        <ele>196.7</ele>
        <time>2022-04-10T08:52:34Z</time>
      </trkpt>
      <trkpt lat="49.15906" lon="1.99071">
        <ele>197.2</ele>
        <time>2022-04-10T08:52:40Z</time>
      </trkpt>
      <trkpt lat="49.15905" lon="1.99066">
        <ele>197.3</ele>
        <time>2022-04-10T08:52:46Z</time>
      </trkpt>
      <trkpt lat="49.15905" lon="1.99064">
        <ele>197.3</ele>
        <time>2022-04-10T08:52:52Z</time>
      </trkpt>
      <trkpt lat="49.15905" lon="1.99063">
        <ele>197.4</ele>
        <time>2022-04-10T08:52:58Z</time>
      </trkpt>
      <trkpt lat="49.15905" lon="1.99061">
        <ele>197.9</ele>
        <time>2022-04-10T08:53:03Z</time>
      </trkpt>
      <trkpt lat="49.15905" lon="1.99056">
        <ele>198.7</ele>
        <time>2022-04-10T08:53:08Z</time>
      </trkpt>
      <trkpt lat="49.15906" lon="1.9905">
        <ele>199.7</ele>
        <time>2022-04-10T08:53:14Z</time>
      </trkpt>
      <trkpt lat="49.15908" lon="1.99047">
        <ele>200.5</ele>
        <time>2022-04-10T08:53:20Z</time>
      </trkpt>
      <trkpt lat="49.1591" lon="1.99044">
        <ele>201.3</ele>
        <time>2022-04-10T08:53:25Z</time>
      </trkpt>
      <trkpt lat="49.15915" lon="1.99039">
        <ele>202.1</ele>
        <time>2022-04-10T08:53:31Z</time>
      </trkpt>
      <trkpt lat="49.15916" lon="1.99035">
        <ele>202.8</ele>
        <time>2022-04-10T08:53:36Z</time>
      </trkpt>
      <trkpt lat="49.15918" lon="1.99028">
        <ele>203.5</ele>
        <time>2022-04-10T08:53:42Z</time>
      </trkpt>
      <trkpt lat="49.15919" lon="1.99021">
        <ele>203.9</ele>
        <time>2022-04-10T08:53:47Z</time>
      </trkpt>
      <trkpt lat="49.15922" lon="1.99015">
        <ele>204.4</ele>
        <time>2022-04-10T08:53:53Z</time>
      </trkpt>
      <trkpt lat="49.15925" lon="1.99011">
        <ele>204.7</ele>
        <time>2022-04-10T08:53:58Z</time>
      </trkpt>
      <trkpt lat="49.15926" lon="1.99008">
        <ele>205</ele>
        <time>2022-04-10T08:54:03Z</time>
      </trkpt>
      <trkpt lat="49.15927" lon="1.99007">
        <ele>205.5</ele>
        <time>2022-04-10T08:54:09Z</time>
      </trkpt>
      <trkpt lat="49.15929" lon="1.99004">
        <ele>206.7</ele>
        <time>2022-04-10T08:54:14Z</time>
      </trkpt>
      <trkpt lat="49.15932" lon="1.98998">
        <ele>208.9</ele>
        <time>2022-04-10T08:54:20Z</time>
      </trkpt>
      <trkpt lat="49.15935" lon="1.9899">
        <ele>210.6</ele>
        <time>2022-04-10T08:54:25Z</time>
      </trkpt>
      <trkpt lat="49.15939" lon="1.98978">
        <ele>212.2</ele>
        <time>2022-04-10T08:54:31Z</time>
      </trkpt>
      <trkpt lat="49.15942" lon="1.98968">
        <ele>213.2</ele>
        <time>2022-04-10T08:54:36Z</time>
      </trkpt>
      <trkpt lat="49.15944" lon="1.98959">
        <ele>214.1</ele>
        <time>2022-04-10T08:54:42Z</time>
      </trkpt>
      <trkpt lat="49.15947" lon="1.9895">
        <ele>214.5</ele>
        <time>2022-04-10T08:54:47Z</time>
      </trkpt>
      <trkpt lat="49.15949" lon="1.98941">
        <ele>214.5</ele>
        <time>2022-04-10T08:54:53Z</time>
      </trkpt>
      <trkpt lat="49.15951" lon="1.98934">
        <ele>214.3</ele>
        <time>2022-04-10T08:54:58Z</time>
      </trkpt>
      <trkpt lat="49.15954" lon="1.98924">
        <ele>213.6</ele>
        <time>2022-04-10T08:55:04Z</time>
      </trkpt>
      <trkpt lat="49.15957" lon="1.98914">
        <ele>213</ele>
        <time>2022-04-10T08:55:10Z</time>
      </trkpt>
      <trkpt lat="49.1596" lon="1.98906">
        <ele>212.3</ele>
        <time>2022-04-10T08:55:15Z</time>
      </trkpt>
      <trkpt lat="49.15964" lon="1.98897">
        <ele>211.5</ele>
        <time>2022-04-10T08:55:20Z</time>
      </trkpt>
      <trkpt lat="49.15969" lon="1.98886">
        <ele>210.3</ele>
        <time>2022-04-10T08:55:26Z</time>
      </trkpt>
      <trkpt lat="49.15974" lon="1.98877">
        <ele>209.2</ele>
        <time>2022-04-10T08:55:31Z</time>
      </trkpt>
      <trkpt lat="49.15977" lon="1.98866">
        <ele>207.7</ele>
        <time>2022-04-10T08:55:37Z</time>
      </trkpt>
      <trkpt lat="49.15981" lon="1.98861">
        <ele>206.6</ele>
        <time>2022-04-10T08:55:42Z</time>
      </trkpt>
      <trkpt lat="49.15984" lon="1.98854">
        <ele>205.4</ele>
        <time>2022-04-10T08:55:47Z</time>
      </trkpt>
      <trkpt lat="49.15987" lon="1.98845">
        <ele>203.9</ele>
        <time>2022-04-10T08:55:53Z</time>
      </trkpt>
      <trkpt lat="49.1599" lon="1.98837">
        <ele>202.8</ele>
        <time>2022-04-10T08:55:58Z</time>
      </trkpt>
      <trkpt lat="49.15993" lon="1.98829">
        <ele>201.6</ele>
        <time>2022-04-10T08:56:04Z</time>
      </trkpt>
      <trkpt lat="49.15996" lon="1.98821">
        <ele>200.5</ele>
        <time>2022-04-10T08:56:09Z</time>
      </trkpt>
      <trkpt lat="49.16" lon="1.98812">
        <ele>199.4</ele>
        <time>2022-04-10T08:56:15Z</time>
      </trkpt>
      <trkpt lat="49.16004" lon="1.98804">
        <ele>198.8</ele>
        <time>2022-04-10T08:56:20Z</time>
      </trkpt>
      <trkpt lat="49.16007" lon="1.98793">
        <ele>198.4</ele>
        <time>2022-04-10T08:56:26Z</time>
      </trkpt>
      <trkpt lat="49.1601" lon="1.98784">
        <ele>197.9</ele>
        <time>2022-04-10T08:56:31Z</time>
      </trkpt>
      <trkpt lat="49.16015" lon="1.98773">
        <ele>197.2</ele>
        <time>2022-04-10T08:56:37Z</time>
      </trkpt>
      <trkpt lat="49.16018" lon="1.98764">
        <ele>196.6</ele>
        <time>2022-04-10T08:56:42Z</time>
      </trkpt>
      <trkpt lat="49.16023" lon="1.98753">
        <ele>195.8</ele>
        <time>2022-04-10T08:56:48Z</time>
      </trkpt>
      <trkpt lat="49.16027" lon="1.98742">
        <ele>195.1</ele>
        <time>2022-04-10T08:56:53Z</time>
      </trkpt>
      <trkpt lat="49.16032" lon="1.9873">
        <ele>194.1</ele>
        <time>2022-04-10T08:56:59Z</time>
      </trkpt>
      <trkpt lat="49.16035" lon="1.98722">
        <ele>193.3</ele>
        <time>2022-04-10T08:57:04Z</time>
      </trkpt>
      <trkpt lat="49.16036" lon="1.98712">
        <ele>192.4</ele>
        <time>2022-04-10T08:57:10Z</time>
      </trkpt>
      <trkpt lat="49.16039" lon="1.98702">
        <ele>191.9</ele>
        <time>2022-04-10T08:57:16Z</time>
      </trkpt>
      <trkpt lat="49.16044" lon="1.98694">
        <ele>192.1</ele>
        <time>2022-04-10T08:57:22Z</time>
      </trkpt>
      <trkpt lat="49.1605" lon="1.98683">
        <ele>192.8</ele>
        <time>2022-04-10T08:57:28Z</time>
      </trkpt>
      <trkpt lat="49.16055" lon="1.98674">
        <ele>193.8</ele>
        <time>2022-04-10T08:57:33Z</time>
      </trkpt>
      <trkpt lat="49.16059" lon="1.98666">
        <ele>195</ele>
        <time>2022-04-10T08:57:39Z</time>
      </trkpt>
      <trkpt lat="49.16062" lon="1.98657">
        <ele>196.5</ele>
        <time>2022-04-10T08:57:45Z</time>
      </trkpt>
      <trkpt lat="49.16064" lon="1.98646">
        <ele>197.5</ele>
        <time>2022-04-10T08:57:51Z</time>
      </trkpt>
      <trkpt lat="49.16069" lon="1.98635">
        <ele>198</ele>
        <time>2022-04-10T08:57:57Z</time>
      </trkpt>
      <trkpt lat="49.16072" lon="1.98628">
        <ele>198.3</ele>
        <time>2022-04-10T08:58:02Z</time>
      </trkpt>
      <trkpt lat="49.16076" lon="1.98624">
        <ele>198.4</ele>
        <time>2022-04-10T08:58:08Z</time>
      </trkpt>
      <trkpt lat="49.1608" lon="1.98615">
        <ele>198.7</ele>
        <time>2022-04-10T08:58:14Z</time>
      </trkpt>
      <trkpt lat="49.16084" lon="1.98608">
        <ele>198.8</ele>
        <time>2022-04-10T08:58:19Z</time>
      </trkpt>
      <trkpt lat="49.16087" lon="1.98599">
        <ele>198.8</ele>
        <time>2022-04-10T08:58:25Z</time>
      </trkpt>
      <trkpt lat="49.1609" lon="1.98592">
        <ele>198.9</ele>
        <time>2022-04-10T08:58:30Z</time>
      </trkpt>
      <trkpt lat="49.16092" lon="1.98585">
        <ele>198.7</ele>
        <time>2022-04-10T08:58:35Z</time>
      </trkpt>
      <trkpt lat="49.16093" lon="1.98576">
        <ele>198.4</ele>
        <time>2022-04-10T08:58:41Z</time>
      </trkpt>
      <trkpt lat="49.16096" lon="1.98566">
        <ele>198.2</ele>
        <time>2022-04-10T08:58:47Z</time>
      </trkpt>
      <trkpt lat="49.16098" lon="1.98555">
        <ele>198.1</ele>
        <time>2022-04-10T08:58:52Z</time>
      </trkpt>
      <trkpt lat="49.16102" lon="1.98539">
        <ele>198.5</ele>
        <time>2022-04-10T08:58:58Z</time>
      </trkpt>
      <trkpt lat="49.16105" lon="1.98526">
        <ele>198.9</ele>
        <time>2022-04-10T08:59:03Z</time>
      </trkpt>
      <trkpt lat="49.16109" lon="1.9851">
        <ele>199.3</ele>
        <time>2022-04-10T08:59:09Z</time>
      </trkpt>
      <trkpt lat="49.16111" lon="1.98499">
        <ele>199.4</ele>
        <time>2022-04-10T08:59:14Z</time>
      </trkpt>
      <trkpt lat="49.16113" lon="1.98487">
        <ele>199.4</ele>
        <time>2022-04-10T08:59:19Z</time>
      </trkpt>
      <trkpt lat="49.16115" lon="1.98473">
        <ele>199.5</ele>
        <time>2022-04-10T08:59:25Z</time>
      </trkpt>
      <trkpt lat="49.16118" lon="1.98462">
        <ele>199.9</ele>
        <time>2022-04-10T08:59:30Z</time>
      </trkpt>
      <trkpt lat="49.16125" lon="1.98446">
        <ele>200.6</ele>
        <time>2022-04-10T08:59:36Z</time>
      </trkpt>
      <trkpt lat="49.16132" lon="1.98432">
        <ele>201.1</ele>
        <time>2022-04-10T08:59:42Z</time>
      </trkpt>
      <trkpt lat="49.16135" lon="1.98421">
        <ele>201.2</ele>
        <time>2022-04-10T08:59:47Z</time>
      </trkpt>
      <trkpt lat="49.1614" lon="1.98419">
        <ele>201</ele>
        <time>2022-04-10T08:59:53Z</time>
      </trkpt>
      <trkpt lat="49.16145" lon="1.98415">
        <ele>200.5</ele>
        <time>2022-04-10T08:59:59Z</time>
      </trkpt>
      <trkpt lat="49.16152" lon="1.98406">
        <ele>199.9</ele>
        <time>2022-04-10T09:00:05Z</time>
      </trkpt>
      <trkpt lat="49.16158" lon="1.98397">
        <ele>199.5</ele>
        <time>2022-04-10T09:00:10Z</time>
      </trkpt>
      <trkpt lat="49.16163" lon="1.98387">
        <ele>198.9</ele>
        <time>2022-04-10T09:00:16Z</time>
      </trkpt>
      <trkpt lat="49.16167" lon="1.98379">
        <ele>198.1</ele>
        <time>2022-04-10T09:00:21Z</time>
      </trkpt>
      <trkpt lat="49.16171" lon="1.98371">
        <ele>196.9</ele>
        <time>2022-04-10T09:00:27Z</time>
      </trkpt>
      <trkpt lat="49.16176" lon="1.98362">
        <ele>196</ele>
        <time>2022-04-10T09:00:33Z</time>
      </trkpt>
      <trkpt lat="49.1618" lon="1.98353">
        <ele>195.5</ele>
        <time>2022-04-10T09:00:38Z</time>
      </trkpt>
      <trkpt lat="49.16183" lon="1.98344">
        <ele>194.9</ele>
        <time>2022-04-10T09:00:43Z</time>
      </trkpt>
      <trkpt lat="49.16189" lon="1.98332">
        <ele>194.3</ele>
        <time>2022-04-10T09:00:49Z</time>
      </trkpt>
      <trkpt lat="49.16196" lon="1.98321">
        <ele>194.5</ele>
        <time>2022-04-10T09:00:54Z</time>
      </trkpt>
      <trkpt lat="49.16203" lon="1.98311">
        <ele>195.2</ele>
        <time>2022-04-10T09:00:59Z</time>
      </trkpt>
      <trkpt lat="49.16209" lon="1.98301">
        <ele>195.8</ele>
        <time>2022-04-10T09:01:05Z</time>
      </trkpt>
      <trkpt lat="49.16213" lon="1.98295">
        <ele>196.2</ele>
        <time>2022-04-10T09:01:10Z</time>
      </trkpt>
      <trkpt lat="49.16217" lon="1.98285">
        <ele>196.7</ele>
        <time>2022-04-10T09:01:16Z</time>
      </trkpt>
      <trkpt lat="49.16221" lon="1.98277">
        <ele>197.4</ele>
        <time>2022-04-10T09:01:21Z</time>
      </trkpt>
      <trkpt lat="49.16226" lon="1.9827">
        <ele>198.1</ele>
        <time>2022-04-10T09:01:26Z</time>
      </trkpt>
      <trkpt lat="49.16233" lon="1.98261">
        <ele>198.9</ele>
        <time>2022-04-10T09:01:32Z</time>
      </trkpt>
      <trkpt lat="49.16239" lon="1.98251">
        <ele>199.7</ele>
        <time>2022-04-10T09:01:38Z</time>
      </trkpt>
      <trkpt lat="49.16243" lon="1.98244">
        <ele>200.5</ele>
        <time>2022-04-10T09:01:44Z</time>
      </trkpt>
      <trkpt lat="49.16247" lon="1.98237">
        <ele>201.7</ele>
        <time>2022-04-10T09:01:50Z</time>
      </trkpt>
      <trkpt lat="49.1625" lon="1.98231">
        <ele>202.3</ele>
        <time>2022-04-10T09:01:55Z</time>
      </trkpt>
      <trkpt lat="49.16254" lon="1.98224">
        <ele>202.9</ele>
        <time>2022-04-10T09:02:01Z</time>
      </trkpt>
      <trkpt lat="49.16257" lon="1.98219">
        <ele>203.3</ele>
        <time>2022-04-10T09:02:07Z</time>
      </trkpt>
      <trkpt lat="49.16258" lon="1.98216">
        <ele>203.5</ele>
        <time>2022-04-10T09:02:13Z</time>
      </trkpt>
      <trkpt lat="49.1626" lon="1.98212">
        <ele>204.5</ele>
        <time>2022-04-10T09:02:18Z</time>
      </trkpt>
      <trkpt lat="49.16263" lon="1.98206">
        <ele>205.4</ele>
        <time>2022-04-10T09:02:24Z</time>
      </trkpt>
      <trkpt lat="49.16265" lon="1.982">
        <ele>205.9</ele>
        <time>2022-04-10T09:02:30Z</time>
      </trkpt>
      <trkpt lat="49.16266" lon="1.98197">
        <ele>206.2</ele>
        <time>2022-04-10T09:02:35Z</time>
      </trkpt>
      <trkpt lat="49.16267" lon="1.98195">
        <ele>206.8</ele>
        <time>2022-04-10T09:02:41Z</time>
      </trkpt>
      <trkpt lat="49.16268" lon="1.98194">
        <ele>207.9</ele>
        <time>2022-04-10T09:02:46Z</time>
      </trkpt>
      <trkpt lat="49.16267" lon="1.98194">
        <ele>208.4</ele>
        <time>2022-04-10T09:02:52Z</time>
      </trkpt>
      <trkpt lat="49.16268" lon="1.98191">
        <ele>211.8</ele>
        <time>2022-04-10T09:02:57Z</time>
      </trkpt>
      <trkpt lat="49.16269" lon="1.9819">
        <ele>212.2</ele>
        <time>2022-04-10T09:03:03Z</time>
      </trkpt>
      <trkpt lat="49.1627" lon="1.9819">
        <ele>213.3</ele>
        <time>2022-04-10T09:03:09Z</time>
      </trkpt>
      <trkpt lat="49.16269" lon="1.98189">
        <ele>215.1</ele>
        <time>2022-04-10T09:03:14Z</time>
      </trkpt>
      <trkpt lat="49.16269" lon="1.98189">
        <ele>215.4</ele>
        <time>2022-04-10T09:03:19Z</time>
      </trkpt>
      <trkpt lat="49.16269" lon="1.98189">
        <ele>215.8</ele>
        <time>2022-04-10T09:03:25Z</time>
      </trkpt>
      <trkpt lat="49.16269" lon="1.98189">
        <ele>216.2</ele>
        <time>2022-04-10T09:03:31Z</time>
      </trkpt>
      <trkpt lat="49.16269" lon="1.98189">
        <ele>216.5</ele>
        <time>2022-04-10T09:03:36Z</time>
      </trkpt>
      <trkpt lat="49.16269" lon="1.98189">
        <ele>216.8</ele>
        <time>2022-04-10T09:03:41Z</time>
      </trkpt>
      <trkpt lat="49.16269" lon="1.98189">
        <ele>217.2</ele>
        <time>2022-04-10T09:03:47Z</time>
      </trkpt>
      <trkpt lat="49.16269" lon="1.9819">
        <ele>217.5</ele>
        <time>2022-04-10T09:03:52Z</time>
      </trkpt>
      <trkpt lat="49.16269" lon="1.9819">
        <ele>217.9</ele>
        <time>2022-04-10T09:03:58Z</time>
      </trkpt>
      <trkpt lat="49.16269" lon="1.9819">
        <ele>218.3</ele>
        <time>2022-04-10T09:04:03Z</time>
      </trkpt>
      <trkpt lat="49.16269" lon="1.9819">
        <ele>218.7</ele>
        <time>2022-04-10T09:04:09Z</time>
      </trkpt>
      <trkpt lat="49.16269" lon="1.9819">
        <ele>219</ele>
        <time>2022-04-10T09:04:14Z</time>
      </trkpt>
      <trkpt lat="49.16269" lon="1.98191">
        <ele>219.4</ele>
        <time>2022-04-10T09:04:20Z</time>
      </trkpt>
      <trkpt lat="49.16269" lon="1.98191">
        <ele>219.7</ele>
        <time>2022-04-10T09:04:25Z</time>
      </trkpt>
      <trkpt lat="49.16269" lon="1.9819">
        <ele>221.9</ele>
        <time>2022-04-10T09:04:31Z</time>
      </trkpt>
      <trkpt lat="49.16269" lon="1.98188">
        <ele>225</ele>
        <time>2022-04-10T09:04:37Z</time>
      </trkpt>
      <trkpt lat="49.16269" lon="1.98187">
        <ele>226.2</ele>
        <time>2022-04-10T09:04:42Z</time>
      </trkpt>
      <trkpt lat="49.16271" lon="1.98186">
        <ele>228.9</ele>
        <time>2022-04-10T09:04:48Z</time>
      </trkpt>
      <trkpt lat="49.16277" lon="1.98182">
        <ele>231</ele>
        <time>2022-04-10T09:04:54Z</time>
      </trkpt>
      <trkpt lat="49.16281" lon="1.98178">
        <ele>232.3</ele>
        <time>2022-04-10T09:05:00Z</time>
      </trkpt>
      <trkpt lat="49.16285" lon="1.98171">
        <ele>233.2</ele>
        <time>2022-04-10T09:05:05Z</time>
      </trkpt>
      <trkpt lat="49.1629" lon="1.98164">
        <ele>233.9</ele>
        <time>2022-04-10T09:05:11Z</time>
      </trkpt>
      <trkpt lat="49.16295" lon="1.98156">
        <ele>234.3</ele>
        <time>2022-04-10T09:05:17Z</time>
      </trkpt>
      <trkpt lat="49.16299" lon="1.98149">
        <ele>234.1</ele>
        <time>2022-04-10T09:05:22Z</time>
      </trkpt>
      <trkpt lat="49.16303" lon="1.98142">
        <ele>233.8</ele>
        <time>2022-04-10T09:05:27Z</time>
      </trkpt>
      <trkpt lat="49.16307" lon="1.98135">
        <ele>233.4</ele>
        <time>2022-04-10T09:05:33Z</time>
      </trkpt>
      <trkpt lat="49.16312" lon="1.98126">
        <ele>233</ele>
        <time>2022-04-10T09:05:39Z</time>
      </trkpt>
      <trkpt lat="49.16317" lon="1.98119">
        <ele>232.8</ele>
        <time>2022-04-10T09:05:45Z</time>
      </trkpt>
      <trkpt lat="49.16322" lon="1.98111">
        <ele>232.4</ele>
        <time>2022-04-10T09:05:51Z</time>
      </trkpt>
      <trkpt lat="49.16326" lon="1.98107">
        <ele>231.8</ele>
        <time>2022-04-10T09:05:56Z</time>
      </trkpt>
      <trkpt lat="49.16332" lon="1.98103">
        <ele>230.3</ele>
        <time>2022-04-10T09:06:02Z</time>
      </trkpt>
      <trkpt lat="49.16337" lon="1.98098">
        <ele>229.4</ele>
        <time>2022-04-10T09:06:07Z</time>
      </trkpt>
      <trkpt lat="49.16345" lon="1.98091">
        <ele>227.7</ele>
        <time>2022-04-10T09:06:13Z</time>
      </trkpt>
      <trkpt lat="49.1635" lon="1.98083">
        <ele>225.7</ele>
        <time>2022-04-10T09:06:19Z</time>
      </trkpt>
      <trkpt lat="49.16353" lon="1.98073">
        <ele>223.4</ele>
        <time>2022-04-10T09:06:25Z</time>
      </trkpt>
      <trkpt lat="49.16357" lon="1.98062">
        <ele>221.5</ele>
        <time>2022-04-10T09:06:30Z</time>
      </trkpt>
      <trkpt lat="49.16361" lon="1.98052">
        <ele>219.6</ele>
        <time>2022-04-10T09:06:35Z</time>
      </trkpt>
      <trkpt lat="49.16366" lon="1.98041">
        <ele>218</ele>
        <time>2022-04-10T09:06:40Z</time>
      </trkpt>
      <trkpt lat="49.1637" lon="1.98031">
        <ele>216.6</ele>
        <time>2022-04-10T09:06:45Z</time>
      </trkpt>
      <trkpt lat="49.16376" lon="1.98018">
        <ele>215.3</ele>
        <time>2022-04-10T09:06:51Z</time>
      </trkpt>
      <trkpt lat="49.16382" lon="1.98007">
        <ele>214.4</ele>
        <time>2022-04-10T09:06:56Z</time>
      </trkpt>
      <trkpt lat="49.16387" lon="1.97995">
        <ele>213.6</ele>
        <time>2022-04-10T09:07:02Z</time>
      </trkpt>
      <trkpt lat="49.16391" lon="1.97986">
        <ele>213</ele>
        <time>2022-04-10T09:07:07Z</time>
      </trkpt>
      <trkpt lat="49.16396" lon="1.97974">
        <ele>212.2</ele>
        <time>2022-04-10T09:07:13Z</time>
      </trkpt>
      <trkpt lat="49.16401" lon="1.97964">
        <ele>211.8</ele>
        <time>2022-04-10T09:07:18Z</time>
      </trkpt>
      <trkpt lat="49.16406" lon="1.97953">
        <ele>211.7</ele>
        <time>2022-04-10T09:07:23Z</time>
      </trkpt>
      <trkpt lat="49.16414" lon="1.97938">
        <ele>211.8</ele>
        <time>2022-04-10T09:07:29Z</time>
      </trkpt>
      <trkpt lat="49.16418" lon="1.97928">
        <ele>212.1</ele>
        <time>2022-04-10T09:07:34Z</time>
      </trkpt>
      <trkpt lat="49.16421" lon="1.97921">
        <ele>212.4</ele>
        <time>2022-04-10T09:07:40Z</time>
      </trkpt>
      <trkpt lat="49.16423" lon="1.97918">
        <ele>212.6</ele>
        <time>2022-04-10T09:07:45Z</time>
      </trkpt>
      <trkpt lat="49.16424" lon="1.9792">
        <ele>212.7</ele>
        <time>2022-04-10T09:07:51Z</time>
      </trkpt>
      <trkpt lat="49.16431" lon="1.97925">
        <ele>212.5</ele>
        <time>2022-04-10T09:07:57Z</time>
      </trkpt>
      <trkpt lat="49.16439" lon="1.9793">
        <ele>212.4</ele>
        <time>2022-04-10T09:08:02Z</time>
      </trkpt>
      <trkpt lat="49.16449" lon="1.97938">
        <ele>212.3</ele>
        <time>2022-04-10T09:08:08Z</time>
      </trkpt>
      <trkpt lat="49.1646" lon="1.97945">
        <ele>212.3</ele>
        <time>2022-04-10T09:08:14Z</time>
      </trkpt>
      <trkpt lat="49.1647" lon="1.97952">
        <ele>212.5</ele>
        <time>2022-04-10T09:08:20Z</time>
      </trkpt>
      <trkpt lat="49.16478" lon="1.97957">
        <ele>212.5</ele>
        <time>2022-04-10T09:08:25Z</time>
      </trkpt>
      <trkpt lat="49.16487" lon="1.97965">
        <ele>212.4</ele>
        <time>2022-04-10T09:08:31Z</time>
      </trkpt>
      <trkpt lat="49.16495" lon="1.97973">
        <ele>212.1</ele>
        <time>2022-04-10T09:08:37Z</time>
      </trkpt>
      <trkpt lat="49.16501" lon="1.97979">
        <ele>211.9</ele>
        <time>2022-04-10T09:08:42Z</time>
      </trkpt>
      <trkpt lat="49.16508" lon="1.97986">
        <ele>211.8</ele>
        <time>2022-04-10T09:08:47Z</time>
      </trkpt>
      <trkpt lat="49.16516" lon="1.97994">
        <ele>212</ele>
        <time>2022-04-10T09:08:53Z</time>
      </trkpt>
      <trkpt lat="49.16523" lon="1.98003">
        <ele>212.4</ele>
        <time>2022-04-10T09:08:59Z</time>
      </trkpt>
      <trkpt lat="49.16527" lon="1.98007">
        <ele>212.6</ele>
        <time>2022-04-10T09:09:04Z</time>
      </trkpt>
      <trkpt lat="49.1653" lon="1.9801">
        <ele>212.7</ele>
        <time>2022-04-10T09:09:10Z</time>
      </trkpt>
      <trkpt lat="49.16534" lon="1.98013">
        <ele>212.4</ele>
        <time>2022-04-10T09:09:16Z</time>
      </trkpt>
      <trkpt lat="49.16542" lon="1.98016">
        <ele>211.8</ele>
        <time>2022-04-10T09:09:21Z</time>
      </trkpt>
      <trkpt lat="49.16549" lon="1.98021">
        <ele>211.2</ele>
        <time>2022-04-10T09:09:27Z</time>
      </trkpt>
      <trkpt lat="49.16558" lon="1.98026">
        <ele>210.6</ele>
        <time>2022-04-10T09:09:33Z</time>
      </trkpt>
      <trkpt lat="49.16566" lon="1.98032">
        <ele>210.3</ele>
        <time>2022-04-10T09:09:38Z</time>
      </trkpt>
      <trkpt lat="49.16578" lon="1.98041">
        <ele>210.2</ele>
        <time>2022-04-10T09:09:44Z</time>
      </trkpt>
      <trkpt lat="49.16589" lon="1.98049">
        <ele>210.3</ele>
        <time>2022-04-10T09:09:50Z</time>
      </trkpt>
      <trkpt lat="49.166" lon="1.98057">
        <ele>210.5</ele>
        <time>2022-04-10T09:09:56Z</time>
      </trkpt>
      <trkpt lat="49.16607" lon="1.98063">
        <ele>210.6</ele>
        <time>2022-04-10T09:10:01Z</time>
      </trkpt>
      <trkpt lat="49.16614" lon="1.9807">
        <ele>210.6</ele>
        <time>2022-04-10T09:10:06Z</time>
      </trkpt>
      <trkpt lat="49.16622" lon="1.98078">
        <ele>210.5</ele>
        <time>2022-04-10T09:10:12Z</time>
      </trkpt>
      <trkpt lat="49.16631" lon="1.98085">
        <ele>210.4</ele>
        <time>2022-04-10T09:10:18Z</time>
      </trkpt>
      <trkpt lat="49.16638" lon="1.98091">
        <ele>210.2</ele>
        <time>2022-04-10T09:10:23Z</time>
      </trkpt>
      <trkpt lat="49.16646" lon="1.98098">
        <ele>210.2</ele>
        <time>2022-04-10T09:10:29Z</time>
      </trkpt>
      <trkpt lat="49.16653" lon="1.98105">
        <ele>210.3</ele>
        <time>2022-04-10T09:10:34Z</time>
      </trkpt>
      <trkpt lat="49.16661" lon="1.98112">
        <ele>210.4</ele>
        <time>2022-04-10T09:10:40Z</time>
      </trkpt>
      <trkpt lat="49.16666" lon="1.98119">
        <ele>210.5</ele>
        <time>2022-04-10T09:10:45Z</time>
      </trkpt>
      <trkpt lat="49.16671" lon="1.98128">
        <ele>210.4</ele>
        <time>2022-04-10T09:10:51Z</time>
      </trkpt>
      <trkpt lat="49.16677" lon="1.98137">
        <ele>210.4</ele>
        <time>2022-04-10T09:10:57Z</time>
      </trkpt>
      <trkpt lat="49.16684" lon="1.98145">
        <ele>210.3</ele>
        <time>2022-04-10T09:11:02Z</time>
      </trkpt>
      <trkpt lat="49.16693" lon="1.98152">
        <ele>210.3</ele>
        <time>2022-04-10T09:11:08Z</time>
      </trkpt>
      <trkpt lat="49.16699" lon="1.98157">
        <ele>210.3</ele>
        <time>2022-04-10T09:11:13Z</time>
      </trkpt>
      <trkpt lat="49.16705" lon="1.98166">
        <ele>210.1</ele>
        <time>2022-04-10T09:11:19Z</time>
      </trkpt>
      <trkpt lat="49.16712" lon="1.98171">
        <ele>210.1</ele>
        <time>2022-04-10T09:11:24Z</time>
      </trkpt>
      <trkpt lat="49.16717" lon="1.98176">
        <ele>210</ele>
        <time>2022-04-10T09:11:29Z</time>
      </trkpt>
      <trkpt lat="49.16726" lon="1.98184">
        <ele>209.6</ele>
        <time>2022-04-10T09:11:35Z</time>
      </trkpt>
      <trkpt lat="49.16731" lon="1.98189">
        <ele>209.2</ele>
        <time>2022-04-10T09:11:40Z</time>
      </trkpt>
      <trkpt lat="49.16736" lon="1.98197">
        <ele>208.5</ele>
        <time>2022-04-10T09:11:46Z</time>
      </trkpt>
      <trkpt lat="49.16742" lon="1.98201">
        <ele>208</ele>
        <time>2022-04-10T09:11:51Z</time>
      </trkpt>
      <trkpt lat="49.16751" lon="1.98205">
        <ele>207.1</ele>
        <time>2022-04-10T09:11:57Z</time>
      </trkpt>
      <trkpt lat="49.16756" lon="1.98209">
        <ele>206.4</ele>
        <time>2022-04-10T09:12:02Z</time>
      </trkpt>
      <trkpt lat="49.16759" lon="1.98209">
        <ele>205.5</ele>
        <time>2022-04-10T09:12:07Z</time>
      </trkpt>
      <trkpt lat="49.16763" lon="1.98212">
        <ele>204.2</ele>
        <time>2022-04-10T09:12:12Z</time>
      </trkpt>
      <trkpt lat="49.16769" lon="1.98213">
        <ele>202.4</ele>
        <time>2022-04-10T09:12:18Z</time>
      </trkpt>
      <trkpt lat="49.16776" lon="1.98217">
        <ele>200.4</ele>
        <time>2022-04-10T09:12:24Z</time>
      </trkpt>
      <trkpt lat="49.16787" lon="1.98225">
        <ele>198.6</ele>
        <time>2022-04-10T09:12:30Z</time>
      </trkpt>
      <trkpt lat="49.16795" lon="1.98234">
        <ele>197.6</ele>
        <time>2022-04-10T09:12:35Z</time>
      </trkpt>
      <trkpt lat="49.16801" lon="1.98241">
        <ele>196.8</ele>
        <time>2022-04-10T09:12:40Z</time>
      </trkpt>
      <trkpt lat="49.16809" lon="1.98249">
        <ele>195.9</ele>
        <time>2022-04-10T09:12:46Z</time>
      </trkpt>
      <trkpt lat="49.16818" lon="1.98259">
        <ele>195.4</ele>
        <time>2022-04-10T09:12:52Z</time>
      </trkpt>
      <trkpt lat="49.16827" lon="1.9827">
        <ele>195.4</ele>
        <time>2022-04-10T09:12:58Z</time>
      </trkpt>
      <trkpt lat="49.16836" lon="1.98279">
        <ele>195.6</ele>
        <time>2022-04-10T09:13:04Z</time>
      </trkpt>
      <trkpt lat="49.16843" lon="1.98285">
        <ele>195.9</ele>
        <time>2022-04-10T09:13:09Z</time>
      </trkpt>
      <trkpt lat="49.16852" lon="1.98293">
        <ele>196.3</ele>
        <time>2022-04-10T09:13:15Z</time>
      </trkpt>
      <trkpt lat="49.16861" lon="1.98301">
        <ele>196.7</ele>
        <time>2022-04-10T09:13:20Z</time>
      </trkpt>
      <trkpt lat="49.16871" lon="1.9831">
        <ele>197.3</ele>
        <time>2022-04-10T09:13:26Z</time>
      </trkpt>
      <trkpt lat="49.1688" lon="1.98318">
        <ele>197.8</ele>
        <time>2022-04-10T09:13:32Z</time>
      </trkpt>
      <trkpt lat="49.16889" lon="1.98326">
        <ele>198.4</ele>
        <time>2022-04-10T09:13:38Z</time>
      </trkpt>
      <trkpt lat="49.16899" lon="1.98333">
        <ele>198.9</ele>
        <time>2022-04-10T09:13:44Z</time>
      </trkpt>
      <trkpt lat="49.16907" lon="1.9834">
        <ele>199.4</ele>
        <time>2022-04-10T09:13:50Z</time>
      </trkpt>
      <trkpt lat="49.16914" lon="1.98345">
        <ele>199.6</ele>
        <time>2022-04-10T09:13:55Z</time>
      </trkpt>
      <trkpt lat="49.1692" lon="1.98351">
        <ele>199.8</ele>
        <time>2022-04-10T09:14:00Z</time>
      </trkpt>
      <trkpt lat="49.16927" lon="1.98357">
        <ele>199.9</ele>
        <time>2022-04-10T09:14:05Z</time>
      </trkpt>
      <trkpt lat="49.16934" lon="1.98365">
        <ele>200</ele>
        <time>2022-04-10T09:14:11Z</time>
      </trkpt>
      <trkpt lat="49.16942" lon="1.98371">
        <ele>200.1</ele>
        <time>2022-04-10T09:14:17Z</time>
      </trkpt>
      <trkpt lat="49.16948" lon="1.98377">
        <ele>200.1</ele>
        <time>2022-04-10T09:14:22Z</time>
      </trkpt>
      <trkpt lat="49.16955" lon="1.98384">
        <ele>200</ele>
        <time>2022-04-10T09:14:28Z</time>
      </trkpt>
      <trkpt lat="49.16963" lon="1.9839">
        <ele>199.8</ele>
        <time>2022-04-10T09:14:33Z</time>
      </trkpt>
      <trkpt lat="49.16972" lon="1.98398">
        <ele>199.5</ele>
        <time>2022-04-10T09:14:39Z</time>
      </trkpt>
      <trkpt lat="49.16981" lon="1.98405">
        <ele>199.2</ele>
        <time>2022-04-10T09:14:45Z</time>
      </trkpt>
      <trkpt lat="49.16989" lon="1.98412">
        <ele>198.9</ele>
        <time>2022-04-10T09:14:50Z</time>
      </trkpt>
      <trkpt lat="49.16996" lon="1.9842">
        <ele>198.6</ele>
        <time>2022-04-10T09:14:56Z</time>
      </trkpt>
      <trkpt lat="49.17003" lon="1.98429">
        <ele>198.3</ele>
        <time>2022-04-10T09:15:02Z</time>
      </trkpt>
      <trkpt lat="49.17007" lon="1.98436">
        <ele>197.9</ele>
        <time>2022-04-10T09:15:07Z</time>
      </trkpt>
      <trkpt lat="49.17009" lon="1.98446">
        <ele>197.2</ele>
        <time>2022-04-10T09:15:13Z</time>
      </trkpt>
      <trkpt lat="49.17014" lon="1.98454">
        <ele>196.4</ele>
        <time>2022-04-10T09:15:19Z</time>
      </trkpt>
      <trkpt lat="49.1702" lon="1.98462">
        <ele>195.7</ele>
        <time>2022-04-10T09:15:24Z</time>
      </trkpt>
      <trkpt lat="49.17026" lon="1.98469">
        <ele>195.1</ele>
        <time>2022-04-10T09:15:29Z</time>
      </trkpt>
      <trkpt lat="49.17034" lon="1.98478">
        <ele>194.4</ele>
        <time>2022-04-10T09:15:35Z</time>
      </trkpt>
      <trkpt lat="49.17042" lon="1.98487">
        <ele>193.9</ele>
        <time>2022-04-10T09:15:41Z</time>
      </trkpt>
      <trkpt lat="49.1705" lon="1.98495">
        <ele>193.7</ele>
        <time>2022-04-10T09:15:47Z</time>
      </trkpt>
      <trkpt lat="49.17056" lon="1.98504">
        <ele>193.7</ele>
        <time>2022-04-10T09:15:53Z</time>
      </trkpt>
      <trkpt lat="49.17063" lon="1.98511">
        <ele>193.8</ele>
        <time>2022-04-10T09:15:59Z</time>
      </trkpt>
      <trkpt lat="49.1707" lon="1.98518">
        <ele>193.9</ele>
        <time>2022-04-10T09:16:05Z</time>
      </trkpt>
      <trkpt lat="49.17077" lon="1.98525">
        <ele>193.6</ele>
        <time>2022-04-10T09:16:11Z</time>
      </trkpt>
      <trkpt lat="49.17084" lon="1.9853">
        <ele>192.9</ele>
        <time>2022-04-10T09:16:17Z</time>
      </trkpt>
      <trkpt lat="49.1709" lon="1.98537">
        <ele>192.2</ele>
        <time>2022-04-10T09:16:23Z</time>
      </trkpt>
      <trkpt lat="49.17097" lon="1.98545">
        <ele>191.8</ele>
        <time>2022-04-10T09:16:28Z</time>
      </trkpt>
      <trkpt lat="49.17105" lon="1.98552">
        <ele>191.4</ele>
        <time>2022-04-10T09:16:34Z</time>
      </trkpt>
      <trkpt lat="49.17111" lon="1.98558">
        <ele>191</ele>
        <time>2022-04-10T09:16:39Z</time>
      </trkpt>
      <trkpt lat="49.17117" lon="1.98564">
        <ele>190.4</ele>
        <time>2022-04-10T09:16:44Z</time>
      </trkpt>
      <trkpt lat="49.17124" lon="1.98572">
        <ele>189.8</ele>
        <time>2022-04-10T09:16:50Z</time>
      </trkpt>
      <trkpt lat="49.17132" lon="1.98579">
        <ele>189.1</ele>
        <time>2022-04-10T09:16:56Z</time>
      </trkpt>
      <trkpt lat="49.17138" lon="1.98586">
        <ele>188.4</ele>
        <time>2022-04-10T09:17:02Z</time>
      </trkpt>
      <trkpt lat="49.17144" lon="1.98592">
        <ele>187.8</ele>
        <time>2022-04-10T09:17:07Z</time>
      </trkpt>
      <trkpt lat="49.17151" lon="1.98599">
        <ele>187</ele>
        <time>2022-04-10T09:17:13Z</time>
      </trkpt>
      <trkpt lat="49.17158" lon="1.98606">
        <ele>186.7</ele>
        <time>2022-04-10T09:17:18Z</time>
      </trkpt>
      <trkpt lat="49.17167" lon="1.98614">
        <ele>186.5</ele>
        <time>2022-04-10T09:17:24Z</time>
      </trkpt>
      <trkpt lat="49.17174" lon="1.98621">
        <ele>186.2</ele>
        <time>2022-04-10T09:17:30Z</time>
      </trkpt>
      <trkpt lat="49.17181" lon="1.98626">
        <ele>185.6</ele>
        <time>2022-04-10T09:17:36Z</time>
      </trkpt>
      <trkpt lat="49.17189" lon="1.98634">
        <ele>185.2</ele>
        <time>2022-04-10T09:17:42Z</time>
      </trkpt>
      <trkpt lat="49.17196" lon="1.9864">
        <ele>185</ele>
        <time>2022-04-10T09:17:47Z</time>
      </trkpt>
      <trkpt lat="49.17203" lon="1.98646">
        <ele>184.7</ele>
        <time>2022-04-10T09:17:52Z</time>
      </trkpt>
      <trkpt lat="49.1721" lon="1.98654">
        <ele>184.6</ele>
        <time>2022-04-10T09:17:58Z</time>
      </trkpt>
      <trkpt lat="49.17218" lon="1.98661">
        <ele>184.7</ele>
        <time>2022-04-10T09:18:04Z</time>
      </trkpt>
      <trkpt lat="49.17226" lon="1.98667">
        <ele>184.6</ele>
        <time>2022-04-10T09:18:10Z</time>
      </trkpt>
      <trkpt lat="49.17234" lon="1.98671">
        <ele>184.5</ele>
        <time>2022-04-10T09:18:15Z</time>
      </trkpt>
      <trkpt lat="49.17243" lon="1.98673">
        <ele>184</ele>
        <time>2022-04-10T09:18:21Z</time>
      </trkpt>
      <trkpt lat="49.17249" lon="1.98678">
        <ele>183.6</ele>
        <time>2022-04-10T09:18:26Z</time>
      </trkpt>
      <trkpt lat="49.17256" lon="1.98682">
        <ele>183.4</ele>
        <time>2022-04-10T09:18:31Z</time>
      </trkpt>
      <trkpt lat="49.17265" lon="1.98687">
        <ele>183.3</ele>
        <time>2022-04-10T09:18:37Z</time>
      </trkpt>
      <trkpt lat="49.17272" lon="1.98692">
        <ele>183.2</ele>
        <time>2022-04-10T09:18:42Z</time>
      </trkpt>
      <trkpt lat="49.17278" lon="1.98696">
        <ele>183.1</ele>
        <time>2022-04-10T09:18:48Z</time>
      </trkpt>
      <trkpt lat="49.17284" lon="1.987">
        <ele>183</ele>
        <time>2022-04-10T09:18:53Z</time>
      </trkpt>
      <trkpt lat="49.17294" lon="1.98703">
        <ele>183</ele>
        <time>2022-04-10T09:18:59Z</time>
      </trkpt>
      <trkpt lat="49.17302" lon="1.98707">
        <ele>183</ele>
        <time>2022-04-10T09:19:04Z</time>
      </trkpt>
      <trkpt lat="49.17311" lon="1.98712">
        <ele>183.2</ele>
        <time>2022-04-10T09:19:10Z</time>
      </trkpt>
      <trkpt lat="49.17318" lon="1.98716">
        <ele>183.4</ele>
        <time>2022-04-10T09:19:16Z</time>
      </trkpt>
      <trkpt lat="49.17325" lon="1.98719">
        <ele>183.5</ele>
        <time>2022-04-10T09:19:21Z</time>
      </trkpt>
      <trkpt lat="49.17334" lon="1.9872">
        <ele>183.5</ele>
        <time>2022-04-10T09:19:27Z</time>
      </trkpt>
      <trkpt lat="49.17341" lon="1.9872">
        <ele>183.5</ele>
        <time>2022-04-10T09:19:32Z</time>
      </trkpt>
      <trkpt lat="49.1735" lon="1.98724">
        <ele>183.7</ele>
        <time>2022-04-10T09:19:38Z</time>
      </trkpt>
      <trkpt lat="49.1736" lon="1.98724">
        <ele>184</ele>
        <time>2022-04-10T09:19:44Z</time>
      </trkpt>
      <trkpt lat="49.17366" lon="1.98723">
        <ele>183.8</ele>
        <time>2022-04-10T09:19:49Z</time>
      </trkpt>
      <trkpt lat="49.17372" lon="1.98719">
        <ele>183.5</ele>
        <time>2022-04-10T09:19:54Z</time>
      </trkpt>
      <trkpt lat="49.17377" lon="1.98713">
        <ele>183.5</ele>
        <time>2022-04-10T09:20:00Z</time>
      </trkpt>
      <trkpt lat="49.17381" lon="1.98709">
        <ele>183.7</ele>
        <time>2022-04-10T09:20:05Z</time>
      </trkpt>
      <trkpt lat="49.17386" lon="1.98702">
        <ele>183.9</ele>
        <time>2022-04-10T09:20:10Z</time>
      </trkpt>
      <trkpt lat="49.17393" lon="1.98691">
        <ele>184</ele>
        <time>2022-04-10T09:20:16Z</time>
      </trkpt>
      <trkpt lat="49.17398" lon="1.98682">
        <ele>184.1</ele>
        <time>2022-04-10T09:20:21Z</time>
      </trkpt>
      <trkpt lat="49.17403" lon="1.98671">
        <ele>184.2</ele>
        <time>2022-04-10T09:20:27Z</time>
      </trkpt>
      <trkpt lat="49.17408" lon="1.98664">
        <ele>184.8</ele>
        <time>2022-04-10T09:20:32Z</time>
      </trkpt>
      <trkpt lat="49.17414" lon="1.98656">
        <ele>185.3</ele>
        <time>2022-04-10T09:20:38Z</time>
      </trkpt>
      <trkpt lat="49.17418" lon="1.98648">
        <ele>185.6</ele>
        <time>2022-04-10T09:20:43Z</time>
      </trkpt>
      <trkpt lat="49.17425" lon="1.98638">
        <ele>185.8</ele>
        <time>2022-04-10T09:20:49Z</time>
      </trkpt>
      <trkpt lat="49.17432" lon="1.98632">
        <ele>185.7</ele>
        <time>2022-04-10T09:20:54Z</time>
      </trkpt>
      <trkpt lat="49.17438" lon="1.98623">
        <ele>185.5</ele>
        <time>2022-04-10T09:20:59Z</time>
      </trkpt>
      <trkpt lat="49.17444" lon="1.98614">
        <ele>185.1</ele>
        <time>2022-04-10T09:21:04Z</time>
      </trkpt>
      <trkpt lat="49.1745" lon="1.98607">
        <ele>185</ele>
        <time>2022-04-10T09:21:10Z</time>
      </trkpt>
      <trkpt lat="49.17454" lon="1.98602">
        <ele>185</ele>
        <time>2022-04-10T09:21:15Z</time>
      </trkpt>
      <trkpt lat="49.1746" lon="1.98594">
        <ele>184.8</ele>
        <time>2022-04-10T09:21:21Z</time>
      </trkpt>
      <trkpt lat="49.17464" lon="1.98588">
        <ele>184.6</ele>
        <time>2022-04-10T09:21:26Z</time>
      </trkpt>
      <trkpt lat="49.17472" lon="1.98579">
        <ele>184.4</ele>
        <time>2022-04-10T09:21:32Z</time>
      </trkpt>
      <trkpt lat="49.17477" lon="1.98573">
        <ele>184.1</ele>
        <time>2022-04-10T09:21:37Z</time>
      </trkpt>
      <trkpt lat="49.17484" lon="1.98561">
        <ele>183.7</ele>
        <time>2022-04-10T09:21:43Z</time>
      </trkpt>
      <trkpt lat="49.17491" lon="1.98551">
        <ele>183.6</ele>
        <time>2022-04-10T09:21:49Z</time>
      </trkpt>
      <trkpt lat="49.17497" lon="1.98541">
        <ele>183.5</ele>
        <time>2022-04-10T09:21:55Z</time>
      </trkpt>
      <trkpt lat="49.17503" lon="1.98532">
        <ele>183.4</ele>
        <time>2022-04-10T09:22:01Z</time>
      </trkpt>
      <trkpt lat="49.17508" lon="1.98523">
        <ele>183.3</ele>
        <time>2022-04-10T09:22:06Z</time>
      </trkpt>
      <trkpt lat="49.17514" lon="1.9851">
        <ele>183.1</ele>
        <time>2022-04-10T09:22:12Z</time>
      </trkpt>
      <trkpt lat="49.1752" lon="1.98497">
        <ele>183.1</ele>
        <time>2022-04-10T09:22:18Z</time>
      </trkpt>
      <trkpt lat="49.17527" lon="1.9849">
        <ele>183.2</ele>
        <time>2022-04-10T09:22:24Z</time>
      </trkpt>
      <trkpt lat="49.17532" lon="1.98484">
        <ele>183.3</ele>
        <time>2022-04-10T09:22:29Z</time>
      </trkpt>
      <trkpt lat="49.17538" lon="1.98474">
        <ele>183.6</ele>
        <time>2022-04-10T09:22:35Z</time>
      </trkpt>
      <trkpt lat="49.17545" lon="1.98466">
        <ele>183.7</ele>
        <time>2022-04-10T09:22:40Z</time>
      </trkpt>
      <trkpt lat="49.17552" lon="1.98456">
        <ele>183.7</ele>
        <time>2022-04-10T09:22:46Z</time>
      </trkpt>
      <trkpt lat="49.17558" lon="1.98447">
        <ele>183.5</ele>
        <time>2022-04-10T09:22:51Z</time>
      </trkpt>
      <trkpt lat="49.17563" lon="1.98441">
        <ele>183.2</ele>
        <time>2022-04-10T09:22:56Z</time>
      </trkpt>
      <trkpt lat="49.17568" lon="1.98431">
        <ele>182.7</ele>
        <time>2022-04-10T09:23:02Z</time>
      </trkpt>
      <trkpt lat="49.17574" lon="1.98421">
        <ele>182.4</ele>
        <time>2022-04-10T09:23:07Z</time>
      </trkpt>
      <trkpt lat="49.1758" lon="1.9841">
        <ele>182.2</ele>
        <time>2022-04-10T09:23:13Z</time>
      </trkpt>
      <trkpt lat="49.17587" lon="1.98403">
        <ele>182</ele>
        <time>2022-04-10T09:23:18Z</time>
      </trkpt>
      <trkpt lat="49.17592" lon="1.98394">
        <ele>181.7</ele>
        <time>2022-04-10T09:23:24Z</time>
      </trkpt>
      <trkpt lat="49.17598" lon="1.98386">
        <ele>181.5</ele>
        <time>2022-04-10T09:23:29Z</time>
      </trkpt>
      <trkpt lat="49.17604" lon="1.98377">
        <ele>181.3</ele>
        <time>2022-04-10T09:23:35Z</time>
      </trkpt>
      <trkpt lat="49.17611" lon="1.98369">
        <ele>181.2</ele>
        <time>2022-04-10T09:23:40Z</time>
      </trkpt>
      <trkpt lat="49.17617" lon="1.98362">
        <ele>181</ele>
        <time>2022-04-10T09:23:46Z</time>
      </trkpt>
      <trkpt lat="49.17624" lon="1.98352">
        <ele>180.9</ele>
        <time>2022-04-10T09:23:52Z</time>
      </trkpt>
      <trkpt lat="49.17631" lon="1.98343">
        <ele>180.8</ele>
        <time>2022-04-10T09:23:58Z</time>
      </trkpt>
      <trkpt lat="49.17636" lon="1.98334">
        <ele>180.4</ele>
        <time>2022-04-10T09:24:04Z</time>
      </trkpt>
      <trkpt lat="49.17642" lon="1.98328">
        <ele>180.1</ele>
        <time>2022-04-10T09:24:09Z</time>
      </trkpt>
      <trkpt lat="49.17651" lon="1.98323">
        <ele>180</ele>
        <time>2022-04-10T09:24:15Z</time>
      </trkpt>
      <trkpt lat="49.1766" lon="1.98325">
        <ele>179.8</ele>
        <time>2022-04-10T09:24:20Z</time>
      </trkpt>
      <trkpt lat="49.17668" lon="1.98331">
        <ele>179.2</ele>
        <time>2022-04-10T09:24:26Z</time>
      </trkpt>
      <trkpt lat="49.17674" lon="1.98337">
        <ele>178.5</ele>
        <time>2022-04-10T09:24:32Z</time>
      </trkpt>
      <trkpt lat="49.1768" lon="1.98346">
        <ele>177.8</ele>
        <time>2022-04-10T09:24:37Z</time>
      </trkpt>
      <trkpt lat="49.17687" lon="1.98354">
        <ele>177.2</ele>
        <time>2022-04-10T09:24:43Z</time>
      </trkpt>
      <trkpt lat="49.17692" lon="1.98363">
        <ele>176.9</ele>
        <time>2022-04-10T09:24:48Z</time>
      </trkpt>
      <trkpt lat="49.177" lon="1.98371">
        <ele>176.5</ele>
        <time>2022-04-10T09:24:54Z</time>
      </trkpt>
      <trkpt lat="49.17706" lon="1.98376">
        <ele>176.2</ele>
        <time>2022-04-10T09:24:59Z</time>
      </trkpt>
      <trkpt lat="49.17711" lon="1.98385">
        <ele>175.9</ele>
        <time>2022-04-10T09:25:05Z</time>
      </trkpt>
      <trkpt lat="49.17717" lon="1.98391">
        <ele>175.8</ele>
        <time>2022-04-10T09:25:10Z</time>
      </trkpt>
      <trkpt lat="49.17724" lon="1.98395">
        <ele>175.6</ele>
        <time>2022-04-10T09:25:16Z</time>
      </trkpt>
      <trkpt lat="49.17729" lon="1.98406">
        <ele>175.2</ele>
        <time>2022-04-10T09:25:22Z</time>
      </trkpt>
      <trkpt lat="49.17735" lon="1.98414">
        <ele>175</ele>
        <time>2022-04-10T09:25:28Z</time>
      </trkpt>
      <trkpt lat="49.1774" lon="1.98421">
        <ele>174.7</ele>
        <time>2022-04-10T09:25:33Z</time>
      </trkpt>
      <trkpt lat="49.17747" lon="1.9843">
        <ele>174.4</ele>
        <time>2022-04-10T09:25:39Z</time>
      </trkpt>
      <trkpt lat="49.17754" lon="1.98438">
        <ele>174.2</ele>
        <time>2022-04-10T09:25:44Z</time>
      </trkpt>
      <trkpt lat="49.1776" lon="1.98446">
        <ele>173.9</ele>
        <time>2022-04-10T09:25:49Z</time>
      </trkpt>
      <trkpt lat="49.17766" lon="1.98453">
        <ele>173.5</ele>
        <time>2022-04-10T09:25:55Z</time>
      </trkpt>
      <trkpt lat="49.1777" lon="1.9846">
        <ele>172.9</ele>
        <time>2022-04-10T09:26:00Z</time>
      </trkpt>
      <trkpt lat="49.17777" lon="1.98467">
        <ele>172.4</ele>
        <time>2022-04-10T09:26:05Z</time>
      </trkpt>
      <trkpt lat="49.17781" lon="1.98475">
        <ele>172</ele>
        <time>2022-04-10T09:26:11Z</time>
      </trkpt>
      <trkpt lat="49.17788" lon="1.98482">
        <ele>171.6</ele>
        <time>2022-04-10T09:26:17Z</time>
      </trkpt>
      <trkpt lat="49.17794" lon="1.98491">
        <ele>171.1</ele>
        <time>2022-04-10T09:26:23Z</time>
      </trkpt>
      <trkpt lat="49.17798" lon="1.98499">
        <ele>170.5</ele>
        <time>2022-04-10T09:26:28Z</time>
      </trkpt>
      <trkpt lat="49.17804" lon="1.98507">
        <ele>170</ele>
        <time>2022-04-10T09:26:33Z</time>
      </trkpt>
      <trkpt lat="49.17811" lon="1.98517">
        <ele>169.4</ele>
        <time>2022-04-10T09:26:39Z</time>
      </trkpt>
      <trkpt lat="49.17818" lon="1.98525">
        <ele>168.8</ele>
        <time>2022-04-10T09:26:45Z</time>
      </trkpt>
      <trkpt lat="49.17823" lon="1.98533">
        <ele>168.1</ele>
        <time>2022-04-10T09:26:50Z</time>
      </trkpt>
      <trkpt lat="49.1783" lon="1.98542">
        <ele>167.5</ele>
        <time>2022-04-10T09:26:55Z</time>
      </trkpt>
      <trkpt lat="49.17838" lon="1.98549">
        <ele>167</ele>
        <time>2022-04-10T09:27:00Z</time>
      </trkpt>
      <trkpt lat="49.17845" lon="1.98558">
        <ele>166.4</ele>
        <time>2022-04-10T09:27:06Z</time>
      </trkpt>
      <trkpt lat="49.17851" lon="1.98566">
        <ele>165.9</ele>
        <time>2022-04-10T09:27:11Z</time>
      </trkpt>
      <trkpt lat="49.17857" lon="1.98575">
        <ele>165.2</ele>
        <time>2022-04-10T09:27:17Z</time>
      </trkpt>
      <trkpt lat="49.17861" lon="1.98582">
        <ele>164.4</ele>
        <time>2022-04-10T09:27:22Z</time>
      </trkpt>
      <trkpt lat="49.17867" lon="1.98589">
        <ele>163.5</ele>
        <time>2022-04-10T09:27:27Z</time>
      </trkpt>
      <trkpt lat="49.17873" lon="1.98596">
        <ele>162.9</ele>
        <time>2022-04-10T09:27:32Z</time>
      </trkpt>
      <trkpt lat="49.17879" lon="1.98605">
        <ele>162.5</ele>
        <time>2022-04-10T09:27:37Z</time>
      </trkpt>
      <trkpt lat="49.17885" lon="1.98615">
        <ele>162.1</ele>
        <time>2022-04-10T09:27:43Z</time>
      </trkpt>
      <trkpt lat="49.1789" lon="1.98623">
        <ele>161.8</ele>
        <time>2022-04-10T09:27:48Z</time>
      </trkpt>
      <trkpt lat="49.17896" lon="1.98633">
        <ele>161.4</ele>
        <time>2022-04-10T09:27:54Z</time>
      </trkpt>
      <trkpt lat="49.17901" lon="1.9864">
        <ele>161.1</ele>
        <time>2022-04-10T09:27:59Z</time>
      </trkpt>
      <trkpt lat="49.17907" lon="1.9865">
        <ele>160.7</ele>
        <time>2022-04-10T09:28:05Z</time>
      </trkpt>
      <trkpt lat="49.1791" lon="1.98659">
        <ele>160.4</ele>
        <time>2022-04-10T09:28:10Z</time>
      </trkpt>
      <trkpt lat="49.17914" lon="1.98669">
        <ele>160</ele>
        <time>2022-04-10T09:28:16Z</time>
      </trkpt>
      <trkpt lat="49.17918" lon="1.98682">
        <ele>159.6</ele>
        <time>2022-04-10T09:28:22Z</time>
      </trkpt>
      <trkpt lat="49.17925" lon="1.98689">
        <ele>159.5</ele>
        <time>2022-04-10T09:28:28Z</time>
      </trkpt>
      <trkpt lat="49.17931" lon="1.98692">
        <ele>159.4</ele>
        <time>2022-04-10T09:28:33Z</time>
      </trkpt>
      <trkpt lat="49.1793" lon="1.98697">
        <ele>159.1</ele>
        <time>2022-04-10T09:28:39Z</time>
      </trkpt>
      <trkpt lat="49.17929" lon="1.98699">
        <ele>159</ele>
        <time>2022-04-10T09:28:44Z</time>
      </trkpt>
      <trkpt lat="49.1793" lon="1.987">
        <ele>158.7</ele>
        <time>2022-04-10T09:28:50Z</time>
      </trkpt>
      <trkpt lat="49.17931" lon="1.98702">
        <ele>158.5</ele>
        <time>2022-04-10T09:28:56Z</time>
      </trkpt>
      <trkpt lat="49.17932" lon="1.98698">
        <ele>158.3</ele>
        <time>2022-04-10T09:29:02Z</time>
      </trkpt>
      <trkpt lat="49.17931" lon="1.98695">
        <ele>158.3</ele>
        <time>2022-04-10T09:29:08Z</time>
      </trkpt>
      <trkpt lat="49.17929" lon="1.98692">
        <ele>158.3</ele>
        <time>2022-04-10T09:29:14Z</time>
      </trkpt>
      <trkpt lat="49.1793" lon="1.98692">
        <ele>158.4</ele>
        <time>2022-04-10T09:29:19Z</time>
      </trkpt>
      <trkpt lat="49.1793" lon="1.98692">
        <ele>158.5</ele>
        <time>2022-04-10T09:29:24Z</time>
      </trkpt>
      <trkpt lat="49.17927" lon="1.98695">
        <ele>158.6</ele>
        <time>2022-04-10T09:29:30Z</time>
      </trkpt>
      <trkpt lat="49.17926" lon="1.98694">
        <ele>158.6</ele>
        <time>2022-04-10T09:29:36Z</time>
      </trkpt>
      <trkpt lat="49.17926" lon="1.98694">
        <ele>158.8</ele>
        <time>2022-04-10T09:29:42Z</time>
      </trkpt>
      <trkpt lat="49.17926" lon="1.98695">
        <ele>159</ele>
        <time>2022-04-10T09:29:47Z</time>
      </trkpt>
      <trkpt lat="49.17926" lon="1.98695">
        <ele>159</ele>
        <time>2022-04-10T09:29:52Z</time>
      </trkpt>
      <trkpt lat="49.17927" lon="1.98694">
        <ele>159</ele>
        <time>2022-04-10T09:29:58Z</time>
      </trkpt>
      <trkpt lat="49.17926" lon="1.98694">
        <ele>158.7</ele>
        <time>2022-04-10T09:30:04Z</time>
      </trkpt>
      <trkpt lat="49.17928" lon="1.98692">
        <ele>157.8</ele>
        <time>2022-04-10T09:30:10Z</time>
      </trkpt>
      <trkpt lat="49.17929" lon="1.98692">
        <ele>157.7</ele>
        <time>2022-04-10T09:30:15Z</time>
      </trkpt>
      <trkpt lat="49.1793" lon="1.98692">
        <ele>157.5</ele>
        <time>2022-04-10T09:30:21Z</time>
      </trkpt>
      <trkpt lat="49.1793" lon="1.98692">
        <ele>157.4</ele>
        <time>2022-04-10T09:30:27Z</time>
      </trkpt>
      <trkpt lat="49.1793" lon="1.98692">
        <ele>157.2</ele>
        <time>2022-04-10T09:30:33Z</time>
      </trkpt>
      <trkpt lat="49.17926" lon="1.98693">
        <ele>157.3</ele>
        <time>2022-04-10T09:30:39Z</time>
      </trkpt>
      <trkpt lat="49.17926" lon="1.98694">
        <ele>157.3</ele>
        <time>2022-04-10T09:30:44Z</time>
      </trkpt>
      <trkpt lat="49.17925" lon="1.98696">
        <ele>157.9</ele>
        <time>2022-04-10T09:30:51Z</time>
      </trkpt>
      <trkpt lat="49.17927" lon="1.98696">
        <ele>158.8</ele>
        <time>2022-04-10T09:30:56Z</time>
      </trkpt>
      <trkpt lat="49.17926" lon="1.98697">
        <ele>159.4</ele>
        <time>2022-04-10T09:31:02Z</time>
      </trkpt>
      <trkpt lat="49.17925" lon="1.98698">
        <ele>159.4</ele>
        <time>2022-04-10T09:31:07Z</time>
      </trkpt>
      <trkpt lat="49.17925" lon="1.98697">
        <ele>159.5</ele>
        <time>2022-04-10T09:31:13Z</time>
      </trkpt>
      <trkpt lat="49.17924" lon="1.98698">
        <ele>159.9</ele>
        <time>2022-04-10T09:31:18Z</time>
      </trkpt>
      <trkpt lat="49.17925" lon="1.98699">
        <ele>160.1</ele>
        <time>2022-04-10T09:31:24Z</time>
      </trkpt>
      <trkpt lat="49.17926" lon="1.98699">
        <ele>160.2</ele>
        <time>2022-04-10T09:31:30Z</time>
      </trkpt>
      <trkpt lat="49.17926" lon="1.987">
        <ele>160.3</ele>
        <time>2022-04-10T09:31:36Z</time>
      </trkpt>
      <trkpt lat="49.17926" lon="1.98703">
        <ele>160.4</ele>
        <time>2022-04-10T09:31:42Z</time>
      </trkpt>
      <trkpt lat="49.17928" lon="1.98703">
        <ele>160.5</ele>
        <time>2022-04-10T09:31:47Z</time>
      </trkpt>
      <trkpt lat="49.17935" lon="1.987">
        <ele>160.8</ele>
        <time>2022-04-10T09:31:53Z</time>
      </trkpt>
      <trkpt lat="49.1794" lon="1.98706">
        <ele>161</ele>
        <time>2022-04-10T09:31:59Z</time>
      </trkpt>
      <trkpt lat="49.17945" lon="1.98712">
        <ele>160.9</ele>
        <time>2022-04-10T09:32:05Z</time>
      </trkpt>
      <trkpt lat="49.1795" lon="1.9872">
        <ele>160.9</ele>
        <time>2022-04-10T09:32:10Z</time>
      </trkpt>
      <trkpt lat="49.17954" lon="1.98729">
        <ele>161.4</ele>
        <time>2022-04-10T09:32:16Z</time>
      </trkpt>
      <trkpt lat="49.17959" lon="1.98735">
        <ele>162.1</ele>
        <time>2022-04-10T09:32:21Z</time>
      </trkpt>
      <trkpt lat="49.17965" lon="1.98741">
        <ele>162.9</ele>
        <time>2022-04-10T09:32:26Z</time>
      </trkpt>
      <trkpt lat="49.17969" lon="1.98748">
        <ele>163.8</ele>
        <time>2022-04-10T09:32:31Z</time>
      </trkpt>
      <trkpt lat="49.17975" lon="1.98755">
        <ele>165.1</ele>
        <time>2022-04-10T09:32:37Z</time>
      </trkpt>
      <trkpt lat="49.17978" lon="1.98761">
        <ele>166.1</ele>
        <time>2022-04-10T09:32:42Z</time>
      </trkpt>
      <trkpt lat="49.17987" lon="1.98771">
        <ele>167</ele>
        <time>2022-04-10T09:32:48Z</time>
      </trkpt>
      <trkpt lat="49.17992" lon="1.98777">
        <ele>167.9</ele>
        <time>2022-04-10T09:32:54Z</time>
      </trkpt>
      <trkpt lat="49.17998" lon="1.98787">
        <ele>168.2</ele>
        <time>2022-04-10T09:32:59Z</time>
      </trkpt>
      <trkpt lat="49.18004" lon="1.98797">
        <ele>168.4</ele>
        <time>2022-04-10T09:33:05Z</time>
      </trkpt>
      <trkpt lat="49.18009" lon="1.98805">
        <ele>168.9</ele>
        <time>2022-04-10T09:33:11Z</time>
      </trkpt>
      <trkpt lat="49.18014" lon="1.98809">
        <ele>169.7</ele>
        <time>2022-04-10T09:33:17Z</time>
      </trkpt>
      <trkpt lat="49.18018" lon="1.98817">
        <ele>170.4</ele>
        <time>2022-04-10T09:33:23Z</time>
      </trkpt>
      <trkpt lat="49.18023" lon="1.98823">
        <ele>171.3</ele>
        <time>2022-04-10T09:33:29Z</time>
      </trkpt>
      <trkpt lat="49.18027" lon="1.98827">
        <ele>172</ele>
        <time>2022-04-10T09:33:34Z</time>
      </trkpt>
      <trkpt lat="49.18032" lon="1.98831">
        <ele>173</ele>
        <time>2022-04-10T09:33:40Z</time>
      </trkpt>
      <trkpt lat="49.18037" lon="1.98835">
        <ele>173.6</ele>
        <time>2022-04-10T09:33:45Z</time>
      </trkpt>
      <trkpt lat="49.18043" lon="1.98837">
        <ele>174.1</ele>
        <time>2022-04-10T09:33:50Z</time>
      </trkpt>
      <trkpt lat="49.18047" lon="1.98841">
        <ele>174.6</ele>
        <time>2022-04-10T09:33:55Z</time>
      </trkpt>
      <trkpt lat="49.18053" lon="1.98845">
        <ele>175.3</ele>
        <time>2022-04-10T09:34:01Z</time>
      </trkpt>
      <trkpt lat="49.18061" lon="1.98851">
        <ele>175.8</ele>
        <time>2022-04-10T09:34:06Z</time>
      </trkpt>
      <trkpt lat="49.18067" lon="1.98858">
        <ele>176</ele>
        <time>2022-04-10T09:34:11Z</time>
      </trkpt>
      <trkpt lat="49.18076" lon="1.98868">
        <ele>175.8</ele>
        <time>2022-04-10T09:34:17Z</time>
      </trkpt>
      <trkpt lat="49.18088" lon="1.98874">
        <ele>176</ele>
        <time>2022-04-10T09:34:23Z</time>
      </trkpt>
      <trkpt lat="49.18098" lon="1.98881">
        <ele>176.4</ele>
        <time>2022-04-10T09:34:28Z</time>
      </trkpt>
      <trkpt lat="49.18107" lon="1.98891">
        <ele>176.7</ele>
        <time>2022-04-10T09:34:34Z</time>
      </trkpt>
      <trkpt lat="49.18115" lon="1.98897">
        <ele>177</ele>
        <time>2022-04-10T09:34:40Z</time>
      </trkpt>
      <trkpt lat="49.18121" lon="1.98904">
        <ele>177</ele>
        <time>2022-04-10T09:34:45Z</time>
      </trkpt>
      <trkpt lat="49.18126" lon="1.98913">
        <ele>176.8</ele>
        <time>2022-04-10T09:34:50Z</time>
      </trkpt>
      <trkpt lat="49.18132" lon="1.98925">
        <ele>176.5</ele>
        <time>2022-04-10T09:34:56Z</time>
      </trkpt>
      <trkpt lat="49.18136" lon="1.98932">
        <ele>176.2</ele>
        <time>2022-04-10T09:35:01Z</time>
      </trkpt>
      <trkpt lat="49.18138" lon="1.98941">
        <ele>175.9</ele>
        <time>2022-04-10T09:35:07Z</time>
      </trkpt>
      <trkpt lat="49.18143" lon="1.98951">
        <ele>175.3</ele>
        <time>2022-04-10T09:35:12Z</time>
      </trkpt>
      <trkpt lat="49.1815" lon="1.9896">
        <ele>174.9</ele>
        <time>2022-04-10T09:35:18Z</time>
      </trkpt>
      <trkpt lat="49.18158" lon="1.98967">
        <ele>174.4</ele>
        <time>2022-04-10T09:35:23Z</time>
      </trkpt>
      <trkpt lat="49.18161" lon="1.98978">
        <ele>173.8</ele>
        <time>2022-04-10T09:35:29Z</time>
      </trkpt>
      <trkpt lat="49.18166" lon="1.98991">
        <ele>173.2</ele>
        <time>2022-04-10T09:35:35Z</time>
      </trkpt>
      <trkpt lat="49.18168" lon="1.99001">
        <ele>172.6</ele>
        <time>2022-04-10T09:35:40Z</time>
      </trkpt>
      <trkpt lat="49.18171" lon="1.9901">
        <ele>172.1</ele>
        <time>2022-04-10T09:35:45Z</time>
      </trkpt>
      <trkpt lat="49.18178" lon="1.99017">
        <ele>171.1</ele>
        <time>2022-04-10T09:35:51Z</time>
      </trkpt>
      <trkpt lat="49.18182" lon="1.99027">
        <ele>170.3</ele>
        <time>2022-04-10T09:35:56Z</time>
      </trkpt>
      <trkpt lat="49.18186" lon="1.99037">
        <ele>169.5</ele>
        <time>2022-04-10T09:36:02Z</time>
      </trkpt>
      <trkpt lat="49.1819" lon="1.99044">
        <ele>168.8</ele>
        <time>2022-04-10T09:36:07Z</time>
      </trkpt>
      <trkpt lat="49.18196" lon="1.99056">
        <ele>167.9</ele>
        <time>2022-04-10T09:36:13Z</time>
      </trkpt>
      <trkpt lat="49.18201" lon="1.99067">
        <ele>167.3</ele>
        <time>2022-04-10T09:36:19Z</time>
      </trkpt>
      <trkpt lat="49.18204" lon="1.99076">
        <ele>166.9</ele>
        <time>2022-04-10T09:36:24Z</time>
      </trkpt>
      <trkpt lat="49.18208" lon="1.99086">
        <ele>166.6</ele>
        <time>2022-04-10T09:36:30Z</time>
      </trkpt>
      <trkpt lat="49.18212" lon="1.99096">
        <ele>166.6</ele>
        <time>2022-04-10T09:36:35Z</time>
      </trkpt>
      <trkpt lat="49.18216" lon="1.99107">
        <ele>166.8</ele>
        <time>2022-04-10T09:36:41Z</time>
      </trkpt>
      <trkpt lat="49.18219" lon="1.99116">
        <ele>166.7</ele>
        <time>2022-04-10T09:36:46Z</time>
      </trkpt>
      <trkpt lat="49.18224" lon="1.99124">
        <ele>166.6</ele>
        <time>2022-04-10T09:36:52Z</time>
      </trkpt>
      <trkpt lat="49.1823" lon="1.99135">
        <ele>166.6</ele>
        <time>2022-04-10T09:36:58Z</time>
      </trkpt>
      <trkpt lat="49.18236" lon="1.99144">
        <ele>166.6</ele>
        <time>2022-04-10T09:37:04Z</time>
      </trkpt>
      <trkpt lat="49.18241" lon="1.99153">
        <ele>166.6</ele>
        <time>2022-04-10T09:37:09Z</time>
      </trkpt>
      <trkpt lat="49.18246" lon="1.99166">
        <ele>166.7</ele>
        <time>2022-04-10T09:37:15Z</time>
      </trkpt>
      <trkpt lat="49.18251" lon="1.99177">
        <ele>166.8</ele>
        <time>2022-04-10T09:37:21Z</time>
      </trkpt>
      <trkpt lat="49.18254" lon="1.99187">
        <ele>167.1</ele>
        <time>2022-04-10T09:37:27Z</time>
      </trkpt>
      <trkpt lat="49.18259" lon="1.99197">
        <ele>167.3</ele>
        <time>2022-04-10T09:37:32Z</time>
      </trkpt>
      <trkpt lat="49.18264" lon="1.99207">
        <ele>167.6</ele>
        <time>2022-04-10T09:37:37Z</time>
      </trkpt>
      <trkpt lat="49.18269" lon="1.99216">
        <ele>167.5</ele>
        <time>2022-04-10T09:37:43Z</time>
      </trkpt>
      <trkpt lat="49.18272" lon="1.99224">
        <ele>167.2</ele>
        <time>2022-04-10T09:37:48Z</time>
      </trkpt>
      <trkpt lat="49.18277" lon="1.99234">
        <ele>166.8</ele>
        <time>2022-04-10T09:37:53Z</time>
      </trkpt>
      <trkpt lat="49.18282" lon="1.99245">
        <ele>166.5</ele>
        <time>2022-04-10T09:37:59Z</time>
      </trkpt>
      <trkpt lat="49.18286" lon="1.99255">
        <ele>166.4</ele>
        <time>2022-04-10T09:38:04Z</time>
      </trkpt>
      <trkpt lat="49.1829" lon="1.99265">
        <ele>166.4</ele>
        <time>2022-04-10T09:38:10Z</time>
      </trkpt>
      <trkpt lat="49.18294" lon="1.99274">
        <ele>166.4</ele>
        <time>2022-04-10T09:38:15Z</time>
      </trkpt>
      <trkpt lat="49.18299" lon="1.99283">
        <ele>166.6</ele>
        <time>2022-04-10T09:38:20Z</time>
      </trkpt>
      <trkpt lat="49.18303" lon="1.99294">
        <ele>167.2</ele>
        <time>2022-04-10T09:38:26Z</time>
      </trkpt>
      <trkpt lat="49.18307" lon="1.99304">
        <ele>167.9</ele>
        <time>2022-04-10T09:38:32Z</time>
      </trkpt>
      <trkpt lat="49.18308" lon="1.99313">
        <ele>168.3</ele>
        <time>2022-04-10T09:38:37Z</time>
      </trkpt>
      <trkpt lat="49.1831" lon="1.99321">
        <ele>168.8</ele>
        <time>2022-04-10T09:38:42Z</time>
      </trkpt>
      <trkpt lat="49.18312" lon="1.99332">
        <ele>169.3</ele>
        <time>2022-04-10T09:38:48Z</time>
      </trkpt>
      <trkpt lat="49.18316" lon="1.9934">
        <ele>169.4</ele>
        <time>2022-04-10T09:38:53Z</time>
      </trkpt>
      <trkpt lat="49.1832" lon="1.99348">
        <ele>169.3</ele>
        <time>2022-04-10T09:38:58Z</time>
      </trkpt>
      <trkpt lat="49.18326" lon="1.99359">
        <ele>168.9</ele>
        <time>2022-04-10T09:39:04Z</time>
      </trkpt>
      <trkpt lat="49.18332" lon="1.99368">
        <ele>168.5</ele>
        <time>2022-04-10T09:39:09Z</time>
      </trkpt>
      <trkpt lat="49.18338" lon="1.99376">
        <ele>168</ele>
        <time>2022-04-10T09:39:15Z</time>
      </trkpt>
      <trkpt lat="49.18347" lon="1.99384">
        <ele>167.5</ele>
        <time>2022-04-10T09:39:21Z</time>
      </trkpt>
      <trkpt lat="49.18355" lon="1.99385">
        <ele>167.5</ele>
        <time>2022-04-10T09:39:26Z</time>
      </trkpt>
      <trkpt lat="49.18363" lon="1.99382">
        <ele>167.8</ele>
        <time>2022-04-10T09:39:32Z</time>
      </trkpt>
      <trkpt lat="49.1837" lon="1.99375">
        <ele>168.3</ele>
        <time>2022-04-10T09:39:38Z</time>
      </trkpt>
      <trkpt lat="49.18376" lon="1.99369">
        <ele>168.5</ele>
        <time>2022-04-10T09:39:43Z</time>
      </trkpt>
      <trkpt lat="49.18381" lon="1.99363">
        <ele>168.6</ele>
        <time>2022-04-10T09:39:48Z</time>
      </trkpt>
      <trkpt lat="49.18388" lon="1.99355">
        <ele>168.8</ele>
        <time>2022-04-10T09:39:54Z</time>
      </trkpt>
      <trkpt lat="49.18395" lon="1.99345">
        <ele>168.9</ele>
        <time>2022-04-10T09:40:00Z</time>
      </trkpt>
      <trkpt lat="49.18401" lon="1.99337">
        <ele>168.6</ele>
        <time>2022-04-10T09:40:06Z</time>
      </trkpt>
      <trkpt lat="49.18407" lon="1.99329">
        <ele>168.4</ele>
        <time>2022-04-10T09:40:11Z</time>
      </trkpt>
      <trkpt lat="49.18414" lon="1.99322">
        <ele>168.2</ele>
        <time>2022-04-10T09:40:17Z</time>
      </trkpt>
      <trkpt lat="49.18421" lon="1.99314">
        <ele>168.2</ele>
        <time>2022-04-10T09:40:23Z</time>
      </trkpt>
      <trkpt lat="49.18427" lon="1.99308">
        <ele>168.2</ele>
        <time>2022-04-10T09:40:28Z</time>
      </trkpt>
      <trkpt lat="49.18435" lon="1.993">
        <ele>168.4</ele>
        <time>2022-04-10T09:40:34Z</time>
      </trkpt>
      <trkpt lat="49.18441" lon="1.99291">
        <ele>168.5</ele>
        <time>2022-04-10T09:40:40Z</time>
      </trkpt>
      <trkpt lat="49.18447" lon="1.99285">
        <ele>168.6</ele>
        <time>2022-04-10T09:40:45Z</time>
      </trkpt>
      <trkpt lat="49.18455" lon="1.99278">
        <ele>168.4</ele>
        <time>2022-04-10T09:40:51Z</time>
      </trkpt>
      <trkpt lat="49.1846" lon="1.99273">
        <ele>168.3</ele>
        <time>2022-04-10T09:40:56Z</time>
      </trkpt>
      <trkpt lat="49.18467" lon="1.99267">
        <ele>168.3</ele>
        <time>2022-04-10T09:41:02Z</time>
      </trkpt>
      <trkpt lat="49.18473" lon="1.99261">
        <ele>168.4</ele>
        <time>2022-04-10T09:41:07Z</time>
      </trkpt>
      <trkpt lat="49.18477" lon="1.99256">
        <ele>168.5</ele>
        <time>2022-04-10T09:41:13Z</time>
      </trkpt>
      <trkpt lat="49.18482" lon="1.99254">
        <ele>168.5</ele>
        <time>2022-04-10T09:41:18Z</time>
      </trkpt>
      <trkpt lat="49.18487" lon="1.99252">
        <ele>168.6</ele>
        <time>2022-04-10T09:41:24Z</time>
      </trkpt>
      <trkpt lat="49.18495" lon="1.99252">
        <ele>169.2</ele>
        <time>2022-04-10T09:41:30Z</time>
      </trkpt>
      <trkpt lat="49.18502" lon="1.99252">
        <ele>169.9</ele>
        <time>2022-04-10T09:41:35Z</time>
      </trkpt>
      <trkpt lat="49.18509" lon="1.99255">
        <ele>170.9</ele>
        <time>2022-04-10T09:41:40Z</time>
      </trkpt>
      <trkpt lat="49.18518" lon="1.9926">
        <ele>171.7</ele>
        <time>2022-04-10T09:41:46Z</time>
      </trkpt>
      <trkpt lat="49.18525" lon="1.99266">
        <ele>172.3</ele>
        <time>2022-04-10T09:41:52Z</time>
      </trkpt>
      <trkpt lat="49.1853" lon="1.99271">
        <ele>172.5</ele>
        <time>2022-04-10T09:41:58Z</time>
      </trkpt>
      <trkpt lat="49.18538" lon="1.99278">
        <ele>172.4</ele>
        <time>2022-04-10T09:42:04Z</time>
      </trkpt>
      <trkpt lat="49.18544" lon="1.99283">
        <ele>172.3</ele>
        <time>2022-04-10T09:42:10Z</time>
      </trkpt>
      <trkpt lat="49.18551" lon="1.99287">
        <ele>172.4</ele>
        <time>2022-04-10T09:42:15Z</time>
      </trkpt>
      <trkpt lat="49.18555" lon="1.99289">
        <ele>172.8</ele>
        <time>2022-04-10T09:42:21Z</time>
      </trkpt>
      <trkpt lat="49.1856" lon="1.99292">
        <ele>173.5</ele>
        <time>2022-04-10T09:42:26Z</time>
      </trkpt>
      <trkpt lat="49.18566" lon="1.99293">
        <ele>174.8</ele>
        <time>2022-04-10T09:42:32Z</time>
      </trkpt>
      <trkpt lat="49.18574" lon="1.99293">
        <ele>175.9</ele>
        <time>2022-04-10T09:42:38Z</time>
      </trkpt>
      <trkpt lat="49.18583" lon="1.99296">
        <ele>176.9</ele>
        <time>2022-04-10T09:42:44Z</time>
      </trkpt>
      <trkpt lat="49.18591" lon="1.99296">
        <ele>178.2</ele>
        <time>2022-04-10T09:42:50Z</time>
      </trkpt>
      <trkpt lat="49.18596" lon="1.99297">
        <ele>179.4</ele>
        <time>2022-04-10T09:42:55Z</time>
      </trkpt>
      <trkpt lat="49.18606" lon="1.99299">
        <ele>180.9</ele>
        <time>2022-04-10T09:43:01Z</time>
      </trkpt>
      <trkpt lat="49.18613" lon="1.99301">
        <ele>182.5</ele>
        <time>2022-04-10T09:43:06Z</time>
      </trkpt>
      <trkpt lat="49.1862" lon="1.99303">
        <ele>184.6</ele>
        <time>2022-04-10T09:43:12Z</time>
      </trkpt>
      <trkpt lat="49.18626" lon="1.99305">
        <ele>186.3</ele>
        <time>2022-04-10T09:43:17Z</time>
      </trkpt>
      <trkpt lat="49.18635" lon="1.99307">
        <ele>187.9</ele>
        <time>2022-04-10T09:43:23Z</time>
      </trkpt>
      <trkpt lat="49.18642" lon="1.99309">
        <ele>189.1</ele>
        <time>2022-04-10T09:43:28Z</time>
      </trkpt>
      <trkpt lat="49.18648" lon="1.99314">
        <ele>190.1</ele>
        <time>2022-04-10T09:43:34Z</time>
      </trkpt>
      <trkpt lat="49.18654" lon="1.99316">
        <ele>190.7</ele>
        <time>2022-04-10T09:43:39Z</time>
      </trkpt>
      <trkpt lat="49.18663" lon="1.99319">
        <ele>191.5</ele>
        <time>2022-04-10T09:43:45Z</time>
      </trkpt>
      <trkpt lat="49.18671" lon="1.99322">
        <ele>191.6</ele>
        <time>2022-04-10T09:43:50Z</time>
      </trkpt>
      <trkpt lat="49.1868" lon="1.99327">
        <ele>191.6</ele>
        <time>2022-04-10T09:43:56Z</time>
      </trkpt>
      <trkpt lat="49.18687" lon="1.99329">
        <ele>191.4</ele>
        <time>2022-04-10T09:44:01Z</time>
      </trkpt>
      <trkpt lat="49.18693" lon="1.99333">
        <ele>191</ele>
        <time>2022-04-10T09:44:06Z</time>
      </trkpt>
      <trkpt lat="49.18699" lon="1.99338">
        <ele>190.7</ele>
        <time>2022-04-10T09:44:12Z</time>
      </trkpt>
      <trkpt lat="49.18706" lon="1.99343">
        <ele>190.6</ele>
        <time>2022-04-10T09:44:17Z</time>
      </trkpt>
      <trkpt lat="49.18709" lon="1.9935">
        <ele>190.4</ele>
        <time>2022-04-10T09:44:22Z</time>
      </trkpt>
      <trkpt lat="49.18714" lon="1.99356">
        <ele>190.2</ele>
        <time>2022-04-10T09:44:28Z</time>
      </trkpt>
      <trkpt lat="49.18719" lon="1.99361">
        <ele>189.9</ele>
        <time>2022-04-10T09:44:33Z</time>
      </trkpt>
      <trkpt lat="49.18727" lon="1.99367">
        <ele>189.5</ele>
        <time>2022-04-10T09:44:40Z</time>
      </trkpt>
      <trkpt lat="49.18735" lon="1.99374">
        <ele>189</ele>
        <time>2022-04-10T09:44:45Z</time>
      </trkpt>
      <trkpt lat="49.18741" lon="1.99378">
        <ele>188.8</ele>
        <time>2022-04-10T09:44:50Z</time>
      </trkpt>
      <trkpt lat="49.18746" lon="1.99386">
        <ele>188.6</ele>
        <time>2022-04-10T09:44:55Z</time>
      </trkpt>
      <trkpt lat="49.18751" lon="1.99396">
        <ele>188.3</ele>
        <time>2022-04-10T09:45:01Z</time>
      </trkpt>
      <trkpt lat="49.18752" lon="1.99405">
        <ele>188.2</ele>
        <time>2022-04-10T09:45:06Z</time>
      </trkpt>
      <trkpt lat="49.18752" lon="1.99417">
        <ele>188.2</ele>
        <time>2022-04-10T09:45:11Z</time>
      </trkpt>
      <trkpt lat="49.1875" lon="1.99429">
        <ele>187.9</ele>
        <time>2022-04-10T09:45:17Z</time>
      </trkpt>
      <trkpt lat="49.1875" lon="1.9944">
        <ele>187.4</ele>
        <time>2022-04-10T09:45:23Z</time>
      </trkpt>
      <trkpt lat="49.18748" lon="1.99451">
        <ele>187</ele>
        <time>2022-04-10T09:45:28Z</time>
      </trkpt>
      <trkpt lat="49.18745" lon="1.99463">
        <ele>186.6</ele>
        <time>2022-04-10T09:45:34Z</time>
      </trkpt>
      <trkpt lat="49.18742" lon="1.9947">
        <ele>186.4</ele>
        <time>2022-04-10T09:45:39Z</time>
      </trkpt>
      <trkpt lat="49.18739" lon="1.99484">
        <ele>186.3</ele>
        <time>2022-04-10T09:45:45Z</time>
      </trkpt>
      <trkpt lat="49.18738" lon="1.99497">
        <ele>186.2</ele>
        <time>2022-04-10T09:45:50Z</time>
      </trkpt>
      <trkpt lat="49.18736" lon="1.99508">
        <ele>186.1</ele>
        <time>2022-04-10T09:45:56Z</time>
      </trkpt>
      <trkpt lat="49.18735" lon="1.99517">
        <ele>185.9</ele>
        <time>2022-04-10T09:46:01Z</time>
      </trkpt>
      <trkpt lat="49.18731" lon="1.99528">
        <ele>185.8</ele>
        <time>2022-04-10T09:46:06Z</time>
      </trkpt>
      <trkpt lat="49.18728" lon="1.99541">
        <ele>185.6</ele>
        <time>2022-04-10T09:46:12Z</time>
      </trkpt>
      <trkpt lat="49.18725" lon="1.99552">
        <ele>185.5</ele>
        <time>2022-04-10T09:46:18Z</time>
      </trkpt>
      <trkpt lat="49.18721" lon="1.99561">
        <ele>185.5</ele>
        <time>2022-04-10T09:46:23Z</time>
      </trkpt>
      <trkpt lat="49.18717" lon="1.99574">
        <ele>185.7</ele>
        <time>2022-04-10T09:46:29Z</time>
      </trkpt>
      <trkpt lat="49.18715" lon="1.99587">
        <ele>185.8</ele>
        <time>2022-04-10T09:46:35Z</time>
      </trkpt>
      <trkpt lat="49.18712" lon="1.996">
        <ele>185.7</ele>
        <time>2022-04-10T09:46:41Z</time>
      </trkpt>
      <trkpt lat="49.18709" lon="1.9961">
        <ele>185.6</ele>
        <time>2022-04-10T09:46:46Z</time>
      </trkpt>
      <trkpt lat="49.18706" lon="1.99623">
        <ele>185.5</ele>
        <time>2022-04-10T09:46:52Z</time>
      </trkpt>
      <trkpt lat="49.18704" lon="1.99633">
        <ele>185.4</ele>
        <time>2022-04-10T09:46:57Z</time>
      </trkpt>
      <trkpt lat="49.18703" lon="1.99646">
        <ele>185.1</ele>
        <time>2022-04-10T09:47:03Z</time>
      </trkpt>
      <trkpt lat="49.18702" lon="1.99657">
        <ele>184.6</ele>
        <time>2022-04-10T09:47:08Z</time>
      </trkpt>
      <trkpt lat="49.18701" lon="1.99668">
        <ele>184.1</ele>
        <time>2022-04-10T09:47:14Z</time>
      </trkpt>
      <trkpt lat="49.18697" lon="1.9968">
        <ele>184.2</ele>
        <time>2022-04-10T09:47:20Z</time>
      </trkpt>
      <trkpt lat="49.18696" lon="1.99692">
        <ele>184.3</ele>
        <time>2022-04-10T09:47:26Z</time>
      </trkpt>
      <trkpt lat="49.18695" lon="1.99704">
        <ele>184.6</ele>
        <time>2022-04-10T09:47:32Z</time>
      </trkpt>
      <trkpt lat="49.18692" lon="1.99718">
        <ele>185</ele>
        <time>2022-04-10T09:47:38Z</time>
      </trkpt>
      <trkpt lat="49.1869" lon="1.99731">
        <ele>185.6</ele>
        <time>2022-04-10T09:47:44Z</time>
      </trkpt>
      <trkpt lat="49.18688" lon="1.99742">
        <ele>186.1</ele>
        <time>2022-04-10T09:47:50Z</time>
      </trkpt>
      <trkpt lat="49.18696" lon="1.99749">
        <ele>186.2</ele>
        <time>2022-04-10T09:47:56Z</time>
      </trkpt>
      <trkpt lat="49.18702" lon="1.99749">
        <ele>186.3</ele>
        <time>2022-04-10T09:48:02Z</time>
      </trkpt>
      <trkpt lat="49.18704" lon="1.99746">
        <ele>186.5</ele>
        <time>2022-04-10T09:48:07Z</time>
      </trkpt>
      <trkpt lat="49.18708" lon="1.99739">
        <ele>186.8</ele>
        <time>2022-04-10T09:48:12Z</time>
      </trkpt>
      <trkpt lat="49.18718" lon="1.99736">
        <ele>186.8</ele>
        <time>2022-04-10T09:48:18Z</time>
      </trkpt>
      <trkpt lat="49.18726" lon="1.99734">
        <ele>186.6</ele>
        <time>2022-04-10T09:48:23Z</time>
      </trkpt>
      <trkpt lat="49.18738" lon="1.99728">
        <ele>186.6</ele>
        <time>2022-04-10T09:48:28Z</time>
      </trkpt>
      <trkpt lat="49.18747" lon="1.99727">
        <ele>186.6</ele>
        <time>2022-04-10T09:48:34Z</time>
      </trkpt>
      <trkpt lat="49.18754" lon="1.99726">
        <ele>186.9</ele>
        <time>2022-04-10T09:48:40Z</time>
      </trkpt>
      <trkpt lat="49.18762" lon="1.99726">
        <ele>187.1</ele>
        <time>2022-04-10T09:48:46Z</time>
      </trkpt>
      <trkpt lat="49.18769" lon="1.99727">
        <ele>187.2</ele>
        <time>2022-04-10T09:48:52Z</time>
      </trkpt>
      <trkpt lat="49.18776" lon="1.99727">
        <ele>187.1</ele>
        <time>2022-04-10T09:48:58Z</time>
      </trkpt>
      <trkpt lat="49.18784" lon="1.99728">
        <ele>187</ele>
        <time>2022-04-10T09:49:03Z</time>
      </trkpt>
      <trkpt lat="49.18786" lon="1.99739">
        <ele>186.8</ele>
        <time>2022-04-10T09:49:09Z</time>
      </trkpt>
      <trkpt lat="49.1878" lon="1.9975">
        <ele>186.7</ele>
        <time>2022-04-10T09:49:15Z</time>
      </trkpt>
      <trkpt lat="49.18776" lon="1.99761">
        <ele>186.7</ele>
        <time>2022-04-10T09:49:21Z</time>
      </trkpt>
      <trkpt lat="49.18773" lon="1.99759">
        <ele>186.8</ele>
        <time>2022-04-10T09:49:27Z</time>
      </trkpt>
      <trkpt lat="49.18773" lon="1.99758">
        <ele>186.8</ele>
        <time>2022-04-10T09:49:33Z</time>
      </trkpt>
      <trkpt lat="49.18772" lon="1.99757">
        <ele>186.8</ele>
        <time>2022-04-10T09:49:39Z</time>
      </trkpt>
      <trkpt lat="49.18772" lon="1.99757">
        <ele>186.8</ele>
        <time>2022-04-10T09:49:45Z</time>
      </trkpt>
      <trkpt lat="49.18772" lon="1.99758">
        <ele>186.7</ele>
        <time>2022-04-10T09:49:51Z</time>
      </trkpt>
      <trkpt lat="49.18772" lon="1.99758">
        <ele>186.7</ele>
        <time>2022-04-10T09:49:56Z</time>
      </trkpt>
      <trkpt lat="49.18771" lon="1.99758">
        <ele>186.7</ele>
        <time>2022-04-10T09:50:02Z</time>
      </trkpt>
      <trkpt lat="49.18771" lon="1.99758">
        <ele>186.7</ele>
        <time>2022-04-10T09:50:07Z</time>
      </trkpt>
      <trkpt lat="49.18771" lon="1.99758">
        <ele>186.6</ele>
        <time>2022-04-10T09:50:13Z</time>
      </trkpt>
      <trkpt lat="49.18771" lon="1.99758">
        <ele>186.6</ele>
        <time>2022-04-10T09:50:19Z</time>
      </trkpt>
      <trkpt lat="49.18772" lon="1.99759">
        <ele>186.5</ele>
        <time>2022-04-10T09:50:25Z</time>
      </trkpt>
      <trkpt lat="49.18772" lon="1.99759">
        <ele>186.5</ele>
        <time>2022-04-10T09:50:31Z</time>
      </trkpt>
      <trkpt lat="49.18772" lon="1.99759">
        <ele>186.6</ele>
        <time>2022-04-10T09:50:36Z</time>
      </trkpt>
      <trkpt lat="49.18772" lon="1.99759">
        <ele>186.6</ele>
        <time>2022-04-10T09:50:42Z</time>
      </trkpt>
      <trkpt lat="49.18772" lon="1.99759">
        <ele>186.7</ele>
        <time>2022-04-10T09:50:47Z</time>
      </trkpt>
      <trkpt lat="49.18772" lon="1.99759">
        <ele>186.7</ele>
        <time>2022-04-10T09:50:52Z</time>
      </trkpt>
      <trkpt lat="49.18772" lon="1.99759">
        <ele>186.7</ele>
        <time>2022-04-10T09:50:58Z</time>
      </trkpt>
      <trkpt lat="49.18772" lon="1.99758">
        <ele>186.7</ele>
        <time>2022-04-10T09:51:04Z</time>
      </trkpt>
      <trkpt lat="49.18772" lon="1.99758">
        <ele>186.8</ele>
        <time>2022-04-10T09:51:09Z</time>
      </trkpt>
      <trkpt lat="49.18772" lon="1.99758">
        <ele>186.8</ele>
        <time>2022-04-10T09:51:15Z</time>
      </trkpt>
      <trkpt lat="49.18772" lon="1.99758">
        <ele>186.8</ele>
        <time>2022-04-10T09:51:20Z</time>
      </trkpt>
      <trkpt lat="49.18772" lon="1.99758">
        <ele>186.8</ele>
        <time>2022-04-10T09:51:26Z</time>
      </trkpt>
      <trkpt lat="49.18772" lon="1.99759">
        <ele>186.8</ele>
        <time>2022-04-10T09:51:32Z</time>
      </trkpt>
      <trkpt lat="49.18772" lon="1.99759">
        <ele>186.8</ele>
        <time>2022-04-10T09:51:38Z</time>
      </trkpt>
      <trkpt lat="49.18772" lon="1.99759">
        <ele>186.8</ele>
        <time>2022-04-10T09:51:44Z</time>
      </trkpt>
      <trkpt lat="49.18772" lon="1.9976">
        <ele>186.8</ele>
        <time>2022-04-10T09:51:49Z</time>
      </trkpt>
      <trkpt lat="49.18772" lon="1.9976">
        <ele>186.8</ele>
        <time>2022-04-10T09:51:55Z</time>
      </trkpt>
      <trkpt lat="49.18772" lon="1.9976">
        <ele>186.9</ele>
        <time>2022-04-10T09:52:01Z</time>
      </trkpt>
      <trkpt lat="49.18772" lon="1.9976">
        <ele>186.9</ele>
        <time>2022-04-10T09:52:06Z</time>
      </trkpt>
      <trkpt lat="49.18772" lon="1.9976">
        <ele>186.9</ele>
        <time>2022-04-10T09:52:11Z</time>
      </trkpt>
      <trkpt lat="49.18772" lon="1.9976">
        <ele>186.9</ele>
        <time>2022-04-10T09:52:17Z</time>
      </trkpt>
      <trkpt lat="49.18772" lon="1.99759">
        <ele>187</ele>
        <time>2022-04-10T09:52:23Z</time>
      </trkpt>
      <trkpt lat="49.18772" lon="1.99759">
        <ele>187</ele>
        <time>2022-04-10T09:52:29Z</time>
      </trkpt>
      <trkpt lat="49.18772" lon="1.99759">
        <ele>187.1</ele>
        <time>2022-04-10T09:52:35Z</time>
      </trkpt>
      <trkpt lat="49.18772" lon="1.99759">
        <ele>187.1</ele>
        <time>2022-04-10T09:52:41Z</time>
      </trkpt>
      <trkpt lat="49.18772" lon="1.99759">
        <ele>187.1</ele>
        <time>2022-04-10T09:52:47Z</time>
      </trkpt>
      <trkpt lat="49.18772" lon="1.99759">
        <ele>187.1</ele>
        <time>2022-04-10T09:52:53Z</time>
      </trkpt>
      <trkpt lat="49.18772" lon="1.99758">
        <ele>187.1</ele>
        <time>2022-04-10T09:52:59Z</time>
      </trkpt>
      <trkpt lat="49.18773" lon="1.99758">
        <ele>187.1</ele>
        <time>2022-04-10T09:53:04Z</time>
      </trkpt>
      <trkpt lat="49.18773" lon="1.99758">
        <ele>187.1</ele>
        <time>2022-04-10T09:53:10Z</time>
      </trkpt>
      <trkpt lat="49.18773" lon="1.99758">
        <ele>187.1</ele>
        <time>2022-04-10T09:53:15Z</time>
      </trkpt>
      <trkpt lat="49.18773" lon="1.99758">
        <ele>187.1</ele>
        <time>2022-04-10T09:53:21Z</time>
      </trkpt>
      <trkpt lat="49.18774" lon="1.99758">
        <ele>187.1</ele>
        <time>2022-04-10T09:53:27Z</time>
      </trkpt>
      <trkpt lat="49.18774" lon="1.99758">
        <ele>187.1</ele>
        <time>2022-04-10T09:53:32Z</time>
      </trkpt>
      <trkpt lat="49.18774" lon="1.99759">
        <ele>187.1</ele>
        <time>2022-04-10T09:53:38Z</time>
      </trkpt>
      <trkpt lat="49.18774" lon="1.99759">
        <ele>187.1</ele>
        <time>2022-04-10T09:53:44Z</time>
      </trkpt>
      <trkpt lat="49.18773" lon="1.99759">
        <ele>187.1</ele>
        <time>2022-04-10T09:53:50Z</time>
      </trkpt>
      <trkpt lat="49.18773" lon="1.99759">
        <ele>187</ele>
        <time>2022-04-10T09:53:55Z</time>
      </trkpt>
      <trkpt lat="49.18773" lon="1.99759">
        <ele>187</ele>
        <time>2022-04-10T09:54:01Z</time>
      </trkpt>
      <trkpt lat="49.18773" lon="1.99759">
        <ele>187</ele>
        <time>2022-04-10T09:54:06Z</time>
      </trkpt>
      <trkpt lat="49.18773" lon="1.99759">
        <ele>187</ele>
        <time>2022-04-10T09:54:12Z</time>
      </trkpt>
      <trkpt lat="49.18773" lon="1.99759">
        <ele>187</ele>
        <time>2022-04-10T09:54:18Z</time>
      </trkpt>
      <trkpt lat="49.18773" lon="1.99759">
        <ele>186.9</ele>
        <time>2022-04-10T09:54:24Z</time>
      </trkpt>
      <trkpt lat="49.18772" lon="1.99759">
        <ele>186.9</ele>
        <time>2022-04-10T09:54:30Z</time>
      </trkpt>
      <trkpt lat="49.18772" lon="1.99759">
        <ele>186.9</ele>
        <time>2022-04-10T09:54:36Z</time>
      </trkpt>
      <trkpt lat="49.18772" lon="1.99759">
        <ele>186.9</ele>
        <time>2022-04-10T09:54:42Z</time>
      </trkpt>
      <trkpt lat="49.18772" lon="1.99759">
        <ele>186.9</ele>
        <time>2022-04-10T09:54:47Z</time>
      </trkpt>
      <trkpt lat="49.18772" lon="1.99759">
        <ele>186.9</ele>
        <time>2022-04-10T09:54:52Z</time>
      </trkpt>
      <trkpt lat="49.18772" lon="1.99759">
        <ele>186.9</ele>
        <time>2022-04-10T09:54:57Z</time>
      </trkpt>
      <trkpt lat="49.18772" lon="1.99759">
        <ele>186.9</ele>
        <time>2022-04-10T09:55:03Z</time>
      </trkpt>
      <trkpt lat="49.18773" lon="1.99759">
        <ele>186.9</ele>
        <time>2022-04-10T09:55:09Z</time>
      </trkpt>
      <trkpt lat="49.18773" lon="1.99759">
        <ele>186.9</ele>
        <time>2022-04-10T09:55:15Z</time>
      </trkpt>
      <trkpt lat="49.18773" lon="1.99759">
        <ele>186.9</ele>
        <time>2022-04-10T09:55:21Z</time>
      </trkpt>
      <trkpt lat="49.18773" lon="1.99759">
        <ele>186.9</ele>
        <time>2022-04-10T09:55:26Z</time>
      </trkpt>
      <trkpt lat="49.18773" lon="1.99759">
        <ele>186.9</ele>
        <time>2022-04-10T09:55:32Z</time>
      </trkpt>
      <trkpt lat="49.18773" lon="1.99759">
        <ele>186.9</ele>
        <time>2022-04-10T09:55:37Z</time>
      </trkpt>
      <trkpt lat="49.18773" lon="1.99759">
        <ele>186.9</ele>
        <time>2022-04-10T09:55:43Z</time>
      </trkpt>
      <trkpt lat="49.18773" lon="1.99759">
        <ele>186.8</ele>
        <time>2022-04-10T09:55:48Z</time>
      </trkpt>
      <trkpt lat="49.18773" lon="1.99759">
        <ele>186.8</ele>
        <time>2022-04-10T09:55:54Z</time>
      </trkpt>
      <trkpt lat="49.18773" lon="1.99759">
        <ele>186.8</ele>
        <time>2022-04-10T09:56:00Z</time>
      </trkpt>
      <trkpt lat="49.18773" lon="1.99759">
        <ele>186.8</ele>
        <time>2022-04-10T09:56:06Z</time>
      </trkpt>
      <trkpt lat="49.18773" lon="1.99759">
        <ele>186.8</ele>
        <time>2022-04-10T09:56:12Z</time>
      </trkpt>
      <trkpt lat="49.18773" lon="1.99759">
        <ele>186.7</ele>
        <time>2022-04-10T09:56:18Z</time>
      </trkpt>
      <trkpt lat="49.18773" lon="1.9976">
        <ele>186.7</ele>
        <time>2022-04-10T09:56:24Z</time>
      </trkpt>
      <trkpt lat="49.18773" lon="1.9976">
        <ele>186.7</ele>
        <time>2022-04-10T09:56:30Z</time>
      </trkpt>
      <trkpt lat="49.18773" lon="1.9976">
        <ele>186.7</ele>
        <time>2022-04-10T09:56:36Z</time>
      </trkpt>
      <trkpt lat="49.18773" lon="1.9976">
        <ele>186.7</ele>
        <time>2022-04-10T09:56:42Z</time>
      </trkpt>
      <trkpt lat="49.18773" lon="1.9976">
        <ele>186.7</ele>
        <time>2022-04-10T09:56:48Z</time>
      </trkpt>
      <trkpt lat="49.18773" lon="1.99759">
        <ele>186.7</ele>
        <time>2022-04-10T09:56:53Z</time>
      </trkpt>
      <trkpt lat="49.18773" lon="1.99759">
        <ele>186.7</ele>
        <time>2022-04-10T09:56:59Z</time>
      </trkpt>
      <trkpt lat="49.18772" lon="1.99759">
        <ele>186.7</ele>
        <time>2022-04-10T09:57:04Z</time>
      </trkpt>
      <trkpt lat="49.18772" lon="1.99759">
        <ele>186.7</ele>
        <time>2022-04-10T09:57:10Z</time>
      </trkpt>
      <trkpt lat="49.18772" lon="1.99759">
        <ele>186.6</ele>
        <time>2022-04-10T09:57:16Z</time>
      </trkpt>
      <trkpt lat="49.18772" lon="1.99758">
        <ele>186.6</ele>
        <time>2022-04-10T09:57:21Z</time>
      </trkpt>
      <trkpt lat="49.18772" lon="1.99758">
        <ele>186.6</ele>
        <time>2022-04-10T09:57:27Z</time>
      </trkpt>
      <trkpt lat="49.18772" lon="1.99758">
        <ele>186.6</ele>
        <time>2022-04-10T09:57:32Z</time>
      </trkpt>
      <trkpt lat="49.18772" lon="1.99758">
        <ele>186.5</ele>
        <time>2022-04-10T09:57:38Z</time>
      </trkpt>
      <trkpt lat="49.18772" lon="1.99758">
        <ele>186.5</ele>
        <time>2022-04-10T09:57:43Z</time>
      </trkpt>
      <trkpt lat="49.18772" lon="1.99758">
        <ele>186.5</ele>
        <time>2022-04-10T09:57:48Z</time>
      </trkpt>
      <trkpt lat="49.18772" lon="1.99758">
        <ele>186.5</ele>
        <time>2022-04-10T09:57:54Z</time>
      </trkpt>
      <trkpt lat="49.18772" lon="1.99758">
        <ele>186.5</ele>
        <time>2022-04-10T09:57:59Z</time>
      </trkpt>
      <trkpt lat="49.18772" lon="1.99758">
        <ele>186.5</ele>
        <time>2022-04-10T09:58:05Z</time>
      </trkpt>
      <trkpt lat="49.18772" lon="1.99758">
        <ele>186.4</ele>
        <time>2022-04-10T09:58:10Z</time>
      </trkpt>
      <trkpt lat="49.18772" lon="1.99758">
        <ele>186.4</ele>
        <time>2022-04-10T09:58:16Z</time>
      </trkpt>
      <trkpt lat="49.18772" lon="1.99758">
        <ele>186.4</ele>
        <time>2022-04-10T09:58:22Z</time>
      </trkpt>
      <trkpt lat="49.18772" lon="1.99758">
        <ele>186.4</ele>
        <time>2022-04-10T09:58:28Z</time>
      </trkpt>
      <trkpt lat="49.18772" lon="1.99757">
        <ele>186.3</ele>
        <time>2022-04-10T09:58:34Z</time>
      </trkpt>
      <trkpt lat="49.18772" lon="1.99757">
        <ele>186.3</ele>
        <time>2022-04-10T09:58:40Z</time>
      </trkpt>
      <trkpt lat="49.18773" lon="1.99757">
        <ele>186.3</ele>
        <time>2022-04-10T09:58:46Z</time>
      </trkpt>
      <trkpt lat="49.18773" lon="1.99758">
        <ele>186.3</ele>
        <time>2022-04-10T09:58:51Z</time>
      </trkpt>
      <trkpt lat="49.18773" lon="1.99758">
        <ele>186.3</ele>
        <time>2022-04-10T09:58:56Z</time>
      </trkpt>
      <trkpt lat="49.18773" lon="1.99758">
        <ele>186.3</ele>
        <time>2022-04-10T09:59:02Z</time>
      </trkpt>
      <trkpt lat="49.18773" lon="1.99758">
        <ele>186.2</ele>
        <time>2022-04-10T09:59:07Z</time>
      </trkpt>
      <trkpt lat="49.18773" lon="1.99758">
        <ele>186.2</ele>
        <time>2022-04-10T09:59:13Z</time>
      </trkpt>
      <trkpt lat="49.18773" lon="1.99758">
        <ele>186.2</ele>
        <time>2022-04-10T09:59:18Z</time>
      </trkpt>
      <trkpt lat="49.18773" lon="1.99758">
        <ele>186.2</ele>
        <time>2022-04-10T09:59:24Z</time>
      </trkpt>
      <trkpt lat="49.18773" lon="1.99758">
        <ele>186.2</ele>
        <time>2022-04-10T09:59:29Z</time>
      </trkpt>
      <trkpt lat="49.18773" lon="1.99758">
        <ele>186.2</ele>
        <time>2022-04-10T09:59:35Z</time>
      </trkpt>
      <trkpt lat="49.18773" lon="1.99758">
        <ele>186.2</ele>
        <time>2022-04-10T09:59:41Z</time>
      </trkpt>
      <trkpt lat="49.18773" lon="1.99758">
        <ele>186.2</ele>
        <time>2022-04-10T09:59:47Z</time>
      </trkpt>
      <trkpt lat="49.18773" lon="1.99757">
        <ele>186.2</ele>
        <time>2022-04-10T09:59:53Z</time>
      </trkpt>
      <trkpt lat="49.18773" lon="1.99757">
        <ele>186.2</ele>
        <time>2022-04-10T09:59:59Z</time>
      </trkpt>
      <trkpt lat="49.18773" lon="1.99757">
        <ele>186.2</ele>
        <time>2022-04-10T10:00:05Z</time>
      </trkpt>
      <trkpt lat="49.18773" lon="1.99757">
        <ele>186.1</ele>
        <time>2022-04-10T10:00:10Z</time>
      </trkpt>
      <trkpt lat="49.18773" lon="1.99757">
        <ele>186.1</ele>
        <time>2022-04-10T10:00:16Z</time>
      </trkpt>
      <trkpt lat="49.18773" lon="1.99757">
        <ele>186.1</ele>
        <time>2022-04-10T10:00:22Z</time>
      </trkpt>
      <trkpt lat="49.18773" lon="1.99757">
        <ele>186</ele>
        <time>2022-04-10T10:00:27Z</time>
      </trkpt>
      <trkpt lat="49.18773" lon="1.99757">
        <ele>186</ele>
        <time>2022-04-10T10:00:33Z</time>
      </trkpt>
      <trkpt lat="49.18773" lon="1.99757">
        <ele>186</ele>
        <time>2022-04-10T10:00:38Z</time>
      </trkpt>
      <trkpt lat="49.18773" lon="1.99757">
        <ele>186</ele>
        <time>2022-04-10T10:00:44Z</time>
      </trkpt>
      <trkpt lat="49.18773" lon="1.99757">
        <ele>186</ele>
        <time>2022-04-10T10:00:50Z</time>
      </trkpt>
      <trkpt lat="49.18773" lon="1.99757">
        <ele>186</ele>
        <time>2022-04-10T10:00:55Z</time>
      </trkpt>
      <trkpt lat="49.18772" lon="1.99757">
        <ele>186</ele>
        <time>2022-04-10T10:01:01Z</time>
      </trkpt>
      <trkpt lat="49.18772" lon="1.99757">
        <ele>186</ele>
        <time>2022-04-10T10:01:07Z</time>
      </trkpt>
      <trkpt lat="49.18772" lon="1.99757">
        <ele>186</ele>
        <time>2022-04-10T10:01:13Z</time>
      </trkpt>
      <trkpt lat="49.18772" lon="1.99757">
        <ele>186</ele>
        <time>2022-04-10T10:01:18Z</time>
      </trkpt>
      <trkpt lat="49.18772" lon="1.99757">
        <ele>186</ele>
        <time>2022-04-10T10:01:23Z</time>
      </trkpt>
      <trkpt lat="49.18772" lon="1.99757">
        <ele>186</ele>
        <time>2022-04-10T10:01:29Z</time>
      </trkpt>
      <trkpt lat="49.18772" lon="1.99757">
        <ele>186</ele>
        <time>2022-04-10T10:01:35Z</time>
      </trkpt>
      <trkpt lat="49.18772" lon="1.99757">
        <ele>185.9</ele>
        <time>2022-04-10T10:01:40Z</time>
      </trkpt>
      <trkpt lat="49.18772" lon="1.99757">
        <ele>185.9</ele>
        <time>2022-04-10T10:01:45Z</time>
      </trkpt>
      <trkpt lat="49.18772" lon="1.99757">
        <ele>185.9</ele>
        <time>2022-04-10T10:01:51Z</time>
      </trkpt>
      <trkpt lat="49.18772" lon="1.99758">
        <ele>185.9</ele>
        <time>2022-04-10T10:01:57Z</time>
      </trkpt>
      <trkpt lat="49.18772" lon="1.99758">
        <ele>185.9</ele>
        <time>2022-04-10T10:02:02Z</time>
      </trkpt>
      <trkpt lat="49.18772" lon="1.99758">
        <ele>185.9</ele>
        <time>2022-04-10T10:02:08Z</time>
      </trkpt>
      <trkpt lat="49.18772" lon="1.99758">
        <ele>185.9</ele>
        <time>2022-04-10T10:02:14Z</time>
      </trkpt>
      <trkpt lat="49.18772" lon="1.99758">
        <ele>185.9</ele>
        <time>2022-04-10T10:02:19Z</time>
      </trkpt>
      <trkpt lat="49.18772" lon="1.99758">
        <ele>185.9</ele>
        <time>2022-04-10T10:02:24Z</time>
      </trkpt>
      <trkpt lat="49.18772" lon="1.99758">
        <ele>185.9</ele>
        <time>2022-04-10T10:02:30Z</time>
      </trkpt>
      <trkpt lat="49.18772" lon="1.99758">
        <ele>185.9</ele>
        <time>2022-04-10T10:02:35Z</time>
      </trkpt>
      <trkpt lat="49.18772" lon="1.99758">
        <ele>185.8</ele>
        <time>2022-04-10T10:02:41Z</time>
      </trkpt>
      <trkpt lat="49.18772" lon="1.99758">
        <ele>185.8</ele>
        <time>2022-04-10T10:02:47Z</time>
      </trkpt>
      <trkpt lat="49.18772" lon="1.99758">
        <ele>185.8</ele>
        <time>2022-04-10T10:02:52Z</time>
      </trkpt>
      <trkpt lat="49.18772" lon="1.99758">
        <ele>185.8</ele>
        <time>2022-04-10T10:02:58Z</time>
      </trkpt>
      <trkpt lat="49.18772" lon="1.99758">
        <ele>185.8</ele>
        <time>2022-04-10T10:03:04Z</time>
      </trkpt>
      <trkpt lat="49.18772" lon="1.99759">
        <ele>185.8</ele>
        <time>2022-04-10T10:03:10Z</time>
      </trkpt>
      <trkpt lat="49.18772" lon="1.99759">
        <ele>185.8</ele>
        <time>2022-04-10T10:03:16Z</time>
      </trkpt>
      <trkpt lat="49.18772" lon="1.99759">
        <ele>185.8</ele>
        <time>2022-04-10T10:03:21Z</time>
      </trkpt>
      <trkpt lat="49.18772" lon="1.99759">
        <ele>185.7</ele>
        <time>2022-04-10T10:03:27Z</time>
      </trkpt>
      <trkpt lat="49.18771" lon="1.99759">
        <ele>185.7</ele>
        <time>2022-04-10T10:03:32Z</time>
      </trkpt>
      <trkpt lat="49.18771" lon="1.99759">
        <ele>185.7</ele>
        <time>2022-04-10T10:03:38Z</time>
      </trkpt>
      <trkpt lat="49.18771" lon="1.99759">
        <ele>185.7</ele>
        <time>2022-04-10T10:03:43Z</time>
      </trkpt>
      <trkpt lat="49.18771" lon="1.99759">
        <ele>185.7</ele>
        <time>2022-04-10T10:03:49Z</time>
      </trkpt>
      <trkpt lat="49.18771" lon="1.99759">
        <ele>185.7</ele>
        <time>2022-04-10T10:03:55Z</time>
      </trkpt>
      <trkpt lat="49.18771" lon="1.9976">
        <ele>185.7</ele>
        <time>2022-04-10T10:04:00Z</time>
      </trkpt>
      <trkpt lat="49.18771" lon="1.9976">
        <ele>185.7</ele>
        <time>2022-04-10T10:04:06Z</time>
      </trkpt>
      <trkpt lat="49.18771" lon="1.9976">
        <ele>185.7</ele>
        <time>2022-04-10T10:04:12Z</time>
      </trkpt>
      <trkpt lat="49.18771" lon="1.9976">
        <ele>185.7</ele>
        <time>2022-04-10T10:04:18Z</time>
      </trkpt>
      <trkpt lat="49.18771" lon="1.9976">
        <ele>185.7</ele>
        <time>2022-04-10T10:04:23Z</time>
      </trkpt>
      <trkpt lat="49.18771" lon="1.9976">
        <ele>185.7</ele>
        <time>2022-04-10T10:04:29Z</time>
      </trkpt>
      <trkpt lat="49.18771" lon="1.9976">
        <ele>185.7</ele>
        <time>2022-04-10T10:04:35Z</time>
      </trkpt>
      <trkpt lat="49.18771" lon="1.9976">
        <ele>185.6</ele>
        <time>2022-04-10T10:04:41Z</time>
      </trkpt>
      <trkpt lat="49.18771" lon="1.9976">
        <ele>185.6</ele>
        <time>2022-04-10T10:04:46Z</time>
      </trkpt>
      <trkpt lat="49.18771" lon="1.99759">
        <ele>185.6</ele>
        <time>2022-04-10T10:04:51Z</time>
      </trkpt>
      <trkpt lat="49.18771" lon="1.99759">
        <ele>185.6</ele>
        <time>2022-04-10T10:04:57Z</time>
      </trkpt>
      <trkpt lat="49.18771" lon="1.99759">
        <ele>185.5</ele>
        <time>2022-04-10T10:05:02Z</time>
      </trkpt>
      <trkpt lat="49.18771" lon="1.99759">
        <ele>185.5</ele>
        <time>2022-04-10T10:05:08Z</time>
      </trkpt>
      <trkpt lat="49.18771" lon="1.99758">
        <ele>185.5</ele>
        <time>2022-04-10T10:05:13Z</time>
      </trkpt>
      <trkpt lat="49.18771" lon="1.99758">
        <ele>185.4</ele>
        <time>2022-04-10T10:05:19Z</time>
      </trkpt>
      <trkpt lat="49.18771" lon="1.99758">
        <ele>185.4</ele>
        <time>2022-04-10T10:05:25Z</time>
      </trkpt>
      <trkpt lat="49.18772" lon="1.99758">
        <ele>185.3</ele>
        <time>2022-04-10T10:05:30Z</time>
      </trkpt>
      <trkpt lat="49.18772" lon="1.99758">
        <ele>185.3</ele>
        <time>2022-04-10T10:05:36Z</time>
      </trkpt>
      <trkpt lat="49.18772" lon="1.99758">
        <ele>185.3</ele>
        <time>2022-04-10T10:05:42Z</time>
      </trkpt>
      <trkpt lat="49.18772" lon="1.99758">
        <ele>185.3</ele>
        <time>2022-04-10T10:05:48Z</time>
      </trkpt>
      <trkpt lat="49.18772" lon="1.99758">
        <ele>185.3</ele>
        <time>2022-04-10T10:05:54Z</time>
      </trkpt>
      <trkpt lat="49.18772" lon="1.99758">
        <ele>185.3</ele>
        <time>2022-04-10T10:05:59Z</time>
      </trkpt>
      <trkpt lat="49.18773" lon="1.99757">
        <ele>185.4</ele>
        <time>2022-04-10T10:06:05Z</time>
      </trkpt>
      <trkpt lat="49.18773" lon="1.99757">
        <ele>185.4</ele>
        <time>2022-04-10T10:06:10Z</time>
      </trkpt>
      <trkpt lat="49.18773" lon="1.99757">
        <ele>185.4</ele>
        <time>2022-04-10T10:06:16Z</time>
      </trkpt>
      <trkpt lat="49.18773" lon="1.99757">
        <ele>185.4</ele>
        <time>2022-04-10T10:06:22Z</time>
      </trkpt>
      <trkpt lat="49.18773" lon="1.99757">
        <ele>185.4</ele>
        <time>2022-04-10T10:06:28Z</time>
      </trkpt>
      <trkpt lat="49.18773" lon="1.99757">
        <ele>185.4</ele>
        <time>2022-04-10T10:06:33Z</time>
      </trkpt>
      <trkpt lat="49.18773" lon="1.99757">
        <ele>185.5</ele>
        <time>2022-04-10T10:06:39Z</time>
      </trkpt>
      <trkpt lat="49.18773" lon="1.99758">
        <ele>185.5</ele>
        <time>2022-04-10T10:06:44Z</time>
      </trkpt>
      <trkpt lat="49.18774" lon="1.99758">
        <ele>185.5</ele>
        <time>2022-04-10T10:06:50Z</time>
      </trkpt>
      <trkpt lat="49.18774" lon="1.99758">
        <ele>185.6</ele>
        <time>2022-04-10T10:06:56Z</time>
      </trkpt>
      <trkpt lat="49.18774" lon="1.99758">
        <ele>185.6</ele>
        <time>2022-04-10T10:07:01Z</time>
      </trkpt>
      <trkpt lat="49.18774" lon="1.99758">
        <ele>185.6</ele>
        <time>2022-04-10T10:07:07Z</time>
      </trkpt>
      <trkpt lat="49.18774" lon="1.99758">
        <ele>185.6</ele>
        <time>2022-04-10T10:07:13Z</time>
      </trkpt>
      <trkpt lat="49.18773" lon="1.99758">
        <ele>185.6</ele>
        <time>2022-04-10T10:07:18Z</time>
      </trkpt>
      <trkpt lat="49.18774" lon="1.99758">
        <ele>185.6</ele>
        <time>2022-04-10T10:07:24Z</time>
      </trkpt>
      <trkpt lat="49.18774" lon="1.99758">
        <ele>185.6</ele>
        <time>2022-04-10T10:07:29Z</time>
      </trkpt>
      <trkpt lat="49.18774" lon="1.99758">
        <ele>185.6</ele>
        <time>2022-04-10T10:07:34Z</time>
      </trkpt>
      <trkpt lat="49.18774" lon="1.99757">
        <ele>185.5</ele>
        <time>2022-04-10T10:07:40Z</time>
      </trkpt>
      <trkpt lat="49.18774" lon="1.99757">
        <ele>185.5</ele>
        <time>2022-04-10T10:07:45Z</time>
      </trkpt>
      <trkpt lat="49.18774" lon="1.99757">
        <ele>185.5</ele>
        <time>2022-04-10T10:07:50Z</time>
      </trkpt>
      <trkpt lat="49.18774" lon="1.99757">
        <ele>185.4</ele>
        <time>2022-04-10T10:07:56Z</time>
      </trkpt>
      <trkpt lat="49.18774" lon="1.99757">
        <ele>185.4</ele>
        <time>2022-04-10T10:08:02Z</time>
      </trkpt>
      <trkpt lat="49.18774" lon="1.99757">
        <ele>185.4</ele>
        <time>2022-04-10T10:08:07Z</time>
      </trkpt>
      <trkpt lat="49.18774" lon="1.99757">
        <ele>185.4</ele>
        <time>2022-04-10T10:08:13Z</time>
      </trkpt>
      <trkpt lat="49.18774" lon="1.99757">
        <ele>185.4</ele>
        <time>2022-04-10T10:08:19Z</time>
      </trkpt>
      <trkpt lat="49.18774" lon="1.99757">
        <ele>185.4</ele>
        <time>2022-04-10T10:08:25Z</time>
      </trkpt>
      <trkpt lat="49.18774" lon="1.99757">
        <ele>185.4</ele>
        <time>2022-04-10T10:08:30Z</time>
      </trkpt>
      <trkpt lat="49.18774" lon="1.99757">
        <ele>185.4</ele>
        <time>2022-04-10T10:08:35Z</time>
      </trkpt>
      <trkpt lat="49.18774" lon="1.99757">
        <ele>185.4</ele>
        <time>2022-04-10T10:08:41Z</time>
      </trkpt>
      <trkpt lat="49.18774" lon="1.99757">
        <ele>185.4</ele>
        <time>2022-04-10T10:08:46Z</time>
      </trkpt>
      <trkpt lat="49.18774" lon="1.99757">
        <ele>185.4</ele>
        <time>2022-04-10T10:08:52Z</time>
      </trkpt>
      <trkpt lat="49.18774" lon="1.99757">
        <ele>185.4</ele>
        <time>2022-04-10T10:08:58Z</time>
      </trkpt>
      <trkpt lat="49.18774" lon="1.99757">
        <ele>185.4</ele>
        <time>2022-04-10T10:09:03Z</time>
      </trkpt>
      <trkpt lat="49.18774" lon="1.99757">
        <ele>185.4</ele>
        <time>2022-04-10T10:09:09Z</time>
      </trkpt>
      <trkpt lat="49.18774" lon="1.99757">
        <ele>185.4</ele>
        <time>2022-04-10T10:09:15Z</time>
      </trkpt>
      <trkpt lat="49.18773" lon="1.99758">
        <ele>185.4</ele>
        <time>2022-04-10T10:09:20Z</time>
      </trkpt>
      <trkpt lat="49.18773" lon="1.99758">
        <ele>185.4</ele>
        <time>2022-04-10T10:09:25Z</time>
      </trkpt>
      <trkpt lat="49.18773" lon="1.99758">
        <ele>185.4</ele>
        <time>2022-04-10T10:09:31Z</time>
      </trkpt>
      <trkpt lat="49.18773" lon="1.99758">
        <ele>185.4</ele>
        <time>2022-04-10T10:09:36Z</time>
      </trkpt>
      <trkpt lat="49.18773" lon="1.99758">
        <ele>185.4</ele>
        <time>2022-04-10T10:09:42Z</time>
      </trkpt>
      <trkpt lat="49.18773" lon="1.99758">
        <ele>185.4</ele>
        <time>2022-04-10T10:09:47Z</time>
      </trkpt>
      <trkpt lat="49.18773" lon="1.99758">
        <ele>185.5</ele>
        <time>2022-04-10T10:09:53Z</time>
      </trkpt>
      <trkpt lat="49.18773" lon="1.99758">
        <ele>185.5</ele>
        <time>2022-04-10T10:09:58Z</time>
      </trkpt>
      <trkpt lat="49.18773" lon="1.99759">
        <ele>185.5</ele>
        <time>2022-04-10T10:10:04Z</time>
      </trkpt>
      <trkpt lat="49.18773" lon="1.99758">
        <ele>185.5</ele>
        <time>2022-04-10T10:10:10Z</time>
      </trkpt>
      <trkpt lat="49.18773" lon="1.99759">
        <ele>185.5</ele>
        <time>2022-04-10T10:10:15Z</time>
      </trkpt>
      <trkpt lat="49.18773" lon="1.99759">
        <ele>185.6</ele>
        <time>2022-04-10T10:10:20Z</time>
      </trkpt>
      <trkpt lat="49.18773" lon="1.99759">
        <ele>185.6</ele>
        <time>2022-04-10T10:10:26Z</time>
      </trkpt>
      <trkpt lat="49.18773" lon="1.99759">
        <ele>185.6</ele>
        <time>2022-04-10T10:10:32Z</time>
      </trkpt>
      <trkpt lat="49.18773" lon="1.99759">
        <ele>185.6</ele>
        <time>2022-04-10T10:10:37Z</time>
      </trkpt>
      <trkpt lat="49.18772" lon="1.99759">
        <ele>185.6</ele>
        <time>2022-04-10T10:10:42Z</time>
      </trkpt>
      <trkpt lat="49.18772" lon="1.99759">
        <ele>185.7</ele>
        <time>2022-04-10T10:10:48Z</time>
      </trkpt>
      <trkpt lat="49.18772" lon="1.99759">
        <ele>185.7</ele>
        <time>2022-04-10T10:10:53Z</time>
      </trkpt>
      <trkpt lat="49.18772" lon="1.99759">
        <ele>185.7</ele>
        <time>2022-04-10T10:10:58Z</time>
      </trkpt>
      <trkpt lat="49.18772" lon="1.99759">
        <ele>185.7</ele>
        <time>2022-04-10T10:11:04Z</time>
      </trkpt>
      <trkpt lat="49.18772" lon="1.99759">
        <ele>185.8</ele>
        <time>2022-04-10T10:11:10Z</time>
      </trkpt>
      <trkpt lat="49.18772" lon="1.99758">
        <ele>185.8</ele>
        <time>2022-04-10T10:11:16Z</time>
      </trkpt>
      <trkpt lat="49.18772" lon="1.99758">
        <ele>185.7</ele>
        <time>2022-04-10T10:11:22Z</time>
      </trkpt>
      <trkpt lat="49.18772" lon="1.99758">
        <ele>185.7</ele>
        <time>2022-04-10T10:11:28Z</time>
      </trkpt>
      <trkpt lat="49.18772" lon="1.99758">
        <ele>185.7</ele>
        <time>2022-04-10T10:11:34Z</time>
      </trkpt>
      <trkpt lat="49.18772" lon="1.99758">
        <ele>185.7</ele>
        <time>2022-04-10T10:11:40Z</time>
      </trkpt>
      <trkpt lat="49.18772" lon="1.99758">
        <ele>185.8</ele>
        <time>2022-04-10T10:11:45Z</time>
      </trkpt>
      <trkpt lat="49.18772" lon="1.99757">
        <ele>185.8</ele>
        <time>2022-04-10T10:11:51Z</time>
      </trkpt>
      <trkpt lat="49.18772" lon="1.99757">
        <ele>185.8</ele>
        <time>2022-04-10T10:11:57Z</time>
      </trkpt>
      <trkpt lat="49.18772" lon="1.99757">
        <ele>185.8</ele>
        <time>2022-04-10T10:12:03Z</time>
      </trkpt>
      <trkpt lat="49.18772" lon="1.99757">
        <ele>185.8</ele>
        <time>2022-04-10T10:12:08Z</time>
      </trkpt>
      <trkpt lat="49.18772" lon="1.99758">
        <ele>185.9</ele>
        <time>2022-04-10T10:12:14Z</time>
      </trkpt>
      <trkpt lat="49.18772" lon="1.99758">
        <ele>185.9</ele>
        <time>2022-04-10T10:12:20Z</time>
      </trkpt>
      <trkpt lat="49.18772" lon="1.99758">
        <ele>185.9</ele>
        <time>2022-04-10T10:12:25Z</time>
      </trkpt>
      <trkpt lat="49.18773" lon="1.99758">
        <ele>185.9</ele>
        <time>2022-04-10T10:12:31Z</time>
      </trkpt>
      <trkpt lat="49.18773" lon="1.99758">
        <ele>185.9</ele>
        <time>2022-04-10T10:12:37Z</time>
      </trkpt>
      <trkpt lat="49.18773" lon="1.99758">
        <ele>186</ele>
        <time>2022-04-10T10:12:42Z</time>
      </trkpt>
      <trkpt lat="49.18773" lon="1.99758">
        <ele>186</ele>
        <time>2022-04-10T10:12:47Z</time>
      </trkpt>
      <trkpt lat="49.18773" lon="1.99758">
        <ele>186.1</ele>
        <time>2022-04-10T10:12:53Z</time>
      </trkpt>
      <trkpt lat="49.18773" lon="1.99758">
        <ele>186.1</ele>
        <time>2022-04-10T10:12:59Z</time>
      </trkpt>
      <trkpt lat="49.18773" lon="1.99759">
        <ele>186.2</ele>
        <time>2022-04-10T10:13:05Z</time>
      </trkpt>
      <trkpt lat="49.18773" lon="1.99759">
        <ele>186.2</ele>
        <time>2022-04-10T10:13:10Z</time>
      </trkpt>
      <trkpt lat="49.18773" lon="1.99759">
        <ele>186.2</ele>
        <time>2022-04-10T10:13:16Z</time>
      </trkpt>
      <trkpt lat="49.18773" lon="1.99759">
        <ele>186.3</ele>
        <time>2022-04-10T10:13:22Z</time>
      </trkpt>
      <trkpt lat="49.18773" lon="1.99759">
        <ele>186.3</ele>
        <time>2022-04-10T10:13:28Z</time>
      </trkpt>
      <trkpt lat="49.18773" lon="1.99759">
        <ele>186.4</ele>
        <time>2022-04-10T10:13:33Z</time>
      </trkpt>
      <trkpt lat="49.18773" lon="1.9976">
        <ele>186.4</ele>
        <time>2022-04-10T10:13:39Z</time>
      </trkpt>
      <trkpt lat="49.18773" lon="1.9976">
        <ele>186.4</ele>
        <time>2022-04-10T10:13:45Z</time>
      </trkpt>
      <trkpt lat="49.18773" lon="1.9976">
        <ele>186.5</ele>
        <time>2022-04-10T10:13:51Z</time>
      </trkpt>
      <trkpt lat="49.18773" lon="1.9976">
        <ele>186.5</ele>
        <time>2022-04-10T10:13:57Z</time>
      </trkpt>
      <trkpt lat="49.18773" lon="1.9976">
        <ele>186.5</ele>
        <time>2022-04-10T10:14:03Z</time>
      </trkpt>
      <trkpt lat="49.18772" lon="1.9976">
        <ele>186.5</ele>
        <time>2022-04-10T10:14:09Z</time>
      </trkpt>
      <trkpt lat="49.18772" lon="1.9976">
        <ele>186.5</ele>
        <time>2022-04-10T10:14:15Z</time>
      </trkpt>
      <trkpt lat="49.18772" lon="1.9976">
        <ele>186.5</ele>
        <time>2022-04-10T10:14:20Z</time>
      </trkpt>
      <trkpt lat="49.18772" lon="1.9976">
        <ele>186.5</ele>
        <time>2022-04-10T10:14:25Z</time>
      </trkpt>
      <trkpt lat="49.18772" lon="1.9976">
        <ele>186.5</ele>
        <time>2022-04-10T10:14:31Z</time>
      </trkpt>
      <trkpt lat="49.18772" lon="1.9976">
        <ele>186.5</ele>
        <time>2022-04-10T10:14:37Z</time>
      </trkpt>
      <trkpt lat="49.18772" lon="1.9976">
        <ele>186.5</ele>
        <time>2022-04-10T10:14:43Z</time>
      </trkpt>
      <trkpt lat="49.18772" lon="1.9976">
        <ele>186.5</ele>
        <time>2022-04-10T10:14:48Z</time>
      </trkpt>
      <trkpt lat="49.18772" lon="1.9976">
        <ele>186.5</ele>
        <time>2022-04-10T10:14:54Z</time>
      </trkpt>
      <trkpt lat="49.18772" lon="1.9976">
        <ele>186.5</ele>
        <time>2022-04-10T10:14:59Z</time>
      </trkpt>
      <trkpt lat="49.18772" lon="1.9976">
        <ele>186.5</ele>
        <time>2022-04-10T10:15:05Z</time>
      </trkpt>
      <trkpt lat="49.18771" lon="1.9976">
        <ele>186.5</ele>
        <time>2022-04-10T10:15:10Z</time>
      </trkpt>
      <trkpt lat="49.18771" lon="1.9976">
        <ele>186.5</ele>
        <time>2022-04-10T10:15:15Z</time>
      </trkpt>
      <trkpt lat="49.18771" lon="1.99759">
        <ele>186.5</ele>
        <time>2022-04-10T10:15:21Z</time>
      </trkpt>
      <trkpt lat="49.18771" lon="1.99759">
        <ele>186.5</ele>
        <time>2022-04-10T10:15:27Z</time>
      </trkpt>
      <trkpt lat="49.18771" lon="1.99759">
        <ele>186.5</ele>
        <time>2022-04-10T10:15:32Z</time>
      </trkpt>
      <trkpt lat="49.18771" lon="1.99759">
        <ele>186.5</ele>
        <time>2022-04-10T10:15:38Z</time>
      </trkpt>
      <trkpt lat="49.18771" lon="1.99759">
        <ele>186.5</ele>
        <time>2022-04-10T10:15:43Z</time>
      </trkpt>
      <trkpt lat="49.18772" lon="1.99759">
        <ele>186.5</ele>
        <time>2022-04-10T10:15:49Z</time>
      </trkpt>
      <trkpt lat="49.18772" lon="1.99759">
        <ele>186.4</ele>
        <time>2022-04-10T10:15:54Z</time>
      </trkpt>
      <trkpt lat="49.18772" lon="1.99759">
        <ele>186.4</ele>
        <time>2022-04-10T10:16:00Z</time>
      </trkpt>
      <trkpt lat="49.18772" lon="1.99759">
        <ele>186.4</ele>
        <time>2022-04-10T10:16:05Z</time>
      </trkpt>
      <trkpt lat="49.18772" lon="1.99759">
        <ele>186.4</ele>
        <time>2022-04-10T10:16:11Z</time>
      </trkpt>
      <trkpt lat="49.18772" lon="1.99759">
        <ele>186.4</ele>
        <time>2022-04-10T10:16:16Z</time>
      </trkpt>
      <trkpt lat="49.18772" lon="1.99759">
        <ele>186.3</ele>
        <time>2022-04-10T10:16:22Z</time>
      </trkpt>
      <trkpt lat="49.18772" lon="1.99759">
        <ele>186.3</ele>
        <time>2022-04-10T10:16:27Z</time>
      </trkpt>
      <trkpt lat="49.18772" lon="1.99759">
        <ele>186.3</ele>
        <time>2022-04-10T10:16:33Z</time>
      </trkpt>
      <trkpt lat="49.18772" lon="1.99759">
        <ele>186.3</ele>
        <time>2022-04-10T10:16:39Z</time>
      </trkpt>
      <trkpt lat="49.18772" lon="1.99759">
        <ele>186.3</ele>
        <time>2022-04-10T10:16:44Z</time>
      </trkpt>
      <trkpt lat="49.18772" lon="1.99758">
        <ele>186.3</ele>
        <time>2022-04-10T10:16:49Z</time>
      </trkpt>
      <trkpt lat="49.18772" lon="1.99758">
        <ele>186.4</ele>
        <time>2022-04-10T10:16:55Z</time>
      </trkpt>
      <trkpt lat="49.18772" lon="1.99758">
        <ele>186.4</ele>
        <time>2022-04-10T10:17:01Z</time>
      </trkpt>
      <trkpt lat="49.18772" lon="1.99758">
        <ele>186.4</ele>
        <time>2022-04-10T10:17:06Z</time>
      </trkpt>
      <trkpt lat="49.18772" lon="1.99757">
        <ele>186.4</ele>
        <time>2022-04-10T10:17:12Z</time>
      </trkpt>
      <trkpt lat="49.18773" lon="1.99757">
        <ele>186.4</ele>
        <time>2022-04-10T10:17:17Z</time>
      </trkpt>
      <trkpt lat="49.18773" lon="1.99757">
        <ele>186.4</ele>
        <time>2022-04-10T10:17:23Z</time>
      </trkpt>
      <trkpt lat="49.18773" lon="1.99757">
        <ele>186.4</ele>
        <time>2022-04-10T10:17:29Z</time>
      </trkpt>
      <trkpt lat="49.18773" lon="1.99757">
        <ele>186.4</ele>
        <time>2022-04-10T10:17:35Z</time>
      </trkpt>
      <trkpt lat="49.18772" lon="1.99758">
        <ele>186.4</ele>
        <time>2022-04-10T10:17:40Z</time>
      </trkpt>
      <trkpt lat="49.18772" lon="1.99758">
        <ele>186.4</ele>
        <time>2022-04-10T10:17:46Z</time>
      </trkpt>
      <trkpt lat="49.18772" lon="1.99758">
        <ele>186.4</ele>
        <time>2022-04-10T10:17:51Z</time>
      </trkpt>
      <trkpt lat="49.18772" lon="1.99758">
        <ele>186.4</ele>
        <time>2022-04-10T10:17:56Z</time>
      </trkpt>
      <trkpt lat="49.18772" lon="1.99758">
        <ele>186.4</ele>
        <time>2022-04-10T10:18:02Z</time>
      </trkpt>
      <trkpt lat="49.18772" lon="1.99758">
        <ele>186.4</ele>
        <time>2022-04-10T10:18:07Z</time>
      </trkpt>
      <trkpt lat="49.18772" lon="1.99758">
        <ele>186.4</ele>
        <time>2022-04-10T10:18:13Z</time>
      </trkpt>
      <trkpt lat="49.18772" lon="1.99758">
        <ele>186.4</ele>
        <time>2022-04-10T10:18:18Z</time>
      </trkpt>
      <trkpt lat="49.18772" lon="1.99758">
        <ele>186.4</ele>
        <time>2022-04-10T10:18:24Z</time>
      </trkpt>
      <trkpt lat="49.18773" lon="1.99758">
        <ele>186.4</ele>
        <time>2022-04-10T10:18:30Z</time>
      </trkpt>
      <trkpt lat="49.18773" lon="1.99759">
        <ele>186.4</ele>
        <time>2022-04-10T10:18:36Z</time>
      </trkpt>
      <trkpt lat="49.18773" lon="1.99759">
        <ele>186.3</ele>
        <time>2022-04-10T10:18:41Z</time>
      </trkpt>
      <trkpt lat="49.18773" lon="1.99759">
        <ele>186.3</ele>
        <time>2022-04-10T10:18:47Z</time>
      </trkpt>
      <trkpt lat="49.18773" lon="1.99759">
        <ele>186.3</ele>
        <time>2022-04-10T10:18:53Z</time>
      </trkpt>
      <trkpt lat="49.18773" lon="1.99759">
        <ele>186.3</ele>
        <time>2022-04-10T10:18:59Z</time>
      </trkpt>
      <trkpt lat="49.18773" lon="1.99759">
        <ele>186.2</ele>
        <time>2022-04-10T10:19:04Z</time>
      </trkpt>
      <trkpt lat="49.18773" lon="1.99759">
        <ele>186.2</ele>
        <time>2022-04-10T10:19:10Z</time>
      </trkpt>
      <trkpt lat="49.18773" lon="1.99759">
        <ele>186.2</ele>
        <time>2022-04-10T10:19:15Z</time>
      </trkpt>
      <trkpt lat="49.18773" lon="1.99758">
        <ele>186.2</ele>
        <time>2022-04-10T10:19:21Z</time>
      </trkpt>
      <trkpt lat="49.18773" lon="1.99758">
        <ele>186.2</ele>
        <time>2022-04-10T10:19:27Z</time>
      </trkpt>
      <trkpt lat="49.18773" lon="1.99758">
        <ele>186.2</ele>
        <time>2022-04-10T10:19:32Z</time>
      </trkpt>
      <trkpt lat="49.18773" lon="1.99758">
        <ele>186.2</ele>
        <time>2022-04-10T10:19:38Z</time>
      </trkpt>
      <trkpt lat="49.18773" lon="1.99758">
        <ele>186.2</ele>
        <time>2022-04-10T10:19:43Z</time>
      </trkpt>
      <trkpt lat="49.18773" lon="1.99758">
        <ele>186.1</ele>
        <time>2022-04-10T10:19:49Z</time>
      </trkpt>
      <trkpt lat="49.18773" lon="1.99758">
        <ele>186.1</ele>
        <time>2022-04-10T10:19:54Z</time>
      </trkpt>
      <trkpt lat="49.18773" lon="1.99758">
        <ele>186.1</ele>
        <time>2022-04-10T10:19:59Z</time>
      </trkpt>
      <trkpt lat="49.18772" lon="1.99758">
        <ele>186.1</ele>
        <time>2022-04-10T10:20:05Z</time>
      </trkpt>
      <trkpt lat="49.18772" lon="1.99758">
        <ele>186.1</ele>
        <time>2022-04-10T10:20:10Z</time>
      </trkpt>
      <trkpt lat="49.18772" lon="1.99758">
        <ele>186</ele>
        <time>2022-04-10T10:20:16Z</time>
      </trkpt>
      <trkpt lat="49.18772" lon="1.99758">
        <ele>186</ele>
        <time>2022-04-10T10:20:22Z</time>
      </trkpt>
      <trkpt lat="49.18772" lon="1.99758">
        <ele>186</ele>
        <time>2022-04-10T10:20:28Z</time>
      </trkpt>
      <trkpt lat="49.18772" lon="1.99758">
        <ele>186</ele>
        <time>2022-04-10T10:20:33Z</time>
      </trkpt>
      <trkpt lat="49.18772" lon="1.99758">
        <ele>186</ele>
        <time>2022-04-10T10:20:38Z</time>
      </trkpt>
      <trkpt lat="49.18772" lon="1.99758">
        <ele>186</ele>
        <time>2022-04-10T10:20:43Z</time>
      </trkpt>
      <trkpt lat="49.18772" lon="1.99759">
        <ele>186</ele>
        <time>2022-04-10T10:20:49Z</time>
      </trkpt>
      <trkpt lat="49.18772" lon="1.99759">
        <ele>186.1</ele>
        <time>2022-04-10T10:20:55Z</time>
      </trkpt>
      <trkpt lat="49.18773" lon="1.99759">
        <ele>186.1</ele>
        <time>2022-04-10T10:21:01Z</time>
      </trkpt>
      <trkpt lat="49.18773" lon="1.99759">
        <ele>186.1</ele>
        <time>2022-04-10T10:21:06Z</time>
      </trkpt>
      <trkpt lat="49.18773" lon="1.99759">
        <ele>186.1</ele>
        <time>2022-04-10T10:21:12Z</time>
      </trkpt>
      <trkpt lat="49.18773" lon="1.99759">
        <ele>186.2</ele>
        <time>2022-04-10T10:21:18Z</time>
      </trkpt>
      <trkpt lat="49.18773" lon="1.99759">
        <ele>186.2</ele>
        <time>2022-04-10T10:21:24Z</time>
      </trkpt>
      <trkpt lat="49.18773" lon="1.99759">
        <ele>186.2</ele>
        <time>2022-04-10T10:21:30Z</time>
      </trkpt>
      <trkpt lat="49.18773" lon="1.99758">
        <ele>186.2</ele>
        <time>2022-04-10T10:21:35Z</time>
      </trkpt>
      <trkpt lat="49.18773" lon="1.99758">
        <ele>186.2</ele>
        <time>2022-04-10T10:21:41Z</time>
      </trkpt>
      <trkpt lat="49.18772" lon="1.99758">
        <ele>186.3</ele>
        <time>2022-04-10T10:21:47Z</time>
      </trkpt>
      <trkpt lat="49.18772" lon="1.99758">
        <ele>186.3</ele>
        <time>2022-04-10T10:21:52Z</time>
      </trkpt>
      <trkpt lat="49.18772" lon="1.99757">
        <ele>186.3</ele>
        <time>2022-04-10T10:21:58Z</time>
      </trkpt>
      <trkpt lat="49.18772" lon="1.99757">
        <ele>186.4</ele>
        <time>2022-04-10T10:22:03Z</time>
      </trkpt>
      <trkpt lat="49.18772" lon="1.99757">
        <ele>186.4</ele>
        <time>2022-04-10T10:22:08Z</time>
      </trkpt>
      <trkpt lat="49.18772" lon="1.99758">
        <ele>186.4</ele>
        <time>2022-04-10T10:22:13Z</time>
      </trkpt>
      <trkpt lat="49.18772" lon="1.99758">
        <ele>186.4</ele>
        <time>2022-04-10T10:22:18Z</time>
      </trkpt>
      <trkpt lat="49.18772" lon="1.99758">
        <ele>186.4</ele>
        <time>2022-04-10T10:22:24Z</time>
      </trkpt>
      <trkpt lat="49.18772" lon="1.99758">
        <ele>186.3</ele>
        <time>2022-04-10T10:22:30Z</time>
      </trkpt>
      <trkpt lat="49.18772" lon="1.99758">
        <ele>186.3</ele>
        <time>2022-04-10T10:22:35Z</time>
      </trkpt>
      <trkpt lat="49.18772" lon="1.99758">
        <ele>186.3</ele>
        <time>2022-04-10T10:22:41Z</time>
      </trkpt>
      <trkpt lat="49.18772" lon="1.99758">
        <ele>186.3</ele>
        <time>2022-04-10T10:22:47Z</time>
      </trkpt>
      <trkpt lat="49.18772" lon="1.99758">
        <ele>186.3</ele>
        <time>2022-04-10T10:22:52Z</time>
      </trkpt>
      <trkpt lat="49.18772" lon="1.99758">
        <ele>186.2</ele>
        <time>2022-04-10T10:22:58Z</time>
      </trkpt>
      <trkpt lat="49.18772" lon="1.99758">
        <ele>186.2</ele>
        <time>2022-04-10T10:23:03Z</time>
      </trkpt>
      <trkpt lat="49.18772" lon="1.99758">
        <ele>186.2</ele>
        <time>2022-04-10T10:23:09Z</time>
      </trkpt>
      <trkpt lat="49.18773" lon="1.99758">
        <ele>186.2</ele>
        <time>2022-04-10T10:23:14Z</time>
      </trkpt>
      <trkpt lat="49.18773" lon="1.99759">
        <ele>186.2</ele>
        <time>2022-04-10T10:23:20Z</time>
      </trkpt>
      <trkpt lat="49.18773" lon="1.99759">
        <ele>186.2</ele>
        <time>2022-04-10T10:23:26Z</time>
      </trkpt>
      <trkpt lat="49.18773" lon="1.99759">
        <ele>186.2</ele>
        <time>2022-04-10T10:23:32Z</time>
      </trkpt>
      <trkpt lat="49.18773" lon="1.99759">
        <ele>186.3</ele>
        <time>2022-04-10T10:23:38Z</time>
      </trkpt>
      <trkpt lat="49.18773" lon="1.99759">
        <ele>186.3</ele>
        <time>2022-04-10T10:23:43Z</time>
      </trkpt>
      <trkpt lat="49.18773" lon="1.99759">
        <ele>186.3</ele>
        <time>2022-04-10T10:23:49Z</time>
      </trkpt>
      <trkpt lat="49.18773" lon="1.99759">
        <ele>186.3</ele>
        <time>2022-04-10T10:23:55Z</time>
      </trkpt>
      <trkpt lat="49.18773" lon="1.99759">
        <ele>186.3</ele>
        <time>2022-04-10T10:24:00Z</time>
      </trkpt>
      <trkpt lat="49.18773" lon="1.99759">
        <ele>186.2</ele>
        <time>2022-04-10T10:24:05Z</time>
      </trkpt>
      <trkpt lat="49.18773" lon="1.99759">
        <ele>186.2</ele>
        <time>2022-04-10T10:24:11Z</time>
      </trkpt>
      <trkpt lat="49.18773" lon="1.99759">
        <ele>186.2</ele>
        <time>2022-04-10T10:24:16Z</time>
      </trkpt>
      <trkpt lat="49.18773" lon="1.99759">
        <ele>186.2</ele>
        <time>2022-04-10T10:24:22Z</time>
      </trkpt>
      <trkpt lat="49.18772" lon="1.99759">
        <ele>186.2</ele>
        <time>2022-04-10T10:24:27Z</time>
      </trkpt>
      <trkpt lat="49.18772" lon="1.99759">
        <ele>186.2</ele>
        <time>2022-04-10T10:24:32Z</time>
      </trkpt>
      <trkpt lat="49.18772" lon="1.99759">
        <ele>186.2</ele>
        <time>2022-04-10T10:24:37Z</time>
      </trkpt>
      <trkpt lat="49.18772" lon="1.99759">
        <ele>186.2</ele>
        <time>2022-04-10T10:24:42Z</time>
      </trkpt>
      <trkpt lat="49.18772" lon="1.99759">
        <ele>186.2</ele>
        <time>2022-04-10T10:24:48Z</time>
      </trkpt>
      <trkpt lat="49.18772" lon="1.99759">
        <ele>186.2</ele>
        <time>2022-04-10T10:24:53Z</time>
      </trkpt>
      <trkpt lat="49.18772" lon="1.99759">
        <ele>186.1</ele>
        <time>2022-04-10T10:24:59Z</time>
      </trkpt>
      <trkpt lat="49.18772" lon="1.99759">
        <ele>186.1</ele>
        <time>2022-04-10T10:25:05Z</time>
      </trkpt>
      <trkpt lat="49.18772" lon="1.99759">
        <ele>186</ele>
        <time>2022-04-10T10:25:10Z</time>
      </trkpt>
      <trkpt lat="49.18772" lon="1.99759">
        <ele>186</ele>
        <time>2022-04-10T10:25:16Z</time>
      </trkpt>
      <trkpt lat="49.18772" lon="1.99759">
        <ele>186</ele>
        <time>2022-04-10T10:25:21Z</time>
      </trkpt>
      <trkpt lat="49.18772" lon="1.99759">
        <ele>186</ele>
        <time>2022-04-10T10:25:27Z</time>
      </trkpt>
      <trkpt lat="49.18772" lon="1.99759">
        <ele>186</ele>
        <time>2022-04-10T10:25:32Z</time>
      </trkpt>
      <trkpt lat="49.18772" lon="1.99759">
        <ele>186</ele>
        <time>2022-04-10T10:25:37Z</time>
      </trkpt>
      <trkpt lat="49.18772" lon="1.99759">
        <ele>186</ele>
        <time>2022-04-10T10:25:43Z</time>
      </trkpt>
      <trkpt lat="49.18772" lon="1.99759">
        <ele>186</ele>
        <time>2022-04-10T10:25:49Z</time>
      </trkpt>
      <trkpt lat="49.18772" lon="1.99759">
        <ele>185.9</ele>
        <time>2022-04-10T10:25:54Z</time>
      </trkpt>
      <trkpt lat="49.18772" lon="1.99759">
        <ele>185.9</ele>
        <time>2022-04-10T10:26:00Z</time>
      </trkpt>
      <trkpt lat="49.18772" lon="1.99759">
        <ele>185.9</ele>
        <time>2022-04-10T10:26:06Z</time>
      </trkpt>
      <trkpt lat="49.18772" lon="1.99759">
        <ele>186</ele>
        <time>2022-04-10T10:26:12Z</time>
      </trkpt>
      <trkpt lat="49.18772" lon="1.99759">
        <ele>186</ele>
        <time>2022-04-10T10:26:17Z</time>
      </trkpt>
      <trkpt lat="49.18773" lon="1.99759">
        <ele>186.1</ele>
        <time>2022-04-10T10:26:23Z</time>
      </trkpt>
      <trkpt lat="49.18773" lon="1.99759">
        <ele>186.1</ele>
        <time>2022-04-10T10:26:28Z</time>
      </trkpt>
      <trkpt lat="49.18773" lon="1.99759">
        <ele>186.2</ele>
        <time>2022-04-10T10:26:34Z</time>
      </trkpt>
      <trkpt lat="49.18773" lon="1.99759">
        <ele>186.2</ele>
        <time>2022-04-10T10:26:40Z</time>
      </trkpt>
      <trkpt lat="49.18773" lon="1.99759">
        <ele>186.2</ele>
        <time>2022-04-10T10:26:45Z</time>
      </trkpt>
      <trkpt lat="49.18773" lon="1.99759">
        <ele>186.2</ele>
        <time>2022-04-10T10:26:50Z</time>
      </trkpt>
      <trkpt lat="49.18773" lon="1.99759">
        <ele>186.3</ele>
        <time>2022-04-10T10:26:56Z</time>
      </trkpt>
      <trkpt lat="49.18773" lon="1.99759">
        <ele>186.3</ele>
        <time>2022-04-10T10:27:02Z</time>
      </trkpt>
      <trkpt lat="49.18773" lon="1.99758">
        <ele>186.3</ele>
        <time>2022-04-10T10:27:07Z</time>
      </trkpt>
      <trkpt lat="49.18773" lon="1.99758">
        <ele>186.3</ele>
        <time>2022-04-10T10:27:13Z</time>
      </trkpt>
      <trkpt lat="49.18773" lon="1.99758">
        <ele>186.4</ele>
        <time>2022-04-10T10:27:18Z</time>
      </trkpt>
      <trkpt lat="49.18773" lon="1.99758">
        <ele>186.4</ele>
        <time>2022-04-10T10:27:24Z</time>
      </trkpt>
      <trkpt lat="49.18773" lon="1.99757">
        <ele>186.4</ele>
        <time>2022-04-10T10:27:29Z</time>
      </trkpt>
      <trkpt lat="49.18773" lon="1.99757">
        <ele>186.5</ele>
        <time>2022-04-10T10:27:35Z</time>
      </trkpt>
      <trkpt lat="49.18773" lon="1.99757">
        <ele>186.5</ele>
        <time>2022-04-10T10:27:41Z</time>
      </trkpt>
      <trkpt lat="49.18773" lon="1.99757">
        <ele>186.5</ele>
        <time>2022-04-10T10:27:46Z</time>
      </trkpt>
      <trkpt lat="49.18773" lon="1.99757">
        <ele>186.5</ele>
        <time>2022-04-10T10:27:51Z</time>
      </trkpt>
      <trkpt lat="49.18773" lon="1.99757">
        <ele>186.5</ele>
        <time>2022-04-10T10:27:56Z</time>
      </trkpt>
      <trkpt lat="49.18773" lon="1.99757">
        <ele>186.5</ele>
        <time>2022-04-10T10:28:02Z</time>
      </trkpt>
      <trkpt lat="49.18773" lon="1.99756">
        <ele>186.5</ele>
        <time>2022-04-10T10:28:07Z</time>
      </trkpt>
      <trkpt lat="49.18773" lon="1.99756">
        <ele>186.5</ele>
        <time>2022-04-10T10:28:12Z</time>
      </trkpt>
      <trkpt lat="49.18774" lon="1.99756">
        <ele>186.5</ele>
        <time>2022-04-10T10:28:18Z</time>
      </trkpt>
      <trkpt lat="49.18774" lon="1.99756">
        <ele>186.6</ele>
        <time>2022-04-10T10:28:24Z</time>
      </trkpt>
      <trkpt lat="49.18774" lon="1.99756">
        <ele>186.6</ele>
        <time>2022-04-10T10:28:29Z</time>
      </trkpt>
      <trkpt lat="49.18774" lon="1.99756">
        <ele>186.6</ele>
        <time>2022-04-10T10:28:35Z</time>
      </trkpt>
      <trkpt lat="49.18774" lon="1.99756">
        <ele>186.7</ele>
        <time>2022-04-10T10:28:40Z</time>
      </trkpt>
      <trkpt lat="49.18774" lon="1.99756">
        <ele>186.7</ele>
        <time>2022-04-10T10:28:46Z</time>
      </trkpt>
      <trkpt lat="49.18774" lon="1.99757">
        <ele>186.7</ele>
        <time>2022-04-10T10:28:52Z</time>
      </trkpt>
      <trkpt lat="49.18774" lon="1.99757">
        <ele>186.7</ele>
        <time>2022-04-10T10:28:58Z</time>
      </trkpt>
      <trkpt lat="49.18774" lon="1.99757">
        <ele>186.7</ele>
        <time>2022-04-10T10:29:04Z</time>
      </trkpt>
      <trkpt lat="49.18774" lon="1.99757">
        <ele>186.7</ele>
        <time>2022-04-10T10:29:10Z</time>
      </trkpt>
      <trkpt lat="49.18774" lon="1.99757">
        <ele>186.7</ele>
        <time>2022-04-10T10:29:16Z</time>
      </trkpt>
      <trkpt lat="49.18774" lon="1.99758">
        <ele>186.8</ele>
        <time>2022-04-10T10:29:22Z</time>
      </trkpt>
      <trkpt lat="49.18774" lon="1.99758">
        <ele>186.8</ele>
        <time>2022-04-10T10:29:28Z</time>
      </trkpt>
      <trkpt lat="49.18774" lon="1.99758">
        <ele>186.7</ele>
        <time>2022-04-10T10:29:33Z</time>
      </trkpt>
      <trkpt lat="49.18774" lon="1.99758">
        <ele>186.7</ele>
        <time>2022-04-10T10:29:39Z</time>
      </trkpt>
      <trkpt lat="49.18773" lon="1.99758">
        <ele>186.7</ele>
        <time>2022-04-10T10:29:44Z</time>
      </trkpt>
      <trkpt lat="49.18773" lon="1.99758">
        <ele>186.7</ele>
        <time>2022-04-10T10:29:50Z</time>
      </trkpt>
      <trkpt lat="49.18773" lon="1.99758">
        <ele>186.7</ele>
        <time>2022-04-10T10:29:56Z</time>
      </trkpt>
      <trkpt lat="49.18773" lon="1.99758">
        <ele>186.7</ele>
        <time>2022-04-10T10:30:01Z</time>
      </trkpt>
      <trkpt lat="49.18773" lon="1.99758">
        <ele>186.7</ele>
        <time>2022-04-10T10:30:07Z</time>
      </trkpt>
      <trkpt lat="49.18773" lon="1.99758">
        <ele>186.7</ele>
        <time>2022-04-10T10:30:12Z</time>
      </trkpt>
      <trkpt lat="49.18773" lon="1.99758">
        <ele>186.8</ele>
        <time>2022-04-10T10:30:18Z</time>
      </trkpt>
      <trkpt lat="49.18773" lon="1.99758">
        <ele>186.8</ele>
        <time>2022-04-10T10:30:23Z</time>
      </trkpt>
      <trkpt lat="49.18773" lon="1.99758">
        <ele>186.8</ele>
        <time>2022-04-10T10:30:29Z</time>
      </trkpt>
      <trkpt lat="49.18773" lon="1.99758">
        <ele>186.8</ele>
        <time>2022-04-10T10:30:35Z</time>
      </trkpt>
      <trkpt lat="49.18773" lon="1.99758">
        <ele>186.9</ele>
        <time>2022-04-10T10:30:40Z</time>
      </trkpt>
      <trkpt lat="49.18774" lon="1.99758">
        <ele>186.9</ele>
        <time>2022-04-10T10:30:45Z</time>
      </trkpt>
      <trkpt lat="49.18774" lon="1.99758">
        <ele>186.9</ele>
        <time>2022-04-10T10:30:51Z</time>
      </trkpt>
      <trkpt lat="49.18774" lon="1.99758">
        <ele>186.9</ele>
        <time>2022-04-10T10:30:56Z</time>
      </trkpt>
      <trkpt lat="49.18774" lon="1.99758">
        <ele>186.9</ele>
        <time>2022-04-10T10:31:01Z</time>
      </trkpt>
      <trkpt lat="49.18774" lon="1.99758">
        <ele>186.9</ele>
        <time>2022-04-10T10:31:07Z</time>
      </trkpt>
      <trkpt lat="49.18774" lon="1.99758">
        <ele>186.9</ele>
        <time>2022-04-10T10:31:13Z</time>
      </trkpt>
      <trkpt lat="49.18774" lon="1.99758">
        <ele>186.9</ele>
        <time>2022-04-10T10:31:19Z</time>
      </trkpt>
      <trkpt lat="49.18774" lon="1.99758">
        <ele>186.9</ele>
        <time>2022-04-10T10:31:24Z</time>
      </trkpt>
      <trkpt lat="49.18774" lon="1.99758">
        <ele>186.9</ele>
        <time>2022-04-10T10:31:29Z</time>
      </trkpt>
      <trkpt lat="49.18774" lon="1.99758">
        <ele>186.9</ele>
        <time>2022-04-10T10:31:35Z</time>
      </trkpt>
      <trkpt lat="49.18774" lon="1.99758">
        <ele>187</ele>
        <time>2022-04-10T10:31:41Z</time>
      </trkpt>
      <trkpt lat="49.18773" lon="1.99758">
        <ele>187</ele>
        <time>2022-04-10T10:31:47Z</time>
      </trkpt>
      <trkpt lat="49.18773" lon="1.99758">
        <ele>187</ele>
        <time>2022-04-10T10:31:52Z</time>
      </trkpt>
      <trkpt lat="49.18773" lon="1.99758">
        <ele>187</ele>
        <time>2022-04-10T10:31:58Z</time>
      </trkpt>
      <trkpt lat="49.18773" lon="1.99758">
        <ele>187</ele>
        <time>2022-04-10T10:32:04Z</time>
      </trkpt>
      <trkpt lat="49.18773" lon="1.99758">
        <ele>187.1</ele>
        <time>2022-04-10T10:32:10Z</time>
      </trkpt>
      <trkpt lat="49.18773" lon="1.99758">
        <ele>187.1</ele>
        <time>2022-04-10T10:32:15Z</time>
      </trkpt>
      <trkpt lat="49.18774" lon="1.99758">
        <ele>187.1</ele>
        <time>2022-04-10T10:32:21Z</time>
      </trkpt>
      <trkpt lat="49.18774" lon="1.99758">
        <ele>187.1</ele>
        <time>2022-04-10T10:32:27Z</time>
      </trkpt>
      <trkpt lat="49.18774" lon="1.99758">
        <ele>187.1</ele>
        <time>2022-04-10T10:32:33Z</time>
      </trkpt>
      <trkpt lat="49.18774" lon="1.99758">
        <ele>187.1</ele>
        <time>2022-04-10T10:32:39Z</time>
      </trkpt>
      <trkpt lat="49.18774" lon="1.99759">
        <ele>187</ele>
        <time>2022-04-10T10:32:45Z</time>
      </trkpt>
      <trkpt lat="49.18774" lon="1.99758">
        <ele>187</ele>
        <time>2022-04-10T10:32:50Z</time>
      </trkpt>
      <trkpt lat="49.18774" lon="1.99758">
        <ele>187</ele>
        <time>2022-04-10T10:32:56Z</time>
      </trkpt>
      <trkpt lat="49.18774" lon="1.99758">
        <ele>187</ele>
        <time>2022-04-10T10:33:02Z</time>
      </trkpt>
      <trkpt lat="49.18774" lon="1.99758">
        <ele>187</ele>
        <time>2022-04-10T10:33:07Z</time>
      </trkpt>
      <trkpt lat="49.18774" lon="1.99758">
        <ele>187</ele>
        <time>2022-04-10T10:33:13Z</time>
      </trkpt>
      <trkpt lat="49.18774" lon="1.99758">
        <ele>187</ele>
        <time>2022-04-10T10:33:18Z</time>
      </trkpt>
      <trkpt lat="49.18774" lon="1.99758">
        <ele>187</ele>
        <time>2022-04-10T10:33:24Z</time>
      </trkpt>
      <trkpt lat="49.18774" lon="1.99758">
        <ele>186.9</ele>
        <time>2022-04-10T10:33:30Z</time>
      </trkpt>
      <trkpt lat="49.18774" lon="1.99758">
        <ele>186.9</ele>
        <time>2022-04-10T10:33:36Z</time>
      </trkpt>
      <trkpt lat="49.18774" lon="1.99758">
        <ele>186.9</ele>
        <time>2022-04-10T10:33:41Z</time>
      </trkpt>
      <trkpt lat="49.18774" lon="1.99758">
        <ele>186.9</ele>
        <time>2022-04-10T10:33:47Z</time>
      </trkpt>
      <trkpt lat="49.18774" lon="1.99758">
        <ele>186.9</ele>
        <time>2022-04-10T10:33:52Z</time>
      </trkpt>
      <trkpt lat="49.18774" lon="1.99759">
        <ele>186.9</ele>
        <time>2022-04-10T10:33:57Z</time>
      </trkpt>
      <trkpt lat="49.18774" lon="1.99759">
        <ele>186.9</ele>
        <time>2022-04-10T10:34:03Z</time>
      </trkpt>
      <trkpt lat="49.18774" lon="1.99759">
        <ele>186.9</ele>
        <time>2022-04-10T10:34:08Z</time>
      </trkpt>
      <trkpt lat="49.18774" lon="1.99759">
        <ele>186.9</ele>
        <time>2022-04-10T10:34:14Z</time>
      </trkpt>
      <trkpt lat="49.18774" lon="1.99759">
        <ele>186.9</ele>
        <time>2022-04-10T10:34:20Z</time>
      </trkpt>
      <trkpt lat="49.18774" lon="1.99759">
        <ele>186.9</ele>
        <time>2022-04-10T10:34:25Z</time>
      </trkpt>
      <trkpt lat="49.18773" lon="1.99759">
        <ele>186.9</ele>
        <time>2022-04-10T10:34:30Z</time>
      </trkpt>
      <trkpt lat="49.18773" lon="1.99759">
        <ele>186.9</ele>
        <time>2022-04-10T10:34:36Z</time>
      </trkpt>
      <trkpt lat="49.18773" lon="1.99759">
        <ele>186.9</ele>
        <time>2022-04-10T10:34:41Z</time>
      </trkpt>
      <trkpt lat="49.18773" lon="1.99759">
        <ele>186.9</ele>
        <time>2022-04-10T10:34:47Z</time>
      </trkpt>
      <trkpt lat="49.18773" lon="1.99759">
        <ele>187</ele>
        <time>2022-04-10T10:34:53Z</time>
      </trkpt>
      <trkpt lat="49.18773" lon="1.99759">
        <ele>187</ele>
        <time>2022-04-10T10:34:59Z</time>
      </trkpt>
      <trkpt lat="49.18773" lon="1.99759">
        <ele>187</ele>
        <time>2022-04-10T10:35:04Z</time>
      </trkpt>
      <trkpt lat="49.18773" lon="1.99759">
        <ele>187</ele>
        <time>2022-04-10T10:35:10Z</time>
      </trkpt>
      <trkpt lat="49.18773" lon="1.99759">
        <ele>187</ele>
        <time>2022-04-10T10:35:16Z</time>
      </trkpt>
      <trkpt lat="49.18773" lon="1.99759">
        <ele>187</ele>
        <time>2022-04-10T10:35:21Z</time>
      </trkpt>
      <trkpt lat="49.18773" lon="1.99759">
        <ele>187</ele>
        <time>2022-04-10T10:35:27Z</time>
      </trkpt>
      <trkpt lat="49.18773" lon="1.99759">
        <ele>187</ele>
        <time>2022-04-10T10:35:32Z</time>
      </trkpt>
      <trkpt lat="49.18773" lon="1.99759">
        <ele>187.1</ele>
        <time>2022-04-10T10:35:38Z</time>
      </trkpt>
      <trkpt lat="49.18773" lon="1.99759">
        <ele>187</ele>
        <time>2022-04-10T10:35:44Z</time>
      </trkpt>
      <trkpt lat="49.18773" lon="1.99759">
        <ele>187</ele>
        <time>2022-04-10T10:35:50Z</time>
      </trkpt>
      <trkpt lat="49.18773" lon="1.99759">
        <ele>187</ele>
        <time>2022-04-10T10:35:55Z</time>
      </trkpt>
      <trkpt lat="49.18773" lon="1.99759">
        <ele>187</ele>
        <time>2022-04-10T10:36:00Z</time>
      </trkpt>
      <trkpt lat="49.18773" lon="1.99759">
        <ele>187</ele>
        <time>2022-04-10T10:36:05Z</time>
      </trkpt>
      <trkpt lat="49.18773" lon="1.99759">
        <ele>187</ele>
        <time>2022-04-10T10:36:11Z</time>
      </trkpt>
      <trkpt lat="49.18773" lon="1.99759">
        <ele>187</ele>
        <time>2022-04-10T10:36:16Z</time>
      </trkpt>
      <trkpt lat="49.18773" lon="1.99759">
        <ele>186.9</ele>
        <time>2022-04-10T10:36:21Z</time>
      </trkpt>
      <trkpt lat="49.18773" lon="1.99759">
        <ele>186.9</ele>
        <time>2022-04-10T10:36:27Z</time>
      </trkpt>
      <trkpt lat="49.18773" lon="1.99759">
        <ele>186.9</ele>
        <time>2022-04-10T10:36:33Z</time>
      </trkpt>
      <trkpt lat="49.18773" lon="1.99759">
        <ele>186.9</ele>
        <time>2022-04-10T10:36:39Z</time>
      </trkpt>
      <trkpt lat="49.18773" lon="1.99759">
        <ele>186.9</ele>
        <time>2022-04-10T10:36:45Z</time>
      </trkpt>
      <trkpt lat="49.18773" lon="1.99759">
        <ele>186.9</ele>
        <time>2022-04-10T10:36:51Z</time>
      </trkpt>
      <trkpt lat="49.18773" lon="1.99759">
        <ele>186.9</ele>
        <time>2022-04-10T10:36:57Z</time>
      </trkpt>
      <trkpt lat="49.18773" lon="1.99759">
        <ele>186.9</ele>
        <time>2022-04-10T10:37:02Z</time>
      </trkpt>
      <trkpt lat="49.18773" lon="1.99759">
        <ele>187</ele>
        <time>2022-04-10T10:37:07Z</time>
      </trkpt>
      <trkpt lat="49.18773" lon="1.99759">
        <ele>187</ele>
        <time>2022-04-10T10:37:13Z</time>
      </trkpt>
      <trkpt lat="49.18773" lon="1.99759">
        <ele>187</ele>
        <time>2022-04-10T10:37:19Z</time>
      </trkpt>
      <trkpt lat="49.18773" lon="1.99759">
        <ele>187</ele>
        <time>2022-04-10T10:37:25Z</time>
      </trkpt>
      <trkpt lat="49.18773" lon="1.99759">
        <ele>187</ele>
        <time>2022-04-10T10:37:31Z</time>
      </trkpt>
      <trkpt lat="49.18773" lon="1.99759">
        <ele>187</ele>
        <time>2022-04-10T10:37:37Z</time>
      </trkpt>
      <trkpt lat="49.18773" lon="1.99759">
        <ele>187</ele>
        <time>2022-04-10T10:37:43Z</time>
      </trkpt>
      <trkpt lat="49.18773" lon="1.99759">
        <ele>187.1</ele>
        <time>2022-04-10T10:37:48Z</time>
      </trkpt>
      <trkpt lat="49.18773" lon="1.99759">
        <ele>187.1</ele>
        <time>2022-04-10T10:37:54Z</time>
      </trkpt>
      <trkpt lat="49.18773" lon="1.99759">
        <ele>187.1</ele>
        <time>2022-04-10T10:38:00Z</time>
      </trkpt>
      <trkpt lat="49.18773" lon="1.99759">
        <ele>187.1</ele>
        <time>2022-04-10T10:38:06Z</time>
      </trkpt>
      <trkpt lat="49.18773" lon="1.99759">
        <ele>187.1</ele>
        <time>2022-04-10T10:38:12Z</time>
      </trkpt>
      <trkpt lat="49.18773" lon="1.99759">
        <ele>187.1</ele>
        <time>2022-04-10T10:38:17Z</time>
      </trkpt>
      <trkpt lat="49.18773" lon="1.99759">
        <ele>187.1</ele>
        <time>2022-04-10T10:38:22Z</time>
      </trkpt>
      <trkpt lat="49.18773" lon="1.99759">
        <ele>187.1</ele>
        <time>2022-04-10T10:38:28Z</time>
      </trkpt>
      <trkpt lat="49.18772" lon="1.99759">
        <ele>187.2</ele>
        <time>2022-04-10T10:38:34Z</time>
      </trkpt>
      <trkpt lat="49.18772" lon="1.99759">
        <ele>187.2</ele>
        <time>2022-04-10T10:38:39Z</time>
      </trkpt>
      <trkpt lat="49.18772" lon="1.99759">
        <ele>187.2</ele>
        <time>2022-04-10T10:38:45Z</time>
      </trkpt>
      <trkpt lat="49.18772" lon="1.99759">
        <ele>187.2</ele>
        <time>2022-04-10T10:38:51Z</time>
      </trkpt>
      <trkpt lat="49.18772" lon="1.99759">
        <ele>187.2</ele>
        <time>2022-04-10T10:38:56Z</time>
      </trkpt>
      <trkpt lat="49.18772" lon="1.99759">
        <ele>187.3</ele>
        <time>2022-04-10T10:39:01Z</time>
      </trkpt>
      <trkpt lat="49.18772" lon="1.99759">
        <ele>187.3</ele>
        <time>2022-04-10T10:39:07Z</time>
      </trkpt>
      <trkpt lat="49.18772" lon="1.99759">
        <ele>187.3</ele>
        <time>2022-04-10T10:39:12Z</time>
      </trkpt>
      <trkpt lat="49.18772" lon="1.99759">
        <ele>187.3</ele>
        <time>2022-04-10T10:39:17Z</time>
      </trkpt>
      <trkpt lat="49.18772" lon="1.99759">
        <ele>187.3</ele>
        <time>2022-04-10T10:39:22Z</time>
      </trkpt>
      <trkpt lat="49.18772" lon="1.99759">
        <ele>187.4</ele>
        <time>2022-04-10T10:39:28Z</time>
      </trkpt>
      <trkpt lat="49.18772" lon="1.99759">
        <ele>187.4</ele>
        <time>2022-04-10T10:39:34Z</time>
      </trkpt>
      <trkpt lat="49.18773" lon="1.99759">
        <ele>187.4</ele>
        <time>2022-04-10T10:39:40Z</time>
      </trkpt>
      <trkpt lat="49.18773" lon="1.99759">
        <ele>187.4</ele>
        <time>2022-04-10T10:39:46Z</time>
      </trkpt>
      <trkpt lat="49.18773" lon="1.99759">
        <ele>187.4</ele>
        <time>2022-04-10T10:39:52Z</time>
      </trkpt>
      <trkpt lat="49.18773" lon="1.99759">
        <ele>187.4</ele>
        <time>2022-04-10T10:39:58Z</time>
      </trkpt>
      <trkpt lat="49.18773" lon="1.99759">
        <ele>187.4</ele>
        <time>2022-04-10T10:40:04Z</time>
      </trkpt>
      <trkpt lat="49.18773" lon="1.99759">
        <ele>187.4</ele>
        <time>2022-04-10T10:40:09Z</time>
      </trkpt>
      <trkpt lat="49.18773" lon="1.99759">
        <ele>187.4</ele>
        <time>2022-04-10T10:40:15Z</time>
      </trkpt>
      <trkpt lat="49.18773" lon="1.99759">
        <ele>187.4</ele>
        <time>2022-04-10T10:40:20Z</time>
      </trkpt>
      <trkpt lat="49.18773" lon="1.99759">
        <ele>187.4</ele>
        <time>2022-04-10T10:40:25Z</time>
      </trkpt>
      <trkpt lat="49.18773" lon="1.99759">
        <ele>187.4</ele>
        <time>2022-04-10T10:40:31Z</time>
      </trkpt>
      <trkpt lat="49.18773" lon="1.99759">
        <ele>187.4</ele>
        <time>2022-04-10T10:40:37Z</time>
      </trkpt>
      <trkpt lat="49.18773" lon="1.99759">
        <ele>187.4</ele>
        <time>2022-04-10T10:40:43Z</time>
      </trkpt>
      <trkpt lat="49.18773" lon="1.99759">
        <ele>187.4</ele>
        <time>2022-04-10T10:40:49Z</time>
      </trkpt>
      <trkpt lat="49.18773" lon="1.99759">
        <ele>187.3</ele>
        <time>2022-04-10T10:40:55Z</time>
      </trkpt>
      <trkpt lat="49.18773" lon="1.99759">
        <ele>187.3</ele>
        <time>2022-04-10T10:41:00Z</time>
      </trkpt>
      <trkpt lat="49.18773" lon="1.99759">
        <ele>187.3</ele>
        <time>2022-04-10T10:41:06Z</time>
      </trkpt>
      <trkpt lat="49.18773" lon="1.99759">
        <ele>187.2</ele>
        <time>2022-04-10T10:41:12Z</time>
      </trkpt>
      <trkpt lat="49.18773" lon="1.99759">
        <ele>187.2</ele>
        <time>2022-04-10T10:41:18Z</time>
      </trkpt>
      <trkpt lat="49.18773" lon="1.99758">
        <ele>187.2</ele>
        <time>2022-04-10T10:41:23Z</time>
      </trkpt>
      <trkpt lat="49.18773" lon="1.99758">
        <ele>187.2</ele>
        <time>2022-04-10T10:41:28Z</time>
      </trkpt>
      <trkpt lat="49.18773" lon="1.99758">
        <ele>187.2</ele>
        <time>2022-04-10T10:41:34Z</time>
      </trkpt>
      <trkpt lat="49.18773" lon="1.99758">
        <ele>187.2</ele>
        <time>2022-04-10T10:41:39Z</time>
      </trkpt>
      <trkpt lat="49.18773" lon="1.99758">
        <ele>187.2</ele>
        <time>2022-04-10T10:41:44Z</time>
      </trkpt>
      <trkpt lat="49.18773" lon="1.99759">
        <ele>187.2</ele>
        <time>2022-04-10T10:41:50Z</time>
      </trkpt>
      <trkpt lat="49.18773" lon="1.99758">
        <ele>187.2</ele>
        <time>2022-04-10T10:41:55Z</time>
      </trkpt>
      <trkpt lat="49.18773" lon="1.99759">
        <ele>187.2</ele>
        <time>2022-04-10T10:42:00Z</time>
      </trkpt>
      <trkpt lat="49.18773" lon="1.99759">
        <ele>187.2</ele>
        <time>2022-04-10T10:42:06Z</time>
      </trkpt>
      <trkpt lat="49.18773" lon="1.99759">
        <ele>187.2</ele>
        <time>2022-04-10T10:42:12Z</time>
      </trkpt>
      <trkpt lat="49.18772" lon="1.99758">
        <ele>187.2</ele>
        <time>2022-04-10T10:42:17Z</time>
      </trkpt>
      <trkpt lat="49.18772" lon="1.99758">
        <ele>187.2</ele>
        <time>2022-04-10T10:42:23Z</time>
      </trkpt>
      <trkpt lat="49.18773" lon="1.99759">
        <ele>187.2</ele>
        <time>2022-04-10T10:42:28Z</time>
      </trkpt>
      <trkpt lat="49.18773" lon="1.99759">
        <ele>187.2</ele>
        <time>2022-04-10T10:42:33Z</time>
      </trkpt>
      <trkpt lat="49.18773" lon="1.99759">
        <ele>187.2</ele>
        <time>2022-04-10T10:42:39Z</time>
      </trkpt>
      <trkpt lat="49.18773" lon="1.99759">
        <ele>187.2</ele>
        <time>2022-04-10T10:42:44Z</time>
      </trkpt>
      <trkpt lat="49.18773" lon="1.99759">
        <ele>187.3</ele>
        <time>2022-04-10T10:42:50Z</time>
      </trkpt>
      <trkpt lat="49.18773" lon="1.99759">
        <ele>187.3</ele>
        <time>2022-04-10T10:42:56Z</time>
      </trkpt>
      <trkpt lat="49.18773" lon="1.99759">
        <ele>187.4</ele>
        <time>2022-04-10T10:43:01Z</time>
      </trkpt>
      <trkpt lat="49.18773" lon="1.99759">
        <ele>187.4</ele>
        <time>2022-04-10T10:43:07Z</time>
      </trkpt>
      <trkpt lat="49.18773" lon="1.99759">
        <ele>187.4</ele>
        <time>2022-04-10T10:43:13Z</time>
      </trkpt>
      <trkpt lat="49.18773" lon="1.99759">
        <ele>187.4</ele>
        <time>2022-04-10T10:43:18Z</time>
      </trkpt>
      <trkpt lat="49.18773" lon="1.99759">
        <ele>187.4</ele>
        <time>2022-04-10T10:43:24Z</time>
      </trkpt>
      <trkpt lat="49.18773" lon="1.99759">
        <ele>187.5</ele>
        <time>2022-04-10T10:43:29Z</time>
      </trkpt>
      <trkpt lat="49.18773" lon="1.99759">
        <ele>187.5</ele>
        <time>2022-04-10T10:43:35Z</time>
      </trkpt>
      <trkpt lat="49.18773" lon="1.99759">
        <ele>187.5</ele>
        <time>2022-04-10T10:43:40Z</time>
      </trkpt>
      <trkpt lat="49.18773" lon="1.99759">
        <ele>187.5</ele>
        <time>2022-04-10T10:43:46Z</time>
      </trkpt>
      <trkpt lat="49.18773" lon="1.99759">
        <ele>187.5</ele>
        <time>2022-04-10T10:43:51Z</time>
      </trkpt>
      <trkpt lat="49.18773" lon="1.99759">
        <ele>187.5</ele>
        <time>2022-04-10T10:43:56Z</time>
      </trkpt>
      <trkpt lat="49.18773" lon="1.99759">
        <ele>187.5</ele>
        <time>2022-04-10T10:44:02Z</time>
      </trkpt>
      <trkpt lat="49.18772" lon="1.99759">
        <ele>187.5</ele>
        <time>2022-04-10T10:44:07Z</time>
      </trkpt>
      <trkpt lat="49.18772" lon="1.99759">
        <ele>187.5</ele>
        <time>2022-04-10T10:44:13Z</time>
      </trkpt>
      <trkpt lat="49.18772" lon="1.99759">
        <ele>187.5</ele>
        <time>2022-04-10T10:44:18Z</time>
      </trkpt>
      <trkpt lat="49.18772" lon="1.99759">
        <ele>187.5</ele>
        <time>2022-04-10T10:44:24Z</time>
      </trkpt>
      <trkpt lat="49.18772" lon="1.99759">
        <ele>187.5</ele>
        <time>2022-04-10T10:44:30Z</time>
      </trkpt>
      <trkpt lat="49.18772" lon="1.99759">
        <ele>187.4</ele>
        <time>2022-04-10T10:44:35Z</time>
      </trkpt>
      <trkpt lat="49.18772" lon="1.99759">
        <ele>187.4</ele>
        <time>2022-04-10T10:44:41Z</time>
      </trkpt>
      <trkpt lat="49.18772" lon="1.99759">
        <ele>187.3</ele>
        <time>2022-04-10T10:44:47Z</time>
      </trkpt>
      <trkpt lat="49.18772" lon="1.99758">
        <ele>187.3</ele>
        <time>2022-04-10T10:44:53Z</time>
      </trkpt>
      <trkpt lat="49.18773" lon="1.99758">
        <ele>187.2</ele>
        <time>2022-04-10T10:44:59Z</time>
      </trkpt>
      <trkpt lat="49.18772" lon="1.99758">
        <ele>187.2</ele>
        <time>2022-04-10T10:45:05Z</time>
      </trkpt>
      <trkpt lat="49.18772" lon="1.99758">
        <ele>187.1</ele>
        <time>2022-04-10T10:45:11Z</time>
      </trkpt>
      <trkpt lat="49.18772" lon="1.99758">
        <ele>187.1</ele>
        <time>2022-04-10T10:45:17Z</time>
      </trkpt>
      <trkpt lat="49.18772" lon="1.99758">
        <ele>187.1</ele>
        <time>2022-04-10T10:45:23Z</time>
      </trkpt>
      <trkpt lat="49.18772" lon="1.99758">
        <ele>187</ele>
        <time>2022-04-10T10:45:29Z</time>
      </trkpt>
      <trkpt lat="49.18772" lon="1.99758">
        <ele>186.9</ele>
        <time>2022-04-10T10:45:34Z</time>
      </trkpt>
      <trkpt lat="49.18772" lon="1.99758">
        <ele>186.9</ele>
        <time>2022-04-10T10:45:40Z</time>
      </trkpt>
      <trkpt lat="49.18772" lon="1.99758">
        <ele>186.8</ele>
        <time>2022-04-10T10:45:46Z</time>
      </trkpt>
      <trkpt lat="49.18772" lon="1.99758">
        <ele>186.8</ele>
        <time>2022-04-10T10:45:51Z</time>
      </trkpt>
      <trkpt lat="49.18773" lon="1.99758">
        <ele>186.7</ele>
        <time>2022-04-10T10:45:56Z</time>
      </trkpt>
      <trkpt lat="49.18773" lon="1.99758">
        <ele>186.7</ele>
        <time>2022-04-10T10:46:02Z</time>
      </trkpt>
      <trkpt lat="49.18773" lon="1.99758">
        <ele>186.7</ele>
        <time>2022-04-10T10:46:07Z</time>
      </trkpt>
      <trkpt lat="49.18772" lon="1.99758">
        <ele>186.6</ele>
        <time>2022-04-10T10:46:13Z</time>
      </trkpt>
      <trkpt lat="49.18772" lon="1.99758">
        <ele>186.6</ele>
        <time>2022-04-10T10:46:19Z</time>
      </trkpt>
      <trkpt lat="49.18772" lon="1.99758">
        <ele>186.5</ele>
        <time>2022-04-10T10:46:25Z</time>
      </trkpt>
      <trkpt lat="49.18772" lon="1.99758">
        <ele>186.5</ele>
        <time>2022-04-10T10:46:30Z</time>
      </trkpt>
      <trkpt lat="49.18772" lon="1.99758">
        <ele>186.4</ele>
        <time>2022-04-10T10:46:36Z</time>
      </trkpt>
      <trkpt lat="49.18773" lon="1.99758">
        <ele>186.4</ele>
        <time>2022-04-10T10:46:41Z</time>
      </trkpt>
      <trkpt lat="49.18773" lon="1.99758">
        <ele>186.3</ele>
        <time>2022-04-10T10:46:47Z</time>
      </trkpt>
      <trkpt lat="49.18773" lon="1.99758">
        <ele>186.3</ele>
        <time>2022-04-10T10:46:52Z</time>
      </trkpt>
      <trkpt lat="49.18772" lon="1.99758">
        <ele>186.2</ele>
        <time>2022-04-10T10:46:58Z</time>
      </trkpt>
      <trkpt lat="49.18772" lon="1.99758">
        <ele>186.2</ele>
        <time>2022-04-10T10:47:03Z</time>
      </trkpt>
      <trkpt lat="49.18772" lon="1.99758">
        <ele>186.1</ele>
        <time>2022-04-10T10:47:09Z</time>
      </trkpt>
      <trkpt lat="49.18772" lon="1.99758">
        <ele>186.1</ele>
        <time>2022-04-10T10:47:15Z</time>
      </trkpt>
      <trkpt lat="49.18772" lon="1.99757">
        <ele>186</ele>
        <time>2022-04-10T10:47:21Z</time>
      </trkpt>
      <trkpt lat="49.18772" lon="1.99756">
        <ele>186</ele>
        <time>2022-04-10T10:47:29Z</time>
      </trkpt>
      <trkpt lat="49.18772" lon="1.99757">
        <ele>186</ele>
        <time>2022-04-10T10:47:34Z</time>
      </trkpt>
      <trkpt lat="49.18772" lon="1.99759">
        <ele>186</ele>
        <time>2022-04-10T10:47:39Z</time>
      </trkpt>
      <trkpt lat="49.18771" lon="1.99755">
        <ele>186.3</ele>
        <time>2022-04-10T10:47:45Z</time>
      </trkpt>
      <trkpt lat="49.18771" lon="1.99754">
        <ele>186.4</ele>
        <time>2022-04-10T10:47:51Z</time>
      </trkpt>
      <trkpt lat="49.18773" lon="1.99753">
        <ele>186.6</ele>
        <time>2022-04-10T10:47:57Z</time>
      </trkpt>
      <trkpt lat="49.18773" lon="1.99754">
        <ele>186.6</ele>
        <time>2022-04-10T10:48:02Z</time>
      </trkpt>
      <trkpt lat="49.18773" lon="1.99754">
        <ele>186.7</ele>
        <time>2022-04-10T10:48:07Z</time>
      </trkpt>
      <trkpt lat="49.18773" lon="1.99755">
        <ele>186.7</ele>
        <time>2022-04-10T10:48:13Z</time>
      </trkpt>
      <trkpt lat="49.18773" lon="1.99756">
        <ele>186.6</ele>
        <time>2022-04-10T10:48:18Z</time>
      </trkpt>
      <trkpt lat="49.18773" lon="1.99756">
        <ele>186.5</ele>
        <time>2022-04-10T10:48:23Z</time>
      </trkpt>
      <trkpt lat="49.18773" lon="1.99754">
        <ele>186.4</ele>
        <time>2022-04-10T10:48:29Z</time>
      </trkpt>
      <trkpt lat="49.18774" lon="1.99751">
        <ele>186</ele>
        <time>2022-04-10T10:48:35Z</time>
      </trkpt>
      <trkpt lat="49.18774" lon="1.9975">
        <ele>185.5</ele>
        <time>2022-04-10T10:48:41Z</time>
      </trkpt>
      <trkpt lat="49.18774" lon="1.99751">
        <ele>185.4</ele>
        <time>2022-04-10T10:48:46Z</time>
      </trkpt>
      <trkpt lat="49.18774" lon="1.99755">
        <ele>184.9</ele>
        <time>2022-04-10T10:48:52Z</time>
      </trkpt>
      <trkpt lat="49.18774" lon="1.99753">
        <ele>184.7</ele>
        <time>2022-04-10T10:48:58Z</time>
      </trkpt>
      <trkpt lat="49.18773" lon="1.99753">
        <ele>184.3</ele>
        <time>2022-04-10T10:49:03Z</time>
      </trkpt>
      <trkpt lat="49.18773" lon="1.99755">
        <ele>183.7</ele>
        <time>2022-04-10T10:49:08Z</time>
      </trkpt>
      <trkpt lat="49.18771" lon="1.99755">
        <ele>183.6</ele>
        <time>2022-04-10T10:49:14Z</time>
      </trkpt>
      <trkpt lat="49.18771" lon="1.99755">
        <ele>183.6</ele>
        <time>2022-04-10T10:49:20Z</time>
      </trkpt>
      <trkpt lat="49.18771" lon="1.99754">
        <ele>183.6</ele>
        <time>2022-04-10T10:49:25Z</time>
      </trkpt>
      <trkpt lat="49.1877" lon="1.99759">
        <ele>183.4</ele>
        <time>2022-04-10T10:49:31Z</time>
      </trkpt>
      <trkpt lat="49.18769" lon="1.99761">
        <ele>183.4</ele>
        <time>2022-04-10T10:49:37Z</time>
      </trkpt>
      <trkpt lat="49.18769" lon="1.99761">
        <ele>183.4</ele>
        <time>2022-04-10T10:49:42Z</time>
      </trkpt>
      <trkpt lat="49.1877" lon="1.99761">
        <ele>183.4</ele>
        <time>2022-04-10T10:49:48Z</time>
      </trkpt>
      <trkpt lat="49.18771" lon="1.9976">
        <ele>183.3</ele>
        <time>2022-04-10T10:49:53Z</time>
      </trkpt>
      <trkpt lat="49.18771" lon="1.99758">
        <ele>182.9</ele>
        <time>2022-04-10T10:49:59Z</time>
      </trkpt>
      <trkpt lat="49.18772" lon="1.99756">
        <ele>182.8</ele>
        <time>2022-04-10T10:50:04Z</time>
      </trkpt>
      <trkpt lat="49.18772" lon="1.99756">
        <ele>182.7</ele>
        <time>2022-04-10T10:50:10Z</time>
      </trkpt>
      <trkpt lat="49.18772" lon="1.99755">
        <ele>182.7</ele>
        <time>2022-04-10T10:50:15Z</time>
      </trkpt>
      <trkpt lat="49.18774" lon="1.99755">
        <ele>182.6</ele>
        <time>2022-04-10T10:50:21Z</time>
      </trkpt>
      <trkpt lat="49.18775" lon="1.99755">
        <ele>182.6</ele>
        <time>2022-04-10T10:50:26Z</time>
      </trkpt>
      <trkpt lat="49.18775" lon="1.99755">
        <ele>182.4</ele>
        <time>2022-04-10T10:50:32Z</time>
      </trkpt>
      <trkpt lat="49.18775" lon="1.99758">
        <ele>181.2</ele>
        <time>2022-04-10T10:50:38Z</time>
      </trkpt>
      <trkpt lat="49.18774" lon="1.99757">
        <ele>180.5</ele>
        <time>2022-04-10T10:50:43Z</time>
      </trkpt>
      <trkpt lat="49.18772" lon="1.99755">
        <ele>180.1</ele>
        <time>2022-04-10T10:50:49Z</time>
      </trkpt>
      <trkpt lat="49.18771" lon="1.99751">
        <ele>180.1</ele>
        <time>2022-04-10T10:50:55Z</time>
      </trkpt>
      <trkpt lat="49.18771" lon="1.99758">
        <ele>180.5</ele>
        <time>2022-04-10T10:51:01Z</time>
      </trkpt>
      <trkpt lat="49.1877" lon="1.99762">
        <ele>180.6</ele>
        <time>2022-04-10T10:51:07Z</time>
      </trkpt>
      <trkpt lat="49.1877" lon="1.99763">
        <ele>180.7</ele>
        <time>2022-04-10T10:51:13Z</time>
      </trkpt>
      <trkpt lat="49.1877" lon="1.99763">
        <ele>180.8</ele>
        <time>2022-04-10T10:51:18Z</time>
      </trkpt>
      <trkpt lat="49.18772" lon="1.99763">
        <ele>181.1</ele>
        <time>2022-04-10T10:51:24Z</time>
      </trkpt>
      <trkpt lat="49.18773" lon="1.99769">
        <ele>181.3</ele>
        <time>2022-04-10T10:51:30Z</time>
      </trkpt>
      <trkpt lat="49.18778" lon="1.99777">
        <ele>181.5</ele>
        <time>2022-04-10T10:51:35Z</time>
      </trkpt>
      <trkpt lat="49.18778" lon="1.9978">
        <ele>181.7</ele>
        <time>2022-04-10T10:51:41Z</time>
      </trkpt>
      <trkpt lat="49.18778" lon="1.99793">
        <ele>182</ele>
        <time>2022-04-10T10:51:47Z</time>
      </trkpt>
      <trkpt lat="49.18778" lon="1.99801">
        <ele>182.4</ele>
        <time>2022-04-10T10:51:53Z</time>
      </trkpt>
      <trkpt lat="49.18779" lon="1.99811">
        <ele>183</ele>
        <time>2022-04-10T10:51:59Z</time>
      </trkpt>
      <trkpt lat="49.18779" lon="1.9982">
        <ele>183.1</ele>
        <time>2022-04-10T10:52:05Z</time>
      </trkpt>
      <trkpt lat="49.18781" lon="1.99831">
        <ele>183.2</ele>
        <time>2022-04-10T10:52:11Z</time>
      </trkpt>
      <trkpt lat="49.18785" lon="1.99841">
        <ele>183.5</ele>
        <time>2022-04-10T10:52:16Z</time>
      </trkpt>
      <trkpt lat="49.18788" lon="1.99849">
        <ele>183.8</ele>
        <time>2022-04-10T10:52:21Z</time>
      </trkpt>
      <trkpt lat="49.18788" lon="1.99857">
        <ele>184</ele>
        <time>2022-04-10T10:52:27Z</time>
      </trkpt>
      <trkpt lat="49.18791" lon="1.99865">
        <ele>184</ele>
        <time>2022-04-10T10:52:33Z</time>
      </trkpt>
      <trkpt lat="49.18793" lon="1.99874">
        <ele>184</ele>
        <time>2022-04-10T10:52:38Z</time>
      </trkpt>
      <trkpt lat="49.18796" lon="1.9988">
        <ele>184.1</ele>
        <time>2022-04-10T10:52:44Z</time>
      </trkpt>
      <trkpt lat="49.18801" lon="1.99889">
        <ele>184.1</ele>
        <time>2022-04-10T10:52:49Z</time>
      </trkpt>
      <trkpt lat="49.18804" lon="1.99896">
        <ele>184.1</ele>
        <time>2022-04-10T10:52:55Z</time>
      </trkpt>
      <trkpt lat="49.18807" lon="1.99902">
        <ele>184.1</ele>
        <time>2022-04-10T10:53:00Z</time>
      </trkpt>
      <trkpt lat="49.18811" lon="1.99912">
        <ele>184.2</ele>
        <time>2022-04-10T10:53:06Z</time>
      </trkpt>
      <trkpt lat="49.18813" lon="1.99921">
        <ele>184.3</ele>
        <time>2022-04-10T10:53:11Z</time>
      </trkpt>
      <trkpt lat="49.18815" lon="1.99931">
        <ele>184.4</ele>
        <time>2022-04-10T10:53:17Z</time>
      </trkpt>
      <trkpt lat="49.18817" lon="1.99942">
        <ele>184.4</ele>
        <time>2022-04-10T10:53:23Z</time>
      </trkpt>
      <trkpt lat="49.18819" lon="1.99955">
        <ele>184.7</ele>
        <time>2022-04-10T10:53:29Z</time>
      </trkpt>
      <trkpt lat="49.18822" lon="1.99964">
        <ele>185.2</ele>
        <time>2022-04-10T10:53:35Z</time>
      </trkpt>
      <trkpt lat="49.18824" lon="1.99974">
        <ele>185.5</ele>
        <time>2022-04-10T10:53:41Z</time>
      </trkpt>
      <trkpt lat="49.18826" lon="1.99981">
        <ele>185.5</ele>
        <time>2022-04-10T10:53:46Z</time>
      </trkpt>
      <trkpt lat="49.18829" lon="1.9999">
        <ele>185.5</ele>
        <time>2022-04-10T10:53:52Z</time>
      </trkpt>
      <trkpt lat="49.18831" lon="2">
        <ele>185.6</ele>
        <time>2022-04-10T10:53:58Z</time>
      </trkpt>
      <trkpt lat="49.18833" lon="2.00012">
        <ele>186</ele>
        <time>2022-04-10T10:54:04Z</time>
      </trkpt>
      <trkpt lat="49.18832" lon="2.00021">
        <ele>186.4</ele>
        <time>2022-04-10T10:54:09Z</time>
      </trkpt>
      <trkpt lat="49.18832" lon="2.0003">
        <ele>186.9</ele>
        <time>2022-04-10T10:54:14Z</time>
      </trkpt>
      <trkpt lat="49.18833" lon="2.00038">
        <ele>187.2</ele>
        <time>2022-04-10T10:54:19Z</time>
      </trkpt>
      <trkpt lat="49.18834" lon="2.00047">
        <ele>187.2</ele>
        <time>2022-04-10T10:54:24Z</time>
      </trkpt>
      <trkpt lat="49.18837" lon="2.00058">
        <ele>187.4</ele>
        <time>2022-04-10T10:54:30Z</time>
      </trkpt>
      <trkpt lat="49.1884" lon="2.00062">
        <ele>187.5</ele>
        <time>2022-04-10T10:54:36Z</time>
      </trkpt>
      <trkpt lat="49.18844" lon="2.00063">
        <ele>187.8</ele>
        <time>2022-04-10T10:54:41Z</time>
      </trkpt>
      <trkpt lat="49.18848" lon="2.00065">
        <ele>188.2</ele>
        <time>2022-04-10T10:54:47Z</time>
      </trkpt>
      <trkpt lat="49.18854" lon="2.00065">
        <ele>188.7</ele>
        <time>2022-04-10T10:54:52Z</time>
      </trkpt>
      <trkpt lat="49.18864" lon="2.00064">
        <ele>189.2</ele>
        <time>2022-04-10T10:54:58Z</time>
      </trkpt>
      <trkpt lat="49.18871" lon="2.00065">
        <ele>189.7</ele>
        <time>2022-04-10T10:55:04Z</time>
      </trkpt>
      <trkpt lat="49.18877" lon="2.00064">
        <ele>190</ele>
        <time>2022-04-10T10:55:09Z</time>
      </trkpt>
      <trkpt lat="49.18881" lon="2.00064">
        <ele>190.1</ele>
        <time>2022-04-10T10:55:14Z</time>
      </trkpt>
      <trkpt lat="49.18887" lon="2.00065">
        <ele>190.5</ele>
        <time>2022-04-10T10:55:20Z</time>
      </trkpt>
      <trkpt lat="49.18892" lon="2.00064">
        <ele>190.9</ele>
        <time>2022-04-10T10:55:26Z</time>
      </trkpt>
      <trkpt lat="49.18898" lon="2.00062">
        <ele>191.4</ele>
        <time>2022-04-10T10:55:32Z</time>
      </trkpt>
      <trkpt lat="49.18903" lon="2.0006">
        <ele>191.7</ele>
        <time>2022-04-10T10:55:37Z</time>
      </trkpt>
      <trkpt lat="49.18913" lon="2.00061">
        <ele>192.5</ele>
        <time>2022-04-10T10:55:43Z</time>
      </trkpt>
      <trkpt lat="49.18921" lon="2.0006">
        <ele>193</ele>
        <time>2022-04-10T10:55:48Z</time>
      </trkpt>
      <trkpt lat="49.18929" lon="2.00063">
        <ele>193.8</ele>
        <time>2022-04-10T10:55:54Z</time>
      </trkpt>
      <trkpt lat="49.18938" lon="2.00065">
        <ele>194.7</ele>
        <time>2022-04-10T10:56:00Z</time>
      </trkpt>
      <trkpt lat="49.18948" lon="2.00064">
        <ele>195.3</ele>
        <time>2022-04-10T10:56:05Z</time>
      </trkpt>
      <trkpt lat="49.18954" lon="2.00065">
        <ele>196.2</ele>
        <time>2022-04-10T10:56:10Z</time>
      </trkpt>
      <trkpt lat="49.18961" lon="2.00067">
        <ele>197.4</ele>
        <time>2022-04-10T10:56:16Z</time>
      </trkpt>
      <trkpt lat="49.18964" lon="2.0007">
        <ele>198.4</ele>
        <time>2022-04-10T10:56:22Z</time>
      </trkpt>
      <trkpt lat="49.18968" lon="2.00074">
        <ele>199.1</ele>
        <time>2022-04-10T10:56:27Z</time>
      </trkpt>
      <trkpt lat="49.18973" lon="2.00077">
        <ele>199.9</ele>
        <time>2022-04-10T10:56:33Z</time>
      </trkpt>
      <trkpt lat="49.18978" lon="2.00078">
        <ele>200.6</ele>
        <time>2022-04-10T10:56:38Z</time>
      </trkpt>
      <trkpt lat="49.18984" lon="2.00082">
        <ele>201.1</ele>
        <time>2022-04-10T10:56:44Z</time>
      </trkpt>
      <trkpt lat="49.18989" lon="2.00086">
        <ele>201.3</ele>
        <time>2022-04-10T10:56:49Z</time>
      </trkpt>
      <trkpt lat="49.18995" lon="2.00091">
        <ele>201.9</ele>
        <time>2022-04-10T10:56:55Z</time>
      </trkpt>
      <trkpt lat="49.19002" lon="2.00094">
        <ele>202.6</ele>
        <time>2022-04-10T10:57:00Z</time>
      </trkpt>
      <trkpt lat="49.19008" lon="2.00096">
        <ele>203.5</ele>
        <time>2022-04-10T10:57:05Z</time>
      </trkpt>
      <trkpt lat="49.19015" lon="2.00101">
        <ele>204.8</ele>
        <time>2022-04-10T10:57:11Z</time>
      </trkpt>
      <trkpt lat="49.19022" lon="2.00106">
        <ele>205.9</ele>
        <time>2022-04-10T10:57:16Z</time>
      </trkpt>
      <trkpt lat="49.19028" lon="2.00114">
        <ele>207.3</ele>
        <time>2022-04-10T10:57:22Z</time>
      </trkpt>
      <trkpt lat="49.19029" lon="2.0012">
        <ele>208.5</ele>
        <time>2022-04-10T10:57:27Z</time>
      </trkpt>
      <trkpt lat="49.19033" lon="2.00127">
        <ele>209.7</ele>
        <time>2022-04-10T10:57:33Z</time>
      </trkpt>
      <trkpt lat="49.1904" lon="2.00134">
        <ele>210.7</ele>
        <time>2022-04-10T10:57:39Z</time>
      </trkpt>
      <trkpt lat="49.19042" lon="2.00139">
        <ele>211.6</ele>
        <time>2022-04-10T10:57:44Z</time>
      </trkpt>
      <trkpt lat="49.19045" lon="2.00146">
        <ele>212.7</ele>
        <time>2022-04-10T10:57:50Z</time>
      </trkpt>
      <trkpt lat="49.19048" lon="2.00152">
        <ele>213.4</ele>
        <time>2022-04-10T10:57:56Z</time>
      </trkpt>
      <trkpt lat="49.19056" lon="2.00159">
        <ele>213.9</ele>
        <time>2022-04-10T10:58:01Z</time>
      </trkpt>
      <trkpt lat="49.19066" lon="2.00164">
        <ele>214.2</ele>
        <time>2022-04-10T10:58:07Z</time>
      </trkpt>
      <trkpt lat="49.19071" lon="2.00168">
        <ele>214.3</ele>
        <time>2022-04-10T10:58:13Z</time>
      </trkpt>
      <trkpt lat="49.19076" lon="2.00171">
        <ele>214.1</ele>
        <time>2022-04-10T10:58:18Z</time>
      </trkpt>
      <trkpt lat="49.19079" lon="2.00176">
        <ele>213.8</ele>
        <time>2022-04-10T10:58:24Z</time>
      </trkpt>
      <trkpt lat="49.19088" lon="2.00179">
        <ele>213.7</ele>
        <time>2022-04-10T10:58:30Z</time>
      </trkpt>
      <trkpt lat="49.19095" lon="2.00183">
        <ele>213.6</ele>
        <time>2022-04-10T10:58:36Z</time>
      </trkpt>
      <trkpt lat="49.191" lon="2.00184">
        <ele>213.4</ele>
        <time>2022-04-10T10:58:42Z</time>
      </trkpt>
      <trkpt lat="49.19105" lon="2.00185">
        <ele>213.4</ele>
        <time>2022-04-10T10:58:47Z</time>
      </trkpt>
      <trkpt lat="49.19111" lon="2.00187">
        <ele>213.5</ele>
        <time>2022-04-10T10:58:52Z</time>
      </trkpt>
      <trkpt lat="49.19118" lon="2.00189">
        <ele>213.7</ele>
        <time>2022-04-10T10:58:57Z</time>
      </trkpt>
      <trkpt lat="49.19123" lon="2.00192">
        <ele>213.8</ele>
        <time>2022-04-10T10:59:02Z</time>
      </trkpt>
      <trkpt lat="49.19126" lon="2.00195">
        <ele>213.9</ele>
        <time>2022-04-10T10:59:07Z</time>
      </trkpt>
      <trkpt lat="49.19131" lon="2.002">
        <ele>214.1</ele>
        <time>2022-04-10T10:59:13Z</time>
      </trkpt>
      <trkpt lat="49.19136" lon="2.00203">
        <ele>214.5</ele>
        <time>2022-04-10T10:59:19Z</time>
      </trkpt>
      <trkpt lat="49.19144" lon="2.00205">
        <ele>215</ele>
        <time>2022-04-10T10:59:25Z</time>
      </trkpt>
      <trkpt lat="49.19154" lon="2.00209">
        <ele>215.4</ele>
        <time>2022-04-10T10:59:30Z</time>
      </trkpt>
      <trkpt lat="49.1916" lon="2.00214">
        <ele>216.1</ele>
        <time>2022-04-10T10:59:36Z</time>
      </trkpt>
      <trkpt lat="49.19163" lon="2.00216">
        <ele>216.5</ele>
        <time>2022-04-10T10:59:41Z</time>
      </trkpt>
      <trkpt lat="49.19171" lon="2.00221">
        <ele>217</ele>
        <time>2022-04-10T10:59:47Z</time>
      </trkpt>
      <trkpt lat="49.19176" lon="2.00225">
        <ele>217.5</ele>
        <time>2022-04-10T10:59:52Z</time>
      </trkpt>
      <trkpt lat="49.19182" lon="2.00232">
        <ele>218.2</ele>
        <time>2022-04-10T10:59:58Z</time>
      </trkpt>
      <trkpt lat="49.19187" lon="2.0024">
        <ele>218.6</ele>
        <time>2022-04-10T11:00:04Z</time>
      </trkpt>
      <trkpt lat="49.19194" lon="2.0025">
        <ele>219.1</ele>
        <time>2022-04-10T11:00:10Z</time>
      </trkpt>
      <trkpt lat="49.19203" lon="2.00258">
        <ele>220</ele>
        <time>2022-04-10T11:00:16Z</time>
      </trkpt>
      <trkpt lat="49.19211" lon="2.00262">
        <ele>221.1</ele>
        <time>2022-04-10T11:00:22Z</time>
      </trkpt>
      <trkpt lat="49.19213" lon="2.00267">
        <ele>221.8</ele>
        <time>2022-04-10T11:00:27Z</time>
      </trkpt>
      <trkpt lat="49.19217" lon="2.00273">
        <ele>222.3</ele>
        <time>2022-04-10T11:00:33Z</time>
      </trkpt>
      <trkpt lat="49.19216" lon="2.00276">
        <ele>222.5</ele>
        <time>2022-04-10T11:00:38Z</time>
      </trkpt>
      <trkpt lat="49.19218" lon="2.00282">
        <ele>222.6</ele>
        <time>2022-04-10T11:00:44Z</time>
      </trkpt>
      <trkpt lat="49.19222" lon="2.00288">
        <ele>222.9</ele>
        <time>2022-04-10T11:00:49Z</time>
      </trkpt>
      <trkpt lat="49.19229" lon="2.00297">
        <ele>223</ele>
        <time>2022-04-10T11:00:55Z</time>
      </trkpt>
      <trkpt lat="49.19237" lon="2.00307">
        <ele>223.3</ele>
        <time>2022-04-10T11:01:00Z</time>
      </trkpt>
      <trkpt lat="49.19244" lon="2.00318">
        <ele>223.9</ele>
        <time>2022-04-10T11:01:06Z</time>
      </trkpt>
      <trkpt lat="49.1925" lon="2.00327">
        <ele>224.2</ele>
        <time>2022-04-10T11:01:12Z</time>
      </trkpt>
      <trkpt lat="49.19254" lon="2.00335">
        <ele>224.6</ele>
        <time>2022-04-10T11:01:17Z</time>
      </trkpt>
      <trkpt lat="49.19257" lon="2.00344">
        <ele>225.2</ele>
        <time>2022-04-10T11:01:22Z</time>
      </trkpt>
      <trkpt lat="49.1926" lon="2.00354">
        <ele>225.9</ele>
        <time>2022-04-10T11:01:28Z</time>
      </trkpt>
      <trkpt lat="49.19262" lon="2.00361">
        <ele>226.4</ele>
        <time>2022-04-10T11:01:33Z</time>
      </trkpt>
      <trkpt lat="49.19265" lon="2.00367">
        <ele>227.1</ele>
        <time>2022-04-10T11:01:38Z</time>
      </trkpt>
      <trkpt lat="49.19269" lon="2.00374">
        <ele>228</ele>
        <time>2022-04-10T11:01:44Z</time>
      </trkpt>
      <trkpt lat="49.19273" lon="2.00382">
        <ele>228.7</ele>
        <time>2022-04-10T11:01:50Z</time>
      </trkpt>
      <trkpt lat="49.19277" lon="2.00392">
        <ele>229.1</ele>
        <time>2022-04-10T11:01:56Z</time>
      </trkpt>
      <trkpt lat="49.19279" lon="2.00394">
        <ele>229.2</ele>
        <time>2022-04-10T11:02:02Z</time>
      </trkpt>
      <trkpt lat="49.19283" lon="2.00396">
        <ele>229.3</ele>
        <time>2022-04-10T11:02:08Z</time>
      </trkpt>
      <trkpt lat="49.19288" lon="2.00402">
        <ele>229.6</ele>
        <time>2022-04-10T11:02:13Z</time>
      </trkpt>
      <trkpt lat="49.19293" lon="2.00406">
        <ele>230</ele>
        <time>2022-04-10T11:02:18Z</time>
      </trkpt>
      <trkpt lat="49.193" lon="2.00412">
        <ele>230.4</ele>
        <time>2022-04-10T11:02:24Z</time>
      </trkpt>
      <trkpt lat="49.19305" lon="2.00416">
        <ele>230.8</ele>
        <time>2022-04-10T11:02:29Z</time>
      </trkpt>
      <trkpt lat="49.19311" lon="2.0042">
        <ele>231.3</ele>
        <time>2022-04-10T11:02:35Z</time>
      </trkpt>
      <trkpt lat="49.1932" lon="2.00425">
        <ele>231.8</ele>
        <time>2022-04-10T11:02:41Z</time>
      </trkpt>
      <trkpt lat="49.19326" lon="2.00429">
        <ele>232.3</ele>
        <time>2022-04-10T11:02:47Z</time>
      </trkpt>
      <trkpt lat="49.19327" lon="2.00435">
        <ele>232.5</ele>
        <time>2022-04-10T11:02:52Z</time>
      </trkpt>
      <trkpt lat="49.19329" lon="2.00439">
        <ele>232.6</ele>
        <time>2022-04-10T11:02:58Z</time>
      </trkpt>
      <trkpt lat="49.19333" lon="2.00447">
        <ele>232.6</ele>
        <time>2022-04-10T11:03:04Z</time>
      </trkpt>
      <trkpt lat="49.19336" lon="2.00454">
        <ele>232.5</ele>
        <time>2022-04-10T11:03:10Z</time>
      </trkpt>
      <trkpt lat="49.19337" lon="2.00457">
        <ele>232.6</ele>
        <time>2022-04-10T11:03:15Z</time>
      </trkpt>
      <trkpt lat="49.19338" lon="2.00458">
        <ele>232.6</ele>
        <time>2022-04-10T11:03:20Z</time>
      </trkpt>
      <trkpt lat="49.19338" lon="2.00458">
        <ele>232.7</ele>
        <time>2022-04-10T11:03:26Z</time>
      </trkpt>
      <trkpt lat="49.19338" lon="2.00457">
        <ele>232.8</ele>
        <time>2022-04-10T11:03:33Z</time>
      </trkpt>
      <trkpt lat="49.1934" lon="2.00456">
        <ele>233.5</ele>
        <time>2022-04-10T11:03:38Z</time>
      </trkpt>
      <trkpt lat="49.19347" lon="2.00451">
        <ele>234.1</ele>
        <time>2022-04-10T11:03:44Z</time>
      </trkpt>
      <trkpt lat="49.19355" lon="2.00446">
        <ele>234.5</ele>
        <time>2022-04-10T11:03:50Z</time>
      </trkpt>
      <trkpt lat="49.19361" lon="2.00445">
        <ele>234.6</ele>
        <time>2022-04-10T11:03:56Z</time>
      </trkpt>
      <trkpt lat="49.19368" lon="2.00445">
        <ele>234.5</ele>
        <time>2022-04-10T11:04:01Z</time>
      </trkpt>
      <trkpt lat="49.19376" lon="2.00446">
        <ele>234.5</ele>
        <time>2022-04-10T11:04:07Z</time>
      </trkpt>
      <trkpt lat="49.19381" lon="2.00447">
        <ele>234.6</ele>
        <time>2022-04-10T11:04:13Z</time>
      </trkpt>
      <trkpt lat="49.19386" lon="2.00449">
        <ele>234.8</ele>
        <time>2022-04-10T11:04:19Z</time>
      </trkpt>
      <trkpt lat="49.19393" lon="2.00457">
        <ele>235.4</ele>
        <time>2022-04-10T11:04:25Z</time>
      </trkpt>
      <trkpt lat="49.19397" lon="2.00462">
        <ele>236.6</ele>
        <time>2022-04-10T11:04:30Z</time>
      </trkpt>
      <trkpt lat="49.19405" lon="2.00465">
        <ele>237.8</ele>
        <time>2022-04-10T11:04:35Z</time>
      </trkpt>
      <trkpt lat="49.19411" lon="2.00469">
        <ele>239.1</ele>
        <time>2022-04-10T11:04:41Z</time>
      </trkpt>
      <trkpt lat="49.19416" lon="2.00472">
        <ele>240.3</ele>
        <time>2022-04-10T11:04:46Z</time>
      </trkpt>
      <trkpt lat="49.19424" lon="2.00476">
        <ele>241.4</ele>
        <time>2022-04-10T11:04:51Z</time>
      </trkpt>
      <trkpt lat="49.19428" lon="2.00481">
        <ele>242.9</ele>
        <time>2022-04-10T11:04:57Z</time>
      </trkpt>
      <trkpt lat="49.1943" lon="2.00483">
        <ele>244.1</ele>
        <time>2022-04-10T11:05:03Z</time>
      </trkpt>
      <trkpt lat="49.19437" lon="2.00487">
        <ele>245.5</ele>
        <time>2022-04-10T11:05:09Z</time>
      </trkpt>
      <trkpt lat="49.19445" lon="2.0049">
        <ele>246.6</ele>
        <time>2022-04-10T11:05:14Z</time>
      </trkpt>
      <trkpt lat="49.1945" lon="2.00491">
        <ele>247.5</ele>
        <time>2022-04-10T11:05:19Z</time>
      </trkpt>
      <trkpt lat="49.19454" lon="2.00494">
        <ele>248.1</ele>
        <time>2022-04-10T11:05:25Z</time>
      </trkpt>
      <trkpt lat="49.19458" lon="2.00495">
        <ele>248.8</ele>
        <time>2022-04-10T11:05:30Z</time>
      </trkpt>
      <trkpt lat="49.19465" lon="2.00495">
        <ele>249.6</ele>
        <time>2022-04-10T11:05:36Z</time>
      </trkpt>
      <trkpt lat="49.19472" lon="2.00497">
        <ele>250.2</ele>
        <time>2022-04-10T11:05:41Z</time>
      </trkpt>
      <trkpt lat="49.19478" lon="2.00501">
        <ele>250.6</ele>
        <time>2022-04-10T11:05:46Z</time>
      </trkpt>
      <trkpt lat="49.19483" lon="2.00503">
        <ele>251.3</ele>
        <time>2022-04-10T11:05:52Z</time>
      </trkpt>
      <trkpt lat="49.19488" lon="2.00505">
        <ele>251.7</ele>
        <time>2022-04-10T11:05:57Z</time>
      </trkpt>
      <trkpt lat="49.19495" lon="2.00502">
        <ele>252.2</ele>
        <time>2022-04-10T11:06:02Z</time>
      </trkpt>
      <trkpt lat="49.19503" lon="2.00499">
        <ele>253.1</ele>
        <time>2022-04-10T11:06:08Z</time>
      </trkpt>
      <trkpt lat="49.19511" lon="2.00496">
        <ele>254.1</ele>
        <time>2022-04-10T11:06:13Z</time>
      </trkpt>
      <trkpt lat="49.19513" lon="2.00494">
        <ele>255.3</ele>
        <time>2022-04-10T11:06:18Z</time>
      </trkpt>
      <trkpt lat="49.19512" lon="2.00489">
        <ele>255.9</ele>
        <time>2022-04-10T11:06:24Z</time>
      </trkpt>
      <trkpt lat="49.19511" lon="2.00484">
        <ele>255.9</ele>
        <time>2022-04-10T11:06:29Z</time>
      </trkpt>
      <trkpt lat="49.19509" lon="2.00477">
        <ele>255.6</ele>
        <time>2022-04-10T11:06:34Z</time>
      </trkpt>
      <trkpt lat="49.19507" lon="2.00475">
        <ele>255.4</ele>
        <time>2022-04-10T11:06:39Z</time>
      </trkpt>
      <trkpt lat="49.19506" lon="2.00474">
        <ele>255.3</ele>
        <time>2022-04-10T11:06:45Z</time>
      </trkpt>
      <trkpt lat="49.19506" lon="2.00473">
        <ele>255.3</ele>
        <time>2022-04-10T11:06:50Z</time>
      </trkpt>
      <trkpt lat="49.19505" lon="2.00472">
        <ele>255.4</ele>
        <time>2022-04-10T11:06:56Z</time>
      </trkpt>
      <trkpt lat="49.19504" lon="2.00472">
        <ele>255.3</ele>
        <time>2022-04-10T11:07:01Z</time>
      </trkpt>
      <trkpt lat="49.19504" lon="2.00472">
        <ele>255.2</ele>
        <time>2022-04-10T11:07:06Z</time>
      </trkpt>
      <trkpt lat="49.19505" lon="2.00483">
        <ele>254.5</ele>
        <time>2022-04-10T11:07:12Z</time>
      </trkpt>
      <trkpt lat="49.19509" lon="2.00497">
        <ele>253.8</ele>
        <time>2022-04-10T11:07:18Z</time>
      </trkpt>
      <trkpt lat="49.19511" lon="2.00506">
        <ele>253.9</ele>
        <time>2022-04-10T11:07:23Z</time>
      </trkpt>
      <trkpt lat="49.19513" lon="2.00508">
        <ele>254</ele>
        <time>2022-04-10T11:07:29Z</time>
      </trkpt>
      <trkpt lat="49.19516" lon="2.0051">
        <ele>255.3</ele>
        <time>2022-04-10T11:07:35Z</time>
      </trkpt>
      <trkpt lat="49.1952" lon="2.00507">
        <ele>255.7</ele>
        <time>2022-04-10T11:07:40Z</time>
      </trkpt>
      <trkpt lat="49.19521" lon="2.00503">
        <ele>255.8</ele>
        <time>2022-04-10T11:07:46Z</time>
      </trkpt>
      <trkpt lat="49.19522" lon="2.005">
        <ele>255.8</ele>
        <time>2022-04-10T11:07:51Z</time>
      </trkpt>
      <trkpt lat="49.19522" lon="2.00499">
        <ele>255.8</ele>
        <time>2022-04-10T11:07:57Z</time>
      </trkpt>
      <trkpt lat="49.19522" lon="2.00498">
        <ele>255.8</ele>
        <time>2022-04-10T11:08:03Z</time>
      </trkpt>
      <trkpt lat="49.19523" lon="2.00498">
        <ele>255.9</ele>
        <time>2022-04-10T11:08:09Z</time>
      </trkpt>
      <trkpt lat="49.19523" lon="2.00498">
        <ele>255.9</ele>
        <time>2022-04-10T11:08:14Z</time>
      </trkpt>
      <trkpt lat="49.19523" lon="2.00498">
        <ele>255.9</ele>
        <time>2022-04-10T11:08:20Z</time>
      </trkpt>
      <trkpt lat="49.19523" lon="2.00498">
        <ele>255.9</ele>
        <time>2022-04-10T11:08:25Z</time>
      </trkpt>
      <trkpt lat="49.19524" lon="2.00498">
        <ele>255.9</ele>
        <time>2022-04-10T11:08:31Z</time>
      </trkpt>
      <trkpt lat="49.19524" lon="2.00498">
        <ele>256</ele>
        <time>2022-04-10T11:08:37Z</time>
      </trkpt>
      <trkpt lat="49.19525" lon="2.00498">
        <ele>256</ele>
        <time>2022-04-10T11:08:42Z</time>
      </trkpt>
      <trkpt lat="49.19525" lon="2.00498">
        <ele>256</ele>
        <time>2022-04-10T11:08:48Z</time>
      </trkpt>
      <trkpt lat="49.19526" lon="2.00498">
        <ele>256.1</ele>
        <time>2022-04-10T11:08:53Z</time>
      </trkpt>
      <trkpt lat="49.19525" lon="2.005">
        <ele>256.3</ele>
        <time>2022-04-10T11:08:58Z</time>
      </trkpt>
      <trkpt lat="49.19525" lon="2.00501">
        <ele>256.5</ele>
        <time>2022-04-10T11:09:04Z</time>
      </trkpt>
      <trkpt lat="49.19527" lon="2.00503">
        <ele>256.5</ele>
        <time>2022-04-10T11:09:09Z</time>
      </trkpt>
      <trkpt lat="49.19531" lon="2.00505">
        <ele>256.3</ele>
        <time>2022-04-10T11:09:15Z</time>
      </trkpt>
      <trkpt lat="49.19537" lon="2.00508">
        <ele>256.1</ele>
        <time>2022-04-10T11:09:20Z</time>
      </trkpt>
      <trkpt lat="49.19544" lon="2.0051">
        <ele>256</ele>
        <time>2022-04-10T11:09:25Z</time>
      </trkpt>
      <trkpt lat="49.19551" lon="2.00514">
        <ele>255.7</ele>
        <time>2022-04-10T11:09:31Z</time>
      </trkpt>
      <trkpt lat="49.19558" lon="2.00518">
        <ele>255.6</ele>
        <time>2022-04-10T11:09:36Z</time>
      </trkpt>
      <trkpt lat="49.19564" lon="2.00521">
        <ele>255.6</ele>
        <time>2022-04-10T11:09:41Z</time>
      </trkpt>
      <trkpt lat="49.19569" lon="2.00525">
        <ele>255.5</ele>
        <time>2022-04-10T11:09:46Z</time>
      </trkpt>
      <trkpt lat="49.19575" lon="2.00529">
        <ele>255</ele>
        <time>2022-04-10T11:09:52Z</time>
      </trkpt>
      <trkpt lat="49.19583" lon="2.00535">
        <ele>254.5</ele>
        <time>2022-04-10T11:09:57Z</time>
      </trkpt>
      <trkpt lat="49.19589" lon="2.0054">
        <ele>253.6</ele>
        <time>2022-04-10T11:10:03Z</time>
      </trkpt>
      <trkpt lat="49.19595" lon="2.00545">
        <ele>252.6</ele>
        <time>2022-04-10T11:10:08Z</time>
      </trkpt>
      <trkpt lat="49.19598" lon="2.00547">
        <ele>251.3</ele>
        <time>2022-04-10T11:10:13Z</time>
      </trkpt>
      <trkpt lat="49.19602" lon="2.00548">
        <ele>250.1</ele>
        <time>2022-04-10T11:10:18Z</time>
      </trkpt>
      <trkpt lat="49.1961" lon="2.00553">
        <ele>248.8</ele>
        <time>2022-04-10T11:10:23Z</time>
      </trkpt>
      <trkpt lat="49.19621" lon="2.00562">
        <ele>247.3</ele>
        <time>2022-04-10T11:10:29Z</time>
      </trkpt>
      <trkpt lat="49.19629" lon="2.00568">
        <ele>246.2</ele>
        <time>2022-04-10T11:10:34Z</time>
      </trkpt>
      <trkpt lat="49.19638" lon="2.00574">
        <ele>245</ele>
        <time>2022-04-10T11:10:40Z</time>
      </trkpt>
      <trkpt lat="49.19643" lon="2.00576">
        <ele>244.5</ele>
        <time>2022-04-10T11:10:46Z</time>
      </trkpt>
      <trkpt lat="49.19646" lon="2.00582">
        <ele>244</ele>
        <time>2022-04-10T11:10:52Z</time>
      </trkpt>
      <trkpt lat="49.19651" lon="2.00591">
        <ele>243.4</ele>
        <time>2022-04-10T11:10:58Z</time>
      </trkpt>
      <trkpt lat="49.19652" lon="2.00597">
        <ele>242.9</ele>
        <time>2022-04-10T11:11:03Z</time>
      </trkpt>
      <trkpt lat="49.19656" lon="2.00601">
        <ele>242</ele>
        <time>2022-04-10T11:11:08Z</time>
      </trkpt>
      <trkpt lat="49.19665" lon="2.00609">
        <ele>240.5</ele>
        <time>2022-04-10T11:11:14Z</time>
      </trkpt>
      <trkpt lat="49.1967" lon="2.00617">
        <ele>238.9</ele>
        <time>2022-04-10T11:11:20Z</time>
      </trkpt>
      <trkpt lat="49.19674" lon="2.00625">
        <ele>237.5</ele>
        <time>2022-04-10T11:11:26Z</time>
      </trkpt>
      <trkpt lat="49.1968" lon="2.0063">
        <ele>236.1</ele>
        <time>2022-04-10T11:11:31Z</time>
      </trkpt>
      <trkpt lat="49.19686" lon="2.00637">
        <ele>234.7</ele>
        <time>2022-04-10T11:11:37Z</time>
      </trkpt>
      <trkpt lat="49.19693" lon="2.00648">
        <ele>233.9</ele>
        <time>2022-04-10T11:11:43Z</time>
      </trkpt>
      <trkpt lat="49.19698" lon="2.00658">
        <ele>233.4</ele>
        <time>2022-04-10T11:11:48Z</time>
      </trkpt>
      <trkpt lat="49.19702" lon="2.00667">
        <ele>233</ele>
        <time>2022-04-10T11:11:53Z</time>
      </trkpt>
      <trkpt lat="49.19707" lon="2.00676">
        <ele>232.8</ele>
        <time>2022-04-10T11:11:58Z</time>
      </trkpt>
      <trkpt lat="49.19713" lon="2.00683">
        <ele>232.4</ele>
        <time>2022-04-10T11:12:04Z</time>
      </trkpt>
      <trkpt lat="49.19719" lon="2.00688">
        <ele>232</ele>
        <time>2022-04-10T11:12:10Z</time>
      </trkpt>
      <trkpt lat="49.19724" lon="2.00692">
        <ele>231.5</ele>
        <time>2022-04-10T11:12:15Z</time>
      </trkpt>
      <trkpt lat="49.19731" lon="2.00695">
        <ele>230.6</ele>
        <time>2022-04-10T11:12:21Z</time>
      </trkpt>
      <trkpt lat="49.19741" lon="2.00699">
        <ele>229.6</ele>
        <time>2022-04-10T11:12:26Z</time>
      </trkpt>
      <trkpt lat="49.19753" lon="2.00701">
        <ele>228.4</ele>
        <time>2022-04-10T11:12:32Z</time>
      </trkpt>
      <trkpt lat="49.19761" lon="2.00702">
        <ele>227.5</ele>
        <time>2022-04-10T11:12:37Z</time>
      </trkpt>
      <trkpt lat="49.19768" lon="2.00704">
        <ele>226.6</ele>
        <time>2022-04-10T11:12:43Z</time>
      </trkpt>
      <trkpt lat="49.19773" lon="2.00704">
        <ele>226</ele>
        <time>2022-04-10T11:12:48Z</time>
      </trkpt>
      <trkpt lat="49.1978" lon="2.00704">
        <ele>225.1</ele>
        <time>2022-04-10T11:12:54Z</time>
      </trkpt>
      <trkpt lat="49.19787" lon="2.00703">
        <ele>224.2</ele>
        <time>2022-04-10T11:12:59Z</time>
      </trkpt>
      <trkpt lat="49.19796" lon="2.00701">
        <ele>223.6</ele>
        <time>2022-04-10T11:13:05Z</time>
      </trkpt>
      <trkpt lat="49.19801" lon="2.00699">
        <ele>223.2</ele>
        <time>2022-04-10T11:13:10Z</time>
      </trkpt>
      <trkpt lat="49.19811" lon="2.00695">
        <ele>223.2</ele>
        <time>2022-04-10T11:13:16Z</time>
      </trkpt>
      <trkpt lat="49.19821" lon="2.00694">
        <ele>223.4</ele>
        <time>2022-04-10T11:13:22Z</time>
      </trkpt>
      <trkpt lat="49.1983" lon="2.00699">
        <ele>223.5</ele>
        <time>2022-04-10T11:13:28Z</time>
      </trkpt>
      <trkpt lat="49.19843" lon="2.00706">
        <ele>223.4</ele>
        <time>2022-04-10T11:13:34Z</time>
      </trkpt>
      <trkpt lat="49.19855" lon="2.0071">
        <ele>223.1</ele>
        <time>2022-04-10T11:13:40Z</time>
      </trkpt>
      <trkpt lat="49.19866" lon="2.00717">
        <ele>223</ele>
        <time>2022-04-10T11:13:45Z</time>
      </trkpt>
      <trkpt lat="49.19875" lon="2.00725">
        <ele>222.7</ele>
        <time>2022-04-10T11:13:51Z</time>
      </trkpt>
      <trkpt lat="49.19881" lon="2.00732">
        <ele>221.9</ele>
        <time>2022-04-10T11:13:57Z</time>
      </trkpt>
      <trkpt lat="49.19885" lon="2.00739">
        <ele>221.5</ele>
        <time>2022-04-10T11:14:03Z</time>
      </trkpt>
      <trkpt lat="49.19891" lon="2.00749">
        <ele>221.1</ele>
        <time>2022-04-10T11:14:08Z</time>
      </trkpt>
      <trkpt lat="49.19894" lon="2.00756">
        <ele>220.9</ele>
        <time>2022-04-10T11:14:13Z</time>
      </trkpt>
      <trkpt lat="49.19899" lon="2.00765">
        <ele>220.9</ele>
        <time>2022-04-10T11:14:19Z</time>
      </trkpt>
      <trkpt lat="49.19903" lon="2.00773">
        <ele>220.7</ele>
        <time>2022-04-10T11:14:25Z</time>
      </trkpt>
      <trkpt lat="49.19909" lon="2.00783">
        <ele>220.5</ele>
        <time>2022-04-10T11:14:31Z</time>
      </trkpt>
      <trkpt lat="49.19915" lon="2.00791">
        <ele>220.3</ele>
        <time>2022-04-10T11:14:36Z</time>
      </trkpt>
      <trkpt lat="49.19924" lon="2.00799">
        <ele>219.9</ele>
        <time>2022-04-10T11:14:42Z</time>
      </trkpt>
      <trkpt lat="49.19927" lon="2.00803">
        <ele>219.7</ele>
        <time>2022-04-10T11:14:47Z</time>
      </trkpt>
      <trkpt lat="49.19932" lon="2.00808">
        <ele>219.2</ele>
        <time>2022-04-10T11:14:52Z</time>
      </trkpt>
      <trkpt lat="49.1994" lon="2.00815">
        <ele>218.2</ele>
        <time>2022-04-10T11:14:58Z</time>
      </trkpt>
      <trkpt lat="49.19944" lon="2.00821">
        <ele>217.2</ele>
        <time>2022-04-10T11:15:03Z</time>
      </trkpt>
      <trkpt lat="49.19949" lon="2.00827">
        <ele>215.6</ele>
        <time>2022-04-10T11:15:09Z</time>
      </trkpt>
      <trkpt lat="49.19955" lon="2.00831">
        <ele>214.1</ele>
        <time>2022-04-10T11:15:14Z</time>
      </trkpt>
      <trkpt lat="49.19965" lon="2.0084">
        <ele>212.3</ele>
        <time>2022-04-10T11:15:20Z</time>
      </trkpt>
      <trkpt lat="49.19972" lon="2.00847">
        <ele>210.9</ele>
        <time>2022-04-10T11:15:26Z</time>
      </trkpt>
      <trkpt lat="49.19977" lon="2.00851">
        <ele>210</ele>
        <time>2022-04-10T11:15:31Z</time>
      </trkpt>
      <trkpt lat="49.19985" lon="2.00858">
        <ele>208.9</ele>
        <time>2022-04-10T11:15:37Z</time>
      </trkpt>
      <trkpt lat="49.19992" lon="2.00865">
        <ele>208</ele>
        <time>2022-04-10T11:15:42Z</time>
      </trkpt>
      <trkpt lat="49.19998" lon="2.00872">
        <ele>207.1</ele>
        <time>2022-04-10T11:15:47Z</time>
      </trkpt>
      <trkpt lat="49.20005" lon="2.00877">
        <ele>206.1</ele>
        <time>2022-04-10T11:15:53Z</time>
      </trkpt>
      <trkpt lat="49.20011" lon="2.00884">
        <ele>205.4</ele>
        <time>2022-04-10T11:15:58Z</time>
      </trkpt>
      <trkpt lat="49.20018" lon="2.00892">
        <ele>205</ele>
        <time>2022-04-10T11:16:03Z</time>
      </trkpt>
      <trkpt lat="49.20026" lon="2.00899">
        <ele>204.6</ele>
        <time>2022-04-10T11:16:09Z</time>
      </trkpt>
      <trkpt lat="49.20033" lon="2.00907">
        <ele>204.3</ele>
        <time>2022-04-10T11:16:15Z</time>
      </trkpt>
      <trkpt lat="49.20038" lon="2.00914">
        <ele>204</ele>
        <time>2022-04-10T11:16:20Z</time>
      </trkpt>
      <trkpt lat="49.20046" lon="2.00921">
        <ele>203.6</ele>
        <time>2022-04-10T11:16:26Z</time>
      </trkpt>
      <trkpt lat="49.20051" lon="2.00928">
        <ele>203.4</ele>
        <time>2022-04-10T11:16:31Z</time>
      </trkpt>
      <trkpt lat="49.20058" lon="2.00936">
        <ele>203.1</ele>
        <time>2022-04-10T11:16:37Z</time>
      </trkpt>
      <trkpt lat="49.20064" lon="2.00944">
        <ele>202.7</ele>
        <time>2022-04-10T11:16:42Z</time>
      </trkpt>
      <trkpt lat="49.2007" lon="2.00955">
        <ele>202</ele>
        <time>2022-04-10T11:16:47Z</time>
      </trkpt>
      <trkpt lat="49.20068" lon="2.00968">
        <ele>201.4</ele>
        <time>2022-04-10T11:16:53Z</time>
      </trkpt>
      <trkpt lat="49.20065" lon="2.00982">
        <ele>201.2</ele>
        <time>2022-04-10T11:16:58Z</time>
      </trkpt>
      <trkpt lat="49.20061" lon="2.00995">
        <ele>201</ele>
        <time>2022-04-10T11:17:04Z</time>
      </trkpt>
      <trkpt lat="49.2006" lon="2.01005">
        <ele>200.7</ele>
        <time>2022-04-10T11:17:09Z</time>
      </trkpt>
      <trkpt lat="49.20059" lon="2.01017">
        <ele>200.5</ele>
        <time>2022-04-10T11:17:14Z</time>
      </trkpt>
      <trkpt lat="49.20056" lon="2.01031">
        <ele>200.5</ele>
        <time>2022-04-10T11:17:20Z</time>
      </trkpt>
      <trkpt lat="49.20054" lon="2.01043">
        <ele>200.2</ele>
        <time>2022-04-10T11:17:26Z</time>
      </trkpt>
      <trkpt lat="49.20051" lon="2.01052">
        <ele>199.8</ele>
        <time>2022-04-10T11:17:31Z</time>
      </trkpt>
      <trkpt lat="49.20047" lon="2.01065">
        <ele>199.3</ele>
        <time>2022-04-10T11:17:37Z</time>
      </trkpt>
      <trkpt lat="49.20042" lon="2.01078">
        <ele>198.9</ele>
        <time>2022-04-10T11:17:42Z</time>
      </trkpt>
      <trkpt lat="49.20037" lon="2.01091">
        <ele>198.4</ele>
        <time>2022-04-10T11:17:48Z</time>
      </trkpt>
      <trkpt lat="49.20033" lon="2.01101">
        <ele>198</ele>
        <time>2022-04-10T11:17:54Z</time>
      </trkpt>
      <trkpt lat="49.2003" lon="2.0111">
        <ele>197.5</ele>
        <time>2022-04-10T11:18:00Z</time>
      </trkpt>
      <trkpt lat="49.20026" lon="2.01121">
        <ele>197.2</ele>
        <time>2022-04-10T11:18:05Z</time>
      </trkpt>
      <trkpt lat="49.20021" lon="2.01133">
        <ele>196.9</ele>
        <time>2022-04-10T11:18:11Z</time>
      </trkpt>
      <trkpt lat="49.20017" lon="2.01145">
        <ele>196.3</ele>
        <time>2022-04-10T11:18:17Z</time>
      </trkpt>
      <trkpt lat="49.20013" lon="2.01155">
        <ele>195.8</ele>
        <time>2022-04-10T11:18:22Z</time>
      </trkpt>
      <trkpt lat="49.20009" lon="2.01169">
        <ele>195.2</ele>
        <time>2022-04-10T11:18:28Z</time>
      </trkpt>
      <trkpt lat="49.20005" lon="2.01179">
        <ele>194.7</ele>
        <time>2022-04-10T11:18:33Z</time>
      </trkpt>
      <trkpt lat="49.20001" lon="2.01194">
        <ele>194.1</ele>
        <time>2022-04-10T11:18:39Z</time>
      </trkpt>
      <trkpt lat="49.19997" lon="2.01207">
        <ele>193.5</ele>
        <time>2022-04-10T11:18:45Z</time>
      </trkpt>
      <trkpt lat="49.19993" lon="2.01217">
        <ele>192.9</ele>
        <time>2022-04-10T11:18:50Z</time>
      </trkpt>
      <trkpt lat="49.1999" lon="2.01227">
        <ele>191.8</ele>
        <time>2022-04-10T11:18:56Z</time>
      </trkpt>
      <trkpt lat="49.19987" lon="2.01238">
        <ele>190.5</ele>
        <time>2022-04-10T11:19:02Z</time>
      </trkpt>
      <trkpt lat="49.19984" lon="2.01247">
        <ele>189.6</ele>
        <time>2022-04-10T11:19:08Z</time>
      </trkpt>
      <trkpt lat="49.19981" lon="2.01244">
        <ele>188.9</ele>
        <time>2022-04-10T11:19:14Z</time>
      </trkpt>
      <trkpt lat="49.19981" lon="2.01244">
        <ele>188.8</ele>
        <time>2022-04-10T11:19:19Z</time>
      </trkpt>
      <trkpt lat="49.19982" lon="2.01244">
        <ele>188.5</ele>
        <time>2022-04-10T11:19:25Z</time>
      </trkpt>
      <trkpt lat="49.19983" lon="2.01241">
        <ele>188.4</ele>
        <time>2022-04-10T11:19:30Z</time>
      </trkpt>
      <trkpt lat="49.19982" lon="2.0124">
        <ele>188.3</ele>
        <time>2022-04-10T11:19:36Z</time>
      </trkpt>
      <trkpt lat="49.19982" lon="2.01239">
        <ele>188.2</ele>
        <time>2022-04-10T11:19:41Z</time>
      </trkpt>
      <trkpt lat="49.19982" lon="2.01238">
        <ele>188.2</ele>
        <time>2022-04-10T11:19:46Z</time>
      </trkpt>
      <trkpt lat="49.19983" lon="2.01237">
        <ele>188.2</ele>
        <time>2022-04-10T11:19:52Z</time>
      </trkpt>
      <trkpt lat="49.19982" lon="2.01236">
        <ele>188.2</ele>
        <time>2022-04-10T11:19:58Z</time>
      </trkpt>
      <trkpt lat="49.19984" lon="2.01237">
        <ele>187.9</ele>
        <time>2022-04-10T11:20:03Z</time>
      </trkpt>
      <trkpt lat="49.19985" lon="2.01237">
        <ele>187.6</ele>
        <time>2022-04-10T11:20:09Z</time>
      </trkpt>
      <trkpt lat="49.19986" lon="2.01238">
        <ele>187.6</ele>
        <time>2022-04-10T11:20:14Z</time>
      </trkpt>
      <trkpt lat="49.19984" lon="2.01241">
        <ele>186.9</ele>
        <time>2022-04-10T11:20:20Z</time>
      </trkpt>
      <trkpt lat="49.19977" lon="2.01246">
        <ele>186</ele>
        <time>2022-04-10T11:20:25Z</time>
      </trkpt>
      <trkpt lat="49.1997" lon="2.01254">
        <ele>185.2</ele>
        <time>2022-04-10T11:20:31Z</time>
      </trkpt>
      <trkpt lat="49.19962" lon="2.01262">
        <ele>184.7</ele>
        <time>2022-04-10T11:20:37Z</time>
      </trkpt>
      <trkpt lat="49.19955" lon="2.01263">
        <ele>184.3</ele>
        <time>2022-04-10T11:20:43Z</time>
      </trkpt>
      <trkpt lat="49.19948" lon="2.01262">
        <ele>183.7</ele>
        <time>2022-04-10T11:20:48Z</time>
      </trkpt>
      <trkpt lat="49.19941" lon="2.01259">
        <ele>182.7</ele>
        <time>2022-04-10T11:20:54Z</time>
      </trkpt>
      <trkpt lat="49.19937" lon="2.01256">
        <ele>182</ele>
        <time>2022-04-10T11:21:00Z</time>
      </trkpt>
      <trkpt lat="49.19931" lon="2.01251">
        <ele>181.9</ele>
        <time>2022-04-10T11:21:05Z</time>
      </trkpt>
      <trkpt lat="49.19923" lon="2.01247">
        <ele>182.5</ele>
        <time>2022-04-10T11:21:11Z</time>
      </trkpt>
      <trkpt lat="49.19917" lon="2.01244">
        <ele>183.5</ele>
        <time>2022-04-10T11:21:17Z</time>
      </trkpt>
      <trkpt lat="49.19911" lon="2.01242">
        <ele>184.2</ele>
        <time>2022-04-10T11:21:22Z</time>
      </trkpt>
      <trkpt lat="49.19903" lon="2.01239">
        <ele>184.9</ele>
        <time>2022-04-10T11:21:28Z</time>
      </trkpt>
      <trkpt lat="49.19896" lon="2.01236">
        <ele>185.5</ele>
        <time>2022-04-10T11:21:33Z</time>
      </trkpt>
      <trkpt lat="49.19889" lon="2.01234">
        <ele>186.4</ele>
        <time>2022-04-10T11:21:39Z</time>
      </trkpt>
      <trkpt lat="49.19883" lon="2.01231">
        <ele>187.5</ele>
        <time>2022-04-10T11:21:45Z</time>
      </trkpt>
      <trkpt lat="49.19878" lon="2.01231">
        <ele>188.4</ele>
        <time>2022-04-10T11:21:50Z</time>
      </trkpt>
      <trkpt lat="49.19871" lon="2.01232">
        <ele>189.3</ele>
        <time>2022-04-10T11:21:56Z</time>
      </trkpt>
      <trkpt lat="49.19866" lon="2.01234">
        <ele>190</ele>
        <time>2022-04-10T11:22:02Z</time>
      </trkpt>
      <trkpt lat="49.1986" lon="2.01231">
        <ele>190.3</ele>
        <time>2022-04-10T11:22:08Z</time>
      </trkpt>
      <trkpt lat="49.19856" lon="2.01228">
        <ele>190.7</ele>
        <time>2022-04-10T11:22:14Z</time>
      </trkpt>
      <trkpt lat="49.19847" lon="2.01229">
        <ele>191.3</ele>
        <time>2022-04-10T11:22:20Z</time>
      </trkpt>
      <trkpt lat="49.19837" lon="2.01228">
        <ele>192</ele>
        <time>2022-04-10T11:22:26Z</time>
      </trkpt>
      <trkpt lat="49.19829" lon="2.01228">
        <ele>192.7</ele>
        <time>2022-04-10T11:22:31Z</time>
      </trkpt>
      <trkpt lat="49.1982" lon="2.01227">
        <ele>193.3</ele>
        <time>2022-04-10T11:22:36Z</time>
      </trkpt>
      <trkpt lat="49.19813" lon="2.01226">
        <ele>194</ele>
        <time>2022-04-10T11:22:42Z</time>
      </trkpt>
      <trkpt lat="49.19806" lon="2.01225">
        <ele>194.5</ele>
        <time>2022-04-10T11:22:47Z</time>
      </trkpt>
      <trkpt lat="49.19798" lon="2.01225">
        <ele>195</ele>
        <time>2022-04-10T11:22:53Z</time>
      </trkpt>
      <trkpt lat="49.19791" lon="2.01223">
        <ele>195.6</ele>
        <time>2022-04-10T11:22:59Z</time>
      </trkpt>
      <trkpt lat="49.19785" lon="2.01221">
        <ele>196.2</ele>
        <time>2022-04-10T11:23:04Z</time>
      </trkpt>
      <trkpt lat="49.19779" lon="2.01221">
        <ele>197</ele>
        <time>2022-04-10T11:23:10Z</time>
      </trkpt>
      <trkpt lat="49.19773" lon="2.01224">
        <ele>197.8</ele>
        <time>2022-04-10T11:23:16Z</time>
      </trkpt>
      <trkpt lat="49.1977" lon="2.01226">
        <ele>198.8</ele>
        <time>2022-04-10T11:23:22Z</time>
      </trkpt>
      <trkpt lat="49.19766" lon="2.01228">
        <ele>199.7</ele>
        <time>2022-04-10T11:23:27Z</time>
      </trkpt>
      <trkpt lat="49.19762" lon="2.01236">
        <ele>200.5</ele>
        <time>2022-04-10T11:23:33Z</time>
      </trkpt>
      <trkpt lat="49.19757" lon="2.01248">
        <ele>201.3</ele>
        <time>2022-04-10T11:23:39Z</time>
      </trkpt>
      <trkpt lat="49.19754" lon="2.01257">
        <ele>202</ele>
        <time>2022-04-10T11:23:44Z</time>
      </trkpt>
      <trkpt lat="49.1975" lon="2.01268">
        <ele>203.2</ele>
        <time>2022-04-10T11:23:50Z</time>
      </trkpt>
      <trkpt lat="49.19746" lon="2.01274">
        <ele>204.2</ele>
        <time>2022-04-10T11:23:55Z</time>
      </trkpt>
      <trkpt lat="49.19741" lon="2.01283">
        <ele>205.2</ele>
        <time>2022-04-10T11:24:01Z</time>
      </trkpt>
      <trkpt lat="49.19736" lon="2.01292">
        <ele>206</ele>
        <time>2022-04-10T11:24:07Z</time>
      </trkpt>
      <trkpt lat="49.19732" lon="2.01299">
        <ele>206.7</ele>
        <time>2022-04-10T11:24:12Z</time>
      </trkpt>
      <trkpt lat="49.19729" lon="2.01307">
        <ele>207.4</ele>
        <time>2022-04-10T11:24:17Z</time>
      </trkpt>
      <trkpt lat="49.19725" lon="2.01317">
        <ele>208.2</ele>
        <time>2022-04-10T11:24:23Z</time>
      </trkpt>
      <trkpt lat="49.1972" lon="2.01326">
        <ele>209.1</ele>
        <time>2022-04-10T11:24:28Z</time>
      </trkpt>
      <trkpt lat="49.19716" lon="2.01336">
        <ele>209.9</ele>
        <time>2022-04-10T11:24:34Z</time>
      </trkpt>
      <trkpt lat="49.19711" lon="2.01343">
        <ele>210.6</ele>
        <time>2022-04-10T11:24:39Z</time>
      </trkpt>
      <trkpt lat="49.19706" lon="2.01353">
        <ele>211.4</ele>
        <time>2022-04-10T11:24:45Z</time>
      </trkpt>
      <trkpt lat="49.197" lon="2.01362">
        <ele>212</ele>
        <time>2022-04-10T11:24:50Z</time>
      </trkpt>
      <trkpt lat="49.19695" lon="2.01371">
        <ele>212.6</ele>
        <time>2022-04-10T11:24:55Z</time>
      </trkpt>
      <trkpt lat="49.19691" lon="2.01378">
        <ele>213.2</ele>
        <time>2022-04-10T11:25:01Z</time>
      </trkpt>
      <trkpt lat="49.19687" lon="2.01387">
        <ele>213.7</ele>
        <time>2022-04-10T11:25:07Z</time>
      </trkpt>
      <trkpt lat="49.19682" lon="2.01396">
        <ele>213.8</ele>
        <time>2022-04-10T11:25:13Z</time>
      </trkpt>
      <trkpt lat="49.19679" lon="2.01403">
        <ele>213.9</ele>
        <time>2022-04-10T11:25:18Z</time>
      </trkpt>
      <trkpt lat="49.19676" lon="2.0141">
        <ele>214</ele>
        <time>2022-04-10T11:25:24Z</time>
      </trkpt>
      <trkpt lat="49.19673" lon="2.01417">
        <ele>213.7</ele>
        <time>2022-04-10T11:25:30Z</time>
      </trkpt>
      <trkpt lat="49.19672" lon="2.01422">
        <ele>213.4</ele>
        <time>2022-04-10T11:25:35Z</time>
      </trkpt>
      <trkpt lat="49.19672" lon="2.01429">
        <ele>212.8</ele>
        <time>2022-04-10T11:25:40Z</time>
      </trkpt>
      <trkpt lat="49.19671" lon="2.01438">
        <ele>212.1</ele>
        <time>2022-04-10T11:25:45Z</time>
      </trkpt>
      <trkpt lat="49.19669" lon="2.01448">
        <ele>211.4</ele>
        <time>2022-04-10T11:25:51Z</time>
      </trkpt>
      <trkpt lat="49.19668" lon="2.01458">
        <ele>210.8</ele>
        <time>2022-04-10T11:25:56Z</time>
      </trkpt>
      <trkpt lat="49.19665" lon="2.01474">
        <ele>210.6</ele>
        <time>2022-04-10T11:26:02Z</time>
      </trkpt>
      <trkpt lat="49.19665" lon="2.01483">
        <ele>210.6</ele>
        <time>2022-04-10T11:26:07Z</time>
      </trkpt>
      <trkpt lat="49.19663" lon="2.01492">
        <ele>210.3</ele>
        <time>2022-04-10T11:26:13Z</time>
      </trkpt>
      <trkpt lat="49.19659" lon="2.01498">
        <ele>209.4</ele>
        <time>2022-04-10T11:26:19Z</time>
      </trkpt>
      <trkpt lat="49.19655" lon="2.01504">
        <ele>208.3</ele>
        <time>2022-04-10T11:26:24Z</time>
      </trkpt>
      <trkpt lat="49.19652" lon="2.01514">
        <ele>206.9</ele>
        <time>2022-04-10T11:26:30Z</time>
      </trkpt>
      <trkpt lat="49.19649" lon="2.01523">
        <ele>205.7</ele>
        <time>2022-04-10T11:26:35Z</time>
      </trkpt>
      <trkpt lat="49.19646" lon="2.01532">
        <ele>204.6</ele>
        <time>2022-04-10T11:26:40Z</time>
      </trkpt>
      <trkpt lat="49.19645" lon="2.01541">
        <ele>203.4</ele>
        <time>2022-04-10T11:26:46Z</time>
      </trkpt>
      <trkpt lat="49.19645" lon="2.01549">
        <ele>202.5</ele>
        <time>2022-04-10T11:26:51Z</time>
      </trkpt>
      <trkpt lat="49.19643" lon="2.01559">
        <ele>201.6</ele>
        <time>2022-04-10T11:26:57Z</time>
      </trkpt>
      <trkpt lat="49.19641" lon="2.0157">
        <ele>201</ele>
        <time>2022-04-10T11:27:02Z</time>
      </trkpt>
      <trkpt lat="49.19638" lon="2.01589">
        <ele>200.8</ele>
        <time>2022-04-10T11:27:08Z</time>
      </trkpt>
      <trkpt lat="49.19635" lon="2.01601">
        <ele>201.2</ele>
        <time>2022-04-10T11:27:13Z</time>
      </trkpt>
      <trkpt lat="49.19634" lon="2.01612">
        <ele>201.9</ele>
        <time>2022-04-10T11:27:19Z</time>
      </trkpt>
      <trkpt lat="49.19634" lon="2.01623">
        <ele>203.1</ele>
        <time>2022-04-10T11:27:25Z</time>
      </trkpt>
      <trkpt lat="49.19632" lon="2.01637">
        <ele>204.3</ele>
        <time>2022-04-10T11:27:31Z</time>
      </trkpt>
      <trkpt lat="49.1963" lon="2.01648">
        <ele>205.4</ele>
        <time>2022-04-10T11:27:36Z</time>
      </trkpt>
      <trkpt lat="49.19627" lon="2.01658">
        <ele>206.6</ele>
        <time>2022-04-10T11:27:42Z</time>
      </trkpt>
      <trkpt lat="49.19625" lon="2.01668">
        <ele>207.5</ele>
        <time>2022-04-10T11:27:47Z</time>
      </trkpt>
      <trkpt lat="49.19623" lon="2.01678">
        <ele>208.4</ele>
        <time>2022-04-10T11:27:53Z</time>
      </trkpt>
      <trkpt lat="49.19623" lon="2.01688">
        <ele>209</ele>
        <time>2022-04-10T11:27:59Z</time>
      </trkpt>
      <trkpt lat="49.19622" lon="2.01695">
        <ele>209.4</ele>
        <time>2022-04-10T11:28:05Z</time>
      </trkpt>
      <trkpt lat="49.19621" lon="2.01704">
        <ele>209.2</ele>
        <time>2022-04-10T11:28:11Z</time>
      </trkpt>
      <trkpt lat="49.19618" lon="2.01712">
        <ele>208.8</ele>
        <time>2022-04-10T11:28:16Z</time>
      </trkpt>
      <trkpt lat="49.19615" lon="2.01722">
        <ele>208.2</ele>
        <time>2022-04-10T11:28:22Z</time>
      </trkpt>
      <trkpt lat="49.19615" lon="2.01732">
        <ele>207.6</ele>
        <time>2022-04-10T11:28:28Z</time>
      </trkpt>
      <trkpt lat="49.19613" lon="2.01745">
        <ele>207.2</ele>
        <time>2022-04-10T11:28:34Z</time>
      </trkpt>
      <trkpt lat="49.19612" lon="2.01764">
        <ele>207.3</ele>
        <time>2022-04-10T11:28:39Z</time>
      </trkpt>
      <trkpt lat="49.19612" lon="2.01783">
        <ele>208.1</ele>
        <time>2022-04-10T11:28:45Z</time>
      </trkpt>
      <trkpt lat="49.19612" lon="2.0179">
        <ele>209.2</ele>
        <time>2022-04-10T11:28:51Z</time>
      </trkpt>
      <trkpt lat="49.19614" lon="2.01798">
        <ele>209.5</ele>
        <time>2022-04-10T11:28:57Z</time>
      </trkpt>
      <trkpt lat="49.19612" lon="2.01808">
        <ele>209.3</ele>
        <time>2022-04-10T11:29:03Z</time>
      </trkpt>
      <trkpt lat="49.19609" lon="2.01823">
        <ele>209</ele>
        <time>2022-04-10T11:29:09Z</time>
      </trkpt>
      <trkpt lat="49.19608" lon="2.01833">
        <ele>208.8</ele>
        <time>2022-04-10T11:29:14Z</time>
      </trkpt>
      <trkpt lat="49.19608" lon="2.01847">
        <ele>208.5</ele>
        <time>2022-04-10T11:29:20Z</time>
      </trkpt>
      <trkpt lat="49.19608" lon="2.01857">
        <ele>208.5</ele>
        <time>2022-04-10T11:29:25Z</time>
      </trkpt>
      <trkpt lat="49.19609" lon="2.01869">
        <ele>208.8</ele>
        <time>2022-04-10T11:29:31Z</time>
      </trkpt>
      <trkpt lat="49.19607" lon="2.01878">
        <ele>208.9</ele>
        <time>2022-04-10T11:29:36Z</time>
      </trkpt>
      <trkpt lat="49.19605" lon="2.01887">
        <ele>208.8</ele>
        <time>2022-04-10T11:29:42Z</time>
      </trkpt>
      <trkpt lat="49.19604" lon="2.01895">
        <ele>208.6</ele>
        <time>2022-04-10T11:29:47Z</time>
      </trkpt>
      <trkpt lat="49.19603" lon="2.01906">
        <ele>208</ele>
        <time>2022-04-10T11:29:53Z</time>
      </trkpt>
      <trkpt lat="49.19601" lon="2.01914">
        <ele>207.6</ele>
        <time>2022-04-10T11:29:58Z</time>
      </trkpt>
      <trkpt lat="49.19601" lon="2.01928">
        <ele>207.3</ele>
        <time>2022-04-10T11:30:04Z</time>
      </trkpt>
      <trkpt lat="49.196" lon="2.01939">
        <ele>207.1</ele>
        <time>2022-04-10T11:30:09Z</time>
      </trkpt>
      <trkpt lat="49.19599" lon="2.01953">
        <ele>207.3</ele>
        <time>2022-04-10T11:30:14Z</time>
      </trkpt>
      <trkpt lat="49.19599" lon="2.01967">
        <ele>207.7</ele>
        <time>2022-04-10T11:30:20Z</time>
      </trkpt>
      <trkpt lat="49.19596" lon="2.01976">
        <ele>208.1</ele>
        <time>2022-04-10T11:30:25Z</time>
      </trkpt>
      <trkpt lat="49.19593" lon="2.01985">
        <ele>208.5</ele>
        <time>2022-04-10T11:30:31Z</time>
      </trkpt>
      <trkpt lat="49.19591" lon="2.01991">
        <ele>208.5</ele>
        <time>2022-04-10T11:30:36Z</time>
      </trkpt>
      <trkpt lat="49.19592" lon="2.01998">
        <ele>208.1</ele>
        <time>2022-04-10T11:30:42Z</time>
      </trkpt>
      <trkpt lat="49.19591" lon="2.02007">
        <ele>207.6</ele>
        <time>2022-04-10T11:30:48Z</time>
      </trkpt>
      <trkpt lat="49.19588" lon="2.02021">
        <ele>207.3</ele>
        <time>2022-04-10T11:30:54Z</time>
      </trkpt>
      <trkpt lat="49.19587" lon="2.02035">
        <ele>207.2</ele>
        <time>2022-04-10T11:31:00Z</time>
      </trkpt>
      <trkpt lat="49.19585" lon="2.02045">
        <ele>207.3</ele>
        <time>2022-04-10T11:31:05Z</time>
      </trkpt>
      <trkpt lat="49.19585" lon="2.02055">
        <ele>207.2</ele>
        <time>2022-04-10T11:31:11Z</time>
      </trkpt>
      <trkpt lat="49.19585" lon="2.02065">
        <ele>207.1</ele>
        <time>2022-04-10T11:31:16Z</time>
      </trkpt>
      <trkpt lat="49.19584" lon="2.02076">
        <ele>207.1</ele>
        <time>2022-04-10T11:31:22Z</time>
      </trkpt>
      <trkpt lat="49.19583" lon="2.02086">
        <ele>206.9</ele>
        <time>2022-04-10T11:31:28Z</time>
      </trkpt>
      <trkpt lat="49.1958" lon="2.02094">
        <ele>206.9</ele>
        <time>2022-04-10T11:31:34Z</time>
      </trkpt>
      <trkpt lat="49.19574" lon="2.02101">
        <ele>206.8</ele>
        <time>2022-04-10T11:31:40Z</time>
      </trkpt>
      <trkpt lat="49.19568" lon="2.02106">
        <ele>206.8</ele>
        <time>2022-04-10T11:31:45Z</time>
      </trkpt>
      <trkpt lat="49.19563" lon="2.0211">
        <ele>206.5</ele>
        <time>2022-04-10T11:31:50Z</time>
      </trkpt>
      <trkpt lat="49.19555" lon="2.02114">
        <ele>206.5</ele>
        <time>2022-04-10T11:31:56Z</time>
      </trkpt>
      <trkpt lat="49.19549" lon="2.02119">
        <ele>206.5</ele>
        <time>2022-04-10T11:32:01Z</time>
      </trkpt>
      <trkpt lat="49.19543" lon="2.02123">
        <ele>206.4</ele>
        <time>2022-04-10T11:32:06Z</time>
      </trkpt>
      <trkpt lat="49.19536" lon="2.02127">
        <ele>206.4</ele>
        <time>2022-04-10T11:32:12Z</time>
      </trkpt>
      <trkpt lat="49.19528" lon="2.02132">
        <ele>206.3</ele>
        <time>2022-04-10T11:32:18Z</time>
      </trkpt>
      <trkpt lat="49.1952" lon="2.02134">
        <ele>206.4</ele>
        <time>2022-04-10T11:32:24Z</time>
      </trkpt>
      <trkpt lat="49.19512" lon="2.02136">
        <ele>206.4</ele>
        <time>2022-04-10T11:32:30Z</time>
      </trkpt>
      <trkpt lat="49.19505" lon="2.02135">
        <ele>206.4</ele>
        <time>2022-04-10T11:32:36Z</time>
      </trkpt>
      <trkpt lat="49.19498" lon="2.02133">
        <ele>206.4</ele>
        <time>2022-04-10T11:32:41Z</time>
      </trkpt>
      <trkpt lat="49.19492" lon="2.02128">
        <ele>206.3</ele>
        <time>2022-04-10T11:32:47Z</time>
      </trkpt>
      <trkpt lat="49.19488" lon="2.02125">
        <ele>206</ele>
        <time>2022-04-10T11:32:53Z</time>
      </trkpt>
      <trkpt lat="49.19489" lon="2.02128">
        <ele>206.1</ele>
        <time>2022-04-10T11:32:59Z</time>
      </trkpt>
      <trkpt lat="49.19483" lon="2.02125">
        <ele>206.1</ele>
        <time>2022-04-10T11:33:04Z</time>
      </trkpt>
      <trkpt lat="49.19476" lon="2.02124">
        <ele>205.9</ele>
        <time>2022-04-10T11:33:10Z</time>
      </trkpt>
      <trkpt lat="49.19472" lon="2.02118">
        <ele>206.1</ele>
        <time>2022-04-10T11:33:15Z</time>
      </trkpt>
      <trkpt lat="49.19466" lon="2.02116">
        <ele>206.2</ele>
        <time>2022-04-10T11:33:21Z</time>
      </trkpt>
      <trkpt lat="49.19461" lon="2.02113">
        <ele>206.5</ele>
        <time>2022-04-10T11:33:26Z</time>
      </trkpt>
      <trkpt lat="49.19455" lon="2.02111">
        <ele>207.2</ele>
        <time>2022-04-10T11:33:31Z</time>
      </trkpt>
      <trkpt lat="49.19445" lon="2.02108">
        <ele>207.9</ele>
        <time>2022-04-10T11:33:37Z</time>
      </trkpt>
      <trkpt lat="49.19436" lon="2.02103">
        <ele>208.5</ele>
        <time>2022-04-10T11:33:42Z</time>
      </trkpt>
      <trkpt lat="49.1943" lon="2.02104">
        <ele>209.2</ele>
        <time>2022-04-10T11:33:48Z</time>
      </trkpt>
      <trkpt lat="49.19425" lon="2.02104">
        <ele>209.9</ele>
        <time>2022-04-10T11:33:53Z</time>
      </trkpt>
      <trkpt lat="49.19419" lon="2.02102">
        <ele>210.8</ele>
        <time>2022-04-10T11:33:59Z</time>
      </trkpt>
      <trkpt lat="49.19414" lon="2.02099">
        <ele>211.4</ele>
        <time>2022-04-10T11:34:04Z</time>
      </trkpt>
      <trkpt lat="49.19407" lon="2.02098">
        <ele>211.9</ele>
        <time>2022-04-10T11:34:10Z</time>
      </trkpt>
      <trkpt lat="49.19401" lon="2.02099">
        <ele>212.1</ele>
        <time>2022-04-10T11:34:15Z</time>
      </trkpt>
      <trkpt lat="49.19395" lon="2.02101">
        <ele>212.6</ele>
        <time>2022-04-10T11:34:21Z</time>
      </trkpt>
      <trkpt lat="49.19388" lon="2.021">
        <ele>213.2</ele>
        <time>2022-04-10T11:34:26Z</time>
      </trkpt>
      <trkpt lat="49.19382" lon="2.02097">
        <ele>213.5</ele>
        <time>2022-04-10T11:34:31Z</time>
      </trkpt>
      <trkpt lat="49.19374" lon="2.02096">
        <ele>213.5</ele>
        <time>2022-04-10T11:34:37Z</time>
      </trkpt>
      <trkpt lat="49.19366" lon="2.02095">
        <ele>213.5</ele>
        <time>2022-04-10T11:34:43Z</time>
      </trkpt>
      <trkpt lat="49.19357" lon="2.02093">
        <ele>213.5</ele>
        <time>2022-04-10T11:34:49Z</time>
      </trkpt>
      <trkpt lat="49.19349" lon="2.02089">
        <ele>213.6</ele>
        <time>2022-04-10T11:34:54Z</time>
      </trkpt>
      <trkpt lat="49.1934" lon="2.02086">
        <ele>214.5</ele>
        <time>2022-04-10T11:35:00Z</time>
      </trkpt>
      <trkpt lat="49.19334" lon="2.02086">
        <ele>215.1</ele>
        <time>2022-04-10T11:35:05Z</time>
      </trkpt>
      <trkpt lat="49.19328" lon="2.02084">
        <ele>215.9</ele>
        <time>2022-04-10T11:35:10Z</time>
      </trkpt>
      <trkpt lat="49.19322" lon="2.02081">
        <ele>216.5</ele>
        <time>2022-04-10T11:35:16Z</time>
      </trkpt>
      <trkpt lat="49.19314" lon="2.02076">
        <ele>217</ele>
        <time>2022-04-10T11:35:22Z</time>
      </trkpt>
      <trkpt lat="49.19306" lon="2.02074">
        <ele>217.7</ele>
        <time>2022-04-10T11:35:27Z</time>
      </trkpt>
      <trkpt lat="49.19299" lon="2.02072">
        <ele>218.4</ele>
        <time>2022-04-10T11:35:33Z</time>
      </trkpt>
      <trkpt lat="49.19295" lon="2.0207">
        <ele>218.8</ele>
        <time>2022-04-10T11:35:38Z</time>
      </trkpt>
      <trkpt lat="49.19289" lon="2.02066">
        <ele>219.2</ele>
        <time>2022-04-10T11:35:44Z</time>
      </trkpt>
      <trkpt lat="49.19284" lon="2.02062">
        <ele>219.5</ele>
        <time>2022-04-10T11:35:49Z</time>
      </trkpt>
      <trkpt lat="49.19278" lon="2.02059">
        <ele>219.5</ele>
        <time>2022-04-10T11:35:55Z</time>
      </trkpt>
      <trkpt lat="49.19272" lon="2.02057">
        <ele>219.5</ele>
        <time>2022-04-10T11:36:01Z</time>
      </trkpt>
      <trkpt lat="49.19269" lon="2.02055">
        <ele>219.9</ele>
        <time>2022-04-10T11:36:06Z</time>
      </trkpt>
      <trkpt lat="49.19263" lon="2.02056">
        <ele>221.3</ele>
        <time>2022-04-10T11:36:12Z</time>
      </trkpt>
      <trkpt lat="49.19259" lon="2.02056">
        <ele>222.2</ele>
        <time>2022-04-10T11:36:18Z</time>
      </trkpt>
      <trkpt lat="49.19254" lon="2.02054">
        <ele>222.8</ele>
        <time>2022-04-10T11:36:24Z</time>
      </trkpt>
      <trkpt lat="49.19244" lon="2.02051">
        <ele>223.7</ele>
        <time>2022-04-10T11:36:29Z</time>
      </trkpt>
      <trkpt lat="49.19232" lon="2.02046">
        <ele>225</ele>
        <time>2022-04-10T11:36:34Z</time>
      </trkpt>
      <trkpt lat="49.19222" lon="2.02044">
        <ele>226.6</ele>
        <time>2022-04-10T11:36:40Z</time>
      </trkpt>
      <trkpt lat="49.19217" lon="2.02039">
        <ele>228</ele>
        <time>2022-04-10T11:36:46Z</time>
      </trkpt>
      <trkpt lat="49.19214" lon="2.02035">
        <ele>228.7</ele>
        <time>2022-04-10T11:36:51Z</time>
      </trkpt>
      <trkpt lat="49.19208" lon="2.02033">
        <ele>229.3</ele>
        <time>2022-04-10T11:36:57Z</time>
      </trkpt>
      <trkpt lat="49.19205" lon="2.02032">
        <ele>230.1</ele>
        <time>2022-04-10T11:37:02Z</time>
      </trkpt>
      <trkpt lat="49.192" lon="2.02028">
        <ele>231</ele>
        <time>2022-04-10T11:37:07Z</time>
      </trkpt>
      <trkpt lat="49.19195" lon="2.02024">
        <ele>231.9</ele>
        <time>2022-04-10T11:37:13Z</time>
      </trkpt>
      <trkpt lat="49.19189" lon="2.02022">
        <ele>233.1</ele>
        <time>2022-04-10T11:37:19Z</time>
      </trkpt>
      <trkpt lat="49.19182" lon="2.02026">
        <ele>234.6</ele>
        <time>2022-04-10T11:37:25Z</time>
      </trkpt>
      <trkpt lat="49.19173" lon="2.02025">
        <ele>235.8</ele>
        <time>2022-04-10T11:37:31Z</time>
      </trkpt>
      <trkpt lat="49.19167" lon="2.02028">
        <ele>237</ele>
        <time>2022-04-10T11:37:36Z</time>
      </trkpt>
      <trkpt lat="49.19158" lon="2.0203">
        <ele>238.8</ele>
        <time>2022-04-10T11:37:42Z</time>
      </trkpt>
      <trkpt lat="49.19151" lon="2.02029">
        <ele>240.2</ele>
        <time>2022-04-10T11:37:47Z</time>
      </trkpt>
      <trkpt lat="49.19145" lon="2.02031">
        <ele>241.4</ele>
        <time>2022-04-10T11:37:52Z</time>
      </trkpt>
      <trkpt lat="49.19143" lon="2.02032">
        <ele>242.3</ele>
        <time>2022-04-10T11:37:58Z</time>
      </trkpt>
      <trkpt lat="49.19139" lon="2.02036">
        <ele>243.3</ele>
        <time>2022-04-10T11:38:04Z</time>
      </trkpt>
      <trkpt lat="49.19136" lon="2.02039">
        <ele>244.4</ele>
        <time>2022-04-10T11:38:09Z</time>
      </trkpt>
      <trkpt lat="49.19136" lon="2.02042">
        <ele>244.8</ele>
        <time>2022-04-10T11:38:15Z</time>
      </trkpt>
      <trkpt lat="49.19137" lon="2.02041">
        <ele>246</ele>
        <time>2022-04-10T11:38:21Z</time>
      </trkpt>
      <trkpt lat="49.1913" lon="2.02043">
        <ele>247.7</ele>
        <time>2022-04-10T11:38:27Z</time>
      </trkpt>
      <trkpt lat="49.19127" lon="2.02045">
        <ele>248.9</ele>
        <time>2022-04-10T11:38:32Z</time>
      </trkpt>
      <trkpt lat="49.19122" lon="2.02048">
        <ele>249.3</ele>
        <time>2022-04-10T11:38:38Z</time>
      </trkpt>
      <trkpt lat="49.19118" lon="2.02054">
        <ele>249.5</ele>
        <time>2022-04-10T11:38:43Z</time>
      </trkpt>
      <trkpt lat="49.19114" lon="2.02059">
        <ele>249.8</ele>
        <time>2022-04-10T11:38:49Z</time>
      </trkpt>
      <trkpt lat="49.1911" lon="2.02062">
        <ele>250.3</ele>
        <time>2022-04-10T11:38:54Z</time>
      </trkpt>
      <trkpt lat="49.19106" lon="2.02063">
        <ele>250.9</ele>
        <time>2022-04-10T11:38:59Z</time>
      </trkpt>
      <trkpt lat="49.191" lon="2.02066">
        <ele>251.5</ele>
        <time>2022-04-10T11:39:05Z</time>
      </trkpt>
      <trkpt lat="49.19097" lon="2.02068">
        <ele>251.9</ele>
        <time>2022-04-10T11:39:10Z</time>
      </trkpt>
      <trkpt lat="49.19091" lon="2.0207">
        <ele>252.1</ele>
        <time>2022-04-10T11:39:16Z</time>
      </trkpt>
      <trkpt lat="49.19086" lon="2.02072">
        <ele>252.1</ele>
        <time>2022-04-10T11:39:22Z</time>
      </trkpt>
      <trkpt lat="49.1908" lon="2.02074">
        <ele>252.4</ele>
        <time>2022-04-10T11:39:27Z</time>
      </trkpt>
      <trkpt lat="49.19069" lon="2.0207">
        <ele>253.1</ele>
        <time>2022-04-10T11:39:33Z</time>
      </trkpt>
      <trkpt lat="49.19065" lon="2.02068">
        <ele>253.3</ele>
        <time>2022-04-10T11:39:38Z</time>
      </trkpt>
      <trkpt lat="49.19064" lon="2.02065">
        <ele>253.6</ele>
        <time>2022-04-10T11:39:43Z</time>
      </trkpt>
      <trkpt lat="49.19065" lon="2.02065">
        <ele>254</ele>
        <time>2022-04-10T11:39:49Z</time>
      </trkpt>
      <trkpt lat="49.19065" lon="2.02064">
        <ele>254.3</ele>
        <time>2022-04-10T11:39:54Z</time>
      </trkpt>
      <trkpt lat="49.19065" lon="2.02063">
        <ele>254.4</ele>
        <time>2022-04-10T11:39:59Z</time>
      </trkpt>
      <trkpt lat="49.19065" lon="2.02063">
        <ele>254.4</ele>
        <time>2022-04-10T11:40:05Z</time>
      </trkpt>
      <trkpt lat="49.19065" lon="2.02061">
        <ele>254.6</ele>
        <time>2022-04-10T11:40:11Z</time>
      </trkpt>
      <trkpt lat="49.19064" lon="2.02061">
        <ele>254.8</ele>
        <time>2022-04-10T11:40:16Z</time>
      </trkpt>
      <trkpt lat="49.19063" lon="2.02059">
        <ele>254.9</ele>
        <time>2022-04-10T11:40:22Z</time>
      </trkpt>
      <trkpt lat="49.19062" lon="2.02058">
        <ele>255</ele>
        <time>2022-04-10T11:40:27Z</time>
      </trkpt>
      <trkpt lat="49.19062" lon="2.02057">
        <ele>255.2</ele>
        <time>2022-04-10T11:40:33Z</time>
      </trkpt>
      <trkpt lat="49.19061" lon="2.02057">
        <ele>255.3</ele>
        <time>2022-04-10T11:40:39Z</time>
      </trkpt>
      <trkpt lat="49.19061" lon="2.02056">
        <ele>255.4</ele>
        <time>2022-04-10T11:40:45Z</time>
      </trkpt>
      <trkpt lat="49.19058" lon="2.02055">
        <ele>255.5</ele>
        <time>2022-04-10T11:40:50Z</time>
      </trkpt>
      <trkpt lat="49.19057" lon="2.02055">
        <ele>255.6</ele>
        <time>2022-04-10T11:40:55Z</time>
      </trkpt>
      <trkpt lat="49.19056" lon="2.02055">
        <ele>255.7</ele>
        <time>2022-04-10T11:41:01Z</time>
      </trkpt>
      <trkpt lat="49.19056" lon="2.02056">
        <ele>255.8</ele>
        <time>2022-04-10T11:41:07Z</time>
      </trkpt>
      <trkpt lat="49.19055" lon="2.02056">
        <ele>255.9</ele>
        <time>2022-04-10T11:41:13Z</time>
      </trkpt>
      <trkpt lat="49.19055" lon="2.02056">
        <ele>256.1</ele>
        <time>2022-04-10T11:41:19Z</time>
      </trkpt>
      <trkpt lat="49.19056" lon="2.02057">
        <ele>256.2</ele>
        <time>2022-04-10T11:41:24Z</time>
      </trkpt>
      <trkpt lat="49.19056" lon="2.02056">
        <ele>256.3</ele>
        <time>2022-04-10T11:41:30Z</time>
      </trkpt>
      <trkpt lat="49.19055" lon="2.02056">
        <ele>256.5</ele>
        <time>2022-04-10T11:41:36Z</time>
      </trkpt>
      <trkpt lat="49.19055" lon="2.02055">
        <ele>256.6</ele>
        <time>2022-04-10T11:41:42Z</time>
      </trkpt>
      <trkpt lat="49.19054" lon="2.02054">
        <ele>256.8</ele>
        <time>2022-04-10T11:41:47Z</time>
      </trkpt>
      <trkpt lat="49.19054" lon="2.02053">
        <ele>256.9</ele>
        <time>2022-04-10T11:41:52Z</time>
      </trkpt>
      <trkpt lat="49.19054" lon="2.02053">
        <ele>257.1</ele>
        <time>2022-04-10T11:41:57Z</time>
      </trkpt>
      <trkpt lat="49.19054" lon="2.02052">
        <ele>257.2</ele>
        <time>2022-04-10T11:42:03Z</time>
      </trkpt>
      <trkpt lat="49.19054" lon="2.02052">
        <ele>257.3</ele>
        <time>2022-04-10T11:42:08Z</time>
      </trkpt>
      <trkpt lat="49.19053" lon="2.02052">
        <ele>257.5</ele>
        <time>2022-04-10T11:42:14Z</time>
      </trkpt>
      <trkpt lat="49.19054" lon="2.02051">
        <ele>257.6</ele>
        <time>2022-04-10T11:42:20Z</time>
      </trkpt>
      <trkpt lat="49.19055" lon="2.02051">
        <ele>257.6</ele>
        <time>2022-04-10T11:42:26Z</time>
      </trkpt>
      <trkpt lat="49.19056" lon="2.02051">
        <ele>257.7</ele>
        <time>2022-04-10T11:42:31Z</time>
      </trkpt>
      <trkpt lat="49.19057" lon="2.02051">
        <ele>257.7</ele>
        <time>2022-04-10T11:42:37Z</time>
      </trkpt>
      <trkpt lat="49.19057" lon="2.02051">
        <ele>257.8</ele>
        <time>2022-04-10T11:42:42Z</time>
      </trkpt>
      <trkpt lat="49.19056" lon="2.02053">
        <ele>257.7</ele>
        <time>2022-04-10T11:42:48Z</time>
      </trkpt>
      <trkpt lat="49.19056" lon="2.02052">
        <ele>257.7</ele>
        <time>2022-04-10T11:42:53Z</time>
      </trkpt>
      <trkpt lat="49.19056" lon="2.02052">
        <ele>257.7</ele>
        <time>2022-04-10T11:42:58Z</time>
      </trkpt>
      <trkpt lat="49.19056" lon="2.02052">
        <ele>257.8</ele>
        <time>2022-04-10T11:43:04Z</time>
      </trkpt>
      <trkpt lat="49.19056" lon="2.02052">
        <ele>257.9</ele>
        <time>2022-04-10T11:43:09Z</time>
      </trkpt>
      <trkpt lat="49.19056" lon="2.02052">
        <ele>258</ele>
        <time>2022-04-10T11:43:15Z</time>
      </trkpt>
      <trkpt lat="49.19055" lon="2.02051">
        <ele>258.2</ele>
        <time>2022-04-10T11:43:20Z</time>
      </trkpt>
      <trkpt lat="49.19055" lon="2.02051">
        <ele>258.3</ele>
        <time>2022-04-10T11:43:26Z</time>
      </trkpt>
      <trkpt lat="49.19055" lon="2.02052">
        <ele>258.5</ele>
        <time>2022-04-10T11:43:31Z</time>
      </trkpt>
      <trkpt lat="49.19052" lon="2.02066">
        <ele>259.2</ele>
        <time>2022-04-10T11:43:37Z</time>
      </trkpt>
      <trkpt lat="49.19046" lon="2.02073">
        <ele>259.4</ele>
        <time>2022-04-10T11:43:42Z</time>
      </trkpt>
      <trkpt lat="49.19038" lon="2.02077">
        <ele>259.7</ele>
        <time>2022-04-10T11:43:48Z</time>
      </trkpt>
      <trkpt lat="49.1903" lon="2.02078">
        <ele>259.8</ele>
        <time>2022-04-10T11:43:53Z</time>
      </trkpt>
      <trkpt lat="49.19022" lon="2.02078">
        <ele>259.9</ele>
        <time>2022-04-10T11:43:59Z</time>
      </trkpt>
      <trkpt lat="49.19016" lon="2.02082">
        <ele>260.2</ele>
        <time>2022-04-10T11:44:04Z</time>
      </trkpt>
      <trkpt lat="49.19011" lon="2.02085">
        <ele>260.5</ele>
        <time>2022-04-10T11:44:09Z</time>
      </trkpt>
      <trkpt lat="49.19006" lon="2.02089">
        <ele>260.6</ele>
        <time>2022-04-10T11:44:15Z</time>
      </trkpt>
      <trkpt lat="49.19" lon="2.02093">
        <ele>260.4</ele>
        <time>2022-04-10T11:44:21Z</time>
      </trkpt>
      <trkpt lat="49.18995" lon="2.02096">
        <ele>260</ele>
        <time>2022-04-10T11:44:26Z</time>
      </trkpt>
      <trkpt lat="49.18989" lon="2.02101">
        <ele>259.2</ele>
        <time>2022-04-10T11:44:32Z</time>
      </trkpt>
      <trkpt lat="49.18984" lon="2.02108">
        <ele>258.3</ele>
        <time>2022-04-10T11:44:37Z</time>
      </trkpt>
      <trkpt lat="49.18977" lon="2.02114">
        <ele>257.5</ele>
        <time>2022-04-10T11:44:43Z</time>
      </trkpt>
      <trkpt lat="49.1897" lon="2.02122">
        <ele>256.9</ele>
        <time>2022-04-10T11:44:49Z</time>
      </trkpt>
      <trkpt lat="49.1896" lon="2.02125">
        <ele>256.6</ele>
        <time>2022-04-10T11:44:54Z</time>
      </trkpt>
      <trkpt lat="49.18954" lon="2.02129">
        <ele>256.5</ele>
        <time>2022-04-10T11:44:59Z</time>
      </trkpt>
      <trkpt lat="49.18947" lon="2.02134">
        <ele>256.2</ele>
        <time>2022-04-10T11:45:05Z</time>
      </trkpt>
      <trkpt lat="49.18938" lon="2.02136">
        <ele>256.3</ele>
        <time>2022-04-10T11:45:10Z</time>
      </trkpt>
      <trkpt lat="49.18932" lon="2.0214">
        <ele>256.4</ele>
        <time>2022-04-10T11:45:15Z</time>
      </trkpt>
      <trkpt lat="49.18925" lon="2.02146">
        <ele>256.3</ele>
        <time>2022-04-10T11:45:21Z</time>
      </trkpt>
      <trkpt lat="49.18917" lon="2.02152">
        <ele>256.1</ele>
        <time>2022-04-10T11:45:27Z</time>
      </trkpt>
      <trkpt lat="49.18912" lon="2.02153">
        <ele>255.8</ele>
        <time>2022-04-10T11:45:32Z</time>
      </trkpt>
      <trkpt lat="49.18906" lon="2.02155">
        <ele>255.2</ele>
        <time>2022-04-10T11:45:38Z</time>
      </trkpt>
      <trkpt lat="49.18902" lon="2.0216">
        <ele>254.9</ele>
        <time>2022-04-10T11:45:43Z</time>
      </trkpt>
      <trkpt lat="49.18894" lon="2.02163">
        <ele>254.7</ele>
        <time>2022-04-10T11:45:48Z</time>
      </trkpt>
      <trkpt lat="49.18887" lon="2.02171">
        <ele>254.7</ele>
        <time>2022-04-10T11:45:54Z</time>
      </trkpt>
      <trkpt lat="49.1888" lon="2.02182">
        <ele>254.6</ele>
        <time>2022-04-10T11:45:59Z</time>
      </trkpt>
      <trkpt lat="49.18871" lon="2.02191">
        <ele>254.5</ele>
        <time>2022-04-10T11:46:04Z</time>
      </trkpt>
      <trkpt lat="49.18863" lon="2.02197">
        <ele>254.4</ele>
        <time>2022-04-10T11:46:10Z</time>
      </trkpt>
      <trkpt lat="49.18858" lon="2.02202">
        <ele>254.1</ele>
        <time>2022-04-10T11:46:16Z</time>
      </trkpt>
      <trkpt lat="49.18849" lon="2.02209">
        <ele>254.2</ele>
        <time>2022-04-10T11:46:22Z</time>
      </trkpt>
      <trkpt lat="49.18845" lon="2.02215">
        <ele>254.2</ele>
        <time>2022-04-10T11:46:27Z</time>
      </trkpt>
      <trkpt lat="49.18838" lon="2.02218">
        <ele>254.2</ele>
        <time>2022-04-10T11:46:33Z</time>
      </trkpt>
      <trkpt lat="49.1883" lon="2.0222">
        <ele>254.4</ele>
        <time>2022-04-10T11:46:39Z</time>
      </trkpt>
      <trkpt lat="49.18821" lon="2.02223">
        <ele>254.5</ele>
        <time>2022-04-10T11:46:44Z</time>
      </trkpt>
      <trkpt lat="49.18813" lon="2.0223">
        <ele>254.6</ele>
        <time>2022-04-10T11:46:50Z</time>
      </trkpt>
      <trkpt lat="49.18806" lon="2.02234">
        <ele>254.9</ele>
        <time>2022-04-10T11:46:55Z</time>
      </trkpt>
      <trkpt lat="49.18801" lon="2.02239">
        <ele>255.4</ele>
        <time>2022-04-10T11:47:01Z</time>
      </trkpt>
      <trkpt lat="49.18798" lon="2.02239">
        <ele>255.5</ele>
        <time>2022-04-10T11:47:06Z</time>
      </trkpt>
      <trkpt lat="49.18792" lon="2.02241">
        <ele>255.2</ele>
        <time>2022-04-10T11:47:11Z</time>
      </trkpt>
      <trkpt lat="49.18786" lon="2.02241">
        <ele>254.9</ele>
        <time>2022-04-10T11:47:17Z</time>
      </trkpt>
      <trkpt lat="49.18777" lon="2.02251">
        <ele>254.9</ele>
        <time>2022-04-10T11:47:23Z</time>
      </trkpt>
      <trkpt lat="49.18771" lon="2.02252">
        <ele>254.8</ele>
        <time>2022-04-10T11:47:29Z</time>
      </trkpt>
      <trkpt lat="49.18765" lon="2.02252">
        <ele>254.4</ele>
        <time>2022-04-10T11:47:34Z</time>
      </trkpt>
      <trkpt lat="49.18755" lon="2.02257">
        <ele>254</ele>
        <time>2022-04-10T11:47:40Z</time>
      </trkpt>
      <trkpt lat="49.18747" lon="2.02254">
        <ele>253.6</ele>
        <time>2022-04-10T11:47:46Z</time>
      </trkpt>
      <trkpt lat="49.1874" lon="2.02251">
        <ele>253.7</ele>
        <time>2022-04-10T11:47:51Z</time>
      </trkpt>
      <trkpt lat="49.18735" lon="2.02249">
        <ele>253.5</ele>
        <time>2022-04-10T11:47:56Z</time>
      </trkpt>
      <trkpt lat="49.18725" lon="2.02245">
        <ele>253.6</ele>
        <time>2022-04-10T11:48:02Z</time>
      </trkpt>
      <trkpt lat="49.18716" lon="2.0224">
        <ele>254</ele>
        <time>2022-04-10T11:48:07Z</time>
      </trkpt>
      <trkpt lat="49.18709" lon="2.02238">
        <ele>254.5</ele>
        <time>2022-04-10T11:48:12Z</time>
      </trkpt>
      <trkpt lat="49.18702" lon="2.02237">
        <ele>254.8</ele>
        <time>2022-04-10T11:48:18Z</time>
      </trkpt>
      <trkpt lat="49.18696" lon="2.02233">
        <ele>254.7</ele>
        <time>2022-04-10T11:48:24Z</time>
      </trkpt>
      <trkpt lat="49.1869" lon="2.02231">
        <ele>254.2</ele>
        <time>2022-04-10T11:48:30Z</time>
      </trkpt>
      <trkpt lat="49.18685" lon="2.02231">
        <ele>253.4</ele>
        <time>2022-04-10T11:48:35Z</time>
      </trkpt>
      <trkpt lat="49.18674" lon="2.02228">
        <ele>252.7</ele>
        <time>2022-04-10T11:48:41Z</time>
      </trkpt>
      <trkpt lat="49.18666" lon="2.02231">
        <ele>252.8</ele>
        <time>2022-04-10T11:48:47Z</time>
      </trkpt>
      <trkpt lat="49.18659" lon="2.02231">
        <ele>253.1</ele>
        <time>2022-04-10T11:48:52Z</time>
      </trkpt>
      <trkpt lat="49.18648" lon="2.02229">
        <ele>253.2</ele>
        <time>2022-04-10T11:48:58Z</time>
      </trkpt>
      <trkpt lat="49.1864" lon="2.02228">
        <ele>253.4</ele>
        <time>2022-04-10T11:49:04Z</time>
      </trkpt>
      <trkpt lat="49.18633" lon="2.02228">
        <ele>253.3</ele>
        <time>2022-04-10T11:49:09Z</time>
      </trkpt>
      <trkpt lat="49.18624" lon="2.02226">
        <ele>253.3</ele>
        <time>2022-04-10T11:49:15Z</time>
      </trkpt>
      <trkpt lat="49.18617" lon="2.02226">
        <ele>253.6</ele>
        <time>2022-04-10T11:49:20Z</time>
      </trkpt>
      <trkpt lat="49.18612" lon="2.02223">
        <ele>253.5</ele>
        <time>2022-04-10T11:49:26Z</time>
      </trkpt>
      <trkpt lat="49.18609" lon="2.02224">
        <ele>253.4</ele>
        <time>2022-04-10T11:49:32Z</time>
      </trkpt>
      <trkpt lat="49.18603" lon="2.02224">
        <ele>252.2</ele>
        <time>2022-04-10T11:49:37Z</time>
      </trkpt>
      <trkpt lat="49.18595" lon="2.0222">
        <ele>250.6</ele>
        <time>2022-04-10T11:49:43Z</time>
      </trkpt>
      <trkpt lat="49.18585" lon="2.02219">
        <ele>249.3</ele>
        <time>2022-04-10T11:49:49Z</time>
      </trkpt>
      <trkpt lat="49.18576" lon="2.02216">
        <ele>248.8</ele>
        <time>2022-04-10T11:49:54Z</time>
      </trkpt>
      <trkpt lat="49.18569" lon="2.02214">
        <ele>248.3</ele>
        <time>2022-04-10T11:50:00Z</time>
      </trkpt>
      <trkpt lat="49.18562" lon="2.0221">
        <ele>248.3</ele>
        <time>2022-04-10T11:50:05Z</time>
      </trkpt>
      <trkpt lat="49.18556" lon="2.02203">
        <ele>248.3</ele>
        <time>2022-04-10T11:50:11Z</time>
      </trkpt>
      <trkpt lat="49.18549" lon="2.02197">
        <ele>248.3</ele>
        <time>2022-04-10T11:50:17Z</time>
      </trkpt>
      <trkpt lat="49.18543" lon="2.02192">
        <ele>248.4</ele>
        <time>2022-04-10T11:50:23Z</time>
      </trkpt>
      <trkpt lat="49.18537" lon="2.02189">
        <ele>248.2</ele>
        <time>2022-04-10T11:50:29Z</time>
      </trkpt>
      <trkpt lat="49.1853" lon="2.02187">
        <ele>247.9</ele>
        <time>2022-04-10T11:50:35Z</time>
      </trkpt>
      <trkpt lat="49.18521" lon="2.02185">
        <ele>247.8</ele>
        <time>2022-04-10T11:50:40Z</time>
      </trkpt>
      <trkpt lat="49.18512" lon="2.02187">
        <ele>248</ele>
        <time>2022-04-10T11:50:46Z</time>
      </trkpt>
      <trkpt lat="49.18504" lon="2.02188">
        <ele>248.2</ele>
        <time>2022-04-10T11:50:52Z</time>
      </trkpt>
      <trkpt lat="49.18497" lon="2.02185">
        <ele>248.2</ele>
        <time>2022-04-10T11:50:58Z</time>
      </trkpt>
      <trkpt lat="49.18489" lon="2.02184">
        <ele>248.5</ele>
        <time>2022-04-10T11:51:04Z</time>
      </trkpt>
      <trkpt lat="49.18481" lon="2.02182">
        <ele>248.7</ele>
        <time>2022-04-10T11:51:09Z</time>
      </trkpt>
      <trkpt lat="49.18472" lon="2.0218">
        <ele>248.9</ele>
        <time>2022-04-10T11:51:15Z</time>
      </trkpt>
      <trkpt lat="49.18464" lon="2.02177">
        <ele>249.2</ele>
        <time>2022-04-10T11:51:20Z</time>
      </trkpt>
      <trkpt lat="49.18453" lon="2.02173">
        <ele>250</ele>
        <time>2022-04-10T11:51:26Z</time>
      </trkpt>
      <trkpt lat="49.18447" lon="2.02171">
        <ele>250.7</ele>
        <time>2022-04-10T11:51:32Z</time>
      </trkpt>
      <trkpt lat="49.18442" lon="2.02169">
        <ele>250.9</ele>
        <time>2022-04-10T11:51:37Z</time>
      </trkpt>
      <trkpt lat="49.18437" lon="2.02165">
        <ele>250.7</ele>
        <time>2022-04-10T11:51:42Z</time>
      </trkpt>
      <trkpt lat="49.18433" lon="2.02162">
        <ele>250.3</ele>
        <time>2022-04-10T11:51:48Z</time>
      </trkpt>
      <trkpt lat="49.18425" lon="2.02155">
        <ele>250</ele>
        <time>2022-04-10T11:51:53Z</time>
      </trkpt>
      <trkpt lat="49.18419" lon="2.02149">
        <ele>249.8</ele>
        <time>2022-04-10T11:51:59Z</time>
      </trkpt>
      <trkpt lat="49.18414" lon="2.02143">
        <ele>249.6</ele>
        <time>2022-04-10T11:52:04Z</time>
      </trkpt>
      <trkpt lat="49.18408" lon="2.02135">
        <ele>249.3</ele>
        <time>2022-04-10T11:52:10Z</time>
      </trkpt>
      <trkpt lat="49.18404" lon="2.02126">
        <ele>248.9</ele>
        <time>2022-04-10T11:52:15Z</time>
      </trkpt>
      <trkpt lat="49.18398" lon="2.02118">
        <ele>248.6</ele>
        <time>2022-04-10T11:52:21Z</time>
      </trkpt>
      <trkpt lat="49.18395" lon="2.02113">
        <ele>248.4</ele>
        <time>2022-04-10T11:52:26Z</time>
      </trkpt>
      <trkpt lat="49.18388" lon="2.02101">
        <ele>248.4</ele>
        <time>2022-04-10T11:52:32Z</time>
      </trkpt>
      <trkpt lat="49.18384" lon="2.02092">
        <ele>248.7</ele>
        <time>2022-04-10T11:52:37Z</time>
      </trkpt>
      <trkpt lat="49.18376" lon="2.0208">
        <ele>249.1</ele>
        <time>2022-04-10T11:52:43Z</time>
      </trkpt>
      <trkpt lat="49.18366" lon="2.02067">
        <ele>249.9</ele>
        <time>2022-04-10T11:52:49Z</time>
      </trkpt>
      <trkpt lat="49.18361" lon="2.0206">
        <ele>250.6</ele>
        <time>2022-04-10T11:52:54Z</time>
      </trkpt>
      <trkpt lat="49.18356" lon="2.0205">
        <ele>251.4</ele>
        <time>2022-04-10T11:53:00Z</time>
      </trkpt>
      <trkpt lat="49.1835" lon="2.02043">
        <ele>251.9</ele>
        <time>2022-04-10T11:53:05Z</time>
      </trkpt>
      <trkpt lat="49.18346" lon="2.02033">
        <ele>252.4</ele>
        <time>2022-04-10T11:53:10Z</time>
      </trkpt>
      <trkpt lat="49.18341" lon="2.02022">
        <ele>253.2</ele>
        <time>2022-04-10T11:53:15Z</time>
      </trkpt>
      <trkpt lat="49.18335" lon="2.02016">
        <ele>254</ele>
        <time>2022-04-10T11:53:21Z</time>
      </trkpt>
      <trkpt lat="49.18328" lon="2.02005">
        <ele>254.4</ele>
        <time>2022-04-10T11:53:27Z</time>
      </trkpt>
      <trkpt lat="49.18325" lon="2.01996">
        <ele>254.5</ele>
        <time>2022-04-10T11:53:33Z</time>
      </trkpt>
      <trkpt lat="49.18316" lon="2.01987">
        <ele>254.7</ele>
        <time>2022-04-10T11:53:39Z</time>
      </trkpt>
      <trkpt lat="49.18309" lon="2.0198">
        <ele>255.1</ele>
        <time>2022-04-10T11:53:44Z</time>
      </trkpt>
      <trkpt lat="49.18305" lon="2.01972">
        <ele>255.4</ele>
        <time>2022-04-10T11:53:50Z</time>
      </trkpt>
      <trkpt lat="49.18302" lon="2.01966">
        <ele>255.4</ele>
        <time>2022-04-10T11:53:55Z</time>
      </trkpt>
      <trkpt lat="49.18295" lon="2.01954">
        <ele>255</ele>
        <time>2022-04-10T11:54:01Z</time>
      </trkpt>
      <trkpt lat="49.18291" lon="2.01948">
        <ele>254.8</ele>
        <time>2022-04-10T11:54:06Z</time>
      </trkpt>
      <trkpt lat="49.18286" lon="2.01937">
        <ele>254.1</ele>
        <time>2022-04-10T11:54:12Z</time>
      </trkpt>
      <trkpt lat="49.1828" lon="2.01923">
        <ele>253.4</ele>
        <time>2022-04-10T11:54:17Z</time>
      </trkpt>
      <trkpt lat="49.18273" lon="2.01908">
        <ele>253</ele>
        <time>2022-04-10T11:54:23Z</time>
      </trkpt>
      <trkpt lat="49.1827" lon="2.01898">
        <ele>253</ele>
        <time>2022-04-10T11:54:28Z</time>
      </trkpt>
      <trkpt lat="49.18264" lon="2.01887">
        <ele>253.2</ele>
        <time>2022-04-10T11:54:33Z</time>
      </trkpt>
      <trkpt lat="49.18255" lon="2.01879">
        <ele>253.5</ele>
        <time>2022-04-10T11:54:39Z</time>
      </trkpt>
      <trkpt lat="49.18245" lon="2.01873">
        <ele>253.6</ele>
        <time>2022-04-10T11:54:45Z</time>
      </trkpt>
      <trkpt lat="49.1824" lon="2.01862">
        <ele>253.7</ele>
        <time>2022-04-10T11:54:51Z</time>
      </trkpt>
      <trkpt lat="49.18233" lon="2.01854">
        <ele>254.1</ele>
        <time>2022-04-10T11:54:56Z</time>
      </trkpt>
      <trkpt lat="49.18229" lon="2.01845">
        <ele>254.9</ele>
        <time>2022-04-10T11:55:02Z</time>
      </trkpt>
      <trkpt lat="49.18225" lon="2.01838">
        <ele>255.7</ele>
        <time>2022-04-10T11:55:07Z</time>
      </trkpt>
      <trkpt lat="49.18219" lon="2.01826">
        <ele>256.3</ele>
        <time>2022-04-10T11:55:13Z</time>
      </trkpt>
      <trkpt lat="49.18214" lon="2.01816">
        <ele>256.5</ele>
        <time>2022-04-10T11:55:18Z</time>
      </trkpt>
      <trkpt lat="49.18209" lon="2.01808">
        <ele>256.9</ele>
        <time>2022-04-10T11:55:24Z</time>
      </trkpt>
      <trkpt lat="49.18203" lon="2.018">
        <ele>257.2</ele>
        <time>2022-04-10T11:55:30Z</time>
      </trkpt>
      <trkpt lat="49.18198" lon="2.01793">
        <ele>257.6</ele>
        <time>2022-04-10T11:55:35Z</time>
      </trkpt>
      <trkpt lat="49.18191" lon="2.01786">
        <ele>257.9</ele>
        <time>2022-04-10T11:55:41Z</time>
      </trkpt>
      <trkpt lat="49.18184" lon="2.01776">
        <ele>258.1</ele>
        <time>2022-04-10T11:55:46Z</time>
      </trkpt>
      <trkpt lat="49.18178" lon="2.01768">
        <ele>258.1</ele>
        <time>2022-04-10T11:55:52Z</time>
      </trkpt>
      <trkpt lat="49.18172" lon="2.0176">
        <ele>258</ele>
        <time>2022-04-10T11:55:58Z</time>
      </trkpt>
      <trkpt lat="49.18167" lon="2.01752">
        <ele>258</ele>
        <time>2022-04-10T11:56:03Z</time>
      </trkpt>
      <trkpt lat="49.18161" lon="2.01743">
        <ele>257.8</ele>
        <time>2022-04-10T11:56:09Z</time>
      </trkpt>
      <trkpt lat="49.18158" lon="2.01734">
        <ele>257.6</ele>
        <time>2022-04-10T11:56:14Z</time>
      </trkpt>
      <trkpt lat="49.18155" lon="2.01725">
        <ele>257.7</ele>
        <time>2022-04-10T11:56:19Z</time>
      </trkpt>
      <trkpt lat="49.18149" lon="2.01715">
        <ele>257.8</ele>
        <time>2022-04-10T11:56:25Z</time>
      </trkpt>
      <trkpt lat="49.18142" lon="2.01708">
        <ele>257.7</ele>
        <time>2022-04-10T11:56:31Z</time>
      </trkpt>
      <trkpt lat="49.18137" lon="2.01701">
        <ele>257.4</ele>
        <time>2022-04-10T11:56:36Z</time>
      </trkpt>
      <trkpt lat="49.18131" lon="2.0169">
        <ele>257.1</ele>
        <time>2022-04-10T11:56:42Z</time>
      </trkpt>
      <trkpt lat="49.18126" lon="2.01681">
        <ele>257</ele>
        <time>2022-04-10T11:56:47Z</time>
      </trkpt>
      <trkpt lat="49.18124" lon="2.01674">
        <ele>256.7</ele>
        <time>2022-04-10T11:56:52Z</time>
      </trkpt>
      <trkpt lat="49.18113" lon="2.01664">
        <ele>256.7</ele>
        <time>2022-04-10T11:56:58Z</time>
      </trkpt>
      <trkpt lat="49.18107" lon="2.01654">
        <ele>257</ele>
        <time>2022-04-10T11:57:04Z</time>
      </trkpt>
      <trkpt lat="49.18102" lon="2.01645">
        <ele>257.3</ele>
        <time>2022-04-10T11:57:09Z</time>
      </trkpt>
      <trkpt lat="49.18094" lon="2.0164">
        <ele>257.6</ele>
        <time>2022-04-10T11:57:15Z</time>
      </trkpt>
      <trkpt lat="49.18089" lon="2.01634">
        <ele>257.8</ele>
        <time>2022-04-10T11:57:20Z</time>
      </trkpt>
      <trkpt lat="49.18083" lon="2.01629">
        <ele>258</ele>
        <time>2022-04-10T11:57:25Z</time>
      </trkpt>
      <trkpt lat="49.18074" lon="2.0162">
        <ele>258.4</ele>
        <time>2022-04-10T11:57:31Z</time>
      </trkpt>
      <trkpt lat="49.18067" lon="2.01615">
        <ele>259.1</ele>
        <time>2022-04-10T11:57:37Z</time>
      </trkpt>
      <trkpt lat="49.1806" lon="2.01613">
        <ele>259.7</ele>
        <time>2022-04-10T11:57:42Z</time>
      </trkpt>
      <trkpt lat="49.18053" lon="2.01609">
        <ele>259.7</ele>
        <time>2022-04-10T11:57:47Z</time>
      </trkpt>
      <trkpt lat="49.18046" lon="2.016">
        <ele>259.6</ele>
        <time>2022-04-10T11:57:53Z</time>
      </trkpt>
      <trkpt lat="49.18036" lon="2.01593">
        <ele>259.9</ele>
        <time>2022-04-10T11:57:59Z</time>
      </trkpt>
      <trkpt lat="49.18029" lon="2.01589">
        <ele>260.4</ele>
        <time>2022-04-10T11:58:05Z</time>
      </trkpt>
      <trkpt lat="49.18024" lon="2.01582">
        <ele>260.7</ele>
        <time>2022-04-10T11:58:10Z</time>
      </trkpt>
      <trkpt lat="49.18017" lon="2.01576">
        <ele>261.1</ele>
        <time>2022-04-10T11:58:16Z</time>
      </trkpt>
      <trkpt lat="49.18007" lon="2.01572">
        <ele>261.3</ele>
        <time>2022-04-10T11:58:21Z</time>
      </trkpt>
      <trkpt lat="49.17998" lon="2.01563">
        <ele>261.8</ele>
        <time>2022-04-10T11:58:27Z</time>
      </trkpt>
      <trkpt lat="49.17994" lon="2.01559">
        <ele>262.4</ele>
        <time>2022-04-10T11:58:32Z</time>
      </trkpt>
      <trkpt lat="49.17986" lon="2.01555">
        <ele>262.8</ele>
        <time>2022-04-10T11:58:37Z</time>
      </trkpt>
      <trkpt lat="49.17976" lon="2.01551">
        <ele>263</ele>
        <time>2022-04-10T11:58:43Z</time>
      </trkpt>
      <trkpt lat="49.17967" lon="2.01548">
        <ele>263</ele>
        <time>2022-04-10T11:58:48Z</time>
      </trkpt>
      <trkpt lat="49.1796" lon="2.01543">
        <ele>263</ele>
        <time>2022-04-10T11:58:54Z</time>
      </trkpt>
      <trkpt lat="49.17955" lon="2.01541">
        <ele>263</ele>
        <time>2022-04-10T11:58:59Z</time>
      </trkpt>
      <trkpt lat="49.17949" lon="2.01539">
        <ele>263</ele>
        <time>2022-04-10T11:59:04Z</time>
      </trkpt>
      <trkpt lat="49.17941" lon="2.01536">
        <ele>263.1</ele>
        <time>2022-04-10T11:59:10Z</time>
      </trkpt>
      <trkpt lat="49.17939" lon="2.01535">
        <ele>263.3</ele>
        <time>2022-04-10T11:59:16Z</time>
      </trkpt>
      <trkpt lat="49.17939" lon="2.01528">
        <ele>263.3</ele>
        <time>2022-04-10T11:59:22Z</time>
      </trkpt>
      <trkpt lat="49.1794" lon="2.01523">
        <ele>263.4</ele>
        <time>2022-04-10T11:59:28Z</time>
      </trkpt>
      <trkpt lat="49.17941" lon="2.01517">
        <ele>263.2</ele>
        <time>2022-04-10T11:59:33Z</time>
      </trkpt>
      <trkpt lat="49.17942" lon="2.01507">
        <ele>262.9</ele>
        <time>2022-04-10T11:59:39Z</time>
      </trkpt>
      <trkpt lat="49.17941" lon="2.01491">
        <ele>262.6</ele>
        <time>2022-04-10T11:59:45Z</time>
      </trkpt>
      <trkpt lat="49.17941" lon="2.01478">
        <ele>262.4</ele>
        <time>2022-04-10T11:59:50Z</time>
      </trkpt>
      <trkpt lat="49.1794" lon="2.01468">
        <ele>261.9</ele>
        <time>2022-04-10T11:59:55Z</time>
      </trkpt>
      <trkpt lat="49.17938" lon="2.01458">
        <ele>261.2</ele>
        <time>2022-04-10T12:00:01Z</time>
      </trkpt>
      <trkpt lat="49.17936" lon="2.01449">
        <ele>260.7</ele>
        <time>2022-04-10T12:00:06Z</time>
      </trkpt>
      <trkpt lat="49.17934" lon="2.01432">
        <ele>260.4</ele>
        <time>2022-04-10T12:00:12Z</time>
      </trkpt>
      <trkpt lat="49.1793" lon="2.01431">
        <ele>260.3</ele>
        <time>2022-04-10T12:00:18Z</time>
      </trkpt>
      <trkpt lat="49.17926" lon="2.01437">
        <ele>260.4</ele>
        <time>2022-04-10T12:00:24Z</time>
      </trkpt>
      <trkpt lat="49.17922" lon="2.01444">
        <ele>260.7</ele>
        <time>2022-04-10T12:00:29Z</time>
      </trkpt>
      <trkpt lat="49.17918" lon="2.01445">
        <ele>260.7</ele>
        <time>2022-04-10T12:00:34Z</time>
      </trkpt>
      <trkpt lat="49.17909" lon="2.01451">
        <ele>260.6</ele>
        <time>2022-04-10T12:00:40Z</time>
      </trkpt>
      <trkpt lat="49.17903" lon="2.01455">
        <ele>260.5</ele>
        <time>2022-04-10T12:00:46Z</time>
      </trkpt>
      <trkpt lat="49.17894" lon="2.01464">
        <ele>260.1</ele>
        <time>2022-04-10T12:00:52Z</time>
      </trkpt>
      <trkpt lat="49.17885" lon="2.01471">
        <ele>259.8</ele>
        <time>2022-04-10T12:00:58Z</time>
      </trkpt>
      <trkpt lat="49.17882" lon="2.01477">
        <ele>259.4</ele>
        <time>2022-04-10T12:01:03Z</time>
      </trkpt>
      <trkpt lat="49.1788" lon="2.01485">
        <ele>258.9</ele>
        <time>2022-04-10T12:01:08Z</time>
      </trkpt>
      <trkpt lat="49.17875" lon="2.01496">
        <ele>258.2</ele>
        <time>2022-04-10T12:01:14Z</time>
      </trkpt>
      <trkpt lat="49.17869" lon="2.01506">
        <ele>257.4</ele>
        <time>2022-04-10T12:01:20Z</time>
      </trkpt>
      <trkpt lat="49.17865" lon="2.01515">
        <ele>256.7</ele>
        <time>2022-04-10T12:01:25Z</time>
      </trkpt>
      <trkpt lat="49.1786" lon="2.01523">
        <ele>256.3</ele>
        <time>2022-04-10T12:01:30Z</time>
      </trkpt>
      <trkpt lat="49.17854" lon="2.01537">
        <ele>256.4</ele>
        <time>2022-04-10T12:01:37Z</time>
      </trkpt>
      <trkpt lat="49.17854" lon="2.01546">
        <ele>256.7</ele>
        <time>2022-04-10T12:01:43Z</time>
      </trkpt>
      <trkpt lat="49.17851" lon="2.01556">
        <ele>257</ele>
        <time>2022-04-10T12:01:48Z</time>
      </trkpt>
      <trkpt lat="49.1785" lon="2.01566">
        <ele>257.1</ele>
        <time>2022-04-10T12:01:54Z</time>
      </trkpt>
      <trkpt lat="49.1785" lon="2.01579">
        <ele>256.9</ele>
        <time>2022-04-10T12:02:00Z</time>
      </trkpt>
      <trkpt lat="49.1785" lon="2.01584">
        <ele>256.5</ele>
        <time>2022-04-10T12:02:06Z</time>
      </trkpt>
      <trkpt lat="49.17849" lon="2.01593">
        <ele>255.8</ele>
        <time>2022-04-10T12:02:11Z</time>
      </trkpt>
      <trkpt lat="49.17849" lon="2.016">
        <ele>254.9</ele>
        <time>2022-04-10T12:02:16Z</time>
      </trkpt>
      <trkpt lat="49.1785" lon="2.01606">
        <ele>253.5</ele>
        <time>2022-04-10T12:02:22Z</time>
      </trkpt>
      <trkpt lat="49.17848" lon="2.01613">
        <ele>252.5</ele>
        <time>2022-04-10T12:02:27Z</time>
      </trkpt>
      <trkpt lat="49.17846" lon="2.0162">
        <ele>251.5</ele>
        <time>2022-04-10T12:02:33Z</time>
      </trkpt>
      <trkpt lat="49.17846" lon="2.01625">
        <ele>250.5</ele>
        <time>2022-04-10T12:02:39Z</time>
      </trkpt>
      <trkpt lat="49.17846" lon="2.01635">
        <ele>249.5</ele>
        <time>2022-04-10T12:02:45Z</time>
      </trkpt>
      <trkpt lat="49.17846" lon="2.01646">
        <ele>249.2</ele>
        <time>2022-04-10T12:02:50Z</time>
      </trkpt>
      <trkpt lat="49.17844" lon="2.01656">
        <ele>249.3</ele>
        <time>2022-04-10T12:02:56Z</time>
      </trkpt>
      <trkpt lat="49.17841" lon="2.01663">
        <ele>249.3</ele>
        <time>2022-04-10T12:03:02Z</time>
      </trkpt>
      <trkpt lat="49.17839" lon="2.01669">
        <ele>249.1</ele>
        <time>2022-04-10T12:03:08Z</time>
      </trkpt>
      <trkpt lat="49.17837" lon="2.01678">
        <ele>248.8</ele>
        <time>2022-04-10T12:03:13Z</time>
      </trkpt>
      <trkpt lat="49.17837" lon="2.01688">
        <ele>249.2</ele>
        <time>2022-04-10T12:03:19Z</time>
      </trkpt>
      <trkpt lat="49.17836" lon="2.01696">
        <ele>249.6</ele>
        <time>2022-04-10T12:03:25Z</time>
      </trkpt>
      <trkpt lat="49.17834" lon="2.01701">
        <ele>249.5</ele>
        <time>2022-04-10T12:03:30Z</time>
      </trkpt>
      <trkpt lat="49.17829" lon="2.01714">
        <ele>249</ele>
        <time>2022-04-10T12:03:36Z</time>
      </trkpt>
      <trkpt lat="49.17825" lon="2.01726">
        <ele>248.5</ele>
        <time>2022-04-10T12:03:41Z</time>
      </trkpt>
      <trkpt lat="49.17821" lon="2.01734">
        <ele>248.1</ele>
        <time>2022-04-10T12:03:47Z</time>
      </trkpt>
      <trkpt lat="49.17817" lon="2.01744">
        <ele>248.2</ele>
        <time>2022-04-10T12:03:53Z</time>
      </trkpt>
      <trkpt lat="49.17816" lon="2.01753">
        <ele>248</ele>
        <time>2022-04-10T12:03:58Z</time>
      </trkpt>
      <trkpt lat="49.17815" lon="2.01761">
        <ele>247.6</ele>
        <time>2022-04-10T12:04:04Z</time>
      </trkpt>
      <trkpt lat="49.17814" lon="2.01769">
        <ele>247.1</ele>
        <time>2022-04-10T12:04:09Z</time>
      </trkpt>
      <trkpt lat="49.17813" lon="2.01778">
        <ele>246.5</ele>
        <time>2022-04-10T12:04:15Z</time>
      </trkpt>
      <trkpt lat="49.17813" lon="2.01785">
        <ele>246.2</ele>
        <time>2022-04-10T12:04:20Z</time>
      </trkpt>
      <trkpt lat="49.17811" lon="2.01798">
        <ele>245.7</ele>
        <time>2022-04-10T12:04:26Z</time>
      </trkpt>
      <trkpt lat="49.1781" lon="2.01801">
        <ele>245.5</ele>
        <time>2022-04-10T12:04:32Z</time>
      </trkpt>
      <trkpt lat="49.17811" lon="2.01796">
        <ele>245.4</ele>
        <time>2022-04-10T12:04:38Z</time>
      </trkpt>
      <trkpt lat="49.17812" lon="2.01791">
        <ele>245.2</ele>
        <time>2022-04-10T12:04:44Z</time>
      </trkpt>
      <trkpt lat="49.17812" lon="2.0179">
        <ele>245.3</ele>
        <time>2022-04-10T12:04:50Z</time>
      </trkpt>
      <trkpt lat="49.17812" lon="2.01791">
        <ele>245.6</ele>
        <time>2022-04-10T12:04:55Z</time>
      </trkpt>
      <trkpt lat="49.17811" lon="2.01796">
        <ele>246.3</ele>
        <time>2022-04-10T12:05:00Z</time>
      </trkpt>
      <trkpt lat="49.1781" lon="2.01807">
        <ele>246.6</ele>
        <time>2022-04-10T12:05:05Z</time>
      </trkpt>
      <trkpt lat="49.1781" lon="2.01816">
        <ele>246.8</ele>
        <time>2022-04-10T12:05:10Z</time>
      </trkpt>
      <trkpt lat="49.17808" lon="2.01828">
        <ele>246.6</ele>
        <time>2022-04-10T12:05:16Z</time>
      </trkpt>
      <trkpt lat="49.17806" lon="2.01839">
        <ele>246.5</ele>
        <time>2022-04-10T12:05:22Z</time>
      </trkpt>
      <trkpt lat="49.17804" lon="2.01852">
        <ele>246.2</ele>
        <time>2022-04-10T12:05:28Z</time>
      </trkpt>
      <trkpt lat="49.17805" lon="2.01859">
        <ele>245.9</ele>
        <time>2022-04-10T12:05:33Z</time>
      </trkpt>
      <trkpt lat="49.17807" lon="2.0187">
        <ele>245.1</ele>
        <time>2022-04-10T12:05:39Z</time>
      </trkpt>
      <trkpt lat="49.17806" lon="2.01885">
        <ele>244.1</ele>
        <time>2022-04-10T12:05:46Z</time>
      </trkpt>
      <trkpt lat="49.17803" lon="2.019">
        <ele>243.3</ele>
        <time>2022-04-10T12:05:51Z</time>
      </trkpt>
      <trkpt lat="49.17799" lon="2.01909">
        <ele>242.8</ele>
        <time>2022-04-10T12:05:56Z</time>
      </trkpt>
      <trkpt lat="49.17795" lon="2.0191">
        <ele>242.2</ele>
        <time>2022-04-10T12:06:02Z</time>
      </trkpt>
      <trkpt lat="49.17788" lon="2.01916">
        <ele>242</ele>
        <time>2022-04-10T12:06:07Z</time>
      </trkpt>
      <trkpt lat="49.17783" lon="2.01923">
        <ele>241.9</ele>
        <time>2022-04-10T12:06:13Z</time>
      </trkpt>
      <trkpt lat="49.17777" lon="2.01929">
        <ele>241.9</ele>
        <time>2022-04-10T12:06:19Z</time>
      </trkpt>
      <trkpt lat="49.17772" lon="2.01936">
        <ele>241.8</ele>
        <time>2022-04-10T12:06:25Z</time>
      </trkpt>
      <trkpt lat="49.17769" lon="2.01942">
        <ele>241.3</ele>
        <time>2022-04-10T12:06:31Z</time>
      </trkpt>
      <trkpt lat="49.17768" lon="2.01945">
        <ele>240.9</ele>
        <time>2022-04-10T12:06:37Z</time>
      </trkpt>
      <trkpt lat="49.1776" lon="2.01954">
        <ele>240.4</ele>
        <time>2022-04-10T12:06:43Z</time>
      </trkpt>
      <trkpt lat="49.17758" lon="2.01958">
        <ele>240</ele>
        <time>2022-04-10T12:06:48Z</time>
      </trkpt>
      <trkpt lat="49.17755" lon="2.01965">
        <ele>239.5</ele>
        <time>2022-04-10T12:06:54Z</time>
      </trkpt>
      <trkpt lat="49.17748" lon="2.0197">
        <ele>239.2</ele>
        <time>2022-04-10T12:06:59Z</time>
      </trkpt>
      <trkpt lat="49.17742" lon="2.01978">
        <ele>238.9</ele>
        <time>2022-04-10T12:07:04Z</time>
      </trkpt>
      <trkpt lat="49.17742" lon="2.01981">
        <ele>238.2</ele>
        <time>2022-04-10T12:07:10Z</time>
      </trkpt>
      <trkpt lat="49.17742" lon="2.01981">
        <ele>237.9</ele>
        <time>2022-04-10T12:07:16Z</time>
      </trkpt>
      <trkpt lat="49.17741" lon="2.0198">
        <ele>237.5</ele>
        <time>2022-04-10T12:07:21Z</time>
      </trkpt>
      <trkpt lat="49.17738" lon="2.01979">
        <ele>236.9</ele>
        <time>2022-04-10T12:07:27Z</time>
      </trkpt>
      <trkpt lat="49.17738" lon="2.01978">
        <ele>236.8</ele>
        <time>2022-04-10T12:07:32Z</time>
      </trkpt>
      <trkpt lat="49.17738" lon="2.01978">
        <ele>236.8</ele>
        <time>2022-04-10T12:07:37Z</time>
      </trkpt>
      <trkpt lat="49.17738" lon="2.01977">
        <ele>236.6</ele>
        <time>2022-04-10T12:07:42Z</time>
      </trkpt>
      <trkpt lat="49.17735" lon="2.01971">
        <ele>236.3</ele>
        <time>2022-04-10T12:07:48Z</time>
      </trkpt>
      <trkpt lat="49.17728" lon="2.01961">
        <ele>236</ele>
        <time>2022-04-10T12:07:54Z</time>
      </trkpt>
      <trkpt lat="49.17723" lon="2.0195">
        <ele>235.7</ele>
        <time>2022-04-10T12:08:00Z</time>
      </trkpt>
      <trkpt lat="49.1772" lon="2.0194">
        <ele>235.5</ele>
        <time>2022-04-10T12:08:05Z</time>
      </trkpt>
      <trkpt lat="49.17717" lon="2.01928">
        <ele>235.2</ele>
        <time>2022-04-10T12:08:11Z</time>
      </trkpt>
      <trkpt lat="49.17714" lon="2.01919">
        <ele>234.8</ele>
        <time>2022-04-10T12:08:16Z</time>
      </trkpt>
      <trkpt lat="49.17712" lon="2.01908">
        <ele>234.3</ele>
        <time>2022-04-10T12:08:22Z</time>
      </trkpt>
      <trkpt lat="49.17711" lon="2.01899">
        <ele>233.9</ele>
        <time>2022-04-10T12:08:28Z</time>
      </trkpt>
      <trkpt lat="49.17709" lon="2.0189">
        <ele>233.6</ele>
        <time>2022-04-10T12:08:33Z</time>
      </trkpt>
      <trkpt lat="49.17706" lon="2.01881">
        <ele>232.8</ele>
        <time>2022-04-10T12:08:39Z</time>
      </trkpt>
      <trkpt lat="49.17703" lon="2.01872">
        <ele>231.9</ele>
        <time>2022-04-10T12:08:44Z</time>
      </trkpt>
      <trkpt lat="49.177" lon="2.01862">
        <ele>231</ele>
        <time>2022-04-10T12:08:50Z</time>
      </trkpt>
      <trkpt lat="49.17697" lon="2.01852">
        <ele>229.7</ele>
        <time>2022-04-10T12:08:56Z</time>
      </trkpt>
      <trkpt lat="49.17693" lon="2.01842">
        <ele>228.2</ele>
        <time>2022-04-10T12:09:02Z</time>
      </trkpt>
      <trkpt lat="49.1769" lon="2.01834">
        <ele>227.1</ele>
        <time>2022-04-10T12:09:07Z</time>
      </trkpt>
      <trkpt lat="49.17687" lon="2.01826">
        <ele>226</ele>
        <time>2022-04-10T12:09:12Z</time>
      </trkpt>
      <trkpt lat="49.17685" lon="2.01815">
        <ele>224.8</ele>
        <time>2022-04-10T12:09:18Z</time>
      </trkpt>
      <trkpt lat="49.17683" lon="2.01807">
        <ele>223.8</ele>
        <time>2022-04-10T12:09:23Z</time>
      </trkpt>
      <trkpt lat="49.17682" lon="2.01797">
        <ele>222.8</ele>
        <time>2022-04-10T12:09:28Z</time>
      </trkpt>
      <trkpt lat="49.17681" lon="2.01787">
        <ele>221.8</ele>
        <time>2022-04-10T12:09:33Z</time>
      </trkpt>
      <trkpt lat="49.17679" lon="2.01778">
        <ele>221</ele>
        <time>2022-04-10T12:09:39Z</time>
      </trkpt>
      <trkpt lat="49.17677" lon="2.01766">
        <ele>219.9</ele>
        <time>2022-04-10T12:09:45Z</time>
      </trkpt>
      <trkpt lat="49.17679" lon="2.01752">
        <ele>218.6</ele>
        <time>2022-04-10T12:09:51Z</time>
      </trkpt>
      <trkpt lat="49.1768" lon="2.01739">
        <ele>217.6</ele>
        <time>2022-04-10T12:09:56Z</time>
      </trkpt>
      <trkpt lat="49.17682" lon="2.01728">
        <ele>216.5</ele>
        <time>2022-04-10T12:10:02Z</time>
      </trkpt>
      <trkpt lat="49.17684" lon="2.01719">
        <ele>215.9</ele>
        <time>2022-04-10T12:10:07Z</time>
      </trkpt>
      <trkpt lat="49.17687" lon="2.01708">
        <ele>215.3</ele>
        <time>2022-04-10T12:10:13Z</time>
      </trkpt>
      <trkpt lat="49.17689" lon="2.01694">
        <ele>214.8</ele>
        <time>2022-04-10T12:10:19Z</time>
      </trkpt>
      <trkpt lat="49.1769" lon="2.01682">
        <ele>214.4</ele>
        <time>2022-04-10T12:10:25Z</time>
      </trkpt>
      <trkpt lat="49.17689" lon="2.0167">
        <ele>214</ele>
        <time>2022-04-10T12:10:31Z</time>
      </trkpt>
      <trkpt lat="49.17687" lon="2.0166">
        <ele>213.6</ele>
        <time>2022-04-10T12:10:37Z</time>
      </trkpt>
      <trkpt lat="49.17684" lon="2.01648">
        <ele>213.1</ele>
        <time>2022-04-10T12:10:43Z</time>
      </trkpt>
      <trkpt lat="49.17682" lon="2.01636">
        <ele>212.5</ele>
        <time>2022-04-10T12:10:48Z</time>
      </trkpt>
      <trkpt lat="49.1768" lon="2.01625">
        <ele>212</ele>
        <time>2022-04-10T12:10:54Z</time>
      </trkpt>
      <trkpt lat="49.17677" lon="2.01615">
        <ele>212</ele>
        <time>2022-04-10T12:11:00Z</time>
      </trkpt>
      <trkpt lat="49.17674" lon="2.01604">
        <ele>212.7</ele>
        <time>2022-04-10T12:11:06Z</time>
      </trkpt>
      <trkpt lat="49.17671" lon="2.01592">
        <ele>213.7</ele>
        <time>2022-04-10T12:11:12Z</time>
      </trkpt>
      <trkpt lat="49.17668" lon="2.01579">
        <ele>214.4</ele>
        <time>2022-04-10T12:11:18Z</time>
      </trkpt>
      <trkpt lat="49.17666" lon="2.01566">
        <ele>215.2</ele>
        <time>2022-04-10T12:11:24Z</time>
      </trkpt>
      <trkpt lat="49.17664" lon="2.01555">
        <ele>215.9</ele>
        <time>2022-04-10T12:11:30Z</time>
      </trkpt>
      <trkpt lat="49.17663" lon="2.01546">
        <ele>216.3</ele>
        <time>2022-04-10T12:11:35Z</time>
      </trkpt>
      <trkpt lat="49.17662" lon="2.01534">
        <ele>216.7</ele>
        <time>2022-04-10T12:11:41Z</time>
      </trkpt>
      <trkpt lat="49.17661" lon="2.01523">
        <ele>216.9</ele>
        <time>2022-04-10T12:11:46Z</time>
      </trkpt>
      <trkpt lat="49.1766" lon="2.01513">
        <ele>217</ele>
        <time>2022-04-10T12:11:51Z</time>
      </trkpt>
      <trkpt lat="49.17659" lon="2.01502">
        <ele>217</ele>
        <time>2022-04-10T12:11:57Z</time>
      </trkpt>
      <trkpt lat="49.17658" lon="2.0149">
        <ele>217.1</ele>
        <time>2022-04-10T12:12:03Z</time>
      </trkpt>
      <trkpt lat="49.17656" lon="2.01479">
        <ele>217.3</ele>
        <time>2022-04-10T12:12:08Z</time>
      </trkpt>
      <trkpt lat="49.17654" lon="2.01467">
        <ele>217.5</ele>
        <time>2022-04-10T12:12:14Z</time>
      </trkpt>
      <trkpt lat="49.17651" lon="2.01455">
        <ele>217.7</ele>
        <time>2022-04-10T12:12:20Z</time>
      </trkpt>
      <trkpt lat="49.17649" lon="2.01443">
        <ele>217.8</ele>
        <time>2022-04-10T12:12:26Z</time>
      </trkpt>
      <trkpt lat="49.17647" lon="2.01431">
        <ele>218.2</ele>
        <time>2022-04-10T12:12:31Z</time>
      </trkpt>
      <trkpt lat="49.17646" lon="2.01418">
        <ele>219.1</ele>
        <time>2022-04-10T12:12:37Z</time>
      </trkpt>
      <trkpt lat="49.17643" lon="2.01409">
        <ele>219.8</ele>
        <time>2022-04-10T12:12:42Z</time>
      </trkpt>
      <trkpt lat="49.17639" lon="2.01398">
        <ele>220.1</ele>
        <time>2022-04-10T12:12:48Z</time>
      </trkpt>
      <trkpt lat="49.17634" lon="2.01388">
        <ele>220.3</ele>
        <time>2022-04-10T12:12:53Z</time>
      </trkpt>
      <trkpt lat="49.17629" lon="2.01376">
        <ele>220.4</ele>
        <time>2022-04-10T12:12:59Z</time>
      </trkpt>
      <trkpt lat="49.17625" lon="2.01367">
        <ele>220.4</ele>
        <time>2022-04-10T12:13:04Z</time>
      </trkpt>
      <trkpt lat="49.17622" lon="2.01358">
        <ele>220.4</ele>
        <time>2022-04-10T12:13:09Z</time>
      </trkpt>
      <trkpt lat="49.17618" lon="2.01348">
        <ele>220.3</ele>
        <time>2022-04-10T12:13:15Z</time>
      </trkpt>
      <trkpt lat="49.17615" lon="2.01338">
        <ele>220.3</ele>
        <time>2022-04-10T12:13:20Z</time>
      </trkpt>
      <trkpt lat="49.17611" lon="2.01327">
        <ele>220.1</ele>
        <time>2022-04-10T12:13:26Z</time>
      </trkpt>
      <trkpt lat="49.17608" lon="2.01317">
        <ele>219.9</ele>
        <time>2022-04-10T12:13:31Z</time>
      </trkpt>
      <trkpt lat="49.17605" lon="2.01305">
        <ele>219.7</ele>
        <time>2022-04-10T12:13:36Z</time>
      </trkpt>
      <trkpt lat="49.17603" lon="2.01292">
        <ele>219.3</ele>
        <time>2022-04-10T12:13:42Z</time>
      </trkpt>
      <trkpt lat="49.17602" lon="2.01279">
        <ele>218.9</ele>
        <time>2022-04-10T12:13:48Z</time>
      </trkpt>
      <trkpt lat="49.17601" lon="2.01269">
        <ele>218.6</ele>
        <time>2022-04-10T12:13:53Z</time>
      </trkpt>
      <trkpt lat="49.176" lon="2.01257">
        <ele>218.3</ele>
        <time>2022-04-10T12:13:58Z</time>
      </trkpt>
      <trkpt lat="49.17599" lon="2.01242">
        <ele>218.1</ele>
        <time>2022-04-10T12:14:04Z</time>
      </trkpt>
      <trkpt lat="49.17598" lon="2.01232">
        <ele>218.3</ele>
        <time>2022-04-10T12:14:09Z</time>
      </trkpt>
      <trkpt lat="49.17596" lon="2.01223">
        <ele>218.3</ele>
        <time>2022-04-10T12:14:15Z</time>
      </trkpt>
      <trkpt lat="49.17592" lon="2.01216">
        <ele>218</ele>
        <time>2022-04-10T12:14:20Z</time>
      </trkpt>
      <trkpt lat="49.17589" lon="2.01208">
        <ele>217.2</ele>
        <time>2022-04-10T12:14:26Z</time>
      </trkpt>
      <trkpt lat="49.17584" lon="2.01203">
        <ele>216.5</ele>
        <time>2022-04-10T12:14:31Z</time>
      </trkpt>
      <trkpt lat="49.17578" lon="2.01196">
        <ele>215.7</ele>
        <time>2022-04-10T12:14:37Z</time>
      </trkpt>
      <trkpt lat="49.1757" lon="2.01189">
        <ele>215.6</ele>
        <time>2022-04-10T12:14:43Z</time>
      </trkpt>
      <trkpt lat="49.17562" lon="2.01187">
        <ele>215.7</ele>
        <time>2022-04-10T12:14:48Z</time>
      </trkpt>
      <trkpt lat="49.17553" lon="2.01187">
        <ele>215.9</ele>
        <time>2022-04-10T12:14:54Z</time>
      </trkpt>
      <trkpt lat="49.17545" lon="2.01187">
        <ele>216.3</ele>
        <time>2022-04-10T12:15:00Z</time>
      </trkpt>
      <trkpt lat="49.17538" lon="2.01187">
        <ele>216.8</ele>
        <time>2022-04-10T12:15:05Z</time>
      </trkpt>
      <trkpt lat="49.17529" lon="2.01185">
        <ele>217.5</ele>
        <time>2022-04-10T12:15:11Z</time>
      </trkpt>
      <trkpt lat="49.1752" lon="2.01184">
        <ele>218.3</ele>
        <time>2022-04-10T12:15:17Z</time>
      </trkpt>
      <trkpt lat="49.17512" lon="2.01183">
        <ele>218.9</ele>
        <time>2022-04-10T12:15:22Z</time>
      </trkpt>
      <trkpt lat="49.17504" lon="2.0118">
        <ele>219.6</ele>
        <time>2022-04-10T12:15:28Z</time>
      </trkpt>
      <trkpt lat="49.17499" lon="2.01177">
        <ele>220</ele>
        <time>2022-04-10T12:15:33Z</time>
      </trkpt>
      <trkpt lat="49.17492" lon="2.01172">
        <ele>220.5</ele>
        <time>2022-04-10T12:15:39Z</time>
      </trkpt>
      <trkpt lat="49.17487" lon="2.01165">
        <ele>221</ele>
        <time>2022-04-10T12:15:44Z</time>
      </trkpt>
      <trkpt lat="49.1748" lon="2.01155">
        <ele>221.7</ele>
        <time>2022-04-10T12:15:50Z</time>
      </trkpt>
      <trkpt lat="49.17475" lon="2.01146">
        <ele>222</ele>
        <time>2022-04-10T12:15:56Z</time>
      </trkpt>
      <trkpt lat="49.17468" lon="2.01139">
        <ele>222.3</ele>
        <time>2022-04-10T12:16:02Z</time>
      </trkpt>
      <trkpt lat="49.1746" lon="2.01134">
        <ele>222.4</ele>
        <time>2022-04-10T12:16:08Z</time>
      </trkpt>
      <trkpt lat="49.17453" lon="2.01131">
        <ele>222.7</ele>
        <time>2022-04-10T12:16:13Z</time>
      </trkpt>
      <trkpt lat="49.17445" lon="2.01128">
        <ele>223.1</ele>
        <time>2022-04-10T12:16:19Z</time>
      </trkpt>
      <trkpt lat="49.17439" lon="2.01125">
        <ele>223.7</ele>
        <time>2022-04-10T12:16:24Z</time>
      </trkpt>
      <trkpt lat="49.17434" lon="2.0112">
        <ele>224.3</ele>
        <time>2022-04-10T12:16:30Z</time>
      </trkpt>
      <trkpt lat="49.17429" lon="2.01114">
        <ele>224.8</ele>
        <time>2022-04-10T12:16:35Z</time>
      </trkpt>
      <trkpt lat="49.17424" lon="2.01106">
        <ele>225.6</ele>
        <time>2022-04-10T12:16:41Z</time>
      </trkpt>
      <trkpt lat="49.17419" lon="2.011">
        <ele>226.6</ele>
        <time>2022-04-10T12:16:46Z</time>
      </trkpt>
      <trkpt lat="49.17414" lon="2.01091">
        <ele>227.8</ele>
        <time>2022-04-10T12:16:52Z</time>
      </trkpt>
      <trkpt lat="49.17411" lon="2.01083">
        <ele>228.5</ele>
        <time>2022-04-10T12:16:57Z</time>
      </trkpt>
      <trkpt lat="49.17408" lon="2.01073">
        <ele>228.7</ele>
        <time>2022-04-10T12:17:02Z</time>
      </trkpt>
      <trkpt lat="49.17407" lon="2.01061">
        <ele>228.8</ele>
        <time>2022-04-10T12:17:08Z</time>
      </trkpt>
      <trkpt lat="49.17407" lon="2.01051">
        <ele>229.1</ele>
        <time>2022-04-10T12:17:13Z</time>
      </trkpt>
      <trkpt lat="49.17409" lon="2.01039">
        <ele>229.4</ele>
        <time>2022-04-10T12:17:19Z</time>
      </trkpt>
      <trkpt lat="49.17412" lon="2.01028">
        <ele>229.6</ele>
        <time>2022-04-10T12:17:24Z</time>
      </trkpt>
      <trkpt lat="49.17414" lon="2.0102">
        <ele>229.5</ele>
        <time>2022-04-10T12:17:29Z</time>
      </trkpt>
      <trkpt lat="49.17415" lon="2.0101">
        <ele>229</ele>
        <time>2022-04-10T12:17:35Z</time>
      </trkpt>
      <trkpt lat="49.17414" lon="2.01">
        <ele>228.7</ele>
        <time>2022-04-10T12:17:40Z</time>
      </trkpt>
      <trkpt lat="49.17413" lon="2.00992">
        <ele>228.5</ele>
        <time>2022-04-10T12:17:45Z</time>
      </trkpt>
      <trkpt lat="49.17411" lon="2.00981">
        <ele>228</ele>
        <time>2022-04-10T12:17:51Z</time>
      </trkpt>
      <trkpt lat="49.17408" lon="2.00971">
        <ele>227.1</ele>
        <time>2022-04-10T12:17:57Z</time>
      </trkpt>
      <trkpt lat="49.17403" lon="2.00962">
        <ele>226.1</ele>
        <time>2022-04-10T12:18:03Z</time>
      </trkpt>
      <trkpt lat="49.17398" lon="2.00954">
        <ele>225.5</ele>
        <time>2022-04-10T12:18:08Z</time>
      </trkpt>
      <trkpt lat="49.17392" lon="2.00942">
        <ele>225.2</ele>
        <time>2022-04-10T12:18:14Z</time>
      </trkpt>
      <trkpt lat="49.17385" lon="2.00932">
        <ele>225.2</ele>
        <time>2022-04-10T12:18:20Z</time>
      </trkpt>
      <trkpt lat="49.17378" lon="2.00923">
        <ele>225.4</ele>
        <time>2022-04-10T12:18:26Z</time>
      </trkpt>
      <trkpt lat="49.17373" lon="2.00915">
        <ele>225.8</ele>
        <time>2022-04-10T12:18:31Z</time>
      </trkpt>
      <trkpt lat="49.17367" lon="2.00904">
        <ele>226.2</ele>
        <time>2022-04-10T12:18:37Z</time>
      </trkpt>
      <trkpt lat="49.1736" lon="2.00895">
        <ele>226.7</ele>
        <time>2022-04-10T12:18:43Z</time>
      </trkpt>
      <trkpt lat="49.17356" lon="2.00888">
        <ele>227.2</ele>
        <time>2022-04-10T12:18:48Z</time>
      </trkpt>
      <trkpt lat="49.17352" lon="2.00882">
        <ele>228.1</ele>
        <time>2022-04-10T12:18:54Z</time>
      </trkpt>
      <trkpt lat="49.17346" lon="2.00876">
        <ele>229</ele>
        <time>2022-04-10T12:19:00Z</time>
      </trkpt>
      <trkpt lat="49.17341" lon="2.00868">
        <ele>229.7</ele>
        <time>2022-04-10T12:19:06Z</time>
      </trkpt>
      <trkpt lat="49.17335" lon="2.0086">
        <ele>230.4</ele>
        <time>2022-04-10T12:19:12Z</time>
      </trkpt>
      <trkpt lat="49.17332" lon="2.00853">
        <ele>231.3</ele>
        <time>2022-04-10T12:19:18Z</time>
      </trkpt>
      <trkpt lat="49.17328" lon="2.00846">
        <ele>232.2</ele>
        <time>2022-04-10T12:19:24Z</time>
      </trkpt>
      <trkpt lat="49.17324" lon="2.00839">
        <ele>233</ele>
        <time>2022-04-10T12:19:29Z</time>
      </trkpt>
      <trkpt lat="49.17319" lon="2.0083">
        <ele>234</ele>
        <time>2022-04-10T12:19:35Z</time>
      </trkpt>
      <trkpt lat="49.17315" lon="2.00823">
        <ele>234.7</ele>
        <time>2022-04-10T12:19:40Z</time>
      </trkpt>
      <trkpt lat="49.17308" lon="2.00816">
        <ele>235.4</ele>
        <time>2022-04-10T12:19:46Z</time>
      </trkpt>
      <trkpt lat="49.17302" lon="2.00809">
        <ele>236.3</ele>
        <time>2022-04-10T12:19:53Z</time>
      </trkpt>
      <trkpt lat="49.17296" lon="2.00804">
        <ele>236.8</ele>
        <time>2022-04-10T12:19:59Z</time>
      </trkpt>
      <trkpt lat="49.17293" lon="2.00801">
        <ele>237</ele>
        <time>2022-04-10T12:20:05Z</time>
      </trkpt>
      <trkpt lat="49.17289" lon="2.00798">
        <ele>237.3</ele>
        <time>2022-04-10T12:20:10Z</time>
      </trkpt>
      <trkpt lat="49.17285" lon="2.00792">
        <ele>237.7</ele>
        <time>2022-04-10T12:20:16Z</time>
      </trkpt>
      <trkpt lat="49.17282" lon="2.00787">
        <ele>237.8</ele>
        <time>2022-04-10T12:20:22Z</time>
      </trkpt>
      <trkpt lat="49.17276" lon="2.00778">
        <ele>237.6</ele>
        <time>2022-04-10T12:20:27Z</time>
      </trkpt>
      <trkpt lat="49.17271" lon="2.00769">
        <ele>237.2</ele>
        <time>2022-04-10T12:20:32Z</time>
      </trkpt>
      <trkpt lat="49.17266" lon="2.0076">
        <ele>236.6</ele>
        <time>2022-04-10T12:20:37Z</time>
      </trkpt>
      <trkpt lat="49.17262" lon="2.00753">
        <ele>236.1</ele>
        <time>2022-04-10T12:20:42Z</time>
      </trkpt>
      <trkpt lat="49.17257" lon="2.00745">
        <ele>235.5</ele>
        <time>2022-04-10T12:20:48Z</time>
      </trkpt>
      <trkpt lat="49.17253" lon="2.00737">
        <ele>234.9</ele>
        <time>2022-04-10T12:20:53Z</time>
      </trkpt>
      <trkpt lat="49.17247" lon="2.00728">
        <ele>234.1</ele>
        <time>2022-04-10T12:20:59Z</time>
      </trkpt>
      <trkpt lat="49.17242" lon="2.00719">
        <ele>233</ele>
        <time>2022-04-10T12:21:05Z</time>
      </trkpt>
      <trkpt lat="49.17239" lon="2.00712">
        <ele>232.1</ele>
        <time>2022-04-10T12:21:10Z</time>
      </trkpt>
      <trkpt lat="49.17233" lon="2.00704">
        <ele>231.2</ele>
        <time>2022-04-10T12:21:16Z</time>
      </trkpt>
      <trkpt lat="49.17226" lon="2.00696">
        <ele>230.3</ele>
        <time>2022-04-10T12:21:22Z</time>
      </trkpt>
      <trkpt lat="49.17221" lon="2.00689">
        <ele>229.7</ele>
        <time>2022-04-10T12:21:27Z</time>
      </trkpt>
      <trkpt lat="49.17217" lon="2.00682">
        <ele>229.3</ele>
        <time>2022-04-10T12:21:32Z</time>
      </trkpt>
      <trkpt lat="49.17214" lon="2.00674">
        <ele>229.2</ele>
        <time>2022-04-10T12:21:37Z</time>
      </trkpt>
      <trkpt lat="49.1721" lon="2.00665">
        <ele>229</ele>
        <time>2022-04-10T12:21:43Z</time>
      </trkpt>
      <trkpt lat="49.17204" lon="2.00657">
        <ele>229</ele>
        <time>2022-04-10T12:21:49Z</time>
      </trkpt>
      <trkpt lat="49.172" lon="2.0065">
        <ele>229.1</ele>
        <time>2022-04-10T12:21:54Z</time>
      </trkpt>
      <trkpt lat="49.17195" lon="2.00643">
        <ele>229.1</ele>
        <time>2022-04-10T12:22:00Z</time>
      </trkpt>
      <trkpt lat="49.1719" lon="2.00637">
        <ele>228.7</ele>
        <time>2022-04-10T12:22:05Z</time>
      </trkpt>
      <trkpt lat="49.17183" lon="2.00628">
        <ele>228.3</ele>
        <time>2022-04-10T12:22:11Z</time>
      </trkpt>
      <trkpt lat="49.17179" lon="2.0062">
        <ele>228.1</ele>
        <time>2022-04-10T12:22:16Z</time>
      </trkpt>
      <trkpt lat="49.17175" lon="2.00611">
        <ele>227.8</ele>
        <time>2022-04-10T12:22:21Z</time>
      </trkpt>
      <trkpt lat="49.17172" lon="2.00603">
        <ele>227.5</ele>
        <time>2022-04-10T12:22:26Z</time>
      </trkpt>
      <trkpt lat="49.17166" lon="2.00596">
        <ele>227.1</ele>
        <time>2022-04-10T12:22:32Z</time>
      </trkpt>
      <trkpt lat="49.17159" lon="2.00592">
        <ele>226.8</ele>
        <time>2022-04-10T12:22:37Z</time>
      </trkpt>
      <trkpt lat="49.17152" lon="2.00586">
        <ele>226.4</ele>
        <time>2022-04-10T12:22:42Z</time>
      </trkpt>
      <trkpt lat="49.17144" lon="2.0058">
        <ele>225.9</ele>
        <time>2022-04-10T12:22:48Z</time>
      </trkpt>
      <trkpt lat="49.17138" lon="2.00575">
        <ele>225.3</ele>
        <time>2022-04-10T12:22:53Z</time>
      </trkpt>
      <trkpt lat="49.17131" lon="2.00567">
        <ele>224.8</ele>
        <time>2022-04-10T12:22:59Z</time>
      </trkpt>
      <trkpt lat="49.17127" lon="2.0056">
        <ele>224.3</ele>
        <time>2022-04-10T12:23:04Z</time>
      </trkpt>
      <trkpt lat="49.17121" lon="2.00551">
        <ele>223.3</ele>
        <time>2022-04-10T12:23:10Z</time>
      </trkpt>
      <trkpt lat="49.17117" lon="2.00542">
        <ele>222.8</ele>
        <time>2022-04-10T12:23:15Z</time>
      </trkpt>
      <trkpt lat="49.17113" lon="2.00533">
        <ele>222.3</ele>
        <time>2022-04-10T12:23:21Z</time>
      </trkpt>
      <trkpt lat="49.17108" lon="2.00525">
        <ele>221.6</ele>
        <time>2022-04-10T12:23:27Z</time>
      </trkpt>
      <trkpt lat="49.17103" lon="2.00513">
        <ele>220.4</ele>
        <time>2022-04-10T12:23:33Z</time>
      </trkpt>
      <trkpt lat="49.17101" lon="2.00503">
        <ele>219.5</ele>
        <time>2022-04-10T12:23:38Z</time>
      </trkpt>
      <trkpt lat="49.171" lon="2.0049">
        <ele>218.4</ele>
        <time>2022-04-10T12:23:44Z</time>
      </trkpt>
      <trkpt lat="49.171" lon="2.00478">
        <ele>217.4</ele>
        <time>2022-04-10T12:23:50Z</time>
      </trkpt>
      <trkpt lat="49.17102" lon="2.00466">
        <ele>216.4</ele>
        <time>2022-04-10T12:23:56Z</time>
      </trkpt>
      <trkpt lat="49.17105" lon="2.00453">
        <ele>215.2</ele>
        <time>2022-04-10T12:24:02Z</time>
      </trkpt>
      <trkpt lat="49.17107" lon="2.00443">
        <ele>214.1</ele>
        <time>2022-04-10T12:24:07Z</time>
      </trkpt>
      <trkpt lat="49.17108" lon="2.00431">
        <ele>212.7</ele>
        <time>2022-04-10T12:24:12Z</time>
      </trkpt>
      <trkpt lat="49.17109" lon="2.0042">
        <ele>211.2</ele>
        <time>2022-04-10T12:24:18Z</time>
      </trkpt>
      <trkpt lat="49.17109" lon="2.0041">
        <ele>210.1</ele>
        <time>2022-04-10T12:24:23Z</time>
      </trkpt>
      <trkpt lat="49.17109" lon="2.00403">
        <ele>209.5</ele>
        <time>2022-04-10T12:24:29Z</time>
      </trkpt>
      <trkpt lat="49.17109" lon="2.00399">
        <ele>209.3</ele>
        <time>2022-04-10T12:24:35Z</time>
      </trkpt>
      <trkpt lat="49.17109" lon="2.00392">
        <ele>208.6</ele>
        <time>2022-04-10T12:24:40Z</time>
      </trkpt>
      <trkpt lat="49.1711" lon="2.00381">
        <ele>208.1</ele>
        <time>2022-04-10T12:24:46Z</time>
      </trkpt>
      <trkpt lat="49.1711" lon="2.00371">
        <ele>207.7</ele>
        <time>2022-04-10T12:24:51Z</time>
      </trkpt>
      <trkpt lat="49.17109" lon="2.0036">
        <ele>207.6</ele>
        <time>2022-04-10T12:24:57Z</time>
      </trkpt>
      <trkpt lat="49.17109" lon="2.0035">
        <ele>207.6</ele>
        <time>2022-04-10T12:25:02Z</time>
      </trkpt>
      <trkpt lat="49.17108" lon="2.00339">
        <ele>207.6</ele>
        <time>2022-04-10T12:25:07Z</time>
      </trkpt>
      <trkpt lat="49.17108" lon="2.00325">
        <ele>207.4</ele>
        <time>2022-04-10T12:25:13Z</time>
      </trkpt>
      <trkpt lat="49.17107" lon="2.00313">
        <ele>207.4</ele>
        <time>2022-04-10T12:25:19Z</time>
      </trkpt>
      <trkpt lat="49.17106" lon="2.00304">
        <ele>207.6</ele>
        <time>2022-04-10T12:25:25Z</time>
      </trkpt>
      <trkpt lat="49.17104" lon="2.00306">
        <ele>207.4</ele>
        <time>2022-04-10T12:25:31Z</time>
      </trkpt>
      <trkpt lat="49.17098" lon="2.0031">
        <ele>207.1</ele>
        <time>2022-04-10T12:25:37Z</time>
      </trkpt>
      <trkpt lat="49.17089" lon="2.00317">
        <ele>206.9</ele>
        <time>2022-04-10T12:25:43Z</time>
      </trkpt>
      <trkpt lat="49.17082" lon="2.00324">
        <ele>206.5</ele>
        <time>2022-04-10T12:25:49Z</time>
      </trkpt>
      <trkpt lat="49.17075" lon="2.0033">
        <ele>205.9</ele>
        <time>2022-04-10T12:25:55Z</time>
      </trkpt>
      <trkpt lat="49.17069" lon="2.00335">
        <ele>205.4</ele>
        <time>2022-04-10T12:26:00Z</time>
      </trkpt>
      <trkpt lat="49.17062" lon="2.00339">
        <ele>204.9</ele>
        <time>2022-04-10T12:26:05Z</time>
      </trkpt>
      <trkpt lat="49.17055" lon="2.00343">
        <ele>204.7</ele>
        <time>2022-04-10T12:26:11Z</time>
      </trkpt>
      <trkpt lat="49.17049" lon="2.00348">
        <ele>204.3</ele>
        <time>2022-04-10T12:26:16Z</time>
      </trkpt>
      <trkpt lat="49.1704" lon="2.00356">
        <ele>204</ele>
        <time>2022-04-10T12:26:22Z</time>
      </trkpt>
      <trkpt lat="49.17034" lon="2.00362">
        <ele>203.7</ele>
        <time>2022-04-10T12:26:27Z</time>
      </trkpt>
      <trkpt lat="49.17026" lon="2.00368">
        <ele>203.6</ele>
        <time>2022-04-10T12:26:33Z</time>
      </trkpt>
      <trkpt lat="49.17019" lon="2.00374">
        <ele>203.3</ele>
        <time>2022-04-10T12:26:39Z</time>
      </trkpt>
      <trkpt lat="49.17013" lon="2.00379">
        <ele>202.8</ele>
        <time>2022-04-10T12:26:44Z</time>
      </trkpt>
      <trkpt lat="49.17006" lon="2.00389">
        <ele>202.5</ele>
        <time>2022-04-10T12:26:50Z</time>
      </trkpt>
      <trkpt lat="49.16998" lon="2.00396">
        <ele>202.2</ele>
        <time>2022-04-10T12:26:56Z</time>
      </trkpt>
      <trkpt lat="49.16992" lon="2.00403">
        <ele>202</ele>
        <time>2022-04-10T12:27:02Z</time>
      </trkpt>
      <trkpt lat="49.16985" lon="2.00409">
        <ele>201.7</ele>
        <time>2022-04-10T12:27:07Z</time>
      </trkpt>
      <trkpt lat="49.16978" lon="2.00415">
        <ele>201.3</ele>
        <time>2022-04-10T12:27:12Z</time>
      </trkpt>
      <trkpt lat="49.16966" lon="2.00423">
        <ele>200.6</ele>
        <time>2022-04-10T12:27:18Z</time>
      </trkpt>
      <trkpt lat="49.16959" lon="2.0043">
        <ele>200.4</ele>
        <time>2022-04-10T12:27:24Z</time>
      </trkpt>
      <trkpt lat="49.16954" lon="2.00437">
        <ele>200</ele>
        <time>2022-04-10T12:27:30Z</time>
      </trkpt>
      <trkpt lat="49.16949" lon="2.00443">
        <ele>199.5</ele>
        <time>2022-04-10T12:27:35Z</time>
      </trkpt>
      <trkpt lat="49.16942" lon="2.00448">
        <ele>199.2</ele>
        <time>2022-04-10T12:27:40Z</time>
      </trkpt>
      <trkpt lat="49.16934" lon="2.00451">
        <ele>198.9</ele>
        <time>2022-04-10T12:27:46Z</time>
      </trkpt>
      <trkpt lat="49.16928" lon="2.00455">
        <ele>198.6</ele>
        <time>2022-04-10T12:27:51Z</time>
      </trkpt>
      <trkpt lat="49.16924" lon="2.00457">
        <ele>198.5</ele>
        <time>2022-04-10T12:27:56Z</time>
      </trkpt>
      <trkpt lat="49.16918" lon="2.00462">
        <ele>198.4</ele>
        <time>2022-04-10T12:28:02Z</time>
      </trkpt>
      <trkpt lat="49.16911" lon="2.00467">
        <ele>198.2</ele>
        <time>2022-04-10T12:28:07Z</time>
      </trkpt>
      <trkpt lat="49.16903" lon="2.0047">
        <ele>197.4</ele>
        <time>2022-04-10T12:28:13Z</time>
      </trkpt>
      <trkpt lat="49.16896" lon="2.00472">
        <ele>196.2</ele>
        <time>2022-04-10T12:28:19Z</time>
      </trkpt>
      <trkpt lat="49.16887" lon="2.00481">
        <ele>195.6</ele>
        <time>2022-04-10T12:28:25Z</time>
      </trkpt>
      <trkpt lat="49.16879" lon="2.00486">
        <ele>195.2</ele>
        <time>2022-04-10T12:28:30Z</time>
      </trkpt>
      <trkpt lat="49.16871" lon="2.00491">
        <ele>194.8</ele>
        <time>2022-04-10T12:28:36Z</time>
      </trkpt>
      <trkpt lat="49.16864" lon="2.00493">
        <ele>194.5</ele>
        <time>2022-04-10T12:28:42Z</time>
      </trkpt>
      <trkpt lat="49.16859" lon="2.00499">
        <ele>194.3</ele>
        <time>2022-04-10T12:28:47Z</time>
      </trkpt>
      <trkpt lat="49.16854" lon="2.00507">
        <ele>194.2</ele>
        <time>2022-04-10T12:28:53Z</time>
      </trkpt>
      <trkpt lat="49.16849" lon="2.00512">
        <ele>194.2</ele>
        <time>2022-04-10T12:28:58Z</time>
      </trkpt>
      <trkpt lat="49.16841" lon="2.00515">
        <ele>194.2</ele>
        <time>2022-04-10T12:29:04Z</time>
      </trkpt>
      <trkpt lat="49.16836" lon="2.0052">
        <ele>194.4</ele>
        <time>2022-04-10T12:29:09Z</time>
      </trkpt>
      <trkpt lat="49.16828" lon="2.00526">
        <ele>194.2</ele>
        <time>2022-04-10T12:29:14Z</time>
      </trkpt>
      <trkpt lat="49.16816" lon="2.00534">
        <ele>193.7</ele>
        <time>2022-04-10T12:29:20Z</time>
      </trkpt>
      <trkpt lat="49.16807" lon="2.00538">
        <ele>193.1</ele>
        <time>2022-04-10T12:29:26Z</time>
      </trkpt>
      <trkpt lat="49.16799" lon="2.00545">
        <ele>192.5</ele>
        <time>2022-04-10T12:29:32Z</time>
      </trkpt>
      <trkpt lat="49.16794" lon="2.00551">
        <ele>192.1</ele>
        <time>2022-04-10T12:29:37Z</time>
      </trkpt>
      <trkpt lat="49.16789" lon="2.00558">
        <ele>191.5</ele>
        <time>2022-04-10T12:29:43Z</time>
      </trkpt>
      <trkpt lat="49.16781" lon="2.00564">
        <ele>190.9</ele>
        <time>2022-04-10T12:29:49Z</time>
      </trkpt>
      <trkpt lat="49.16775" lon="2.00569">
        <ele>190.2</ele>
        <time>2022-04-10T12:29:54Z</time>
      </trkpt>
      <trkpt lat="49.16766" lon="2.00572">
        <ele>189.5</ele>
        <time>2022-04-10T12:30:00Z</time>
      </trkpt>
      <trkpt lat="49.1676" lon="2.00576">
        <ele>188.8</ele>
        <time>2022-04-10T12:30:06Z</time>
      </trkpt>
      <trkpt lat="49.16754" lon="2.00578">
        <ele>188.1</ele>
        <time>2022-04-10T12:30:11Z</time>
      </trkpt>
      <trkpt lat="49.16743" lon="2.00581">
        <ele>186.9</ele>
        <time>2022-04-10T12:30:17Z</time>
      </trkpt>
      <trkpt lat="49.16735" lon="2.00584">
        <ele>185.9</ele>
        <time>2022-04-10T12:30:22Z</time>
      </trkpt>
      <trkpt lat="49.16727" lon="2.00587">
        <ele>185.1</ele>
        <time>2022-04-10T12:30:27Z</time>
      </trkpt>
      <trkpt lat="49.1672" lon="2.00587">
        <ele>184.1</ele>
        <time>2022-04-10T12:30:33Z</time>
      </trkpt>
      <trkpt lat="49.16713" lon="2.0059">
        <ele>183.3</ele>
        <time>2022-04-10T12:30:38Z</time>
      </trkpt>
      <trkpt lat="49.16705" lon="2.00589">
        <ele>182.8</ele>
        <time>2022-04-10T12:30:43Z</time>
      </trkpt>
      <trkpt lat="49.16698" lon="2.00588">
        <ele>182.2</ele>
        <time>2022-04-10T12:30:48Z</time>
      </trkpt>
      <trkpt lat="49.16689" lon="2.00587">
        <ele>181.4</ele>
        <time>2022-04-10T12:30:54Z</time>
      </trkpt>
      <trkpt lat="49.1668" lon="2.00584">
        <ele>180.3</ele>
        <time>2022-04-10T12:31:00Z</time>
      </trkpt>
      <trkpt lat="49.16672" lon="2.00582">
        <ele>179.5</ele>
        <time>2022-04-10T12:31:06Z</time>
      </trkpt>
      <trkpt lat="49.16664" lon="2.00581">
        <ele>179</ele>
        <time>2022-04-10T12:31:12Z</time>
      </trkpt>
      <trkpt lat="49.16658" lon="2.00578">
        <ele>178.5</ele>
        <time>2022-04-10T12:31:17Z</time>
      </trkpt>
      <trkpt lat="49.16649" lon="2.00575">
        <ele>178</ele>
        <time>2022-04-10T12:31:23Z</time>
      </trkpt>
      <trkpt lat="49.16641" lon="2.00573">
        <ele>177.9</ele>
        <time>2022-04-10T12:31:29Z</time>
      </trkpt>
      <trkpt lat="49.16632" lon="2.00569">
        <ele>177.9</ele>
        <time>2022-04-10T12:31:35Z</time>
      </trkpt>
      <trkpt lat="49.16625" lon="2.00565">
        <ele>178</ele>
        <time>2022-04-10T12:31:40Z</time>
      </trkpt>
      <trkpt lat="49.16619" lon="2.00555">
        <ele>178.3</ele>
        <time>2022-04-10T12:31:46Z</time>
      </trkpt>
      <trkpt lat="49.16617" lon="2.00543">
        <ele>178.6</ele>
        <time>2022-04-10T12:31:52Z</time>
      </trkpt>
      <trkpt lat="49.16616" lon="2.00535">
        <ele>178.9</ele>
        <time>2022-04-10T12:31:57Z</time>
      </trkpt>
      <trkpt lat="49.16614" lon="2.00523">
        <ele>179.2</ele>
        <time>2022-04-10T12:32:03Z</time>
      </trkpt>
      <trkpt lat="49.16611" lon="2.00513">
        <ele>179.4</ele>
        <time>2022-04-10T12:32:08Z</time>
      </trkpt>
      <trkpt lat="49.16607" lon="2.00499">
        <ele>179.6</ele>
        <time>2022-04-10T12:32:14Z</time>
      </trkpt>
      <trkpt lat="49.16604" lon="2.00487">
        <ele>179.7</ele>
        <time>2022-04-10T12:32:20Z</time>
      </trkpt>
      <trkpt lat="49.166" lon="2.00475">
        <ele>180</ele>
        <time>2022-04-10T12:32:26Z</time>
      </trkpt>
      <trkpt lat="49.16597" lon="2.00463">
        <ele>180.1</ele>
        <time>2022-04-10T12:32:32Z</time>
      </trkpt>
      <trkpt lat="49.16595" lon="2.00451">
        <ele>180.2</ele>
        <time>2022-04-10T12:32:38Z</time>
      </trkpt>
      <trkpt lat="49.16592" lon="2.0044">
        <ele>180.3</ele>
        <time>2022-04-10T12:32:43Z</time>
      </trkpt>
      <trkpt lat="49.1659" lon="2.00428">
        <ele>180.4</ele>
        <time>2022-04-10T12:32:49Z</time>
      </trkpt>
      <trkpt lat="49.16588" lon="2.00417">
        <ele>180.5</ele>
        <time>2022-04-10T12:32:54Z</time>
      </trkpt>
      <trkpt lat="49.16586" lon="2.00404">
        <ele>180.5</ele>
        <time>2022-04-10T12:33:00Z</time>
      </trkpt>
      <trkpt lat="49.16588" lon="2.00393">
        <ele>180.7</ele>
        <time>2022-04-10T12:33:05Z</time>
      </trkpt>
      <trkpt lat="49.16588" lon="2.00382">
        <ele>180.9</ele>
        <time>2022-04-10T12:33:11Z</time>
      </trkpt>
      <trkpt lat="49.16589" lon="2.00371">
        <ele>180.9</ele>
        <time>2022-04-10T12:33:16Z</time>
      </trkpt>
      <trkpt lat="49.16591" lon="2.00356">
        <ele>180.8</ele>
        <time>2022-04-10T12:33:22Z</time>
      </trkpt>
      <trkpt lat="49.16594" lon="2.00344">
        <ele>180.8</ele>
        <time>2022-04-10T12:33:28Z</time>
      </trkpt>
      <trkpt lat="49.16596" lon="2.00335">
        <ele>181</ele>
        <time>2022-04-10T12:33:33Z</time>
      </trkpt>
      <trkpt lat="49.16598" lon="2.00325">
        <ele>181.1</ele>
        <time>2022-04-10T12:33:38Z</time>
      </trkpt>
      <trkpt lat="49.16599" lon="2.00312">
        <ele>181.3</ele>
        <time>2022-04-10T12:33:44Z</time>
      </trkpt>
      <trkpt lat="49.166" lon="2.00302">
        <ele>181.5</ele>
        <time>2022-04-10T12:33:49Z</time>
      </trkpt>
      <trkpt lat="49.166" lon="2.00289">
        <ele>181.6</ele>
        <time>2022-04-10T12:33:55Z</time>
      </trkpt>
      <trkpt lat="49.16601" lon="2.00279">
        <ele>181.7</ele>
        <time>2022-04-10T12:34:00Z</time>
      </trkpt>
      <trkpt lat="49.16602" lon="2.00266">
        <ele>182.1</ele>
        <time>2022-04-10T12:34:06Z</time>
      </trkpt>
      <trkpt lat="49.16602" lon="2.00255">
        <ele>182.6</ele>
        <time>2022-04-10T12:34:11Z</time>
      </trkpt>
      <trkpt lat="49.16603" lon="2.00245">
        <ele>183.3</ele>
        <time>2022-04-10T12:34:16Z</time>
      </trkpt>
      <trkpt lat="49.16603" lon="2.0023">
        <ele>184.5</ele>
        <time>2022-04-10T12:34:22Z</time>
      </trkpt>
      <trkpt lat="49.16603" lon="2.00218">
        <ele>185.7</ele>
        <time>2022-04-10T12:34:28Z</time>
      </trkpt>
      <trkpt lat="49.16602" lon="2.00208">
        <ele>186.3</ele>
        <time>2022-04-10T12:34:33Z</time>
      </trkpt>
      <trkpt lat="49.16602" lon="2.00198">
        <ele>186.6</ele>
        <time>2022-04-10T12:34:38Z</time>
      </trkpt>
      <trkpt lat="49.166" lon="2.00185">
        <ele>186.6</ele>
        <time>2022-04-10T12:34:44Z</time>
      </trkpt>
      <trkpt lat="49.16599" lon="2.00178">
        <ele>186.8</ele>
        <time>2022-04-10T12:34:49Z</time>
      </trkpt>
      <trkpt lat="49.16597" lon="2.00164">
        <ele>187.2</ele>
        <time>2022-04-10T12:34:55Z</time>
      </trkpt>
      <trkpt lat="49.16598" lon="2.00153">
        <ele>188</ele>
        <time>2022-04-10T12:35:00Z</time>
      </trkpt>
      <trkpt lat="49.16597" lon="2.00143">
        <ele>189.2</ele>
        <time>2022-04-10T12:35:06Z</time>
      </trkpt>
      <trkpt lat="49.16596" lon="2.0013">
        <ele>190.2</ele>
        <time>2022-04-10T12:35:12Z</time>
      </trkpt>
      <trkpt lat="49.16597" lon="2.00118">
        <ele>191.2</ele>
        <time>2022-04-10T12:35:17Z</time>
      </trkpt>
      <trkpt lat="49.16596" lon="2.00104">
        <ele>192.4</ele>
        <time>2022-04-10T12:35:23Z</time>
      </trkpt>
      <trkpt lat="49.16596" lon="2.00093">
        <ele>193.1</ele>
        <time>2022-04-10T12:35:28Z</time>
      </trkpt>
      <trkpt lat="49.16597" lon="2.00083">
        <ele>193.3</ele>
        <time>2022-04-10T12:35:33Z</time>
      </trkpt>
      <trkpt lat="49.16596" lon="2.00068">
        <ele>193.2</ele>
        <time>2022-04-10T12:35:39Z</time>
      </trkpt>
      <trkpt lat="49.16596" lon="2.00055">
        <ele>193.1</ele>
        <time>2022-04-10T12:35:45Z</time>
      </trkpt>
      <trkpt lat="49.16596" lon="2.00047">
        <ele>193.1</ele>
        <time>2022-04-10T12:35:50Z</time>
      </trkpt>
      <trkpt lat="49.16596" lon="2.00036">
        <ele>193.2</ele>
        <time>2022-04-10T12:35:55Z</time>
      </trkpt>
      <trkpt lat="49.16595" lon="2.0002">
        <ele>193.4</ele>
        <time>2022-04-10T12:36:01Z</time>
      </trkpt>
      <trkpt lat="49.16596" lon="2.0001">
        <ele>193.5</ele>
        <time>2022-04-10T12:36:06Z</time>
      </trkpt>
      <trkpt lat="49.16594" lon="1.99998">
        <ele>193.2</ele>
        <time>2022-04-10T12:36:12Z</time>
      </trkpt>
      <trkpt lat="49.16592" lon="1.99986">
        <ele>192.5</ele>
        <time>2022-04-10T12:36:18Z</time>
      </trkpt>
      <trkpt lat="49.16591" lon="1.99972">
        <ele>192.1</ele>
        <time>2022-04-10T12:36:23Z</time>
      </trkpt>
      <trkpt lat="49.16589" lon="1.99955">
        <ele>192.2</ele>
        <time>2022-04-10T12:36:29Z</time>
      </trkpt>
      <trkpt lat="49.16588" lon="1.99946">
        <ele>192.2</ele>
        <time>2022-04-10T12:36:34Z</time>
      </trkpt>
      <trkpt lat="49.16588" lon="1.99937">
        <ele>192</ele>
        <time>2022-04-10T12:36:40Z</time>
      </trkpt>
      <trkpt lat="49.16588" lon="1.99928">
        <ele>191.9</ele>
        <time>2022-04-10T12:36:45Z</time>
      </trkpt>
      <trkpt lat="49.16588" lon="1.99917">
        <ele>191.7</ele>
        <time>2022-04-10T12:36:51Z</time>
      </trkpt>
      <trkpt lat="49.16588" lon="1.99907">
        <ele>191.5</ele>
        <time>2022-04-10T12:36:56Z</time>
      </trkpt>
      <trkpt lat="49.16584" lon="1.999">
        <ele>191.5</ele>
        <time>2022-04-10T12:37:02Z</time>
      </trkpt>
      <trkpt lat="49.16578" lon="1.99897">
        <ele>191.6</ele>
        <time>2022-04-10T12:37:07Z</time>
      </trkpt>
      <trkpt lat="49.16571" lon="1.99896">
        <ele>191.7</ele>
        <time>2022-04-10T12:37:13Z</time>
      </trkpt>
      <trkpt lat="49.16564" lon="1.99898">
        <ele>191.7</ele>
        <time>2022-04-10T12:37:18Z</time>
      </trkpt>
      <trkpt lat="49.16557" lon="1.99898">
        <ele>191.8</ele>
        <time>2022-04-10T12:37:23Z</time>
      </trkpt>
      <trkpt lat="49.16548" lon="1.99899">
        <ele>192.1</ele>
        <time>2022-04-10T12:37:29Z</time>
      </trkpt>
      <trkpt lat="49.1654" lon="1.999">
        <ele>192.8</ele>
        <time>2022-04-10T12:37:35Z</time>
      </trkpt>
      <trkpt lat="49.16533" lon="1.99901">
        <ele>193.6</ele>
        <time>2022-04-10T12:37:40Z</time>
      </trkpt>
      <trkpt lat="49.16525" lon="1.99903">
        <ele>194.9</ele>
        <time>2022-04-10T12:37:46Z</time>
      </trkpt>
      <trkpt lat="49.16517" lon="1.99908">
        <ele>196</ele>
        <time>2022-04-10T12:37:52Z</time>
      </trkpt>
      <trkpt lat="49.16511" lon="1.99911">
        <ele>196.7</ele>
        <time>2022-04-10T12:37:57Z</time>
      </trkpt>
      <trkpt lat="49.16505" lon="1.99914">
        <ele>197.3</ele>
        <time>2022-04-10T12:38:02Z</time>
      </trkpt>
      <trkpt lat="49.16498" lon="1.99917">
        <ele>197.8</ele>
        <time>2022-04-10T12:38:08Z</time>
      </trkpt>
      <trkpt lat="49.16492" lon="1.99919">
        <ele>197.9</ele>
        <time>2022-04-10T12:38:13Z</time>
      </trkpt>
      <trkpt lat="49.16483" lon="1.99926">
        <ele>198.3</ele>
        <time>2022-04-10T12:38:19Z</time>
      </trkpt>
      <trkpt lat="49.16476" lon="1.99928">
        <ele>198.7</ele>
        <time>2022-04-10T12:38:24Z</time>
      </trkpt>
      <trkpt lat="49.16469" lon="1.9993">
        <ele>199</ele>
        <time>2022-04-10T12:38:30Z</time>
      </trkpt>
      <trkpt lat="49.16463" lon="1.99933">
        <ele>198.9</ele>
        <time>2022-04-10T12:38:35Z</time>
      </trkpt>
      <trkpt lat="49.16455" lon="1.99933">
        <ele>198.9</ele>
        <time>2022-04-10T12:38:40Z</time>
      </trkpt>
      <trkpt lat="49.16447" lon="1.99934">
        <ele>198.6</ele>
        <time>2022-04-10T12:38:46Z</time>
      </trkpt>
      <trkpt lat="49.16441" lon="1.99934">
        <ele>198.2</ele>
        <time>2022-04-10T12:38:51Z</time>
      </trkpt>
      <trkpt lat="49.16438" lon="1.99936">
        <ele>197.5</ele>
        <time>2022-04-10T12:38:57Z</time>
      </trkpt>
      <trkpt lat="49.16432" lon="1.9994">
        <ele>196.7</ele>
        <time>2022-04-10T12:39:02Z</time>
      </trkpt>
      <trkpt lat="49.16423" lon="1.99942">
        <ele>196.1</ele>
        <time>2022-04-10T12:39:08Z</time>
      </trkpt>
      <trkpt lat="49.16414" lon="1.99944">
        <ele>195.6</ele>
        <time>2022-04-10T12:39:14Z</time>
      </trkpt>
      <trkpt lat="49.16404" lon="1.99949">
        <ele>195.5</ele>
        <time>2022-04-10T12:39:20Z</time>
      </trkpt>
      <trkpt lat="49.16395" lon="1.99951">
        <ele>195.5</ele>
        <time>2022-04-10T12:39:26Z</time>
      </trkpt>
      <trkpt lat="49.16388" lon="1.99952">
        <ele>195.4</ele>
        <time>2022-04-10T12:39:31Z</time>
      </trkpt>
      <trkpt lat="49.16381" lon="1.99953">
        <ele>195.3</ele>
        <time>2022-04-10T12:39:36Z</time>
      </trkpt>
      <trkpt lat="49.16374" lon="1.99957">
        <ele>195.2</ele>
        <time>2022-04-10T12:39:42Z</time>
      </trkpt>
      <trkpt lat="49.16366" lon="1.99959">
        <ele>195</ele>
        <time>2022-04-10T12:39:48Z</time>
      </trkpt>
      <trkpt lat="49.16357" lon="1.99963">
        <ele>194.8</ele>
        <time>2022-04-10T12:39:54Z</time>
      </trkpt>
      <trkpt lat="49.16351" lon="1.99966">
        <ele>194.7</ele>
        <time>2022-04-10T12:39:59Z</time>
      </trkpt>
      <trkpt lat="49.16349" lon="1.99971">
        <ele>194.5</ele>
        <time>2022-04-10T12:40:04Z</time>
      </trkpt>
      <trkpt lat="49.16351" lon="1.99986">
        <ele>194.3</ele>
        <time>2022-04-10T12:40:10Z</time>
      </trkpt>
      <trkpt lat="49.16355" lon="2.00001">
        <ele>194.3</ele>
        <time>2022-04-10T12:40:16Z</time>
      </trkpt>
      <trkpt lat="49.16359" lon="2.00014">
        <ele>194.4</ele>
        <time>2022-04-10T12:40:22Z</time>
      </trkpt>
      <trkpt lat="49.16361" lon="2.00025">
        <ele>194.4</ele>
        <time>2022-04-10T12:40:28Z</time>
      </trkpt>
      <trkpt lat="49.16363" lon="2.00035">
        <ele>194.4</ele>
        <time>2022-04-10T12:40:33Z</time>
      </trkpt>
      <trkpt lat="49.16366" lon="2.00047">
        <ele>194.3</ele>
        <time>2022-04-10T12:40:39Z</time>
      </trkpt>
      <trkpt lat="49.16368" lon="2.00057">
        <ele>194.4</ele>
        <time>2022-04-10T12:40:44Z</time>
      </trkpt>
      <trkpt lat="49.16372" lon="2.00068">
        <ele>194.4</ele>
        <time>2022-04-10T12:40:50Z</time>
      </trkpt>
      <trkpt lat="49.16374" lon="2.00079">
        <ele>194.3</ele>
        <time>2022-04-10T12:40:55Z</time>
      </trkpt>
      <trkpt lat="49.16377" lon="2.00092">
        <ele>194.2</ele>
        <time>2022-04-10T12:41:01Z</time>
      </trkpt>
      <trkpt lat="49.1638" lon="2.00101">
        <ele>194</ele>
        <time>2022-04-10T12:41:06Z</time>
      </trkpt>
      <trkpt lat="49.16382" lon="2.00113">
        <ele>193.8</ele>
        <time>2022-04-10T12:41:12Z</time>
      </trkpt>
      <trkpt lat="49.16384" lon="2.00122">
        <ele>193.3</ele>
        <time>2022-04-10T12:41:17Z</time>
      </trkpt>
      <trkpt lat="49.16387" lon="2.00135">
        <ele>192.6</ele>
        <time>2022-04-10T12:41:23Z</time>
      </trkpt>
      <trkpt lat="49.1639" lon="2.00144">
        <ele>192.2</ele>
        <time>2022-04-10T12:41:28Z</time>
      </trkpt>
      <trkpt lat="49.16393" lon="2.00154">
        <ele>191.8</ele>
        <time>2022-04-10T12:41:33Z</time>
      </trkpt>
      <trkpt lat="49.16395" lon="2.00166">
        <ele>191.6</ele>
        <time>2022-04-10T12:41:38Z</time>
      </trkpt>
      <trkpt lat="49.16398" lon="2.00179">
        <ele>191.6</ele>
        <time>2022-04-10T12:41:44Z</time>
      </trkpt>
      <trkpt lat="49.16401" lon="2.00191">
        <ele>191.5</ele>
        <time>2022-04-10T12:41:50Z</time>
      </trkpt>
      <trkpt lat="49.16404" lon="2.00202">
        <ele>191.2</ele>
        <time>2022-04-10T12:41:55Z</time>
      </trkpt>
      <trkpt lat="49.16407" lon="2.00212">
        <ele>190.8</ele>
        <time>2022-04-10T12:42:00Z</time>
      </trkpt>
      <trkpt lat="49.1641" lon="2.00223">
        <ele>190.1</ele>
        <time>2022-04-10T12:42:06Z</time>
      </trkpt>
      <trkpt lat="49.16413" lon="2.00232">
        <ele>189.5</ele>
        <time>2022-04-10T12:42:11Z</time>
      </trkpt>
      <trkpt lat="49.16417" lon="2.00243">
        <ele>188.6</ele>
        <time>2022-04-10T12:42:17Z</time>
      </trkpt>
      <trkpt lat="49.1642" lon="2.00252">
        <ele>187.9</ele>
        <time>2022-04-10T12:42:22Z</time>
      </trkpt>
      <trkpt lat="49.16424" lon="2.00264">
        <ele>187</ele>
        <time>2022-04-10T12:42:28Z</time>
      </trkpt>
      <trkpt lat="49.16428" lon="2.00276">
        <ele>186</ele>
        <time>2022-04-10T12:42:34Z</time>
      </trkpt>
      <trkpt lat="49.1643" lon="2.00285">
        <ele>185.3</ele>
        <time>2022-04-10T12:42:39Z</time>
      </trkpt>
      <trkpt lat="49.16433" lon="2.00294">
        <ele>184.5</ele>
        <time>2022-04-10T12:42:44Z</time>
      </trkpt>
      <trkpt lat="49.16436" lon="2.00308">
        <ele>183.8</ele>
        <time>2022-04-10T12:42:50Z</time>
      </trkpt>
      <trkpt lat="49.16438" lon="2.00321">
        <ele>183.2</ele>
        <time>2022-04-10T12:42:56Z</time>
      </trkpt>
      <trkpt lat="49.1644" lon="2.00333">
        <ele>182.6</ele>
        <time>2022-04-10T12:43:02Z</time>
      </trkpt>
      <trkpt lat="49.16443" lon="2.00346">
        <ele>182.1</ele>
        <time>2022-04-10T12:43:08Z</time>
      </trkpt>
      <trkpt lat="49.16444" lon="2.00359">
        <ele>181.6</ele>
        <time>2022-04-10T12:43:14Z</time>
      </trkpt>
      <trkpt lat="49.16444" lon="2.0037">
        <ele>181.4</ele>
        <time>2022-04-10T12:43:19Z</time>
      </trkpt>
      <trkpt lat="49.16443" lon="2.0038">
        <ele>181</ele>
        <time>2022-04-10T12:43:24Z</time>
      </trkpt>
      <trkpt lat="49.16442" lon="2.004">
        <ele>180.7</ele>
        <time>2022-04-10T12:43:30Z</time>
      </trkpt>
      <trkpt lat="49.16441" lon="2.00414">
        <ele>180.7</ele>
        <time>2022-04-10T12:43:36Z</time>
      </trkpt>
      <trkpt lat="49.16441" lon="2.00422">
        <ele>180.7</ele>
        <time>2022-04-10T12:43:41Z</time>
      </trkpt>
      <trkpt lat="49.16442" lon="2.00433">
        <ele>180.8</ele>
        <time>2022-04-10T12:43:47Z</time>
      </trkpt>
      <trkpt lat="49.1644" lon="2.00442">
        <ele>180.8</ele>
        <time>2022-04-10T12:43:52Z</time>
      </trkpt>
      <trkpt lat="49.1644" lon="2.00447">
        <ele>180.8</ele>
        <time>2022-04-10T12:43:57Z</time>
      </trkpt>
      <trkpt lat="49.16448" lon="2.00454">
        <ele>181</ele>
        <time>2022-04-10T12:44:03Z</time>
      </trkpt>
      <trkpt lat="49.16456" lon="2.00467">
        <ele>180.9</ele>
        <time>2022-04-10T12:44:09Z</time>
      </trkpt>
      <trkpt lat="49.1646" lon="2.00478">
        <ele>180.7</ele>
        <time>2022-04-10T12:44:15Z</time>
      </trkpt>
      <trkpt lat="49.16463" lon="2.00487">
        <ele>180.5</ele>
        <time>2022-04-10T12:44:20Z</time>
      </trkpt>
      <trkpt lat="49.16466" lon="2.00499">
        <ele>180.3</ele>
        <time>2022-04-10T12:44:26Z</time>
      </trkpt>
      <trkpt lat="49.16468" lon="2.00508">
        <ele>180.1</ele>
        <time>2022-04-10T12:44:31Z</time>
      </trkpt>
      <trkpt lat="49.16472" lon="2.00522">
        <ele>179.8</ele>
        <time>2022-04-10T12:44:37Z</time>
      </trkpt>
      <trkpt lat="49.16474" lon="2.00532">
        <ele>179.6</ele>
        <time>2022-04-10T12:44:42Z</time>
      </trkpt>
      <trkpt lat="49.16476" lon="2.00544">
        <ele>179.4</ele>
        <time>2022-04-10T12:44:48Z</time>
      </trkpt>
      <trkpt lat="49.16477" lon="2.00553">
        <ele>179.1</ele>
        <time>2022-04-10T12:44:53Z</time>
      </trkpt>
      <trkpt lat="49.16479" lon="2.00566">
        <ele>179</ele>
        <time>2022-04-10T12:44:59Z</time>
      </trkpt>
      <trkpt lat="49.16477" lon="2.00576">
        <ele>179</ele>
        <time>2022-04-10T12:45:05Z</time>
      </trkpt>
      <trkpt lat="49.16474" lon="2.00585">
        <ele>178.9</ele>
        <time>2022-04-10T12:45:10Z</time>
      </trkpt>
      <trkpt lat="49.16471" lon="2.00593">
        <ele>178.9</ele>
        <time>2022-04-10T12:45:15Z</time>
      </trkpt>
      <trkpt lat="49.16465" lon="2.00602">
        <ele>178.6</ele>
        <time>2022-04-10T12:45:21Z</time>
      </trkpt>
      <trkpt lat="49.16461" lon="2.00609">
        <ele>178.1</ele>
        <time>2022-04-10T12:45:26Z</time>
      </trkpt>
      <trkpt lat="49.16457" lon="2.0062">
        <ele>177.4</ele>
        <time>2022-04-10T12:45:32Z</time>
      </trkpt>
      <trkpt lat="49.16454" lon="2.0063">
        <ele>176.9</ele>
        <time>2022-04-10T12:45:37Z</time>
      </trkpt>
      <trkpt lat="49.1645" lon="2.00642">
        <ele>176.6</ele>
        <time>2022-04-10T12:45:43Z</time>
      </trkpt>
      <trkpt lat="49.16446" lon="2.00652">
        <ele>176.3</ele>
        <time>2022-04-10T12:45:48Z</time>
      </trkpt>
      <trkpt lat="49.16441" lon="2.00661">
        <ele>176.2</ele>
        <time>2022-04-10T12:45:54Z</time>
      </trkpt>
      <trkpt lat="49.16438" lon="2.0067">
        <ele>176.1</ele>
        <time>2022-04-10T12:45:59Z</time>
      </trkpt>
      <trkpt lat="49.16434" lon="2.00679">
        <ele>176</ele>
        <time>2022-04-10T12:46:05Z</time>
      </trkpt>
      <trkpt lat="49.16429" lon="2.00688">
        <ele>175.6</ele>
        <time>2022-04-10T12:46:11Z</time>
      </trkpt>
      <trkpt lat="49.16425" lon="2.00695">
        <ele>175.3</ele>
        <time>2022-04-10T12:46:16Z</time>
      </trkpt>
      <trkpt lat="49.1642" lon="2.00703">
        <ele>174.7</ele>
        <time>2022-04-10T12:46:22Z</time>
      </trkpt>
      <trkpt lat="49.16417" lon="2.00711">
        <ele>174.4</ele>
        <time>2022-04-10T12:46:27Z</time>
      </trkpt>
      <trkpt lat="49.16413" lon="2.0072">
        <ele>174.2</ele>
        <time>2022-04-10T12:46:32Z</time>
      </trkpt>
      <trkpt lat="49.16407" lon="2.00732">
        <ele>174.1</ele>
        <time>2022-04-10T12:46:38Z</time>
      </trkpt>
      <trkpt lat="49.16403" lon="2.0074">
        <ele>174</ele>
        <time>2022-04-10T12:46:43Z</time>
      </trkpt>
      <trkpt lat="49.16398" lon="2.00749">
        <ele>174</ele>
        <time>2022-04-10T12:46:49Z</time>
      </trkpt>
      <trkpt lat="49.16394" lon="2.00756">
        <ele>173.9</ele>
        <time>2022-04-10T12:46:54Z</time>
      </trkpt>
      <trkpt lat="49.16388" lon="2.00765">
        <ele>173.9</ele>
        <time>2022-04-10T12:47:00Z</time>
      </trkpt>
      <trkpt lat="49.16382" lon="2.00773">
        <ele>173.9</ele>
        <time>2022-04-10T12:47:05Z</time>
      </trkpt>
      <trkpt lat="49.16377" lon="2.00784">
        <ele>174</ele>
        <time>2022-04-10T12:47:11Z</time>
      </trkpt>
      <trkpt lat="49.16372" lon="2.00793">
        <ele>174</ele>
        <time>2022-04-10T12:47:16Z</time>
      </trkpt>
      <trkpt lat="49.16366" lon="2.00803">
        <ele>174</ele>
        <time>2022-04-10T12:47:21Z</time>
      </trkpt>
      <trkpt lat="49.16359" lon="2.00813">
        <ele>174.2</ele>
        <time>2022-04-10T12:47:27Z</time>
      </trkpt>
      <trkpt lat="49.16353" lon="2.00823">
        <ele>174.6</ele>
        <time>2022-04-10T12:47:33Z</time>
      </trkpt>
      <trkpt lat="49.16348" lon="2.00831">
        <ele>175</ele>
        <time>2022-04-10T12:47:38Z</time>
      </trkpt>
      <trkpt lat="49.16342" lon="2.00839">
        <ele>175.4</ele>
        <time>2022-04-10T12:47:44Z</time>
      </trkpt>
      <trkpt lat="49.16338" lon="2.00847">
        <ele>175.5</ele>
        <time>2022-04-10T12:47:49Z</time>
      </trkpt>
      <trkpt lat="49.16333" lon="2.00856">
        <ele>175.4</ele>
        <time>2022-04-10T12:47:54Z</time>
      </trkpt>
      <trkpt lat="49.16327" lon="2.00866">
        <ele>175.3</ele>
        <time>2022-04-10T12:48:00Z</time>
      </trkpt>
      <trkpt lat="49.16322" lon="2.00874">
        <ele>175.2</ele>
        <time>2022-04-10T12:48:05Z</time>
      </trkpt>
      <trkpt lat="49.16317" lon="2.00884">
        <ele>175.1</ele>
        <time>2022-04-10T12:48:11Z</time>
      </trkpt>
      <trkpt lat="49.1631" lon="2.00893">
        <ele>174.7</ele>
        <time>2022-04-10T12:48:17Z</time>
      </trkpt>
      <trkpt lat="49.16305" lon="2.00901">
        <ele>174.3</ele>
        <time>2022-04-10T12:48:22Z</time>
      </trkpt>
      <trkpt lat="49.16299" lon="2.00911">
        <ele>174</ele>
        <time>2022-04-10T12:48:28Z</time>
      </trkpt>
      <trkpt lat="49.16294" lon="2.0092">
        <ele>173.6</ele>
        <time>2022-04-10T12:48:34Z</time>
      </trkpt>
      <trkpt lat="49.16289" lon="2.0093">
        <ele>173.3</ele>
        <time>2022-04-10T12:48:40Z</time>
      </trkpt>
      <trkpt lat="49.16283" lon="2.00939">
        <ele>173</ele>
        <time>2022-04-10T12:48:46Z</time>
      </trkpt>
      <trkpt lat="49.16278" lon="2.00946">
        <ele>172.9</ele>
        <time>2022-04-10T12:48:51Z</time>
      </trkpt>
      <trkpt lat="49.1627" lon="2.00954">
        <ele>172.7</ele>
        <time>2022-04-10T12:48:57Z</time>
      </trkpt>
      <trkpt lat="49.16264" lon="2.00964">
        <ele>172.4</ele>
        <time>2022-04-10T12:49:03Z</time>
      </trkpt>
      <trkpt lat="49.16259" lon="2.00971">
        <ele>172.2</ele>
        <time>2022-04-10T12:49:08Z</time>
      </trkpt>
      <trkpt lat="49.16252" lon="2.00978">
        <ele>171.9</ele>
        <time>2022-04-10T12:49:14Z</time>
      </trkpt>
      <trkpt lat="49.16245" lon="2.00985">
        <ele>171.5</ele>
        <time>2022-04-10T12:49:20Z</time>
      </trkpt>
      <trkpt lat="49.16237" lon="2.0099">
        <ele>171.2</ele>
        <time>2022-04-10T12:49:25Z</time>
      </trkpt>
      <trkpt lat="49.1623" lon="2.00997">
        <ele>170.7</ele>
        <time>2022-04-10T12:49:31Z</time>
      </trkpt>
      <trkpt lat="49.16222" lon="2.01004">
        <ele>170.4</ele>
        <time>2022-04-10T12:49:37Z</time>
      </trkpt>
      <trkpt lat="49.16216" lon="2.01007">
        <ele>170</ele>
        <time>2022-04-10T12:49:43Z</time>
      </trkpt>
      <trkpt lat="49.16209" lon="2.01014">
        <ele>169.6</ele>
        <time>2022-04-10T12:49:49Z</time>
      </trkpt>
      <trkpt lat="49.16202" lon="2.01021">
        <ele>169.4</ele>
        <time>2022-04-10T12:49:55Z</time>
      </trkpt>
      <trkpt lat="49.16195" lon="2.01026">
        <ele>169</ele>
        <time>2022-04-10T12:50:00Z</time>
      </trkpt>
      <trkpt lat="49.16187" lon="2.01032">
        <ele>168.4</ele>
        <time>2022-04-10T12:50:06Z</time>
      </trkpt>
      <trkpt lat="49.16181" lon="2.0104">
        <ele>167.8</ele>
        <time>2022-04-10T12:50:11Z</time>
      </trkpt>
      <trkpt lat="49.16174" lon="2.01049">
        <ele>167</ele>
        <time>2022-04-10T12:50:17Z</time>
      </trkpt>
      <trkpt lat="49.16168" lon="2.01055">
        <ele>166.4</ele>
        <time>2022-04-10T12:50:22Z</time>
      </trkpt>
      <trkpt lat="49.1616" lon="2.01062">
        <ele>165.7</ele>
        <time>2022-04-10T12:50:28Z</time>
      </trkpt>
      <trkpt lat="49.16154" lon="2.01068">
        <ele>165.2</ele>
        <time>2022-04-10T12:50:33Z</time>
      </trkpt>
      <trkpt lat="49.16147" lon="2.01076">
        <ele>164.5</ele>
        <time>2022-04-10T12:50:39Z</time>
      </trkpt>
      <trkpt lat="49.16141" lon="2.01082">
        <ele>164</ele>
        <time>2022-04-10T12:50:44Z</time>
      </trkpt>
      <trkpt lat="49.16133" lon="2.0109">
        <ele>163.6</ele>
        <time>2022-04-10T12:50:50Z</time>
      </trkpt>
      <trkpt lat="49.16128" lon="2.01096">
        <ele>163.4</ele>
        <time>2022-04-10T12:50:55Z</time>
      </trkpt>
      <trkpt lat="49.16122" lon="2.01105">
        <ele>163.1</ele>
        <time>2022-04-10T12:51:01Z</time>
      </trkpt>
      <trkpt lat="49.16116" lon="2.0111">
        <ele>162.7</ele>
        <time>2022-04-10T12:51:06Z</time>
      </trkpt>
      <trkpt lat="49.1611" lon="2.01116">
        <ele>162.4</ele>
        <time>2022-04-10T12:51:11Z</time>
      </trkpt>
      <trkpt lat="49.16103" lon="2.01126">
        <ele>162.1</ele>
        <time>2022-04-10T12:51:17Z</time>
      </trkpt>
      <trkpt lat="49.16096" lon="2.01136">
        <ele>162.2</ele>
        <time>2022-04-10T12:51:23Z</time>
      </trkpt>
      <trkpt lat="49.16093" lon="2.01139">
        <ele>162.7</ele>
        <time>2022-04-10T12:51:29Z</time>
      </trkpt>
      <trkpt lat="49.16095" lon="2.01138">
        <ele>162.6</ele>
        <time>2022-04-10T12:51:35Z</time>
      </trkpt>
      <trkpt lat="49.16094" lon="2.01143">
        <ele>162.5</ele>
        <time>2022-04-10T12:51:41Z</time>
      </trkpt>
      <trkpt lat="49.1609" lon="2.01148">
        <ele>162.4</ele>
        <time>2022-04-10T12:51:46Z</time>
      </trkpt>
      <trkpt lat="49.16086" lon="2.01154">
        <ele>162.8</ele>
        <time>2022-04-10T12:51:51Z</time>
      </trkpt>
      <trkpt lat="49.16081" lon="2.0116">
        <ele>163.7</ele>
        <time>2022-04-10T12:51:57Z</time>
      </trkpt>
      <trkpt lat="49.16079" lon="2.01167">
        <ele>164.7</ele>
        <time>2022-04-10T12:52:02Z</time>
      </trkpt>
      <trkpt lat="49.16076" lon="2.01174">
        <ele>165.6</ele>
        <time>2022-04-10T12:52:08Z</time>
      </trkpt>
      <trkpt lat="49.16071" lon="2.01183">
        <ele>166.2</ele>
        <time>2022-04-10T12:52:14Z</time>
      </trkpt>
      <trkpt lat="49.16069" lon="2.01191">
        <ele>166.3</ele>
        <time>2022-04-10T12:52:19Z</time>
      </trkpt>
      <trkpt lat="49.16067" lon="2.01197">
        <ele>166.4</ele>
        <time>2022-04-10T12:52:25Z</time>
      </trkpt>
      <trkpt lat="49.16063" lon="2.01201">
        <ele>166.4</ele>
        <time>2022-04-10T12:52:30Z</time>
      </trkpt>
      <trkpt lat="49.16062" lon="2.01201">
        <ele>166.4</ele>
        <time>2022-04-10T12:52:36Z</time>
      </trkpt>
      <trkpt lat="49.16062" lon="2.01201">
        <ele>166.4</ele>
        <time>2022-04-10T12:52:42Z</time>
      </trkpt>
      <trkpt lat="49.16062" lon="2.01201">
        <ele>166.5</ele>
        <time>2022-04-10T12:52:47Z</time>
      </trkpt>
      <trkpt lat="49.16061" lon="2.01201">
        <ele>166.5</ele>
        <time>2022-04-10T12:52:53Z</time>
      </trkpt>
      <trkpt lat="49.16061" lon="2.01201">
        <ele>166.5</ele>
        <time>2022-04-10T12:52:59Z</time>
      </trkpt>
      <trkpt lat="49.16061" lon="2.01201">
        <ele>166.5</ele>
        <time>2022-04-10T12:53:05Z</time>
      </trkpt>
      <trkpt lat="49.16061" lon="2.01201">
        <ele>166.5</ele>
        <time>2022-04-10T12:53:10Z</time>
      </trkpt>
      <trkpt lat="49.1606" lon="2.01202">
        <ele>166.5</ele>
        <time>2022-04-10T12:53:16Z</time>
      </trkpt>
      <trkpt lat="49.1606" lon="2.01202">
        <ele>166.6</ele>
        <time>2022-04-10T12:53:22Z</time>
      </trkpt>
      <trkpt lat="49.16061" lon="2.01202">
        <ele>167</ele>
        <time>2022-04-10T12:53:27Z</time>
      </trkpt>
      <trkpt lat="49.1606" lon="2.01202">
        <ele>167</ele>
        <time>2022-04-10T12:53:33Z</time>
      </trkpt>
      <trkpt lat="49.1606" lon="2.01202">
        <ele>167</ele>
        <time>2022-04-10T12:53:38Z</time>
      </trkpt>
      <trkpt lat="49.16059" lon="2.01201">
        <ele>166.9</ele>
        <time>2022-04-10T12:53:44Z</time>
      </trkpt>
      <trkpt lat="49.16059" lon="2.01202">
        <ele>166.8</ele>
        <time>2022-04-10T12:53:50Z</time>
      </trkpt>
      <trkpt lat="49.16059" lon="2.01202">
        <ele>166.8</ele>
        <time>2022-04-10T12:53:56Z</time>
      </trkpt>
      <trkpt lat="49.16059" lon="2.012">
        <ele>166.8</ele>
        <time>2022-04-10T12:54:01Z</time>
      </trkpt>
      <trkpt lat="49.16058" lon="2.012">
        <ele>166.8</ele>
        <time>2022-04-10T12:54:06Z</time>
      </trkpt>
      <trkpt lat="49.16058" lon="2.012">
        <ele>166.8</ele>
        <time>2022-04-10T12:54:12Z</time>
      </trkpt>
      <trkpt lat="49.16058" lon="2.012">
        <ele>166.8</ele>
        <time>2022-04-10T12:54:17Z</time>
      </trkpt>
      <trkpt lat="49.16058" lon="2.01199">
        <ele>166.8</ele>
        <time>2022-04-10T12:54:23Z</time>
      </trkpt>
      <trkpt lat="49.16058" lon="2.01199">
        <ele>166.8</ele>
        <time>2022-04-10T12:54:28Z</time>
      </trkpt>
      <trkpt lat="49.16058" lon="2.01199">
        <ele>166.7</ele>
        <time>2022-04-10T12:54:33Z</time>
      </trkpt>
      <trkpt lat="49.16058" lon="2.012">
        <ele>166.6</ele>
        <time>2022-04-10T12:54:39Z</time>
      </trkpt>
      <trkpt lat="49.1606" lon="2.01204">
        <ele>166</ele>
        <time>2022-04-10T12:54:45Z</time>
      </trkpt>
      <trkpt lat="49.16061" lon="2.01208">
        <ele>165.8</ele>
        <time>2022-04-10T12:54:50Z</time>
      </trkpt>
      <trkpt lat="49.16058" lon="2.01218">
        <ele>166</ele>
        <time>2022-04-10T12:54:55Z</time>
      </trkpt>
      <trkpt lat="49.16056" lon="2.01225">
        <ele>166.6</ele>
        <time>2022-04-10T12:55:00Z</time>
      </trkpt>
      <trkpt lat="49.16054" lon="2.01233">
        <ele>167.3</ele>
        <time>2022-04-10T12:55:06Z</time>
      </trkpt>
      <trkpt lat="49.16052" lon="2.01239">
        <ele>167.9</ele>
        <time>2022-04-10T12:55:11Z</time>
      </trkpt>
      <trkpt lat="49.16049" lon="2.01247">
        <ele>168.6</ele>
        <time>2022-04-10T12:55:17Z</time>
      </trkpt>
      <trkpt lat="49.16048" lon="2.01253">
        <ele>168.8</ele>
        <time>2022-04-10T12:55:23Z</time>
      </trkpt>
      <trkpt lat="49.16046" lon="2.01258">
        <ele>168.8</ele>
        <time>2022-04-10T12:55:28Z</time>
      </trkpt>
      <trkpt lat="49.16043" lon="2.01265">
        <ele>168.8</ele>
        <time>2022-04-10T12:55:33Z</time>
      </trkpt>
      <trkpt lat="49.16041" lon="2.01272">
        <ele>169</ele>
        <time>2022-04-10T12:55:39Z</time>
      </trkpt>
      <trkpt lat="49.1604" lon="2.01279">
        <ele>169.2</ele>
        <time>2022-04-10T12:55:44Z</time>
      </trkpt>
      <trkpt lat="49.16039" lon="2.01288">
        <ele>169.4</ele>
        <time>2022-04-10T12:55:50Z</time>
      </trkpt>
      <trkpt lat="49.16038" lon="2.01298">
        <ele>169.6</ele>
        <time>2022-04-10T12:55:56Z</time>
      </trkpt>
      <trkpt lat="49.16034" lon="2.01306">
        <ele>169.5</ele>
        <time>2022-04-10T12:56:01Z</time>
      </trkpt>
      <trkpt lat="49.16029" lon="2.01314">
        <ele>169.1</ele>
        <time>2022-04-10T12:56:07Z</time>
      </trkpt>
      <trkpt lat="49.16025" lon="2.0132">
        <ele>168.9</ele>
        <time>2022-04-10T12:56:12Z</time>
      </trkpt>
      <trkpt lat="49.16019" lon="2.01325">
        <ele>168.8</ele>
        <time>2022-04-10T12:56:18Z</time>
      </trkpt>
      <trkpt lat="49.16013" lon="2.01332">
        <ele>168.4</ele>
        <time>2022-04-10T12:56:24Z</time>
      </trkpt>
      <trkpt lat="49.16006" lon="2.0134">
        <ele>168.1</ele>
        <time>2022-04-10T12:56:30Z</time>
      </trkpt>
      <trkpt lat="49.15999" lon="2.01349">
        <ele>167.8</ele>
        <time>2022-04-10T12:56:36Z</time>
      </trkpt>
      <trkpt lat="49.15992" lon="2.01356">
        <ele>167.8</ele>
        <time>2022-04-10T12:56:41Z</time>
      </trkpt>
      <trkpt lat="49.15984" lon="2.01363">
        <ele>168</ele>
        <time>2022-04-10T12:56:47Z</time>
      </trkpt>
      <trkpt lat="49.15976" lon="2.01368">
        <ele>168.2</ele>
        <time>2022-04-10T12:56:53Z</time>
      </trkpt>
      <trkpt lat="49.15969" lon="2.01375">
        <ele>168.2</ele>
        <time>2022-04-10T12:56:59Z</time>
      </trkpt>
      <trkpt lat="49.15963" lon="2.01383">
        <ele>168.1</ele>
        <time>2022-04-10T12:57:04Z</time>
      </trkpt>
      <trkpt lat="49.15956" lon="2.01389">
        <ele>168</ele>
        <time>2022-04-10T12:57:09Z</time>
      </trkpt>
      <trkpt lat="49.15949" lon="2.01394">
        <ele>168.1</ele>
        <time>2022-04-10T12:57:15Z</time>
      </trkpt>
      <trkpt lat="49.15942" lon="2.01397">
        <ele>167.8</ele>
        <time>2022-04-10T12:57:20Z</time>
      </trkpt>
      <trkpt lat="49.15934" lon="2.01403">
        <ele>167.4</ele>
        <time>2022-04-10T12:57:26Z</time>
      </trkpt>
      <trkpt lat="49.15927" lon="2.0141">
        <ele>167</ele>
        <time>2022-04-10T12:57:31Z</time>
      </trkpt>
      <trkpt lat="49.15921" lon="2.01417">
        <ele>166.7</ele>
        <time>2022-04-10T12:57:37Z</time>
      </trkpt>
      <trkpt lat="49.15914" lon="2.01424">
        <ele>166.4</ele>
        <time>2022-04-10T12:57:42Z</time>
      </trkpt>
      <trkpt lat="49.15907" lon="2.01432">
        <ele>166.2</ele>
        <time>2022-04-10T12:57:47Z</time>
      </trkpt>
      <trkpt lat="49.159" lon="2.01439">
        <ele>166.1</ele>
        <time>2022-04-10T12:57:53Z</time>
      </trkpt>
      <trkpt lat="49.15894" lon="2.01445">
        <ele>166.3</ele>
        <time>2022-04-10T12:57:58Z</time>
      </trkpt>
      <trkpt lat="49.15887" lon="2.01453">
        <ele>166.5</ele>
        <time>2022-04-10T12:58:04Z</time>
      </trkpt>
      <trkpt lat="49.15881" lon="2.01458">
        <ele>166.7</ele>
        <time>2022-04-10T12:58:09Z</time>
      </trkpt>
      <trkpt lat="49.15875" lon="2.01465">
        <ele>166.7</ele>
        <time>2022-04-10T12:58:14Z</time>
      </trkpt>
      <trkpt lat="49.15868" lon="2.01472">
        <ele>166.4</ele>
        <time>2022-04-10T12:58:20Z</time>
      </trkpt>
      <trkpt lat="49.15862" lon="2.01478">
        <ele>166.3</ele>
        <time>2022-04-10T12:58:25Z</time>
      </trkpt>
      <trkpt lat="49.15858" lon="2.01485">
        <ele>166.1</ele>
        <time>2022-04-10T12:58:30Z</time>
      </trkpt>
      <trkpt lat="49.15852" lon="2.01491">
        <ele>166.1</ele>
        <time>2022-04-10T12:58:36Z</time>
      </trkpt>
      <trkpt lat="49.15846" lon="2.01497">
        <ele>166.1</ele>
        <time>2022-04-10T12:58:41Z</time>
      </trkpt>
      <trkpt lat="49.15839" lon="2.01501">
        <ele>166.1</ele>
        <time>2022-04-10T12:58:47Z</time>
      </trkpt>
      <trkpt lat="49.15833" lon="2.01508">
        <ele>166.1</ele>
        <time>2022-04-10T12:58:53Z</time>
      </trkpt>
      <trkpt lat="49.15827" lon="2.01513">
        <ele>166</ele>
        <time>2022-04-10T12:58:58Z</time>
      </trkpt>
      <trkpt lat="49.15821" lon="2.0152">
        <ele>165.8</ele>
        <time>2022-04-10T12:59:04Z</time>
      </trkpt>
      <trkpt lat="49.15816" lon="2.01527">
        <ele>165.5</ele>
        <time>2022-04-10T12:59:10Z</time>
      </trkpt>
      <trkpt lat="49.15811" lon="2.01534">
        <ele>165</ele>
        <time>2022-04-10T12:59:15Z</time>
      </trkpt>
      <trkpt lat="49.15805" lon="2.01543">
        <ele>164.6</ele>
        <time>2022-04-10T12:59:21Z</time>
      </trkpt>
      <trkpt lat="49.15801" lon="2.0155">
        <ele>164.6</ele>
        <time>2022-04-10T12:59:26Z</time>
      </trkpt>
      <trkpt lat="49.15797" lon="2.01556">
        <ele>164.9</ele>
        <time>2022-04-10T12:59:31Z</time>
      </trkpt>
      <trkpt lat="49.1579" lon="2.01563">
        <ele>165.5</ele>
        <time>2022-04-10T12:59:37Z</time>
      </trkpt>
      <trkpt lat="49.15784" lon="2.0157">
        <ele>166.2</ele>
        <time>2022-04-10T12:59:43Z</time>
      </trkpt>
      <trkpt lat="49.15779" lon="2.01575">
        <ele>167</ele>
        <time>2022-04-10T12:59:48Z</time>
      </trkpt>
      <trkpt lat="49.15774" lon="2.01581">
        <ele>167.8</ele>
        <time>2022-04-10T12:59:54Z</time>
      </trkpt>
      <trkpt lat="49.15766" lon="2.01588">
        <ele>168.7</ele>
        <time>2022-04-10T13:00:00Z</time>
      </trkpt>
      <trkpt lat="49.15761" lon="2.01593">
        <ele>169.3</ele>
        <time>2022-04-10T13:00:05Z</time>
      </trkpt>
      <trkpt lat="49.15755" lon="2.01598">
        <ele>170.2</ele>
        <time>2022-04-10T13:00:11Z</time>
      </trkpt>
      <trkpt lat="49.15749" lon="2.01603">
        <ele>171</ele>
        <time>2022-04-10T13:00:17Z</time>
      </trkpt>
      <trkpt lat="49.15743" lon="2.01609">
        <ele>171.4</ele>
        <time>2022-04-10T13:00:22Z</time>
      </trkpt>
      <trkpt lat="49.15736" lon="2.01614">
        <ele>171.5</ele>
        <time>2022-04-10T13:00:27Z</time>
      </trkpt>
      <trkpt lat="49.1573" lon="2.01619">
        <ele>171.4</ele>
        <time>2022-04-10T13:00:33Z</time>
      </trkpt>
      <trkpt lat="49.15723" lon="2.01623">
        <ele>171.1</ele>
        <time>2022-04-10T13:00:39Z</time>
      </trkpt>
      <trkpt lat="49.15717" lon="2.01628">
        <ele>170.8</ele>
        <time>2022-04-10T13:00:45Z</time>
      </trkpt>
      <trkpt lat="49.1571" lon="2.01634">
        <ele>170.4</ele>
        <time>2022-04-10T13:00:51Z</time>
      </trkpt>
      <trkpt lat="49.15704" lon="2.01639">
        <ele>170.1</ele>
        <time>2022-04-10T13:00:56Z</time>
      </trkpt>
      <trkpt lat="49.15698" lon="2.01645">
        <ele>169.9</ele>
        <time>2022-04-10T13:01:01Z</time>
      </trkpt>
      <trkpt lat="49.15691" lon="2.01653">
        <ele>169.8</ele>
        <time>2022-04-10T13:01:07Z</time>
      </trkpt>
      <trkpt lat="49.15685" lon="2.01661">
        <ele>169.9</ele>
        <time>2022-04-10T13:01:13Z</time>
      </trkpt>
      <trkpt lat="49.15678" lon="2.01669">
        <ele>170.1</ele>
        <time>2022-04-10T13:01:19Z</time>
      </trkpt>
      <trkpt lat="49.15671" lon="2.01676">
        <ele>170.1</ele>
        <time>2022-04-10T13:01:25Z</time>
      </trkpt>
      <trkpt lat="49.15665" lon="2.01685">
        <ele>170.1</ele>
        <time>2022-04-10T13:01:31Z</time>
      </trkpt>
      <trkpt lat="49.1566" lon="2.01691">
        <ele>170.2</ele>
        <time>2022-04-10T13:01:36Z</time>
      </trkpt>
      <trkpt lat="49.15655" lon="2.01699">
        <ele>170.5</ele>
        <time>2022-04-10T13:01:42Z</time>
      </trkpt>
      <trkpt lat="49.15649" lon="2.01709">
        <ele>170.6</ele>
        <time>2022-04-10T13:01:48Z</time>
      </trkpt>
      <trkpt lat="49.15644" lon="2.01717">
        <ele>170.5</ele>
        <time>2022-04-10T13:01:54Z</time>
      </trkpt>
      <trkpt lat="49.15638" lon="2.01726">
        <ele>170.3</ele>
        <time>2022-04-10T13:02:00Z</time>
      </trkpt>
      <trkpt lat="49.15633" lon="2.01735">
        <ele>170.2</ele>
        <time>2022-04-10T13:02:06Z</time>
      </trkpt>
      <trkpt lat="49.15629" lon="2.01741">
        <ele>170</ele>
        <time>2022-04-10T13:02:11Z</time>
      </trkpt>
      <trkpt lat="49.15624" lon="2.01751">
        <ele>169.7</ele>
        <time>2022-04-10T13:02:17Z</time>
      </trkpt>
      <trkpt lat="49.15619" lon="2.01759">
        <ele>169.5</ele>
        <time>2022-04-10T13:02:23Z</time>
      </trkpt>
      <trkpt lat="49.15614" lon="2.01769">
        <ele>169.6</ele>
        <time>2022-04-10T13:02:28Z</time>
      </trkpt>
      <trkpt lat="49.15609" lon="2.01777">
        <ele>169.8</ele>
        <time>2022-04-10T13:02:34Z</time>
      </trkpt>
      <trkpt lat="49.15604" lon="2.01784">
        <ele>169.8</ele>
        <time>2022-04-10T13:02:39Z</time>
      </trkpt>
      <trkpt lat="49.15599" lon="2.01791">
        <ele>169.6</ele>
        <time>2022-04-10T13:02:44Z</time>
      </trkpt>
      <trkpt lat="49.15593" lon="2.01799">
        <ele>169.7</ele>
        <time>2022-04-10T13:02:50Z</time>
      </trkpt>
      <trkpt lat="49.15587" lon="2.01809">
        <ele>169.9</ele>
        <time>2022-04-10T13:02:56Z</time>
      </trkpt>
      <trkpt lat="49.15581" lon="2.01815">
        <ele>170</ele>
        <time>2022-04-10T13:03:01Z</time>
      </trkpt>
      <trkpt lat="49.15574" lon="2.01823">
        <ele>169.8</ele>
        <time>2022-04-10T13:03:07Z</time>
      </trkpt>
      <trkpt lat="49.15568" lon="2.01831">
        <ele>169.5</ele>
        <time>2022-04-10T13:03:13Z</time>
      </trkpt>
      <trkpt lat="49.15561" lon="2.01839">
        <ele>169</ele>
        <time>2022-04-10T13:03:19Z</time>
      </trkpt>
      <trkpt lat="49.15555" lon="2.01849">
        <ele>168.7</ele>
        <time>2022-04-10T13:03:25Z</time>
      </trkpt>
      <trkpt lat="49.1555" lon="2.01856">
        <ele>168.7</ele>
        <time>2022-04-10T13:03:30Z</time>
      </trkpt>
      <trkpt lat="49.15544" lon="2.01865">
        <ele>168.8</ele>
        <time>2022-04-10T13:03:36Z</time>
      </trkpt>
      <trkpt lat="49.15538" lon="2.01874">
        <ele>168.9</ele>
        <time>2022-04-10T13:03:42Z</time>
      </trkpt>
      <trkpt lat="49.15534" lon="2.01882">
        <ele>169.1</ele>
        <time>2022-04-10T13:03:47Z</time>
      </trkpt>
      <trkpt lat="49.15528" lon="2.01891">
        <ele>169.4</ele>
        <time>2022-04-10T13:03:53Z</time>
      </trkpt>
      <trkpt lat="49.15523" lon="2.01898">
        <ele>169.5</ele>
        <time>2022-04-10T13:03:58Z</time>
      </trkpt>
      <trkpt lat="49.15518" lon="2.01906">
        <ele>169.6</ele>
        <time>2022-04-10T13:04:03Z</time>
      </trkpt>
      <trkpt lat="49.15512" lon="2.01915">
        <ele>169.6</ele>
        <time>2022-04-10T13:04:09Z</time>
      </trkpt>
      <trkpt lat="49.15505" lon="2.01924">
        <ele>169.7</ele>
        <time>2022-04-10T13:04:15Z</time>
      </trkpt>
      <trkpt lat="49.155" lon="2.01933">
        <ele>169.8</ele>
        <time>2022-04-10T13:04:20Z</time>
      </trkpt>
      <trkpt lat="49.15494" lon="2.01941">
        <ele>170</ele>
        <time>2022-04-10T13:04:25Z</time>
      </trkpt>
      <trkpt lat="49.15489" lon="2.0195">
        <ele>170.1</ele>
        <time>2022-04-10T13:04:31Z</time>
      </trkpt>
      <trkpt lat="49.15484" lon="2.01958">
        <ele>170.2</ele>
        <time>2022-04-10T13:04:36Z</time>
      </trkpt>
      <trkpt lat="49.15477" lon="2.01965">
        <ele>170</ele>
        <time>2022-04-10T13:04:42Z</time>
      </trkpt>
      <trkpt lat="49.15471" lon="2.01972">
        <ele>169.8</ele>
        <time>2022-04-10T13:04:47Z</time>
      </trkpt>
      <trkpt lat="49.15465" lon="2.01981">
        <ele>169.6</ele>
        <time>2022-04-10T13:04:53Z</time>
      </trkpt>
      <trkpt lat="49.1546" lon="2.01988">
        <ele>169.5</ele>
        <time>2022-04-10T13:04:58Z</time>
      </trkpt>
      <trkpt lat="49.15454" lon="2.01995">
        <ele>169.3</ele>
        <time>2022-04-10T13:05:04Z</time>
      </trkpt>
      <trkpt lat="49.15449" lon="2.02002">
        <ele>169.1</ele>
        <time>2022-04-10T13:05:09Z</time>
      </trkpt>
      <trkpt lat="49.15443" lon="2.02012">
        <ele>168.8</ele>
        <time>2022-04-10T13:05:15Z</time>
      </trkpt>
      <trkpt lat="49.15439" lon="2.0202">
        <ele>168.5</ele>
        <time>2022-04-10T13:05:21Z</time>
      </trkpt>
      <trkpt lat="49.15434" lon="2.02028">
        <ele>168.4</ele>
        <time>2022-04-10T13:05:27Z</time>
      </trkpt>
      <trkpt lat="49.1543" lon="2.02035">
        <ele>168.4</ele>
        <time>2022-04-10T13:05:32Z</time>
      </trkpt>
      <trkpt lat="49.15425" lon="2.02044">
        <ele>168.2</ele>
        <time>2022-04-10T13:05:37Z</time>
      </trkpt>
      <trkpt lat="49.15419" lon="2.02054">
        <ele>168.3</ele>
        <time>2022-04-10T13:05:43Z</time>
      </trkpt>
      <trkpt lat="49.15413" lon="2.02063">
        <ele>168.6</ele>
        <time>2022-04-10T13:05:49Z</time>
      </trkpt>
      <trkpt lat="49.15409" lon="2.0207">
        <ele>169</ele>
        <time>2022-04-10T13:05:54Z</time>
      </trkpt>
      <trkpt lat="49.15404" lon="2.02077">
        <ele>169.2</ele>
        <time>2022-04-10T13:05:59Z</time>
      </trkpt>
      <trkpt lat="49.15397" lon="2.02084">
        <ele>169</ele>
        <time>2022-04-10T13:06:05Z</time>
      </trkpt>
      <trkpt lat="49.15392" lon="2.02092">
        <ele>168.9</ele>
        <time>2022-04-10T13:06:10Z</time>
      </trkpt>
      <trkpt lat="49.15387" lon="2.021">
        <ele>168.8</ele>
        <time>2022-04-10T13:06:15Z</time>
      </trkpt>
      <trkpt lat="49.15381" lon="2.02109">
        <ele>169</ele>
        <time>2022-04-10T13:06:21Z</time>
      </trkpt>
      <trkpt lat="49.15376" lon="2.02116">
        <ele>168.9</ele>
        <time>2022-04-10T13:06:26Z</time>
      </trkpt>
      <trkpt lat="49.15371" lon="2.02125">
        <ele>168.8</ele>
        <time>2022-04-10T13:06:32Z</time>
      </trkpt>
      <trkpt lat="49.15365" lon="2.02134">
        <ele>168.8</ele>
        <time>2022-04-10T13:06:38Z</time>
      </trkpt>
      <trkpt lat="49.15358" lon="2.02143">
        <ele>168.8</ele>
        <time>2022-04-10T13:06:44Z</time>
      </trkpt>
      <trkpt lat="49.15353" lon="2.02151">
        <ele>168.8</ele>
        <time>2022-04-10T13:06:49Z</time>
      </trkpt>
      <trkpt lat="49.15347" lon="2.02159">
        <ele>168.8</ele>
        <time>2022-04-10T13:06:55Z</time>
      </trkpt>
      <trkpt lat="49.15341" lon="2.02165">
        <ele>168.6</ele>
        <time>2022-04-10T13:07:00Z</time>
      </trkpt>
      <trkpt lat="49.15335" lon="2.02172">
        <ele>168.4</ele>
        <time>2022-04-10T13:07:06Z</time>
      </trkpt>
      <trkpt lat="49.15329" lon="2.02179">
        <ele>168.1</ele>
        <time>2022-04-10T13:07:12Z</time>
      </trkpt>
      <trkpt lat="49.15328" lon="2.02188">
        <ele>167.8</ele>
        <time>2022-04-10T13:07:17Z</time>
      </trkpt>
      <trkpt lat="49.15329" lon="2.02201">
        <ele>167.4</ele>
        <time>2022-04-10T13:07:23Z</time>
      </trkpt>
      <trkpt lat="49.15332" lon="2.02215">
        <ele>167.1</ele>
        <time>2022-04-10T13:07:29Z</time>
      </trkpt>
      <trkpt lat="49.15333" lon="2.02226">
        <ele>166.7</ele>
        <time>2022-04-10T13:07:35Z</time>
      </trkpt>
      <trkpt lat="49.15333" lon="2.02237">
        <ele>166.2</ele>
        <time>2022-04-10T13:07:40Z</time>
      </trkpt>
      <trkpt lat="49.15335" lon="2.0225">
        <ele>165.7</ele>
        <time>2022-04-10T13:07:46Z</time>
      </trkpt>
      <trkpt lat="49.15338" lon="2.02264">
        <ele>165.3</ele>
        <time>2022-04-10T13:07:52Z</time>
      </trkpt>
      <trkpt lat="49.1534" lon="2.02274">
        <ele>165</ele>
        <time>2022-04-10T13:07:57Z</time>
      </trkpt>
      <trkpt lat="49.15342" lon="2.02284">
        <ele>164.7</ele>
        <time>2022-04-10T13:08:02Z</time>
      </trkpt>
      <trkpt lat="49.15343" lon="2.02294">
        <ele>164.6</ele>
        <time>2022-04-10T13:08:07Z</time>
      </trkpt>
      <trkpt lat="49.15346" lon="2.02305">
        <ele>164.4</ele>
        <time>2022-04-10T13:08:12Z</time>
      </trkpt>
      <trkpt lat="49.15349" lon="2.02316">
        <ele>164.2</ele>
        <time>2022-04-10T13:08:17Z</time>
      </trkpt>
      <trkpt lat="49.15351" lon="2.02328">
        <ele>163.8</ele>
        <time>2022-04-10T13:08:23Z</time>
      </trkpt>
      <trkpt lat="49.15355" lon="2.02335">
        <ele>163.5</ele>
        <time>2022-04-10T13:08:28Z</time>
      </trkpt>
      <trkpt lat="49.15359" lon="2.02346">
        <ele>163.2</ele>
        <time>2022-04-10T13:08:34Z</time>
      </trkpt>
      <trkpt lat="49.15362" lon="2.02355">
        <ele>162.9</ele>
        <time>2022-04-10T13:08:39Z</time>
      </trkpt>
      <trkpt lat="49.15365" lon="2.02365">
        <ele>162.6</ele>
        <time>2022-04-10T13:08:44Z</time>
      </trkpt>
      <trkpt lat="49.15368" lon="2.02376">
        <ele>162.2</ele>
        <time>2022-04-10T13:08:50Z</time>
      </trkpt>
      <trkpt lat="49.15371" lon="2.02385">
        <ele>161.8</ele>
        <time>2022-04-10T13:08:55Z</time>
      </trkpt>
      <trkpt lat="49.15374" lon="2.02395">
        <ele>161.4</ele>
        <time>2022-04-10T13:09:01Z</time>
      </trkpt>
      <trkpt lat="49.15376" lon="2.02405">
        <ele>160.8</ele>
        <time>2022-04-10T13:09:06Z</time>
      </trkpt>
      <trkpt lat="49.15379" lon="2.02418">
        <ele>160.5</ele>
        <time>2022-04-10T13:09:12Z</time>
      </trkpt>
      <trkpt lat="49.15381" lon="2.02429">
        <ele>160.4</ele>
        <time>2022-04-10T13:09:17Z</time>
      </trkpt>
      <trkpt lat="49.15384" lon="2.02443">
        <ele>160.4</ele>
        <time>2022-04-10T13:09:23Z</time>
      </trkpt>
      <trkpt lat="49.15386" lon="2.02457">
        <ele>160.1</ele>
        <time>2022-04-10T13:09:29Z</time>
      </trkpt>
      <trkpt lat="49.15388" lon="2.02469">
        <ele>159.9</ele>
        <time>2022-04-10T13:09:35Z</time>
      </trkpt>
      <trkpt lat="49.15389" lon="2.02479">
        <ele>159.5</ele>
        <time>2022-04-10T13:09:40Z</time>
      </trkpt>
      <trkpt lat="49.15389" lon="2.0249">
        <ele>159.2</ele>
        <time>2022-04-10T13:09:45Z</time>
      </trkpt>
      <trkpt lat="49.1539" lon="2.02501">
        <ele>158.8</ele>
        <time>2022-04-10T13:09:50Z</time>
      </trkpt>
      <trkpt lat="49.1539" lon="2.02513">
        <ele>158.4</ele>
        <time>2022-04-10T13:09:56Z</time>
      </trkpt>
      <trkpt lat="49.1539" lon="2.02526">
        <ele>158.1</ele>
        <time>2022-04-10T13:10:02Z</time>
      </trkpt>
      <trkpt lat="49.15391" lon="2.02537">
        <ele>157.9</ele>
        <time>2022-04-10T13:10:07Z</time>
      </trkpt>
      <trkpt lat="49.15392" lon="2.02546">
        <ele>157.7</ele>
        <time>2022-04-10T13:10:12Z</time>
      </trkpt>
      <trkpt lat="49.15392" lon="2.02551">
        <ele>157.6</ele>
        <time>2022-04-10T13:10:18Z</time>
      </trkpt>
      <trkpt lat="49.15391" lon="2.02562">
        <ele>157.4</ele>
        <time>2022-04-10T13:10:23Z</time>
      </trkpt>
      <trkpt lat="49.15391" lon="2.02572">
        <ele>157.2</ele>
        <time>2022-04-10T13:10:28Z</time>
      </trkpt>
      <trkpt lat="49.15392" lon="2.02584">
        <ele>156.9</ele>
        <time>2022-04-10T13:10:34Z</time>
      </trkpt>
      <trkpt lat="49.15392" lon="2.02596">
        <ele>156.8</ele>
        <time>2022-04-10T13:10:40Z</time>
      </trkpt>
      <trkpt lat="49.15391" lon="2.02607">
        <ele>156.8</ele>
        <time>2022-04-10T13:10:45Z</time>
      </trkpt>
      <trkpt lat="49.1539" lon="2.02618">
        <ele>157</ele>
        <time>2022-04-10T13:10:50Z</time>
      </trkpt>
      <trkpt lat="49.1539" lon="2.0263">
        <ele>157.2</ele>
        <time>2022-04-10T13:10:56Z</time>
      </trkpt>
      <trkpt lat="49.15391" lon="2.02642">
        <ele>157.2</ele>
        <time>2022-04-10T13:11:01Z</time>
      </trkpt>
      <trkpt lat="49.15392" lon="2.02654">
        <ele>157.1</ele>
        <time>2022-04-10T13:11:07Z</time>
      </trkpt>
      <trkpt lat="49.15394" lon="2.02665">
        <ele>156.9</ele>
        <time>2022-04-10T13:11:13Z</time>
      </trkpt>
      <trkpt lat="49.15395" lon="2.02679">
        <ele>156.7</ele>
        <time>2022-04-10T13:11:19Z</time>
      </trkpt>
      <trkpt lat="49.15388" lon="2.02684">
        <ele>156.6</ele>
        <time>2022-04-10T13:11:25Z</time>
      </trkpt>
      <trkpt lat="49.15381" lon="2.02679">
        <ele>156.7</ele>
        <time>2022-04-10T13:11:30Z</time>
      </trkpt>
      <trkpt lat="49.15373" lon="2.02669">
        <ele>157</ele>
        <time>2022-04-10T13:11:36Z</time>
      </trkpt>
      <trkpt lat="49.15368" lon="2.02662">
        <ele>157.3</ele>
        <time>2022-04-10T13:11:41Z</time>
      </trkpt>
      <trkpt lat="49.15362" lon="2.02654">
        <ele>157.9</ele>
        <time>2022-04-10T13:11:47Z</time>
      </trkpt>
      <trkpt lat="49.15355" lon="2.02645">
        <ele>158.3</ele>
        <time>2022-04-10T13:11:53Z</time>
      </trkpt>
      <trkpt lat="49.15349" lon="2.02637">
        <ele>158.6</ele>
        <time>2022-04-10T13:11:59Z</time>
      </trkpt>
      <trkpt lat="49.15342" lon="2.02628">
        <ele>158.7</ele>
        <time>2022-04-10T13:12:05Z</time>
      </trkpt>
      <trkpt lat="49.15335" lon="2.02621">
        <ele>158.8</ele>
        <time>2022-04-10T13:12:11Z</time>
      </trkpt>
      <trkpt lat="49.15329" lon="2.02614">
        <ele>158.9</ele>
        <time>2022-04-10T13:12:16Z</time>
      </trkpt>
      <trkpt lat="49.15324" lon="2.02607">
        <ele>158.9</ele>
        <time>2022-04-10T13:12:21Z</time>
      </trkpt>
      <trkpt lat="49.15317" lon="2.02601">
        <ele>159.1</ele>
        <time>2022-04-10T13:12:27Z</time>
      </trkpt>
      <trkpt lat="49.1531" lon="2.02593">
        <ele>159.3</ele>
        <time>2022-04-10T13:12:33Z</time>
      </trkpt>
      <trkpt lat="49.15304" lon="2.02587">
        <ele>159.5</ele>
        <time>2022-04-10T13:12:38Z</time>
      </trkpt>
      <trkpt lat="49.15297" lon="2.02581">
        <ele>159.9</ele>
        <time>2022-04-10T13:12:44Z</time>
      </trkpt>
      <trkpt lat="49.1529" lon="2.02572">
        <ele>160.1</ele>
        <time>2022-04-10T13:12:50Z</time>
      </trkpt>
      <trkpt lat="49.15284" lon="2.02566">
        <ele>160.3</ele>
        <time>2022-04-10T13:12:55Z</time>
      </trkpt>
      <trkpt lat="49.15276" lon="2.02559">
        <ele>160.3</ele>
        <time>2022-04-10T13:13:01Z</time>
      </trkpt>
      <trkpt lat="49.15269" lon="2.02553">
        <ele>160.3</ele>
        <time>2022-04-10T13:13:07Z</time>
      </trkpt>
      <trkpt lat="49.15263" lon="2.02547">
        <ele>160.3</ele>
        <time>2022-04-10T13:13:12Z</time>
      </trkpt>
      <trkpt lat="49.15256" lon="2.02542">
        <ele>160.4</ele>
        <time>2022-04-10T13:13:18Z</time>
      </trkpt>
      <trkpt lat="49.15251" lon="2.02536">
        <ele>160.4</ele>
        <time>2022-04-10T13:13:23Z</time>
      </trkpt>
      <trkpt lat="49.15243" lon="2.02529">
        <ele>160.4</ele>
        <time>2022-04-10T13:13:29Z</time>
      </trkpt>
      <trkpt lat="49.15236" lon="2.02523">
        <ele>160.4</ele>
        <time>2022-04-10T13:13:35Z</time>
      </trkpt>
      <trkpt lat="49.15229" lon="2.02516">
        <ele>160.5</ele>
        <time>2022-04-10T13:13:40Z</time>
      </trkpt>
      <trkpt lat="49.15222" lon="2.0251">
        <ele>160.5</ele>
        <time>2022-04-10T13:13:46Z</time>
      </trkpt>
      <trkpt lat="49.15215" lon="2.02503">
        <ele>160.5</ele>
        <time>2022-04-10T13:13:51Z</time>
      </trkpt>
      <trkpt lat="49.15207" lon="2.02497">
        <ele>160.4</ele>
        <time>2022-04-10T13:13:56Z</time>
      </trkpt>
      <trkpt lat="49.152" lon="2.0249">
        <ele>160.3</ele>
        <time>2022-04-10T13:14:02Z</time>
      </trkpt>
      <trkpt lat="49.15193" lon="2.02484">
        <ele>160.2</ele>
        <time>2022-04-10T13:14:08Z</time>
      </trkpt>
      <trkpt lat="49.15185" lon="2.02479">
        <ele>160.4</ele>
        <time>2022-04-10T13:14:14Z</time>
      </trkpt>
      <trkpt lat="49.15178" lon="2.02475">
        <ele>160.5</ele>
        <time>2022-04-10T13:14:19Z</time>
      </trkpt>
      <trkpt lat="49.15171" lon="2.02473">
        <ele>160.6</ele>
        <time>2022-04-10T13:14:24Z</time>
      </trkpt>
      <trkpt lat="49.15164" lon="2.02471">
        <ele>160.7</ele>
        <time>2022-04-10T13:14:29Z</time>
      </trkpt>
      <trkpt lat="49.15156" lon="2.02468">
        <ele>160.9</ele>
        <time>2022-04-10T13:14:35Z</time>
      </trkpt>
      <trkpt lat="49.15148" lon="2.02467">
        <ele>161.1</ele>
        <time>2022-04-10T13:14:41Z</time>
      </trkpt>
      <trkpt lat="49.15141" lon="2.02465">
        <ele>161.1</ele>
        <time>2022-04-10T13:14:46Z</time>
      </trkpt>
      <trkpt lat="49.15134" lon="2.02464">
        <ele>160.9</ele>
        <time>2022-04-10T13:14:51Z</time>
      </trkpt>
      <trkpt lat="49.15125" lon="2.02463">
        <ele>160.7</ele>
        <time>2022-04-10T13:14:57Z</time>
      </trkpt>
      <trkpt lat="49.15116" lon="2.0246">
        <ele>160.5</ele>
        <time>2022-04-10T13:15:03Z</time>
      </trkpt>
      <trkpt lat="49.15108" lon="2.02458">
        <ele>160.4</ele>
        <time>2022-04-10T13:15:08Z</time>
      </trkpt>
      <trkpt lat="49.15099" lon="2.02455">
        <ele>160.3</ele>
        <time>2022-04-10T13:15:14Z</time>
      </trkpt>
      <trkpt lat="49.15092" lon="2.02454">
        <ele>160.2</ele>
        <time>2022-04-10T13:15:19Z</time>
      </trkpt>
      <trkpt lat="49.15085" lon="2.02453">
        <ele>160.2</ele>
        <time>2022-04-10T13:15:24Z</time>
      </trkpt>
      <trkpt lat="49.15078" lon="2.02452">
        <ele>160.2</ele>
        <time>2022-04-10T13:15:29Z</time>
      </trkpt>
      <trkpt lat="49.1507" lon="2.0245">
        <ele>160.3</ele>
        <time>2022-04-10T13:15:35Z</time>
      </trkpt>
      <trkpt lat="49.15063" lon="2.02449">
        <ele>160.3</ele>
        <time>2022-04-10T13:15:40Z</time>
      </trkpt>
      <trkpt lat="49.15054" lon="2.02449">
        <ele>160.2</ele>
        <time>2022-04-10T13:15:46Z</time>
      </trkpt>
      <trkpt lat="49.15047" lon="2.02449">
        <ele>160.1</ele>
        <time>2022-04-10T13:15:51Z</time>
      </trkpt>
      <trkpt lat="49.15039" lon="2.02449">
        <ele>159.9</ele>
        <time>2022-04-10T13:15:57Z</time>
      </trkpt>
      <trkpt lat="49.15032" lon="2.02451">
        <ele>159.6</ele>
        <time>2022-04-10T13:16:03Z</time>
      </trkpt>
      <trkpt lat="49.15025" lon="2.02453">
        <ele>159.5</ele>
        <time>2022-04-10T13:16:08Z</time>
      </trkpt>
      <trkpt lat="49.15016" lon="2.02455">
        <ele>159.5</ele>
        <time>2022-04-10T13:16:14Z</time>
      </trkpt>
      <trkpt lat="49.15008" lon="2.02456">
        <ele>159.4</ele>
        <time>2022-04-10T13:16:20Z</time>
      </trkpt>
      <trkpt lat="49.14999" lon="2.02458">
        <ele>159.2</ele>
        <time>2022-04-10T13:16:26Z</time>
      </trkpt>
      <trkpt lat="49.14991" lon="2.02461">
        <ele>159</ele>
        <time>2022-04-10T13:16:31Z</time>
      </trkpt>
      <trkpt lat="49.14981" lon="2.02463">
        <ele>158.7</ele>
        <time>2022-04-10T13:16:37Z</time>
      </trkpt>
      <trkpt lat="49.14974" lon="2.02464">
        <ele>158.4</ele>
        <time>2022-04-10T13:16:42Z</time>
      </trkpt>
      <trkpt lat="49.14966" lon="2.02468">
        <ele>158</ele>
        <time>2022-04-10T13:16:48Z</time>
      </trkpt>
      <trkpt lat="49.14958" lon="2.02471">
        <ele>157.6</ele>
        <time>2022-04-10T13:16:54Z</time>
      </trkpt>
      <trkpt lat="49.1495" lon="2.02472">
        <ele>157.3</ele>
        <time>2022-04-10T13:17:00Z</time>
      </trkpt>
      <trkpt lat="49.14941" lon="2.02475">
        <ele>157.2</ele>
        <time>2022-04-10T13:17:06Z</time>
      </trkpt>
      <trkpt lat="49.14934" lon="2.02479">
        <ele>157.2</ele>
        <time>2022-04-10T13:17:11Z</time>
      </trkpt>
      <trkpt lat="49.14928" lon="2.02483">
        <ele>157.5</ele>
        <time>2022-04-10T13:17:16Z</time>
      </trkpt>
      <trkpt lat="49.14921" lon="2.02487">
        <ele>157.8</ele>
        <time>2022-04-10T13:17:21Z</time>
      </trkpt>
      <trkpt lat="49.14915" lon="2.02488">
        <ele>158.1</ele>
        <time>2022-04-10T13:17:26Z</time>
      </trkpt>
      <trkpt lat="49.14906" lon="2.02489">
        <ele>158.7</ele>
        <time>2022-04-10T13:17:32Z</time>
      </trkpt>
      <trkpt lat="49.14899" lon="2.02489">
        <ele>159.1</ele>
        <time>2022-04-10T13:17:37Z</time>
      </trkpt>
      <trkpt lat="49.14892" lon="2.02487">
        <ele>159.5</ele>
        <time>2022-04-10T13:17:42Z</time>
      </trkpt>
      <trkpt lat="49.14882" lon="2.02484">
        <ele>159.5</ele>
        <time>2022-04-10T13:17:48Z</time>
      </trkpt>
      <trkpt lat="49.14874" lon="2.0248">
        <ele>159.2</ele>
        <time>2022-04-10T13:17:54Z</time>
      </trkpt>
      <trkpt lat="49.14868" lon="2.02478">
        <ele>159.3</ele>
        <time>2022-04-10T13:17:59Z</time>
      </trkpt>
      <trkpt lat="49.14861" lon="2.02474">
        <ele>159.7</ele>
        <time>2022-04-10T13:18:05Z</time>
      </trkpt>
      <trkpt lat="49.14855" lon="2.02469">
        <ele>160.2</ele>
        <time>2022-04-10T13:18:10Z</time>
      </trkpt>
      <trkpt lat="49.14848" lon="2.02462">
        <ele>160.6</ele>
        <time>2022-04-10T13:18:15Z</time>
      </trkpt>
      <trkpt lat="49.14843" lon="2.02457">
        <ele>161</ele>
        <time>2022-04-10T13:18:20Z</time>
      </trkpt>
      <trkpt lat="49.14837" lon="2.0245">
        <ele>161.4</ele>
        <time>2022-04-10T13:18:26Z</time>
      </trkpt>
      <trkpt lat="49.14831" lon="2.02443">
        <ele>161.7</ele>
        <time>2022-04-10T13:18:31Z</time>
      </trkpt>
      <trkpt lat="49.14825" lon="2.02435">
        <ele>162.2</ele>
        <time>2022-04-10T13:18:37Z</time>
      </trkpt>
      <trkpt lat="49.14819" lon="2.02426">
        <ele>162.6</ele>
        <time>2022-04-10T13:18:43Z</time>
      </trkpt>
      <trkpt lat="49.14813" lon="2.02418">
        <ele>163</ele>
        <time>2022-04-10T13:18:49Z</time>
      </trkpt>
      <trkpt lat="49.14808" lon="2.02412">
        <ele>163.5</ele>
        <time>2022-04-10T13:18:54Z</time>
      </trkpt>
      <trkpt lat="49.14804" lon="2.02406">
        <ele>164.1</ele>
        <time>2022-04-10T13:18:59Z</time>
      </trkpt>
      <trkpt lat="49.14797" lon="2.02398">
        <ele>164.7</ele>
        <time>2022-04-10T13:19:05Z</time>
      </trkpt>
      <trkpt lat="49.14792" lon="2.02391">
        <ele>165.1</ele>
        <time>2022-04-10T13:19:10Z</time>
      </trkpt>
      <trkpt lat="49.14786" lon="2.02384">
        <ele>165.5</ele>
        <time>2022-04-10T13:19:15Z</time>
      </trkpt>
      <trkpt lat="49.14779" lon="2.02375">
        <ele>165.9</ele>
        <time>2022-04-10T13:19:21Z</time>
      </trkpt>
      <trkpt lat="49.14774" lon="2.02368">
        <ele>166.3</ele>
        <time>2022-04-10T13:19:26Z</time>
      </trkpt>
      <trkpt lat="49.14767" lon="2.02361">
        <ele>166.9</ele>
        <time>2022-04-10T13:19:32Z</time>
      </trkpt>
      <trkpt lat="49.14762" lon="2.02355">
        <ele>167.5</ele>
        <time>2022-04-10T13:19:37Z</time>
      </trkpt>
      <trkpt lat="49.14756" lon="2.02348">
        <ele>167.9</ele>
        <time>2022-04-10T13:19:43Z</time>
      </trkpt>
      <trkpt lat="49.14749" lon="2.02342">
        <ele>168.1</ele>
        <time>2022-04-10T13:19:49Z</time>
      </trkpt>
      <trkpt lat="49.14741" lon="2.02335">
        <ele>168.4</ele>
        <time>2022-04-10T13:19:55Z</time>
      </trkpt>
      <trkpt lat="49.14734" lon="2.02329">
        <ele>168.7</ele>
        <time>2022-04-10T13:20:01Z</time>
      </trkpt>
      <trkpt lat="49.14728" lon="2.02325">
        <ele>169</ele>
        <time>2022-04-10T13:20:06Z</time>
      </trkpt>
      <trkpt lat="49.14721" lon="2.0232">
        <ele>169.4</ele>
        <time>2022-04-10T13:20:12Z</time>
      </trkpt>
      <trkpt lat="49.14713" lon="2.02313">
        <ele>169.8</ele>
        <time>2022-04-10T13:20:18Z</time>
      </trkpt>
      <trkpt lat="49.14705" lon="2.02307">
        <ele>170.2</ele>
        <time>2022-04-10T13:20:24Z</time>
      </trkpt>
      <trkpt lat="49.14699" lon="2.02303">
        <ele>170.7</ele>
        <time>2022-04-10T13:20:29Z</time>
      </trkpt>
      <trkpt lat="49.14692" lon="2.02298">
        <ele>171.2</ele>
        <time>2022-04-10T13:20:35Z</time>
      </trkpt>
      <trkpt lat="49.14685" lon="2.02293">
        <ele>171.7</ele>
        <time>2022-04-10T13:20:40Z</time>
      </trkpt>
      <trkpt lat="49.14678" lon="2.02289">
        <ele>172.4</ele>
        <time>2022-04-10T13:20:46Z</time>
      </trkpt>
      <trkpt lat="49.14671" lon="2.02284">
        <ele>173</ele>
        <time>2022-04-10T13:20:52Z</time>
      </trkpt>
      <trkpt lat="49.14665" lon="2.02281">
        <ele>173.5</ele>
        <time>2022-04-10T13:20:57Z</time>
      </trkpt>
      <trkpt lat="49.14657" lon="2.02274">
        <ele>174.1</ele>
        <time>2022-04-10T13:21:03Z</time>
      </trkpt>
      <trkpt lat="49.1465" lon="2.02268">
        <ele>174.5</ele>
        <time>2022-04-10T13:21:08Z</time>
      </trkpt>
      <trkpt lat="49.14643" lon="2.02261">
        <ele>174.9</ele>
        <time>2022-04-10T13:21:14Z</time>
      </trkpt>
      <trkpt lat="49.14637" lon="2.02257">
        <ele>175.4</ele>
        <time>2022-04-10T13:21:19Z</time>
      </trkpt>
      <trkpt lat="49.1463" lon="2.02253">
        <ele>176</ele>
        <time>2022-04-10T13:21:25Z</time>
      </trkpt>
      <trkpt lat="49.14623" lon="2.02247">
        <ele>176.5</ele>
        <time>2022-04-10T13:21:30Z</time>
      </trkpt>
      <trkpt lat="49.14616" lon="2.02242">
        <ele>177</ele>
        <time>2022-04-10T13:21:36Z</time>
      </trkpt>
      <trkpt lat="49.14609" lon="2.02235">
        <ele>177.5</ele>
        <time>2022-04-10T13:21:42Z</time>
      </trkpt>
      <trkpt lat="49.14604" lon="2.02226">
        <ele>178.1</ele>
        <time>2022-04-10T13:21:48Z</time>
      </trkpt>
      <trkpt lat="49.146" lon="2.02217">
        <ele>178.6</ele>
        <time>2022-04-10T13:21:53Z</time>
      </trkpt>
      <trkpt lat="49.14597" lon="2.02205">
        <ele>179.3</ele>
        <time>2022-04-10T13:21:59Z</time>
      </trkpt>
      <trkpt lat="49.14592" lon="2.02192">
        <ele>180</ele>
        <time>2022-04-10T13:22:04Z</time>
      </trkpt>
      <trkpt lat="49.14588" lon="2.0218">
        <ele>180.9</ele>
        <time>2022-04-10T13:22:10Z</time>
      </trkpt>
      <trkpt lat="49.14583" lon="2.02168">
        <ele>181.7</ele>
        <time>2022-04-10T13:22:16Z</time>
      </trkpt>
      <trkpt lat="49.14579" lon="2.02158">
        <ele>182.4</ele>
        <time>2022-04-10T13:22:22Z</time>
      </trkpt>
      <trkpt lat="49.14576" lon="2.0215">
        <ele>182.8</ele>
        <time>2022-04-10T13:22:27Z</time>
      </trkpt>
      <trkpt lat="49.14572" lon="2.02141">
        <ele>183.4</ele>
        <time>2022-04-10T13:22:33Z</time>
      </trkpt>
      <trkpt lat="49.14569" lon="2.02134">
        <ele>184.1</ele>
        <time>2022-04-10T13:22:38Z</time>
      </trkpt>
      <trkpt lat="49.14564" lon="2.02123">
        <ele>184.8</ele>
        <time>2022-04-10T13:22:44Z</time>
      </trkpt>
      <trkpt lat="49.14561" lon="2.02112">
        <ele>185.5</ele>
        <time>2022-04-10T13:22:50Z</time>
      </trkpt>
      <trkpt lat="49.14557" lon="2.02102">
        <ele>185.9</ele>
        <time>2022-04-10T13:22:55Z</time>
      </trkpt>
      <trkpt lat="49.14553" lon="2.02093">
        <ele>186.5</ele>
        <time>2022-04-10T13:23:01Z</time>
      </trkpt>
      <trkpt lat="49.14546" lon="2.02085">
        <ele>186.9</ele>
        <time>2022-04-10T13:23:07Z</time>
      </trkpt>
      <trkpt lat="49.14539" lon="2.0208">
        <ele>187.3</ele>
        <time>2022-04-10T13:23:13Z</time>
      </trkpt>
      <trkpt lat="49.14531" lon="2.02078">
        <ele>187.9</ele>
        <time>2022-04-10T13:23:19Z</time>
      </trkpt>
      <trkpt lat="49.14523" lon="2.02074">
        <ele>188.2</ele>
        <time>2022-04-10T13:23:24Z</time>
      </trkpt>
      <trkpt lat="49.14515" lon="2.02071">
        <ele>188.6</ele>
        <time>2022-04-10T13:23:30Z</time>
      </trkpt>
      <trkpt lat="49.14508" lon="2.02067">
        <ele>188.9</ele>
        <time>2022-04-10T13:23:36Z</time>
      </trkpt>
      <trkpt lat="49.14501" lon="2.02064">
        <ele>189.3</ele>
        <time>2022-04-10T13:23:41Z</time>
      </trkpt>
      <trkpt lat="49.14493" lon="2.02057">
        <ele>189.7</ele>
        <time>2022-04-10T13:23:47Z</time>
      </trkpt>
      <trkpt lat="49.14487" lon="2.02052">
        <ele>190</ele>
        <time>2022-04-10T13:23:52Z</time>
      </trkpt>
      <trkpt lat="49.14479" lon="2.02047">
        <ele>190.3</ele>
        <time>2022-04-10T13:23:58Z</time>
      </trkpt>
      <trkpt lat="49.14473" lon="2.02041">
        <ele>190.5</ele>
        <time>2022-04-10T13:24:03Z</time>
      </trkpt>
      <trkpt lat="49.14467" lon="2.02034">
        <ele>190.7</ele>
        <time>2022-04-10T13:24:08Z</time>
      </trkpt>
      <trkpt lat="49.14462" lon="2.02027">
        <ele>190.7</ele>
        <time>2022-04-10T13:24:13Z</time>
      </trkpt>
      <trkpt lat="49.14455" lon="2.0202">
        <ele>190.8</ele>
        <time>2022-04-10T13:24:19Z</time>
      </trkpt>
      <trkpt lat="49.14448" lon="2.02012">
        <ele>190.9</ele>
        <time>2022-04-10T13:24:25Z</time>
      </trkpt>
      <trkpt lat="49.14443" lon="2.02005">
        <ele>190.8</ele>
        <time>2022-04-10T13:24:30Z</time>
      </trkpt>
      <trkpt lat="49.14437" lon="2.01998">
        <ele>190.6</ele>
        <time>2022-04-10T13:24:36Z</time>
      </trkpt>
      <trkpt lat="49.14432" lon="2.01992">
        <ele>190.7</ele>
        <time>2022-04-10T13:24:41Z</time>
      </trkpt>
      <trkpt lat="49.14427" lon="2.01987">
        <ele>191</ele>
        <time>2022-04-10T13:24:46Z</time>
      </trkpt>
      <trkpt lat="49.1442" lon="2.0198">
        <ele>191.4</ele>
        <time>2022-04-10T13:24:52Z</time>
      </trkpt>
      <trkpt lat="49.14412" lon="2.01974">
        <ele>191.9</ele>
        <time>2022-04-10T13:24:57Z</time>
      </trkpt>
      <trkpt lat="49.14404" lon="2.01964">
        <ele>192.5</ele>
        <time>2022-04-10T13:25:03Z</time>
      </trkpt>
      <trkpt lat="49.14403" lon="2.01965">
        <ele>192.6</ele>
        <time>2022-04-10T13:25:09Z</time>
      </trkpt>
      <trkpt lat="49.14404" lon="2.01964">
        <ele>192.6</ele>
        <time>2022-04-10T13:25:15Z</time>
      </trkpt>
      <trkpt lat="49.14406" lon="2.01965">
        <ele>192.6</ele>
        <time>2022-04-10T13:25:20Z</time>
      </trkpt>
      <trkpt lat="49.14405" lon="2.01969">
        <ele>192.5</ele>
        <time>2022-04-10T13:25:25Z</time>
      </trkpt>
      <trkpt lat="49.14402" lon="2.01978">
        <ele>192</ele>
        <time>2022-04-10T13:25:31Z</time>
      </trkpt>
      <trkpt lat="49.14401" lon="2.01987">
        <ele>191.3</ele>
        <time>2022-04-10T13:25:36Z</time>
      </trkpt>
      <trkpt lat="49.14396" lon="2.02004">
        <ele>190.5</ele>
        <time>2022-04-10T13:25:42Z</time>
      </trkpt>
      <trkpt lat="49.1439" lon="2.02017">
        <ele>190.1</ele>
        <time>2022-04-10T13:25:47Z</time>
      </trkpt>
      <trkpt lat="49.14385" lon="2.02025">
        <ele>189.6</ele>
        <time>2022-04-10T13:25:52Z</time>
      </trkpt>
      <trkpt lat="49.14382" lon="2.02034">
        <ele>189</ele>
        <time>2022-04-10T13:25:58Z</time>
      </trkpt>
      <trkpt lat="49.14381" lon="2.02043">
        <ele>188.8</ele>
        <time>2022-04-10T13:26:04Z</time>
      </trkpt>
      <trkpt lat="49.14378" lon="2.02052">
        <ele>188.5</ele>
        <time>2022-04-10T13:26:09Z</time>
      </trkpt>
      <trkpt lat="49.14372" lon="2.02063">
        <ele>188.1</ele>
        <time>2022-04-10T13:26:15Z</time>
      </trkpt>
      <trkpt lat="49.14368" lon="2.02065">
        <ele>187.7</ele>
        <time>2022-04-10T13:26:20Z</time>
      </trkpt>
      <trkpt lat="49.14363" lon="2.02069">
        <ele>187.6</ele>
        <time>2022-04-10T13:26:26Z</time>
      </trkpt>
      <trkpt lat="49.14363" lon="2.0207">
        <ele>187.7</ele>
        <time>2022-04-10T13:26:31Z</time>
      </trkpt>
      <trkpt lat="49.14358" lon="2.02073">
        <ele>187.9</ele>
        <time>2022-04-10T13:26:37Z</time>
      </trkpt>
      <trkpt lat="49.14351" lon="2.02079">
        <ele>188.4</ele>
        <time>2022-04-10T13:26:43Z</time>
      </trkpt>
      <trkpt lat="49.14347" lon="2.02081">
        <ele>188.9</ele>
        <time>2022-04-10T13:26:48Z</time>
      </trkpt>
      <trkpt lat="49.14342" lon="2.02085">
        <ele>189.5</ele>
        <time>2022-04-10T13:26:54Z</time>
      </trkpt>
      <trkpt lat="49.14338" lon="2.02086">
        <ele>190</ele>
        <time>2022-04-10T13:26:59Z</time>
      </trkpt>
      <trkpt lat="49.14333" lon="2.0209">
        <ele>190.4</ele>
        <time>2022-04-10T13:27:05Z</time>
      </trkpt>
      <trkpt lat="49.14328" lon="2.021">
        <ele>190.7</ele>
        <time>2022-04-10T13:27:11Z</time>
      </trkpt>
      <trkpt lat="49.1432" lon="2.02108">
        <ele>191.1</ele>
        <time>2022-04-10T13:27:17Z</time>
      </trkpt>
      <trkpt lat="49.14316" lon="2.02111">
        <ele>191.2</ele>
        <time>2022-04-10T13:27:22Z</time>
      </trkpt>
      <trkpt lat="49.1431" lon="2.02118">
        <ele>191.2</ele>
        <time>2022-04-10T13:27:28Z</time>
      </trkpt>
      <trkpt lat="49.14304" lon="2.02129">
        <ele>191.7</ele>
        <time>2022-04-10T13:27:34Z</time>
      </trkpt>
      <trkpt lat="49.14299" lon="2.02138">
        <ele>192.4</ele>
        <time>2022-04-10T13:27:40Z</time>
      </trkpt>
      <trkpt lat="49.14294" lon="2.02144">
        <ele>192.8</ele>
        <time>2022-04-10T13:27:45Z</time>
      </trkpt>
      <trkpt lat="49.14288" lon="2.02151">
        <ele>193.1</ele>
        <time>2022-04-10T13:27:50Z</time>
      </trkpt>
      <trkpt lat="49.14286" lon="2.02155">
        <ele>193.6</ele>
        <time>2022-04-10T13:27:56Z</time>
      </trkpt>
      <trkpt lat="49.14286" lon="2.02159">
        <ele>193.7</ele>
        <time>2022-04-10T13:28:02Z</time>
      </trkpt>
      <trkpt lat="49.14286" lon="2.02159">
        <ele>193.7</ele>
        <time>2022-04-10T13:28:07Z</time>
      </trkpt>
    </trkseg>
  </trk>
</gpx>